
Distance (Route):
Temperature : 12.1°C
Humidity : 0%
Pressure : 0hPa| Receiver | Frames | First received | Last received |
|---|---|---|---|
| OM5KV | 840 | 2026-09-01 05:03:30 | 2026-09-01 07:10:19 |
| PETON7-10 | 384 | 2026-09-01 05:22:40 | 2026-09-01 07:06:29 |
| ATIDSZ-14 | 298 | 2026-09-01 05:03:38 | 2026-09-01 07:08:37 |
| OE3JTB-15 | 207 | 2026-09-01 05:00:38 | 2026-09-01 07:09:30 |
| OE5DXL-15 | 122 | 2026-09-01 05:50:14 | 2026-09-01 06:56:02 |
| OE5MMP-10 | 54 | 2026-09-01 06:38:44 | 2026-09-01 06:51:13 |
| SP9KGR-15 | 35 | 2026-09-01 06:11:28 | 2026-09-01 06:24:04 |
| SQ9EZE-15 | 22 | 2026-09-01 05:59:33 | 2026-09-01 06:58:25 |
| SQ9EZE-14 | 20 | 2026-09-01 06:02:14 | 2026-09-01 06:56:01 |
| OE3OSB-13 | 12 | 2026-09-01 05:01:09 | 2026-09-01 06:54:02 |
| GYPAP8-17 | 12 | 2026-09-01 05:53:06 | 2026-09-01 06:55:11 |
| S52SK | 10 | 2026-09-01 05:10:54 | 2026-09-01 05:32:56 |
| SONDE2-11 | 4 | 2026-09-01 06:38:03 | 2026-09-01 06:41:10 |
| NBG1-10 | 3 | 2026-09-01 06:48:45 | 2026-09-01 06:50:09 |
| Receiver | Date | Latitude | Longitude | Direction | Speed | Altitude | Climb | Temperature | Humidity | Pressure | Voltage | Killtimer | Uptime | BKT | XDATA |
|---|---|---|---|---|---|---|---|---|---|---|---|---|---|---|---|
| OM5KV | 2026-09-01 07:10:19 | 48.60249 | 18.97312 | 132° | 47km/h | 1318m | -13.1m/s | 12.1°C | 0% | 0hPa | 0V | 00:00:00 | 00:00:00 | 00:00:00 | |
| OM5KV | 2026-09-01 07:10:13 | 48.60294 | 18.97232 | 132° | 47km/h | 1398m | -13.6m/s | 11.8°C | 0% | 0hPa | 0V | 00:00:00 | 00:00:00 | 00:00:00 | |
| OM5KV | 2026-09-01 07:10:08 | 48.60335 | 18.97168 | 135° | 46km/h | 1466m | -13.8m/s | 11.4°C | 0% | 0hPa | 0V | 00:00:00 | 00:00:00 | 00:00:00 | |
| OM5KV | 2026-09-01 07:10:02 | 48.60384 | 18.97089 | 133° | 47km/h | 1551m | -14.4m/s | 10.9°C | 0% | 0hPa | 0V | 00:00:00 | 00:00:00 | 00:00:00 | |
| OM5KV | 2026-09-01 07:09:51 | 48.60465 | 18.96936 | 129° | 46km/h | 1710m | -14.5m/s | 9.6°C | 0% | 0hPa | 0V | 00:00:00 | 00:00:00 | 00:00:00 | |
| OM5KV | 2026-09-01 07:09:45 | 48.60504 | 18.96852 | 123° | 42km/h | 1797m | -14.7m/s | 9.2°C | 0% | 0hPa | 0V | 00:00:00 | 00:00:00 | 00:00:00 | |
| OM5KV | 2026-09-01 07:09:40 | 48.60532 | 18.96783 | 123° | 44km/h | 1870m | -15.0m/s | 8.5°C | 0% | 0hPa | 0V | 00:00:00 | 00:00:00 | 00:00:00 | |
| OE3JTB-15 | 2026-09-01 07:09:30 | 48.60590 | 18.96632 | 121° | 47km/h | 2036m | -14.7m/s | 0°C | 0% | 0hPa | 0V | 00:00:00 | 00:00:00 | 00:00:00 | |
| OM5KV | 2026-09-01 07:09:29 | 48.60603 | 18.96602 | 123° | 46km/h | 2051m | -15.1m/s | 7.0°C | 0% | 0hPa | 0V | 00:00:00 | 00:00:00 | 00:00:00 | |
| OE3JTB-15 | 2026-09-01 07:09:28 | 48.60603 | 18.96602 | 123° | 46km/h | 2066m | -14.7m/s | 0°C | 0% | 0hPa | 0V | 00:00:00 | 00:00:00 | 00:00:00 | |
| OE3JTB-15 | 2026-09-01 07:09:26 | 48.60615 | 18.96573 | 121° | 44km/h | 2111m | -15.2m/s | 0°C | 0% | 0hPa | 0V | 00:00:00 | 00:00:00 | 00:00:00 | |
| OE3JTB-15 | 2026-09-01 07:09:24 | 48.60626 | 18.96543 | 121° | 44km/h | 2127m | -15.1m/s | 0°C | 0% | 0hPa | 0V | 00:00:00 | 00:00:00 | 00:00:00 | |
| OM5KV | 2026-09-01 07:09:23 | 48.60632 | 18.96528 | 120° | 42km/h | 2127m | -15.1m/s | 6.3°C | 0% | 0hPa | 0V | 00:00:00 | 00:00:00 | 00:00:00 | |
| OE3JTB-15 | 2026-09-01 07:09:20 | 48.60647 | 18.96485 | 117° | 42km/h | 2188m | -15.6m/s | 0°C | 0% | 0hPa | 0V | 00:00:00 | 00:00:00 | 00:00:00 | |
| OM5KV | 2026-09-01 07:09:18 | 48.60662 | 18.96442 | 117° | 42km/h | 2219m | -15.4m/s | 5.7°C | 0% | 0hPa | 0V | 00:00:00 | 00:00:00 | 00:00:00 | |
| OM5KV | 2026-09-01 07:09:12 | 48.60681 | 18.96370 | 111° | 42km/h | 2298m | -16.0m/s | 5.2°C | 0% | 0hPa | 0V | 00:00:00 | 00:00:00 | 00:00:00 | |
| OE3JTB-15 | 2026-09-01 07:09:11 | 48.60684 | 18.96355 | 107° | 44km/h | 2331m | -15.6m/s | 0°C | 0% | 0hPa | 0V | 00:00:00 | 00:00:00 | 00:00:00 | |
| OM5KV | 2026-09-01 07:09:06 | 48.60703 | 18.96275 | 107° | 44km/h | 2392m | -15.4m/s | 4.9°C | 0% | 0hPa | 0V | 00:00:00 | 00:00:00 | 00:00:00 | |
| OE3JTB-15 | 2026-09-01 07:09:02 | 48.60713 | 18.96210 | 104° | 42km/h | 2470m | -15.4m/s | 0°C | 0% | 0hPa | 0V | 00:00:00 | 00:00:00 | 00:00:00 | |
| OM5KV | 2026-09-01 07:09:00 | 48.60718 | 18.96177 | 103° | 44km/h | 2486m | -15.7m/s | 4.6°C | 0% | 0hPa | 0V | 00:00:00 | 00:00:00 | 00:00:00 | |
| OM5KV | 2026-09-01 07:08:55 | 48.60724 | 18.96099 | 96° | 42km/h | 2565m | -15.6m/s | 4.2°C | 0% | 0hPa | 0V | 00:00:00 | 00:00:00 | 00:00:00 | |
| OE3JTB-15 | 2026-09-01 07:08:53 | 48.60726 | 18.96068 | 93° | 37km/h | 2596m | -15.3m/s | 0°C | 0% | 0hPa | 0V | 00:00:00 | 00:00:00 | 00:00:00 | |
| OM5KV | 2026-09-01 07:08:49 | 48.60728 | 18.96006 | 94° | 38km/h | 2658m | -15.5m/s | 3.6°C | 0% | 0hPa | 0V | 00:00:00 | 00:00:00 | 00:00:00 | |
| OM5KV | 2026-09-01 07:08:44 | 48.60729 | 18.95936 | 87° | 33km/h | 2735m | -15.1m/s | 3.5°C | 0% | 0hPa | 0V | 00:00:00 | 00:00:00 | 00:00:00 | |
| OM5KV | 2026-09-01 07:08:39 | 48.60726 | 18.95860 | 87° | 35km/h | 2827m | -15.1m/s | 3.2°C | 0% | 0hPa | 0V | 00:00:00 | 00:00:00 | 00:00:00 | |
| ATIDSZ-14 | 2026-09-01 07:08:37 | 48.60725 | 18.95846 | 86° | 35km/h | 2842m | -15.3m/s | 3.1°C | 0% | 0hPa | 0V | 00:00:00 | 00:00:00 | 00:00:00 | |
| OM5KV | 2026-09-01 07:08:32 | 48.60725 | 18.95777 | 92° | 40km/h | 2919m | -15.5m/s | 3.0°C | 0% | 0hPa | 0V | 00:00:00 | 00:00:00 | 00:00:00 | |
| OE3JTB-15 | 2026-09-01 07:08:28 | 48.60726 | 18.95712 | 95° | 42km/h | 2997m | -15.1m/s | 0°C | 0% | 0hPa | 0V | 00:00:00 | 00:00:00 | 00:00:00 | |
| OM5KV | 2026-09-01 07:08:26 | 48.60728 | 18.95678 | 94° | 44km/h | 3013m | -15.1m/s | 2.7°C | 0% | 0hPa | 0V | 00:00:00 | 00:00:00 | 00:00:00 | |
| OM5KV | 2026-09-01 07:08:16 | 48.60732 | 18.95513 | 90° | 42km/h | 3166m | -15.1m/s | 1.7°C | 0% | 0hPa | 0V | 00:00:00 | 00:00:00 | 00:00:00 | |
| ATIDSZ-14 | 2026-09-01 07:08:14 | 48.60731 | 18.95482 | 88° | 42km/h | 3197m | -15.1m/s | 1.5°C | 0% | 0hPa | 0V | 00:00:00 | 00:00:00 | 00:00:00 | |
| OM5KV | 2026-09-01 07:08:05 | 48.60721 | 18.95351 | 88° | 37km/h | 3335m | -15.3m/s | 0.6°C | 0% | 0hPa | 0V | 00:00:00 | 00:00:00 | 00:00:00 | |
| OM5KV | 2026-09-01 07:07:58 | 48.60720 | 18.95250 | 91° | 38km/h | 3442m | -15.6m/s | 0.0°C | 0% | 0hPa | 0V | 00:00:00 | 00:00:00 | 00:00:00 | |
| ATIDSZ-14 | 2026-09-01 07:07:53 | 48.60721 | 18.95172 | 95° | 42km/h | 3520m | -16.0m/s | -0.3°C | 0% | 0hPa | 0V | 00:00:00 | 00:00:00 | 00:00:00 | |
| OM5KV | 2026-09-01 07:07:49 | 48.60723 | 18.95112 | 94° | 38km/h | 3582m | -14.9m/s | -0.8°C | 0% | 0hPa | 0V | 00:00:00 | 00:00:00 | 00:00:00 | |
| OE3JTB-15 | 2026-09-01 07:07:46 | 48.60725 | 18.95067 | 94° | 44km/h | 3656m | -14.8m/s | 0°C | 0% | 0hPa | 0V | 00:00:00 | 00:00:00 | 00:00:00 | |
| OM5KV | 2026-09-01 07:07:44 | 48.60727 | 18.95036 | 95° | 42km/h | 3656m | -14.9m/s | -1.2°C | 0% | 0hPa | 0V | 00:00:00 | 00:00:00 | 00:00:00 | |
| ATIDSZ-14 | 2026-09-01 07:07:33 | 48.60728 | 18.94857 | 88° | 44km/h | 3823m | -15.2m/s | -2.4°C | 0% | 0hPa | 0V | 00:00:00 | 00:00:00 | 00:00:00 | |
| OM5KV | 2026-09-01 07:07:24 | 48.60720 | 18.94703 | 87° | 42km/h | 3957m | -15.0m/s | -3.6°C | 0% | 0hPa | 0V | 00:00:00 | 00:00:00 | 00:00:00 | |
| OM5KV | 2026-09-01 07:07:18 | 48.60714 | 18.94601 | 87° | 46km/h | 4044m | -14.5m/s | -4.3°C | 0% | 0hPa | 0V | 00:00:00 | 00:00:00 | 00:00:00 | |
| OE3JTB-15 | 2026-09-01 07:07:16 | 48.60711 | 18.94566 | 84° | 49km/h | 4074m | -14.8m/s | 0°C | 0% | 0hPa | 0V | 00:00:00 | 00:00:00 | 00:00:00 | |
| ATIDSZ-14 | 2026-09-01 07:07:12 | 48.60707 | 18.94498 | 86° | 44km/h | 4133m | -14.6m/s | -5.1°C | 0% | 0hPa | 0V | 00:00:00 | 00:00:00 | 00:00:00 | |
| ATIDSZ-14 | 2026-09-01 07:06:52 | 48.60695 | 18.94159 | 92° | 44km/h | 4425m | -14.5m/s | -7.6°C | 0% | 0hPa | 0V | 00:00:00 | 00:00:00 | 00:00:00 | |
| OM5KV | 2026-09-01 07:06:41 | 48.60693 | 18.93949 | 90° | 57km/h | 4583m | -14.6m/s | -8.5°C | 0% | 0hPa | 0V | 00:00:00 | 00:00:00 | 00:00:00 | |
| OE3JTB-15 | 2026-09-01 07:06:35 | 48.60693 | 18.93820 | 92° | 60km/h | 4697m | -14.0m/s | 0°C | 0% | 0hPa | 0V | 00:00:00 | 00:00:00 | 00:00:00 | |
| ATIDSZ-14 | 2026-09-01 07:06:31 | 48.60694 | 18.93732 | 92° | 57km/h | 4725m | -14.1m/s | -9.7°C | 0% | 0hPa | 0V | 00:00:00 | 00:00:00 | 00:00:00 | |
| PETON7-10 | 2026-09-01 07:06:29 | 48.60695 | 18.93689 | 92° | 62km/h | 4767m | -14.1m/s | 0°C | 0% | 0hPa | 0V | 00:00:00 | 00:00:00 | 00:00:00 | |
| PETON7-10 | 2026-09-01 07:06:14 | 48.60712 | 18.93335 | 98° | 58km/h | 4974m | -13.8m/s | 0°C | 0% | 0hPa | 0V | 00:00:00 | 00:00:00 | 00:00:00 | |
| ATIDSZ-14 | 2026-09-01 07:06:11 | 48.60720 | 18.93267 | 102° | 58km/h | 5001m | -13.3m/s | -11.2°C | 0% | 0hPa | 0V | 00:00:00 | 00:00:00 | 00:00:00 | |
| OM5KV | 2026-09-01 07:06:06 | 48.60735 | 18.93158 | 105° | 58km/h | 5070m | -13.6m/s | -11.7°C | 0% | 0hPa | 0V | 00:00:00 | 00:00:00 | 00:00:00 | |
| OE3JTB-15 | 2026-09-01 07:06:02 | 48.60749 | 18.93071 | 104° | 66km/h | 5151m | -13.4m/s | 0°C | 0% | 0hPa | 0V | 00:00:00 | 00:00:00 | 00:00:00 | |
| PETON7-10 | 2026-09-01 07:05:59 | 48.60759 | 18.93003 | 103° | 64km/h | 5178m | -13.8m/s | 0°C | 0% | 0hPa | 0V | 00:00:00 | 00:00:00 | 00:00:00 | |
| OM5KV | 2026-09-01 07:05:58 | 48.60762 | 18.92980 | 105° | 62km/h | 5178m | -13.8m/s | -12.5°C | 0% | 0hPa | 0V | 00:00:00 | 00:00:00 | 00:00:00 | |
| OM5KV | 2026-09-01 07:05:52 | 48.60787 | 18.92840 | 107° | 62km/h | 5258m | -13.1m/s | -12.8°C | 0% | 0hPa | 0V | 00:00:00 | 00:00:00 | 00:00:00 | |
| ATIDSZ-14 | 2026-09-01 07:05:50 | 48.60795 | 18.92793 | 106° | 64km/h | 5284m | -13.2m/s | -13.0°C | 0% | 0hPa | 0V | 00:00:00 | 00:00:00 | 00:00:00 | |
| PETON7-10 | 2026-09-01 07:05:44 | 48.60821 | 18.92645 | 105° | 73km/h | 5376m | -13.0m/s | 0°C | 0% | 0hPa | 0V | 00:00:00 | 00:00:00 | 00:00:00 | |
| OM5KV | 2026-09-01 07:05:37 | 48.60851 | 18.92456 | 104° | 73km/h | 5455m | -12.8m/s | -13.7°C | 0% | 0hPa | 0V | 00:00:00 | 00:00:00 | 00:00:00 | |
| OE3JTB-15 | 2026-09-01 07:05:33 | 48.60868 | 18.92347 | 105° | 75km/h | 5610m | -12.5m/s | 0°C | 0% | 0hPa | 0V | 00:00:00 | 00:00:00 | 00:00:00 | |
| ATIDSZ-14 | 2026-09-01 07:05:32 | 48.60881 | 18.92268 | 105° | 71km/h | 5545m | -12.8m/s | -14.1°C | 0% | 0hPa | 0V | 00:00:00 | 00:00:00 | 00:00:00 | |
| PETON7-10 | 2026-09-01 07:05:29 | 48.60885 | 18.92241 | 104° | 77km/h | 5571m | -12.3m/s | 0°C | 0% | 0hPa | 0V | 00:00:00 | 00:00:00 | 00:00:00 | |
| OM5KV | 2026-09-01 07:05:26 | 48.60897 | 18.92158 | 103° | 77km/h | 5596m | -13.4m/s | -14.1°C | 0% | 0hPa | 0V | 00:00:00 | 00:00:00 | 00:00:00 | |
| OM5KV | 2026-09-01 07:05:20 | 48.60915 | 18.91980 | 97° | 80km/h | 5674m | -12.9m/s | -14.2°C | 0% | 0hPa | 0V | 00:00:00 | 00:00:00 | 00:00:00 | |
| OM5KV | 2026-09-01 07:05:15 | 48.60926 | 18.91833 | 98° | 75km/h | 5740m | -12.9m/s | -14.3°C | 0% | 0hPa | 0V | 00:00:00 | 00:00:00 | 00:00:00 | |
| PETON7-10 | 2026-09-01 07:05:14 | 48.60928 | 18.91805 | 97° | 75km/h | 5766m | -13.0m/s | 0°C | 0% | 0hPa | 0V | 00:00:00 | 00:00:00 | 00:00:00 | |
| ATIDSZ-14 | 2026-09-01 07:05:09 | 48.60939 | 18.91665 | 98° | 73km/h | 5819m | -13.3m/s | -14.4°C | 0% | 0hPa | 0V | 00:00:00 | 00:00:00 | 00:00:00 | |
| OM5KV | 2026-09-01 07:05:06 | 48.60945 | 18.91582 | 96° | 73km/h | 5859m | -13.1m/s | -14.5°C | 0% | 0hPa | 0V | 00:00:00 | 00:00:00 | 00:00:00 | |
| PETON7-10 | 2026-09-01 07:04:59 | 48.60958 | 18.91382 | 94° | 75km/h | 5966m | -13.4m/s | 0°C | 0% | 0hPa | 0V | 00:00:00 | 00:00:00 | 00:00:00 | |
| OE3JTB-15 | 2026-09-01 07:04:58 | 48.60959 | 18.91353 | 94° | 80km/h | 5992m | -13.5m/s | 0°C | 0% | 0hPa | 0V | 00:00:00 | 00:00:00 | 00:00:00 | |
| OM5KV | 2026-09-01 07:04:55 | 48.60962 | 18.91266 | 94° | 75km/h | 6006m | -13.4m/s | -15.0°C | 0% | 0hPa | 0V | 00:00:00 | 00:00:00 | 00:00:00 | |
| ATIDSZ-14 | 2026-09-01 07:04:48 | 48.60973 | 18.91070 | 98° | 75km/h | 6101m | -13.9m/s | -15.5°C | 0% | 0hPa | 0V | 00:00:00 | 00:00:00 | 00:00:00 | |
| PETON7-10 | 2026-09-01 07:04:44 | 48.60984 | 18.90957 | 100° | 78km/h | 6170m | -13.3m/s | 0°C | 0% | 0hPa | 0V | 00:00:00 | 00:00:00 | 00:00:00 | |
| OM5KV | 2026-09-01 07:04:41 | 48.60994 | 18.90871 | 102° | 75km/h | 6197m | -13.7m/s | -15.6°C | 0% | 0hPa | 0V | 00:00:00 | 00:00:00 | 00:00:00 | |
| OM5KV | 2026-09-01 07:04:35 | 48.61012 | 18.90696 | 98° | 80km/h | 6280m | -13.8m/s | -16.1°C | 0% | 0hPa | 0V | 00:00:00 | 00:00:00 | 00:00:00 | |
| OM5KV | 2026-09-01 07:04:30 | 48.61022 | 18.90544 | 96° | 80km/h | 6350m | -14.1m/s | -16.6°C | 0% | 0hPa | 0V | 00:00:00 | 00:00:00 | 00:00:00 | |
| PETON7-10 | 2026-09-01 07:04:29 | 48.61024 | 18.90514 | 95° | 82km/h | 6378m | -14.1m/s | 0°C | 0% | 0hPa | 0V | 00:00:00 | 00:00:00 | 00:00:00 | |
| ATIDSZ-14 | 2026-09-01 07:04:28 | 48.61025 | 18.90483 | 96° | 80km/h | 6378m | -14.2m/s | -16.8°C | 0% | 0hPa | 0V | 00:00:00 | 00:00:00 | 00:00:00 | |
| OM5KV | 2026-09-01 07:04:19 | 48.61041 | 18.90201 | 96° | 82km/h | 6502m | -13.9m/s | -17.8°C | 0% | 0hPa | 0V | 00:00:00 | 00:00:00 | 00:00:00 | |
| PETON7-10 | 2026-09-01 07:04:13 | 48.61053 | 18.90012 | 95° | 84km/h | 6599m | -13.7m/s | 0°C | 0% | 0hPa | 0V | 00:00:00 | 00:00:00 | 00:00:00 | |
| ATIDSZ-14 | 2026-09-01 07:04:07 | 48.61064 | 18.89821 | 95° | 84km/h | 6668m | -14.1m/s | -19.0°C | 0% | 0hPa | 0V | 00:00:00 | 00:00:00 | 00:00:00 | |
| OE3JTB-15 | 2026-09-01 07:04:05 | 48.61067 | 18.89757 | 95° | 88km/h | 6738m | -14.0m/s | 0°C | 0% | 0hPa | 0V | 00:00:00 | 00:00:00 | 00:00:00 | |
| PETON7-10 | 2026-09-01 07:03:58 | 48.61079 | 18.89527 | 95° | 88km/h | 6809m | -14.0m/s | 0°C | 0% | 0hPa | 0V | 00:00:00 | 00:00:00 | 00:00:00 | |
| ATIDSZ-14 | 2026-09-01 07:03:47 | 48.61097 | 18.89161 | 94° | 89km/h | 6951m | -14.0m/s | -21.6°C | 0% | 0hPa | 0V | 00:00:00 | 00:00:00 | 00:00:00 | |
| OM5KV | 2026-09-01 07:03:46 | 48.61098 | 18.89127 | 93° | 88km/h | 6965m | -13.9m/s | -21.7°C | 0% | 0hPa | 0V | 00:00:00 | 00:00:00 | 00:00:00 | |
| PETON7-10 | 2026-09-01 07:03:43 | 48.61099 | 18.89027 | 91° | 86km/h | 7022m | -14.1m/s | 0°C | 0% | 0hPa | 0V | 00:00:00 | 00:00:00 | 00:00:00 | |
| OM5KV | 2026-09-01 07:03:34 | 48.61097 | 18.88726 | 90° | 86km/h | 7138m | -15.2m/s | -22.9°C | 0% | 0hPa | 0V | 00:00:00 | 00:00:00 | 00:00:00 | |
| OE3JTB-15 | 2026-09-01 07:03:32 | 48.61096 | 18.88661 | 89° | 86km/h | 7211m | -14.7m/s | 0°C | 0% | 0hPa | 0V | 00:00:00 | 00:00:00 | 00:00:00 | |
| PETON7-10 | 2026-09-01 07:03:28 | 48.61095 | 18.88532 | 89° | 86km/h | 7240m | -14.7m/s | 0°C | 0% | 0hPa | 0V | 00:00:00 | 00:00:00 | 00:00:00 | |
| ATIDSZ-14 | 2026-09-01 07:03:26 | 48.61095 | 18.88467 | 91° | 84km/h | 7255m | -14.8m/s | -23.8°C | 0% | 0hPa | 0V | 00:00:00 | 00:00:00 | 00:00:00 | |
| PETON7-10 | 2026-09-01 07:03:13 | 48.61084 | 18.88037 | 88° | 86km/h | 7463m | -14.9m/s | 0°C | 0% | 0hPa | 0V | 00:00:00 | 00:00:00 | 00:00:00 | |
| OM5KV | 2026-09-01 07:03:06 | 48.61076 | 18.87806 | 88° | 88km/h | 7555m | -15.2m/s | -26.4°C | 0% | 0hPa | 0V | 00:00:00 | 00:00:00 | 00:00:00 | |
| OE3JTB-15 | 2026-09-01 07:03:00 | 48.61068 | 18.87608 | 87° | 89km/h | 7661m | -15.2m/s | 0°C | 0% | 0hPa | 0V | 00:00:00 | 00:00:00 | 00:00:00 | |
| PETON7-10 | 2026-09-01 07:02:58 | 48.61066 | 18.87542 | 87° | 86km/h | 7691m | -15.2m/s | 0°C | 0% | 0hPa | 0V | 00:00:00 | 00:00:00 | 00:00:00 | |
| ATIDSZ-14 | 2026-09-01 07:02:45 | 48.61046 | 18.87115 | 86° | 88km/h | 7875m | -15.4m/s | -28.7°C | 0% | 0hPa | 0V | 00:00:00 | 00:00:00 | 00:00:00 | |
| OM5KV | 2026-09-01 07:02:44 | 48.61044 | 18.87081 | 86° | 89km/h | 7890m | -15.4m/s | -28.8°C | 0% | 0hPa | 0V | 00:00:00 | 00:00:00 | 00:00:00 | |
| PETON7-10 | 2026-09-01 07:02:43 | 48.61042 | 18.87048 | 86° | 91km/h | 7921m | -15.2m/s | 0°C | 0% | 0hPa | 0V | 00:00:00 | 00:00:00 | 00:00:00 | |
| OM5KV | 2026-09-01 07:02:39 | 48.61034 | 18.86877 | 88° | 89km/h | 7981m | -15.5m/s | -29.5°C | 0% | 0hPa | 0V | 00:00:00 | 00:00:00 | 00:00:00 | |
| OM5KV | 2026-09-01 07:02:32 | 48.61032 | 18.86666 | 92° | 93km/h | 8073m | -15.5m/s | -30.0°C | 0% | 0hPa | 0V | 00:00:00 | 00:00:00 | 00:00:00 | |
| OE3JTB-15 | 2026-09-01 07:02:31 | 48.61032 | 18.86631 | 91° | 93km/h | 8135m | -15.6m/s | 0°C | 0% | 0hPa | 0V | 00:00:00 | 00:00:00 | 00:00:00 | |
| PETON7-10 | 2026-09-01 07:02:28 | 48.61034 | 18.86523 | 92° | 91km/h | 8151m | -15.9m/s | 0°C | 0% | 0hPa | 0V | 00:00:00 | 00:00:00 | 00:00:00 | |
| ATIDSZ-14 | 2026-09-01 07:02:25 | 48.61037 | 18.86416 | 94° | 93km/h | 8182m | -15.9m/s | -30.8°C | 0% | 0hPa | 0V | 00:00:00 | 00:00:00 | 00:00:00 | |
| OM5KV | 2026-09-01 07:02:21 | 48.61041 | 18.86275 | 94° | 93km/h | 8246m | -16.0m/s | -31.3°C | 0% | 0hPa | 0V | 00:00:00 | 00:00:00 | 00:00:00 | |
| OM5KV | 2026-09-01 07:02:15 | 48.61048 | 18.86066 | 93° | 89km/h | 8341m | -16.2m/s | -32.0°C | 0% | 0hPa | 0V | 00:00:00 | 00:00:00 | 00:00:00 | |
| PETON7-10 | 2026-09-01 07:02:13 | 48.61049 | 18.85996 | 94° | 93km/h | 8390m | -15.9m/s | 0°C | 0% | 0hPa | 0V | 00:00:00 | 00:00:00 | 00:00:00 | |
| OM5KV | 2026-09-01 07:02:10 | 48.61053 | 18.85892 | 93° | 91km/h | 8422m | -15.6m/s | -32.6°C | 0% | 0hPa | 0V | 00:00:00 | 00:00:00 | 00:00:00 | |
| ATIDSZ-14 | 2026-09-01 07:02:04 | 48.61061 | 18.85679 | 95° | 95km/h | 8516m | -16.2m/s | -33.4°C | 0% | 0hPa | 0V | 00:00:00 | 00:00:00 | 00:00:00 | |
| PETON7-10 | 2026-09-01 07:01:58 | 48.61070 | 18.85461 | 94° | 95km/h | 8630m | -16.2m/s | 0°C | 0% | 0hPa | 0V | 00:00:00 | 00:00:00 | 00:00:00 | |
| OE3JTB-15 | 2026-09-01 07:01:52 | 48.61079 | 18.85241 | 93° | 95km/h | 8778m | -16.7m/s | 0°C | 0% | 0hPa | 0V | 00:00:00 | 00:00:00 | 00:00:00 | |
| OM5KV | 2026-09-01 07:01:46 | 48.61087 | 18.84989 | 93° | 93km/h | 8828m | -16.5m/s | -35.6°C | 0% | 0hPa | 0V | 00:00:00 | 00:00:00 | 00:00:00 | |
| ATIDSZ-14 | 2026-09-01 07:01:44 | 48.61088 | 18.84953 | 93° | 93km/h | 8845m | -16.5m/s | -35.7°C | 0% | 0hPa | 0V | 00:00:00 | 00:00:00 | 00:00:00 | |
| PETON7-10 | 2026-09-01 07:01:43 | 48.61088 | 18.84918 | 92° | 93km/h | 8878m | -16.2m/s | 0°C | 0% | 0hPa | 0V | 00:00:00 | 00:00:00 | 00:00:00 | |
| OM5KV | 2026-09-01 07:01:39 | 48.61092 | 18.84777 | 95° | 91km/h | 8928m | -16.5m/s | -36.4°C | 0% | 0hPa | 0V | 00:00:00 | 00:00:00 | 00:00:00 | |
| PETON7-10 | 2026-09-01 07:01:28 | 48.61101 | 18.84380 | 90° | 99km/h | 9128m | -16.8m/s | 0°C | 0% | 0hPa | 0V | 00:00:00 | 00:00:00 | 00:00:00 | |
| OM5KV | 2026-09-01 07:01:27 | 48.61100 | 18.84344 | 90° | 95km/h | 9128m | -16.9m/s | -37.7°C | 0% | 0hPa | 0V | 00:00:00 | 00:00:00 | 00:00:00 | |
| OE3JTB-15 | 2026-09-01 07:01:23 | 48.61097 | 18.84197 | 89° | 104km/h | 9211m | -16.7m/s | 0°C | 0% | 0hPa | 0V | 00:00:00 | 00:00:00 | 00:00:00 | |
| OM5KV | 2026-09-01 07:01:19 | 48.61094 | 18.84048 | 90° | 99km/h | 9262m | -16.9m/s | -38.7°C | 0% | 0hPa | 0V | 00:00:00 | 00:00:00 | 00:00:00 | |
| OM5KV | 2026-09-01 07:01:14 | 48.61095 | 18.83857 | 93° | 102km/h | 9347m | -17.2m/s | -39.4°C | 0% | 0hPa | 0V | 00:00:00 | 00:00:00 | 00:00:00 | |
| PETON7-10 | 2026-09-01 07:01:13 | 48.61096 | 18.83817 | 92° | 106km/h | 9381m | -17.2m/s | 0°C | 0% | 0hPa | 0V | 00:00:00 | 00:00:00 | 00:00:00 | |
| OM5KV | 2026-09-01 07:01:07 | 48.61102 | 18.83575 | 93° | 106km/h | 9468m | -17.1m/s | -40.1°C | 0% | 0hPa | 0V | 00:00:00 | 00:00:00 | 00:00:00 | |
| ATIDSZ-14 | 2026-09-01 07:01:03 | 48.61106 | 18.83414 | 94° | 106km/h | 9537m | -17.7m/s | -40.7°C | 0% | 0hPa | 0V | 00:00:00 | 00:00:00 | 00:00:00 | |
| OM5KV | 2026-09-01 07:01:01 | 48.61108 | 18.83332 | 94° | 108km/h | 9573m | -17.2m/s | -40.9°C | 0% | 0hPa | 0V | 00:00:00 | 00:00:00 | 00:00:00 | |
| PETON7-10 | 2026-09-01 07:00:57 | 48.61113 | 18.83171 | 94° | 106km/h | 9661m | -17.4m/s | 0°C | 0% | 0hPa | 0V | 00:00:00 | 00:00:00 | 00:00:00 | |
| OM5KV | 2026-09-01 07:00:54 | 48.61118 | 18.83050 | 93° | 106km/h | 9696m | -17.6m/s | -41.9°C | 0% | 0hPa | 0V | 00:00:00 | 00:00:00 | 00:00:00 | |
| OE3JTB-15 | 2026-09-01 07:00:53 | 48.61119 | 18.83009 | 94° | 108km/h | 9732m | -17.7m/s | 0°C | 0% | 0hPa | 0V | 00:00:00 | 00:00:00 | 00:00:00 | |
| OM5KV | 2026-09-01 07:00:48 | 48.61127 | 18.82807 | 94° | 106km/h | 9803m | -18.1m/s | -43.0°C | 0% | 0hPa | 0V | 00:00:00 | 00:00:00 | 00:00:00 | |
| PETON7-10 | 2026-09-01 07:00:42 | 48.61136 | 18.82565 | 93° | 108km/h | 9929m | -18.1m/s | 0°C | 0% | 0hPa | 0V | 00:00:00 | 00:00:00 | 00:00:00 | |
| OM5KV | 2026-09-01 07:00:36 | 48.61142 | 18.82321 | 93° | 108km/h | 10019m | -17.9m/s | -44.6°C | 0% | 0hPa | 0V | 00:00:00 | 00:00:00 | 00:00:00 | |
| OM5KV | 2026-09-01 07:00:31 | 48.61148 | 18.82113 | 93° | 110km/h | 10109m | -18.1m/s | -45.4°C | 0% | 0hPa | 0V | 00:00:00 | 00:00:00 | 00:00:00 | |
| PETON7-10 | 2026-09-01 07:00:27 | 48.61153 | 18.81947 | 93° | 113km/h | 10201m | -18.3m/s | 0°C | 0% | 0hPa | 0V | 00:00:00 | 00:00:00 | 00:00:00 | |
| OE3JTB-15 | 2026-09-01 07:00:24 | 48.61157 | 18.81821 | 94° | 115km/h | 10238m | -18.2m/s | 0°C | 0% | 0hPa | 0V | 00:00:00 | 00:00:00 | 00:00:00 | |
| ATIDSZ-14 | 2026-09-01 07:00:21 | 48.61161 | 18.81693 | 94° | 113km/h | 10292m | -18.5m/s | -46.8°C | 0% | 0hPa | 0V | 00:00:00 | 00:00:00 | 00:00:00 | |
| OM5KV | 2026-09-01 07:00:20 | 48.61162 | 18.81651 | 93° | 113km/h | 10311m | -17.8m/s | -46.9°C | 0% | 0hPa | 0V | 00:00:00 | 00:00:00 | 00:00:00 | |
| OM5KV | 2026-09-01 07:00:13 | 48.61171 | 18.81345 | 92° | 117km/h | 10438m | -18.4m/s | -48.0°C | 0% | 0hPa | 0V | 00:00:00 | 00:00:00 | 00:00:00 | |
| PETON7-10 | 2026-09-01 07:00:12 | 48.61172 | 18.81301 | 92° | 117km/h | 10475m | -18.3m/s | 0°C | 0% | 0hPa | 0V | 00:00:00 | 00:00:00 | 00:00:00 | |
| OM5KV | 2026-09-01 07:00:07 | 48.61177 | 18.81080 | 93° | 115km/h | 10549m | -18.1m/s | -48.9°C | 0% | 0hPa | 0V | 00:00:00 | 00:00:00 | 00:00:00 | |
| ATIDSZ-14 | 2026-09-01 07:00:00 | 48.61183 | 18.80771 | 92° | 117km/h | 10677m | -18.6m/s | -50.0°C | 0% | 0hPa | 0V | 00:00:00 | 00:00:00 | 00:00:00 | |
| PETON7-10 | 2026-09-01 06:59:57 | 48.61184 | 18.80636 | 91° | 119km/h | 10752m | -18.6m/s | 0°C | 0% | 0hPa | 0V | 00:00:00 | 00:00:00 | 00:00:00 | |
| OE3JTB-15 | 2026-09-01 06:59:55 | 48.61184 | 18.80545 | 91° | 120km/h | 10790m | -18.8m/s | 0°C | 0% | 0hPa | 0V | 00:00:00 | 00:00:00 | 00:00:00 | |
| OM5KV | 2026-09-01 06:59:44 | 48.61182 | 18.80043 | 90° | 119km/h | 10977m | -19.0m/s | -52.2°C | 0% | 0hPa | 0V | 00:00:00 | 00:00:00 | 00:00:00 | |
| PETON7-10 | 2026-09-01 06:59:42 | 48.61181 | 18.79952 | 89° | 122km/h | 11034m | -19.1m/s | 0°C | 0% | 0hPa | 0V | 00:00:00 | 00:00:00 | 00:00:00 | |
| ATIDSZ-14 | 2026-09-01 06:59:39 | 48.61177 | 18.79814 | 88° | 120km/h | 11073m | -19.4m/s | -53.0°C | 0% | 0hPa | 0V | 00:00:00 | 00:00:00 | 00:00:00 | |
| OM5KV | 2026-09-01 06:59:33 | 48.61168 | 18.79535 | 88° | 124km/h | 11188m | -19.2m/s | -53.7°C | 0% | 0hPa | 0V | 00:00:00 | 00:00:00 | 00:00:00 | |
| PETON7-10 | 2026-09-01 06:59:27 | 48.61155 | 18.79252 | 87° | 119km/h | 11321m | -19.2m/s | 0°C | 0% | 0hPa | 0V | 00:00:00 | 00:00:00 | 00:00:00 | |
| ATIDSZ-14 | 2026-09-01 06:59:18 | 48.61148 | 18.78841 | 91° | 117km/h | 11474m | -19.0m/s | -55.3°C | 0% | 0hPa | 0V | 00:00:00 | 00:00:00 | 00:00:00 | |
| OM5KV | 2026-09-01 06:59:17 | 48.61149 | 18.78752 | 90° | 115km/h | 11512m | -19.4m/s | -55.4°C | 0% | 0hPa | 0V | 00:00:00 | 00:00:00 | 00:00:00 | |
| PETON7-10 | 2026-09-01 06:59:12 | 48.61145 | 18.78576 | 87° | 119km/h | 11608m | -19.5m/s | 0°C | 0% | 0hPa | 0V | 00:00:00 | 00:00:00 | 00:00:00 | |
| OM5KV | 2026-09-01 06:59:11 | 48.61143 | 18.78532 | 87° | 115km/h | 11608m | -19.6m/s | -55.8°C | 0% | 0hPa | 0V | 00:00:00 | 00:00:00 | 00:00:00 | |
| OM5KV | 2026-09-01 06:59:05 | 48.61130 | 18.78264 | 87° | 120km/h | 11725m | -19.2m/s | -56.2°C | 0% | 0hPa | 0V | 00:00:00 | 00:00:00 | 00:00:00 | |
| ATIDSZ-14 | 2026-09-01 06:58:58 | 48.61124 | 18.77942 | 93° | 124km/h | 11860m | -19.1m/s | -56.6°C | 0% | 0hPa | 0V | 00:00:00 | 00:00:00 | 00:00:00 | |
| PETON7-10 | 2026-09-01 06:58:57 | 48.61125 | 18.77894 | 93° | 117km/h | 11898m | -19.1m/s | 0°C | 0% | 0hPa | 0V | 00:00:00 | 00:00:00 | 00:00:00 | |
| OM5KV | 2026-09-01 06:58:54 | 48.61132 | 18.77752 | 96° | 124km/h | 11936m | -18.8m/s | -56.7°C | 0% | 0hPa | 0V | 00:00:00 | 00:00:00 | 00:00:00 | |
| OM5KV | 2026-09-01 06:58:48 | 48.61160 | 18.77477 | 102° | 119km/h | 12051m | -19.1m/s | -56.5°C | 0% | 0hPa | 0V | 00:00:00 | 00:00:00 | 00:00:00 | |
| PETON7-10 | 2026-09-01 06:58:42 | 48.61192 | 18.77234 | 101° | 89km/h | 12187m | -19.5m/s | 0°C | 0% | 0hPa | 0V | 00:00:00 | 00:00:00 | 00:00:00 | |
| ATIDSZ-14 | 2026-09-01 06:58:37 | 48.61209 | 18.77056 | 96° | 89km/h | 12266m | -20.0m/s | -55.3°C | 0% | 0hPa | 0V | 00:00:00 | 00:00:00 | 00:00:00 | |
| OM5KV | 2026-09-01 06:58:29 | 48.61208 | 18.76794 | 87° | 88km/h | 12426m | -20.0m/s | -55.1°C | 0% | 0hPa | 0V | 00:00:00 | 00:00:00 | 00:00:00 | |
| OE3JTB-15 | 2026-09-01 06:58:28 | 48.61207 | 18.76762 | 86° | 104km/h | 12466m | -20.2m/s | 0°C | 0% | 0hPa | 0V | 00:00:00 | 00:00:00 | 00:00:00 | |
| PETON7-10 | 2026-09-01 06:58:27 | 48.61205 | 18.76727 | 86° | 95km/h | 12487m | -20.2m/s | 0°C | 0% | 0hPa | 0V | 00:00:00 | 00:00:00 | 00:00:00 | |
| SQ9EZE-15 | 2026-09-01 06:58:25 | 48.61201 | 18.76658 | 84° | 93km/h | 12507m | -19.9m/s | -54.6°C | 0% | 0hPa | 0V | 00:00:00 | 00:00:00 | 00:00:00 | |
| OM5KV | 2026-09-01 06:58:22 | 48.61189 | 18.76552 | 81° | 95km/h | 12569m | -20.3m/s | -54.6°C | 0% | 0hPa | 0V | 00:00:00 | 00:00:00 | 00:00:00 | |
| OM5KV | 2026-09-01 06:58:16 | 48.61153 | 18.76342 | 72° | 97km/h | 12692m | -20.6m/s | -54.6°C | 0% | 0hPa | 0V | 00:00:00 | 00:00:00 | 00:00:00 | |
| PETON7-10 | 2026-09-01 06:58:12 | 48.61120 | 18.76198 | 71° | 111km/h | 12795m | -20.5m/s | 0°C | 0% | 0hPa | 0V | 00:00:00 | 00:00:00 | 00:00:00 | |
| OM5KV | 2026-09-01 06:58:11 | 48.61111 | 18.76160 | 71° | 108km/h | 12795m | -20.6m/s | -54.6°C | 0% | 0hPa | 0V | 00:00:00 | 00:00:00 | 00:00:00 | |
| OM5KV | 2026-09-01 06:58:05 | 48.61061 | 18.75912 | 77° | 115km/h | 12920m | -20.9m/s | -54.6°C | 0% | 0hPa | 0V | 00:00:00 | 00:00:00 | 00:00:00 | |
| OM5KV | 2026-09-01 06:58:00 | 48.61034 | 18.75702 | 82° | 111km/h | 13026m | -20.9m/s | -54.2°C | 0% | 0hPa | 0V | 00:00:00 | 00:00:00 | 00:00:00 | |
| OE3JTB-15 | 2026-09-01 06:57:59 | 48.61030 | 18.75660 | 82° | 95km/h | 13068m | -21.2m/s | 0°C | 0% | 0hPa | 0V | 00:00:00 | 00:00:00 | 00:00:00 | |
| PETON7-10 | 2026-09-01 06:57:57 | 48.61022 | 18.75577 | 83° | 99km/h | 13110m | -21.0m/s | 0°C | 0% | 0hPa | 0V | 00:00:00 | 00:00:00 | 00:00:00 | |
| ATIDSZ-14 | 2026-09-01 06:57:56 | 48.61018 | 18.75536 | 85° | 108km/h | 13110m | -21.0m/s | -53.7°C | 0% | 0hPa | 0V | 00:00:00 | 00:00:00 | 00:00:00 | |
| OM5KV | 2026-09-01 06:57:54 | 48.61012 | 18.75418 | 87° | 102km/h | 13175m | -21.1m/s | -53.1°C | 0% | 0hPa | 0V | 00:00:00 | 00:00:00 | 00:00:00 | |
| OM5KV | 2026-09-01 06:57:47 | 48.61002 | 18.75195 | 88° | 95km/h | 13305m | -21.9m/s | -52.5°C | 0% | 0hPa | 0V | 00:00:00 | 00:00:00 | 00:00:00 | |
| OM5KV | 2026-09-01 06:57:42 | 48.60993 | 18.74982 | 87° | 91km/h | 13437m | -22.3m/s | -52.6°C | 0% | 0hPa | 0V | 00:00:00 | 00:00:00 | 00:00:00 | |
| OM5KV | 2026-09-01 06:57:36 | 48.60984 | 18.74781 | 85° | 88km/h | 13569m | -21.9m/s | -52.2°C | 0% | 0hPa | 0V | 00:00:00 | 00:00:00 | 00:00:00 | |
| ATIDSZ-14 | 2026-09-01 06:57:35 | 48.60984 | 18.74781 | 85° | 88km/h | 13569m | -21.9m/s | -52.2°C | 0% | 0hPa | 0V | 00:00:00 | 00:00:00 | 00:00:00 | |
| OE3JTB-15 | 2026-09-01 06:57:30 | 48.60972 | 18.74609 | 87° | 82km/h | 13701m | -22.2m/s | 0°C | 0% | 0hPa | 0V | 00:00:00 | 00:00:00 | 00:00:00 | |
| PETON7-10 | 2026-09-01 06:57:27 | 48.60967 | 18.74503 | 88° | 82km/h | 13767m | -21.9m/s | 0°C | 0% | 0hPa | 0V | 00:00:00 | 00:00:00 | 00:00:00 | |
| OM5KV | 2026-09-01 06:57:25 | 48.60964 | 18.74401 | 88° | 86km/h | 13812m | -22.4m/s | -51.5°C | 0% | 0hPa | 0V | 00:00:00 | 00:00:00 | 00:00:00 | |
| OM5KV | 2026-09-01 06:57:19 | 48.60958 | 18.74244 | 88° | 80km/h | 13925m | -22.4m/s | -51.5°C | 0% | 0hPa | 0V | 00:00:00 | 00:00:00 | 00:00:00 | |
| ATIDSZ-14 | 2026-09-01 06:57:15 | 48.60955 | 18.74097 | 90° | 75km/h | 14038m | -22.3m/s | -51.8°C | 0% | 0hPa | 0V | 00:00:00 | 00:00:00 | 00:00:00 | |
| OM5KV | 2026-09-01 06:57:13 | 48.60955 | 18.74068 | 90° | 75km/h | 14060m | -22.0m/s | -51.8°C | 0% | 0hPa | 0V | 00:00:00 | 00:00:00 | 00:00:00 | |
| PETON7-10 | 2026-09-01 06:57:12 | 48.60955 | 18.74040 | 90° | 73km/h | 14104m | -22.3m/s | 0°C | 0% | 0hPa | 0V | 00:00:00 | 00:00:00 | 00:00:00 | |
| OM5KV | 2026-09-01 06:57:07 | 48.60955 | 18.73895 | 89° | 75km/h | 14195m | -23.0m/s | -52.2°C | 0% | 0hPa | 0V | 00:00:00 | 00:00:00 | 00:00:00 | |
| OM5KV | 2026-09-01 06:57:02 | 48.60947 | 18.73759 | 83° | 69km/h | 14310m | -23.1m/s | -52.1°C | 0% | 0hPa | 0V | 00:00:00 | 00:00:00 | 00:00:00 | |
| OE3JTB-15 | 2026-09-01 06:57:01 | 48.60945 | 18.73733 | 82° | 40km/h | 14543m | -23.3m/s | 0°C | 0% | 0hPa | 0V | 00:00:00 | 00:00:00 | 00:00:00 | |
| PETON7-10 | 2026-09-01 06:56:57 | 48.60932 | 18.73629 | 78° | 73km/h | 14449m | -23.5m/s | 0°C | 0% | 0hPa | 0V | 00:00:00 | 00:00:00 | 00:00:00 | |
| OM5KV | 2026-09-01 06:56:56 | 48.60929 | 18.73603 | 78° | 68km/h | 14449m | -23.6m/s | -52.0°C | 0% | 0hPa | 0V | 00:00:00 | 00:00:00 | 00:00:00 | |
| ATIDSZ-14 | 2026-09-01 06:56:54 | 48.60916 | 18.73527 | 77° | 69km/h | 14519m | -23.4m/s | -51.7°C | 0% | 0hPa | 0V | 00:00:00 | 00:00:00 | 00:00:00 | |
| OM5KV | 2026-09-01 06:56:51 | 48.60906 | 18.73476 | 74° | 71km/h | 14566m | -23.2m/s | -51.8°C | 0% | 0hPa | 0V | 00:00:00 | 00:00:00 | 00:00:00 | |
| OM5KV | 2026-09-01 06:56:45 | 48.60866 | 18.73313 | 69° | 80km/h | 14708m | -23.6m/s | -52.2°C | 0% | 0hPa | 0V | 00:00:00 | 00:00:00 | 00:00:00 | |
| PETON7-10 | 2026-09-01 06:56:42 | 48.60845 | 18.73229 | 72° | 66km/h | 14802m | -23.6m/s | 0°C | 0% | 0hPa | 0V | 00:00:00 | 00:00:00 | 00:00:00 | |
| OM5KV | 2026-09-01 06:56:35 | 48.60799 | 18.73001 | 71° | 62km/h | 14993m | -24.0m/s | -51.9°C | 0% | 0hPa | 0V | 00:00:00 | 00:00:00 | 00:00:00 | |
| ATIDSZ-14 | 2026-09-01 06:56:33 | 48.60793 | 18.72980 | 69° | 60km/h | 15017m | -23.9m/s | -51.9°C | 0% | 0hPa | 0V | 00:00:00 | 00:00:00 | 00:00:00 | |
| PETON7-10 | 2026-09-01 06:56:27 | 48.60766 | 18.72872 | 71° | 60km/h | 15161m | -24.1m/s | 0°C | 0% | 0hPa | 0V | 00:00:00 | 00:00:00 | 00:00:00 | |
| OM5KV | 2026-09-01 06:56:26 | 48.60761 | 18.72849 | 72° | 62km/h | 15161m | -24.1m/s | -52.2°C | 0% | 0hPa | 0V | 00:00:00 | 00:00:00 | 00:00:00 | |
| OM5KV | 2026-09-01 06:56:21 | 48.60736 | 18.72734 | 75° | 64km/h | 15284m | -24.4m/s | -52.8°C | 0% | 0hPa | 0V | 00:00:00 | 00:00:00 | 00:00:00 | |
| OM5KV | 2026-09-01 06:56:15 | 48.60711 | 18.72601 | 73° | 55km/h | 15430m | -24.3m/s | -52.6°C | 0% | 0hPa | 0V | 00:00:00 | 00:00:00 | 00:00:00 | |
| PETON7-10 | 2026-09-01 06:56:12 | 48.60697 | 18.72542 | 66° | 62km/h | 15527m | -24.6m/s | 0°C | 0% | 0hPa | 0V | 00:00:00 | 00:00:00 | 00:00:00 | |
| ATIDSZ-14 | 2026-09-01 06:56:11 | 48.60691 | 18.72523 | 66° | 55km/h | 15527m | -24.7m/s | -53.1°C | 0% | 0hPa | 0V | 00:00:00 | 00:00:00 | 00:00:00 | |
| OM5KV | 2026-09-01 06:56:09 | 48.60680 | 18.72485 | 68° | 57km/h | 15576m | -24.8m/s | -53.4°C | 0% | 0hPa | 0V | 00:00:00 | 00:00:00 | 00:00:00 | |
| OM5KV | 2026-09-01 06:56:04 | 48.60651 | 18.72378 | 70° | 66km/h | 15702m | -25.4m/s | -54.1°C | 0% | 0hPa | 0V | 00:00:00 | 00:00:00 | 00:00:00 | |
| OE5DXL-15 | 2026-09-01 06:56:02 | 48.60639 | 18.72331 | 69° | 62km/h | 15779m | -25.3m/s | 0°C | 0% | 0hPa | 0V | 00:00:00 | 00:00:00 | 00:00:00 | |
| SQ9EZE-14 | 2026-09-01 06:56:01 | 48.60633 | 18.72307 | 71° | 68km/h | 15779m | -25.3m/s | -54.4°C | 0% | 0hPa | 0V | 00:00:00 | 00:00:00 | 00:00:00 | |
| OM5KV | 2026-09-01 06:55:58 | 48.60615 | 18.72230 | 72° | 73km/h | 15854m | -25.4m/s | -54.4°C | 0% | 0hPa | 0V | 00:00:00 | 00:00:00 | 00:00:00 | |
| PETON7-10 | 2026-09-01 06:55:57 | 48.60608 | 18.72203 | 73° | 66km/h | 15905m | -25.9m/s | 0°C | 0% | 0hPa | 0V | 00:00:00 | 00:00:00 | 00:00:00 | |
| OM5KV | 2026-09-01 06:55:53 | 48.60582 | 18.72070 | 78° | 71km/h | 16010m | -26.1m/s | -53.7°C | 0% | 0hPa | 0V | 00:00:00 | 00:00:00 | 00:00:00 | |
| ATIDSZ-14 | 2026-09-01 06:55:51 | 48.60579 | 18.72043 | 80° | 71km/h | 16036m | -26.0m/s | -53.7°C | 0% | 0hPa | 0V | 00:00:00 | 00:00:00 | 00:00:00 | |
| OM5KV | 2026-09-01 06:55:46 | 48.60568 | 18.71919 | 89° | 60km/h | 16167m | -26.5m/s | -53.6°C | 0% | 0hPa | 0V | 00:00:00 | 00:00:00 | 00:00:00 | |
| PETON7-10 | 2026-09-01 06:55:42 | 48.60571 | 18.71835 | 101° | 51km/h | 16300m | -27.2m/s | 0°C | 0% | 0hPa | 0V | 00:00:00 | 00:00:00 | 00:00:00 | |
| OM5KV | 2026-09-01 06:55:39 | 48.60579 | 18.71777 | 106° | 51km/h | 16355m | -27.2m/s | -53.0°C | 0% | 0hPa | 0V | 00:00:00 | 00:00:00 | 00:00:00 | |
| OM5KV | 2026-09-01 06:55:33 | 48.60605 | 18.71664 | 113° | 53km/h | 16519m | -27.5m/s | -53.6°C | 0% | 0hPa | 0V | 00:00:00 | 00:00:00 | 00:00:00 | |
| OE5DXL-15 | 2026-09-01 06:55:32 | 48.60610 | 18.71645 | 113° | 42km/h | 16601m | -27.6m/s | 0°C | 0% | 0hPa | 0V | 00:00:00 | 00:00:00 | 00:00:00 | |
| ATIDSZ-14 | 2026-09-01 06:55:29 | 48.60625 | 18.71591 | 114° | 49km/h | 16628m | -27.9m/s | -53.8°C | 0% | 0hPa | 0V | 00:00:00 | 00:00:00 | 00:00:00 | |
| PETON7-10 | 2026-09-01 06:55:27 | 48.60634 | 18.71557 | 112° | 35km/h | 16712m | -28.0m/s | 0°C | 0% | 0hPa | 0V | 00:00:00 | 00:00:00 | 00:00:00 | |
| OM5KV | 2026-09-01 06:55:21 | 48.60653 | 18.71474 | 103° | 35km/h | 16852m | -28.1m/s | -53.8°C | 0% | 0hPa | 0V | 00:00:00 | 00:00:00 | 00:00:00 | |
| OM5KV | 2026-09-01 06:55:15 | 48.60655 | 18.71402 | 79° | 31km/h | 17019m | -28.1m/s | -52.4°C | 0% | 0hPa | 0V | 00:00:00 | 00:00:00 | 00:00:00 | |
| PETON7-10 | 2026-09-01 06:55:12 | 48.60646 | 18.71366 | 63° | 47km/h | 17132m | -28.4m/s | 0°C | 0% | 0hPa | 0V | 00:00:00 | 00:00:00 | 00:00:00 | |
| GYPAP8-17 | 2026-09-01 06:55:11 | 48.60641 | 18.71352 | 64° | 40km/h | 17132m | -28.4m/s | -52.3°C | 0% | 0hPa | 0V | 00:00:00 | 00:00:00 | 00:00:00 | |
| ATIDSZ-14 | 2026-09-01 06:55:09 | 48.60627 | 18.71308 | 65° | 46km/h | 17217m | -29.0m/s | -51.5°C | 0% | 0hPa | 0V | 00:00:00 | 00:00:00 | 00:00:00 | |
| OM5KV | 2026-09-01 06:55:04 | 48.60610 | 18.71242 | 76° | 47km/h | 17335m | -29.3m/s | -51.3°C | 0% | 0hPa | 0V | 00:00:00 | 00:00:00 | 00:00:00 | |
| OE5DXL-15 | 2026-09-01 06:55:02 | 48.60605 | 18.71204 | 80° | 33km/h | 17423m | -29.2m/s | 0°C | 0% | 0hPa | 0V | 00:00:00 | 00:00:00 | 00:00:00 | |
| PETON7-10 | 2026-09-01 06:54:57 | 48.60598 | 18.71100 | 93° | 38km/h | 17571m | -29.6m/s | 0°C | 0% | 0hPa | 0V | 00:00:00 | 00:00:00 | 00:00:00 | |
| OM5KV | 2026-09-01 06:54:53 | 48.60603 | 18.71021 | 104° | 47km/h | 17661m | -29.9m/s | -51.2°C | 0% | 0hPa | 0V | 00:00:00 | 00:00:00 | 00:00:00 | |
| OM5KV | 2026-09-01 06:54:48 | 48.60619 | 18.70933 | 104° | 29km/h | 17841m | -29.8m/s | -51.1°C | 0% | 0hPa | 0V | 00:00:00 | 00:00:00 | 00:00:00 | |
| PETON7-10 | 2026-09-01 06:54:42 | 48.60620 | 18.70890 | 73° | 13km/h | 18023m | -30.4m/s | 0°C | 0% | 0hPa | 0V | 00:00:00 | 00:00:00 | 00:00:00 | |
| OM5KV | 2026-09-01 06:54:36 | 48.60609 | 18.70864 | 37° | 13km/h | 18176m | -30.6m/s | -52.3°C | 0% | 0hPa | 0V | 00:00:00 | 00:00:00 | 00:00:00 | |
| OE5DXL-15 | 2026-09-01 06:54:32 | 48.60599 | 18.70857 | 20° | 22km/h | 18330m | -30.7m/s | 0°C | 0% | 0hPa | 0V | 00:00:00 | 00:00:00 | 00:00:00 | |
| OM5KV | 2026-09-01 06:54:31 | 48.60592 | 18.70854 | 17° | 13km/h | 18360m | -31.0m/s | -52.9°C | 0% | 0hPa | 0V | 00:00:00 | 00:00:00 | 00:00:00 | |
| PETON7-10 | 2026-09-01 06:54:27 | 48.60583 | 18.70851 | 12° | 22km/h | 18487m | -31.5m/s | 0°C | 0% | 0hPa | 0V | 00:00:00 | 00:00:00 | 00:00:00 | |
| OM5KV | 2026-09-01 06:54:24 | 48.60571 | 18.70846 | 25° | 20km/h | 18551m | -31.7m/s | -53.2°C | 0% | 0hPa | 0V | 00:00:00 | 00:00:00 | 00:00:00 | |
| OM5KV | 2026-09-01 06:54:18 | 48.60544 | 18.70817 | 46° | 24km/h | 18743m | -32.0m/s | -53.0°C | 0% | 0hPa | 0V | 00:00:00 | 00:00:00 | 00:00:00 | |
| PETON7-10 | 2026-09-01 06:54:12 | 48.60521 | 18.70771 | 60° | 31km/h | 18970m | -32.3m/s | 0°C | 0% | 0hPa | 0V | 00:00:00 | 00:00:00 | 00:00:00 | |
| OM5KV | 2026-09-01 06:54:06 | 48.60502 | 18.70708 | 71° | 31km/h | 19132m | -32.7m/s | -54.1°C | 0% | 0hPa | 0V | 00:00:00 | 00:00:00 | 00:00:00 | |
| ATIDSZ-14 | 2026-09-01 06:54:04 | 48.60497 | 18.70686 | 72° | 31km/h | 19198m | -33.0m/s | -53.8°C | 0% | 0hPa | 0V | 00:00:00 | 00:00:00 | 00:00:00 | |
| OE3OSB-13 | 2026-09-01 06:54:02 | 48.60491 | 18.70651 | 79° | 31km/h | 19298m | -33.1m/s | -54.3°C | -1.0% | -1.0hPa | 0V | 00:00:00 | 00:00:00 | 00:00:00 | |
| PETON7-10 | 2026-09-01 06:53:57 | 48.60490 | 18.70603 | 95° | 18km/h | 19465m | -33.8m/s | 0°C | 0% | 0hPa | 0V | 00:00:00 | 00:00:00 | 00:00:00 | |
| OM5KV | 2026-09-01 06:53:49 | 48.60493 | 18.70539 | 96° | 15km/h | 19703m | -34.0m/s | -52.3°C | 0% | 0hPa | 0V | 00:00:00 | 00:00:00 | 00:00:00 | |
| OM5KV | 2026-09-01 06:53:43 | 48.60503 | 18.70508 | 127° | 15km/h | 19909m | -34.5m/s | -52.4°C | 0% | 0hPa | 0V | 00:00:00 | 00:00:00 | 00:00:00 | |
| PETON7-10 | 2026-09-01 06:53:42 | 48.60505 | 18.70503 | 128° | 7km/h | 19978m | -34.4m/s | 0°C | 0% | 0hPa | 0V | 00:00:00 | 00:00:00 | 00:00:00 | |
| ATIDSZ-14 | 2026-09-01 06:53:41 | 48.60507 | 18.70499 | 125° | 13km/h | 19978m | -34.5m/s | -52.4°C | 0% | 0hPa | 0V | 00:00:00 | 00:00:00 | 00:00:00 | |
| OM5KV | 2026-09-01 06:53:31 | 48.60516 | 18.70481 | 0° | 0km/h | 20326m | -35.3m/s | -52.4°C | 0% | 0hPa | 0V | 00:00:00 | 00:00:00 | 00:00:00 | |
| PETON7-10 | 2026-09-01 06:53:27 | 48.60513 | 18.70478 | 35° | 5km/h | 20504m | -36.2m/s | 0°C | 0% | 0hPa | 0V | 00:00:00 | 00:00:00 | 00:00:00 | |
| OM5KV | 2026-09-01 06:53:25 | 48.60510 | 18.70476 | 33° | 4km/h | 20539m | -36.1m/s | -52.1°C | 0% | 0hPa | 0V | 00:00:00 | 00:00:00 | 00:00:00 | |
| OM5KV | 2026-09-01 06:53:15 | 48.60521 | 18.70495 | 224° | 7km/h | 20944m | -37.3m/s | -53.2°C | 0% | 0hPa | 0V | 00:00:00 | 00:00:00 | 00:00:00 | |
| PETON7-10 | 2026-09-01 06:53:12 | 48.60522 | 18.70500 | 251° | 7km/h | 21057m | -37.6m/s | 0°C | 0% | 0hPa | 0V | 00:00:00 | 00:00:00 | 00:00:00 | |
| OM5KV | 2026-09-01 06:53:09 | 48.60521 | 18.70504 | 328° | 5km/h | 21133m | -37.8m/s | -53.6°C | 0% | 0hPa | 0V | 00:00:00 | 00:00:00 | 00:00:00 | |
| OM5KV | 2026-09-01 06:53:03 | 48.60505 | 18.70504 | 9° | 9km/h | 21360m | -38.1m/s | -54.1°C | 0% | 0hPa | 0V | 00:00:00 | 00:00:00 | 00:00:00 | |
| OE5DXL-15 | 2026-09-01 06:53:02 | 48.60503 | 18.70503 | 7° | 15km/h | 21436m | -37.7m/s | 0°C | 0% | 0hPa | 0V | 00:00:00 | 00:00:00 | 00:00:00 | |
| OM5KV | 2026-09-01 06:52:58 | 48.60496 | 18.70507 | 343° | 7km/h | 21590m | -38.5m/s | -53.7°C | 0% | 0hPa | 0V | 00:00:00 | 00:00:00 | 00:00:00 | |
| PETON7-10 | 2026-09-01 06:52:57 | 48.60496 | 18.70507 | 342° | 16km/h | 21629m | -38.7m/s | 0°C | 0% | 0hPa | 0V | 00:00:00 | 00:00:00 | 00:00:00 | |
| OM5KV | 2026-09-01 06:52:47 | 48.60460 | 18.70531 | 339° | 24km/h | 22027m | -40.6m/s | -51.9°C | 0% | 0hPa | 0V | 00:00:00 | 00:00:00 | 00:00:00 | |
| PETON7-10 | 2026-09-01 06:52:42 | 48.60438 | 18.70542 | 352° | 13km/h | 22233m | -41.3m/s | 0°C | 0% | 0hPa | 0V | 00:00:00 | 00:00:00 | 00:00:00 | |
| OM5KV | 2026-09-01 06:52:40 | 48.60428 | 18.70543 | 2° | 16km/h | 22275m | -41.2m/s | -52.1°C | 0% | 0hPa | 0V | 00:00:00 | 00:00:00 | 00:00:00 | |
| OM5KV | 2026-09-01 06:52:35 | 48.60411 | 18.70539 | 16° | 11km/h | 22484m | -41.9m/s | -52.4°C | 0% | 0hPa | 0V | 00:00:00 | 00:00:00 | 00:00:00 | |
| OE5DXL-15 | 2026-09-01 06:52:31 | 48.60402 | 18.70533 | 29° | 9km/h | 22696m | -42.7m/s | 0°C | 0% | 0hPa | 0V | 00:00:00 | 00:00:00 | 00:00:00 | |
| OM5KV | 2026-09-01 06:52:29 | 48.60397 | 18.70530 | 22° | 9km/h | 22739m | -42.8m/s | -52.1°C | 0% | 0hPa | 0V | 00:00:00 | 00:00:00 | 00:00:00 | |
| PETON7-10 | 2026-09-01 06:52:27 | 48.60392 | 18.70527 | 10° | 9km/h | 22869m | -43.1m/s | 0°C | 0% | 0hPa | 0V | 00:00:00 | 00:00:00 | 00:00:00 | |
| OM5KV | 2026-09-01 06:52:24 | 48.60384 | 18.70524 | 18° | 13km/h | 22957m | -42.9m/s | -51.5°C | 0% | 0hPa | 0V | 00:00:00 | 00:00:00 | 00:00:00 | |
| OM5KV | 2026-09-01 06:52:18 | 48.60373 | 18.70508 | 63° | 7km/h | 23219m | -43.5m/s | -50.3°C | 0% | 0hPa | 0V | 00:00:00 | 00:00:00 | 00:00:00 | |
| PETON7-10 | 2026-09-01 06:52:12 | 48.60372 | 18.70496 | 77° | 7km/h | 23533m | -45.1m/s | 0°C | 0% | 0hPa | 0V | 00:00:00 | 00:00:00 | 00:00:00 | |
| OM5KV | 2026-09-01 06:52:06 | 48.60377 | 18.70477 | 143° | 7km/h | 23763m | -45.8m/s | -49.7°C | 0% | 0hPa | 0V | 00:00:00 | 00:00:00 | 00:00:00 | |
| ATIDSZ-14 | 2026-09-01 06:52:03 | 48.60379 | 18.70476 | 346° | 2km/h | 23900m | -45.9m/s | -49.9°C | 0% | 0hPa | 0V | 00:00:00 | 00:00:00 | 00:00:00 | |
| OE5DXL-15 | 2026-09-01 06:52:01 | 48.60377 | 18.70478 | 351° | 9km/h | 24039m | -46.4m/s | 0°C | 0% | 0hPa | 0V | 00:00:00 | 00:00:00 | 00:00:00 | |
| PETON7-10 | 2026-09-01 06:51:57 | 48.60368 | 18.70478 | 19° | 9km/h | 24228m | -47.4m/s | 0°C | 0% | 0hPa | 0V | 00:00:00 | 00:00:00 | 00:00:00 | |
| PETON7-10 | 2026-09-01 06:51:42 | 48.60376 | 18.70457 | 165° | 11km/h | 24961m | -50.1m/s | 0°C | 0% | 0hPa | 0V | 00:00:00 | 00:00:00 | 00:00:00 | |
| OE5DXL-15 | 2026-09-01 06:51:31 | 48.60403 | 18.70457 | 227° | 11km/h | 25524m | -52.4m/s | 0°C | 0% | 0hPa | 0V | 00:00:00 | 00:00:00 | 00:00:00 | |
| OE3JTB-15 | 2026-09-01 06:51:28 | 48.60409 | 18.70464 | 215° | 11km/h | 25790m | -54.5m/s | 0°C | 0% | 0hPa | 0V | 00:00:00 | 00:00:00 | 00:00:00 | |
| PETON7-10 | 2026-09-01 06:51:27 | 48.60411 | 18.70467 | 215° | 13km/h | 25736m | -53.7m/s | 0°C | 0% | 0hPa | 0V | 00:00:00 | 00:00:00 | 00:00:00 | |
| OE5MMP-10 | 2026-09-01 06:51:13 | 48.60431 | 18.70529 | 258° | 11km/h | 26639m | -59.6m/s | 0°C | 0% | 0hPa | 0V | 00:00:00 | 00:00:00 | 00:00:00 | |
| PETON7-10 | 2026-09-01 06:51:12 | 48.60432 | 18.70527 | 253° | 11km/h | 26580m | -59.4m/s | 0°C | 0% | 0hPa | 0V | 00:00:00 | 00:00:00 | 00:00:00 | |
| ATIDSZ-14 | 2026-09-01 06:51:11 | 48.60433 | 18.70531 | 255° | 13km/h | 26580m | -59.4m/s | -46.8°C | 0% | 0hPa | 0V | 00:00:00 | 00:00:00 | 00:00:00 | |
| OE5MMP-10 | 2026-09-01 06:51:02 | 48.60440 | 18.70564 | 246° | 11km/h | 27067m | -37.5m/s | 0°C | 0% | 0hPa | 0V | 00:00:00 | 00:00:00 | 00:00:00 | |
| OE5DXL-15 | 2026-09-01 06:51:01 | 48.60442 | 18.70569 | 250° | 9km/h | 27127m | -21.3m/s | 0°C | 0% | 0hPa | 0V | 00:00:00 | 00:00:00 | 00:00:00 | |
| PETON7-10 | 2026-09-01 06:50:57 | 48.60438 | 18.70586 | 326° | 9km/h | 27146m | 4.8m/s | 0°C | 0% | 0hPa | 0V | 00:00:00 | 00:00:00 | 00:00:00 | |
| ATIDSZ-14 | 2026-09-01 06:50:52 | 48.60434 | 18.70606 | 288° | 9km/h | 27116m | 4.7m/s | -47.4°C | 0% | 0hPa | 0V | 00:00:00 | 00:00:00 | 00:00:00 | |
| OE5MMP-10 | 2026-09-01 06:50:49 | 48.60433 | 18.70610 | 259° | 11km/h | 27105m | 4.5m/s | 0°C | 0% | 0hPa | 0V | 00:00:00 | 00:00:00 | 00:00:00 | |
| PETON7-10 | 2026-09-01 06:50:42 | 48.60436 | 18.70626 | 234° | 9km/h | 27069m | 3.9m/s | 0°C | 0% | 0hPa | 0V | 00:00:00 | 00:00:00 | 00:00:00 | |
| OE5MMP-10 | 2026-09-01 06:50:39 | 48.60440 | 18.70636 | 342° | 5km/h | 27054m | 4.3m/s | 0°C | 0% | 0hPa | 0V | 00:00:00 | 00:00:00 | 00:00:00 | |
| OE5DXL-15 | 2026-09-01 06:50:31 | 48.60444 | 18.70645 | 1° | 9km/h | 27014m | 6.0m/s | 0°C | 0% | 0hPa | 0V | 00:00:00 | 00:00:00 | 00:00:00 | |
| ATIDSZ-14 | 2026-09-01 06:50:30 | 48.60445 | 18.70646 | 204° | 9km/h | 27014m | 6.1m/s | -47.4°C | 0% | 0hPa | 0V | 00:00:00 | 00:00:00 | 00:00:00 | |
| OE5MMP-10 | 2026-09-01 06:50:29 | 48.60448 | 18.70649 | 201° | 9km/h | 27005m | 3.7m/s | 0°C | 0% | 0hPa | 0V | 00:00:00 | 00:00:00 | 00:00:00 | |
| OE3JTB-15 | 2026-09-01 06:50:27 | 48.60454 | 18.70651 | 74° | 9km/h | 26994m | 5.0m/s | 0°C | 0% | 0hPa | 0V | 00:00:00 | 00:00:00 | 00:00:00 | |
| OE5MMP-10 | 2026-09-01 06:50:19 | 48.60456 | 18.70647 | 351° | 7km/h | 26960m | 4.1m/s | 0°C | 0% | 0hPa | 0V | 00:00:00 | 00:00:00 | 00:00:00 | |
| PETON7-10 | 2026-09-01 06:50:12 | 48.60460 | 18.70656 | 271° | 9km/h | 26921m | 5.8m/s | 0°C | 0% | 0hPa | 0V | 00:00:00 | 00:00:00 | 00:00:00 | |
| NBG1-10 | 2026-09-01 06:50:09 | 48.60465 | 18.70662 | 217° | 13km/h | 26877m | 5.0m/s | 0°C | 0% | 0hPa | 0V | 00:00:00 | 00:00:00 | 00:00:00 | |
| OE5DXL-15 | 2026-09-01 06:50:01 | 48.60466 | 18.70677 | 325° | 16km/h | 26867m | 3.7m/s | 0°C | 0% | 0hPa | 0V | 00:00:00 | 00:00:00 | 00:00:00 | |
| OE5MMP-10 | 2026-09-01 06:49:59 | 48.60460 | 18.70681 | 277° | 13km/h | 26857m | 5.6m/s | 0°C | 0% | 0hPa | 0V | 00:00:00 | 00:00:00 | 00:00:00 | |
| OE3JTB-15 | 2026-09-01 06:49:58 | 48.60460 | 18.70684 | 239° | 16km/h | 26852m | 4.4m/s | 0°C | 0% | 0hPa | 0V | 00:00:00 | 00:00:00 | 00:00:00 | |
| PETON7-10 | 2026-09-01 06:49:57 | 48.60462 | 18.70688 | 238° | 15km/h | 26848m | 4.1m/s | 0°C | 0% | 0hPa | 0V | 00:00:00 | 00:00:00 | 00:00:00 | |
| OE5MMP-10 | 2026-09-01 06:49:49 | 48.60464 | 18.70721 | 257° | 20km/h | 26805m | 4.6m/s | 0°C | 0% | 0hPa | 0V | 00:00:00 | 00:00:00 | 00:00:00 | |
| PETON7-10 | 2026-09-01 06:49:42 | 48.60468 | 18.70761 | 256° | 20km/h | 26776m | 4.7m/s | 0°C | 0% | 0hPa | 0V | 00:00:00 | 00:00:00 | 00:00:00 | |
| OE5MMP-10 | 2026-09-01 06:49:37 | 48.60478 | 18.70799 | 257° | 18km/h | 26742m | 5.4m/s | 0°C | 0% | 0hPa | 0V | 00:00:00 | 00:00:00 | 00:00:00 | |
| NBG1-10 | 2026-09-01 06:49:34 | 48.60480 | 18.70822 | 272° | 16km/h | 26719m | 4.0m/s | 0°C | 0% | 0hPa | 0V | 00:00:00 | 00:00:00 | 00:00:00 | |
| OE5DXL-15 | 2026-09-01 06:49:31 | 48.60487 | 18.70841 | 272° | 16km/h | 26723m | 4.6m/s | 0°C | 0% | 0hPa | 0V | 00:00:00 | 00:00:00 | 00:00:00 | |
| OE3JTB-15 | 2026-09-01 06:49:29 | 48.60484 | 18.70854 | 267° | 16km/h | 26714m | 5.4m/s | 0°C | 0% | 0hPa | 0V | 00:00:00 | 00:00:00 | 00:00:00 | |
| ATIDSZ-14 | 2026-09-01 06:49:28 | 48.60484 | 18.70858 | 233° | 13km/h | 26714m | 5.5m/s | -47.6°C | 0% | 0hPa | 0V | 00:00:00 | 00:00:00 | 00:00:00 | |
| OE5MMP-10 | 2026-09-01 06:49:27 | 48.60486 | 18.70863 | 233° | 18km/h | 26704m | 3.9m/s | 0°C | 0% | 0hPa | 0V | 00:00:00 | 00:00:00 | 00:00:00 | |
| OE5MMP-10 | 2026-09-01 06:49:17 | 48.60496 | 18.70922 | 238° | 15km/h | 26658m | 5.9m/s | 0°C | 0% | 0hPa | 0V | 00:00:00 | 00:00:00 | 00:00:00 | |
| PETON7-10 | 2026-09-01 06:49:12 | 48.60506 | 18.70954 | 356° | 13km/h | 26635m | 3.0m/s | 0°C | 0% | 0hPa | 0V | 00:00:00 | 00:00:00 | 00:00:00 | |
| ATIDSZ-14 | 2026-09-01 06:49:08 | 48.60509 | 18.70963 | 224° | 31km/h | 26622m | 5.3m/s | -47.7°C | 0% | 0hPa | 0V | 00:00:00 | 00:00:00 | 00:00:00 | |
| OE5MMP-10 | 2026-09-01 06:49:07 | 48.60514 | 18.70972 | 232° | 15km/h | 26613m | 4.4m/s | 0°C | 0% | 0hPa | 0V | 00:00:00 | 00:00:00 | 00:00:00 | |
| OE5DXL-15 | 2026-09-01 06:49:01 | 48.60516 | 18.70993 | 213° | 13km/h | 26586m | 4.6m/s | 0°C | 0% | 0hPa | 0V | 00:00:00 | 00:00:00 | 00:00:00 | |
| OE3JTB-15 | 2026-09-01 06:49:00 | 48.60520 | 18.70996 | 214° | 11km/h | 26581m | 4.8m/s | 0°C | 0% | 0hPa | 0V | 00:00:00 | 00:00:00 | 00:00:00 | |
| OE5MMP-10 | 2026-09-01 06:48:57 | 48.60523 | 18.71000 | 257° | 13km/h | 26567m | 5.5m/s | 0°C | 0% | 0hPa | 0V | 00:00:00 | 00:00:00 | 00:00:00 | |
| OE5MMP-10 | 2026-09-01 06:48:47 | 48.60532 | 18.71046 | 277° | 13km/h | 26521m | 3.8m/s | 0°C | 0% | 0hPa | 0V | 00:00:00 | 00:00:00 | 00:00:00 | |
| NBG1-10 | 2026-09-01 06:48:45 | 48.60531 | 18.71050 | 235° | 9km/h | 26500m | 4.9m/s | 0°C | 0% | 0hPa | 0V | 00:00:00 | 00:00:00 | 00:00:00 | |
| PETON7-10 | 2026-09-01 06:48:42 | 48.60538 | 18.71069 | 251° | 15km/h | 26500m | 4.9m/s | 0°C | 0% | 0hPa | 0V | 00:00:00 | 00:00:00 | 00:00:00 | |
| OE5MMP-10 | 2026-09-01 06:48:37 | 48.60542 | 18.71088 | 250° | 15km/h | 26476m | 3.7m/s | 0°C | 0% | 0hPa | 0V | 00:00:00 | 00:00:00 | 00:00:00 | |
| OE3JTB-15 | 2026-09-01 06:48:31 | 48.60545 | 18.71118 | 230° | 15km/h | 26448m | 3.9m/s | 0°C | 0% | 0hPa | 0V | 00:00:00 | 00:00:00 | 00:00:00 | |
| PETON7-10 | 2026-09-01 06:48:27 | 48.60554 | 18.71132 | 240° | 13km/h | 26431m | 4.8m/s | 0°C | 0% | 0hPa | 0V | 00:00:00 | 00:00:00 | 00:00:00 | |
| OE5MMP-10 | 2026-09-01 06:48:17 | 48.60564 | 18.71178 | 246° | 13km/h | 26385m | 4.8m/s | 0°C | 0% | 0hPa | 0V | 00:00:00 | 00:00:00 | 00:00:00 | |
| PETON7-10 | 2026-09-01 06:48:12 | 48.60568 | 18.71199 | 260° | 18km/h | 26362m | 3.9m/s | 0°C | 0% | 0hPa | 0V | 00:00:00 | 00:00:00 | 00:00:00 | |
| ATIDSZ-14 | 2026-09-01 06:48:07 | 48.60569 | 18.71226 | 223° | 22km/h | 26339m | 6.2m/s | -48.3°C | 0% | 0hPa | 0V | 00:00:00 | 00:00:00 | 00:00:00 | |
| OE3JTB-15 | 2026-09-01 06:48:02 | 48.60582 | 18.71245 | 293° | 18km/h | 26315m | 3.5m/s | 0°C | 0% | 0hPa | 0V | 00:00:00 | 00:00:00 | 00:00:00 | |
| OE5DXL-15 | 2026-09-01 06:48:01 | 48.60580 | 18.71250 | 279° | 18km/h | 26315m | 3.5m/s | 0°C | 0% | 0hPa | 0V | 00:00:00 | 00:00:00 | 00:00:00 | |
| PETON7-10 | 2026-09-01 06:47:57 | 48.60591 | 18.71278 | 232° | 18km/h | 26291m | 4.5m/s | 0°C | 0% | 0hPa | 0V | 00:00:00 | 00:00:00 | 00:00:00 | |
| OE5MMP-10 | 2026-09-01 06:47:56 | 48.60595 | 18.71282 | 232° | 16km/h | 26287m | 4.3m/s | 0°C | 0% | 0hPa | 0V | 00:00:00 | 00:00:00 | 00:00:00 | |
| SQ9EZE-14 | 2026-09-01 06:47:49 | 48.60610 | 18.71326 | 236° | 13km/h | 26253m | 4.6m/s | -48.4°C | 0% | 0hPa | 0V | 00:00:00 | 00:00:00 | 00:00:00 | |
| ATIDSZ-14 | 2026-09-01 06:47:46 | 48.60617 | 18.71337 | 233° | 24km/h | 26243m | 3.6m/s | -48.3°C | 0% | 0hPa | 0V | 00:00:00 | 00:00:00 | 00:00:00 | |
| OE5MMP-10 | 2026-09-01 06:47:45 | 48.60620 | 18.71343 | 246° | 16km/h | 26234m | 5.1m/s | 0°C | 0% | 0hPa | 0V | 00:00:00 | 00:00:00 | 00:00:00 | |
| PETON7-10 | 2026-09-01 06:47:42 | 48.60621 | 18.71359 | 246° | 16km/h | 26219m | 5.7m/s | 0°C | 0% | 0hPa | 0V | 00:00:00 | 00:00:00 | 00:00:00 | |
| OE5MMP-10 | 2026-09-01 06:47:35 | 48.60632 | 18.71401 | 233° | 20km/h | 26176m | 5.6m/s | 0°C | 0% | 0hPa | 0V | 00:00:00 | 00:00:00 | 00:00:00 | |
| OE3JTB-15 | 2026-09-01 06:47:33 | 48.60638 | 18.71414 | 236° | 16km/h | 26181m | 4.4m/s | 0°C | 0% | 0hPa | 0V | 00:00:00 | 00:00:00 | 00:00:00 | |
| OE5DXL-15 | 2026-09-01 06:47:31 | 48.60641 | 18.71423 | 248° | 16km/h | 26171m | 4.3m/s | 0°C | 0% | 0hPa | 0V | 00:00:00 | 00:00:00 | 00:00:00 | |
| PETON7-10 | 2026-09-01 06:47:27 | 48.60652 | 18.71444 | 231° | 16km/h | 26147m | 5.7m/s | 0°C | 0% | 0hPa | 0V | 00:00:00 | 00:00:00 | 00:00:00 | |
| OE5MMP-10 | 2026-09-01 06:47:15 | 48.60675 | 18.71507 | 234° | 16km/h | 26086m | 5.8m/s | 0°C | 0% | 0hPa | 0V | 00:00:00 | 00:00:00 | 00:00:00 | |
| PETON7-10 | 2026-09-01 06:47:12 | 48.60679 | 18.71522 | 248° | 15km/h | 26072m | 5.5m/s | 0°C | 0% | 0hPa | 0V | 00:00:00 | 00:00:00 | 00:00:00 | |
| GYPAP8-17 | 2026-09-01 06:47:08 | 48.60691 | 18.71551 | 261° | 7km/h | 26051m | 5.2m/s | -47.7°C | 0% | 0hPa | 0V | 00:00:00 | 00:00:00 | 00:00:00 | |
| OE5MMP-10 | 2026-09-01 06:47:05 | 48.60692 | 18.71553 | 213° | 15km/h | 26036m | 5.2m/s | 0°C | 0% | 0hPa | 0V | 00:00:00 | 00:00:00 | 00:00:00 | |
| OE3JTB-15 | 2026-09-01 06:47:04 | 48.60694 | 18.71557 | 213° | 13km/h | 26031m | 3.7m/s | 0°C | 0% | 0hPa | 0V | 00:00:00 | 00:00:00 | 00:00:00 | |
| OE5DXL-15 | 2026-09-01 06:47:01 | 48.60703 | 18.71570 | 266° | 13km/h | 26021m | 5.4m/s | 0°C | 0% | 0hPa | 0V | 00:00:00 | 00:00:00 | 00:00:00 | |
| OE5MMP-10 | 2026-09-01 06:46:55 | 48.60716 | 18.71596 | 250° | 11km/h | 25985m | 5.0m/s | 0°C | 0% | 0hPa | 0V | 00:00:00 | 00:00:00 | 00:00:00 | |
| ATIDSZ-14 | 2026-09-01 06:46:44 | 48.60733 | 18.71640 | 266° | 13km/h | 25933m | 5.8m/s | -47.9°C | 0% | 0hPa | 0V | 00:00:00 | 00:00:00 | 00:00:00 | |
| PETON7-10 | 2026-09-01 06:46:42 | 48.60732 | 18.71646 | 222° | 13km/h | 25917m | 5.7m/s | 0°C | 0% | 0hPa | 0V | 00:00:00 | 00:00:00 | 00:00:00 | |
| OE3JTB-15 | 2026-09-01 06:46:36 | 48.60747 | 18.71660 | 228° | 16km/h | 25881m | 5.7m/s | 0°C | 0% | 0hPa | 0V | 00:00:00 | 00:00:00 | 00:00:00 | |
| OE5MMP-10 | 2026-09-01 06:46:34 | 48.60749 | 18.71665 | 228° | 15km/h | 25876m | 4.3m/s | 0°C | 0% | 0hPa | 0V | 00:00:00 | 00:00:00 | 00:00:00 | |
| OE5DXL-15 | 2026-09-01 06:46:31 | 48.60760 | 18.71674 | 165° | 16km/h | 25866m | 5.6m/s | 0°C | 0% | 0hPa | 0V | 00:00:00 | 00:00:00 | 00:00:00 | |
| PETON7-10 | 2026-09-01 06:46:27 | 48.60768 | 18.71681 | 220° | 20km/h | 25840m | 4.6m/s | 0°C | 0% | 0hPa | 0V | 00:00:00 | 00:00:00 | 00:00:00 | |
| OE5MMP-10 | 2026-09-01 06:46:24 | 48.60781 | 18.71689 | 175° | 18km/h | 25824m | 4.0m/s | 0°C | 0% | 0hPa | 0V | 00:00:00 | 00:00:00 | 00:00:00 | |
| OE5MMP-10 | 2026-09-01 06:46:14 | 48.60822 | 18.71707 | 204° | 20km/h | 25773m | 3.7m/s | 0°C | 0% | 0hPa | 0V | 00:00:00 | 00:00:00 | 00:00:00 | |
| OE5MMP-10 | 2026-09-01 06:45:53 | 48.60900 | 18.71742 | 150° | 13km/h | 25665m | 4.1m/s | 0°C | 0% | 0hPa | 0V | 00:00:00 | 00:00:00 | 00:00:00 | |
| ATIDSZ-14 | 2026-09-01 06:45:45 | 48.60921 | 18.71781 | 262° | 11km/h | 25614m | 6.0m/s | -48.7°C | 0% | 0hPa | 0V | 00:00:00 | 00:00:00 | 00:00:00 | |
| PETON7-10 | 2026-09-01 06:45:44 | 48.60921 | 18.71781 | 261° | 13km/h | 25608m | 4.8m/s | 0°C | 0% | 0hPa | 0V | 00:00:00 | 00:00:00 | 00:00:00 | |
| OE3JTB-15 | 2026-09-01 06:45:37 | 48.60929 | 18.71806 | 227° | 13km/h | 25584m | 6.0m/s | 0°C | 0% | 0hPa | 0V | 00:00:00 | 00:00:00 | 00:00:00 | |
| OE5MMP-10 | 2026-09-01 06:45:33 | 48.60933 | 18.71812 | 256° | 15km/h | 25559m | 4.0m/s | 0°C | 0% | 0hPa | 0V | 00:00:00 | 00:00:00 | 00:00:00 | |
| OE5DXL-15 | 2026-09-01 06:45:31 | 48.60936 | 18.71828 | 250° | 13km/h | 25554m | 5.4m/s | 0°C | 0% | 0hPa | 0V | 00:00:00 | 00:00:00 | 00:00:00 | |
| PETON7-10 | 2026-09-01 06:45:27 | 48.60942 | 18.71839 | 216° | 13km/h | 25534m | 5.0m/s | 0°C | 0% | 0hPa | 0V | 00:00:00 | 00:00:00 | 00:00:00 | |
| OE5MMP-10 | 2026-09-01 06:45:25 | 48.60952 | 18.71855 | 237° | 13km/h | 25515m | 4.0m/s | 0°C | 0% | 0hPa | 0V | 00:00:00 | 00:00:00 | 00:00:00 | |
| ATIDSZ-14 | 2026-09-01 06:45:24 | 48.60953 | 18.71857 | 232° | 4km/h | 25515m | 4.0m/s | -49.2°C | 0% | 0hPa | 0V | 00:00:00 | 00:00:00 | 00:00:00 | |
| OE5MMP-10 | 2026-09-01 06:45:13 | 48.60969 | 18.71895 | 226° | 15km/h | 25466m | 5.1m/s | 0°C | 0% | 0hPa | 0V | 00:00:00 | 00:00:00 | 00:00:00 | |
| PETON7-10 | 2026-09-01 06:45:12 | 48.60972 | 18.71898 | 226° | 11km/h | 25461m | 4.8m/s | 0°C | 0% | 0hPa | 0V | 00:00:00 | 00:00:00 | 00:00:00 | |
| OE3JTB-15 | 2026-09-01 06:45:08 | 48.60980 | 18.71909 | 228° | 11km/h | 25442m | 3.8m/s | 0°C | 0% | 0hPa | 0V | 00:00:00 | 00:00:00 | 00:00:00 | |
| SQ9EZE-15 | 2026-09-01 06:45:07 | 48.60983 | 18.71914 | 219° | 18km/h | 25442m | 3.8m/s | -49.6°C | 0% | 0hPa | 0V | 00:00:00 | 00:00:00 | 00:00:00 | |
| OE5MMP-10 | 2026-09-01 06:45:03 | 48.60992 | 18.71918 | 220° | 9km/h | 25408m | 5.2m/s | 0°C | 0% | 0hPa | 0V | 00:00:00 | 00:00:00 | 00:00:00 | |
| OE5DXL-15 | 2026-09-01 06:45:01 | 48.60997 | 18.71926 | 226° | 11km/h | 25408m | 5.2m/s | 0°C | 0% | 0hPa | 0V | 00:00:00 | 00:00:00 | 00:00:00 | |
| PETON7-10 | 2026-09-01 06:44:57 | 48.61006 | 18.71929 | 196° | 11km/h | 25389m | 4.3m/s | 0°C | 0% | 0hPa | 0V | 00:00:00 | 00:00:00 | 00:00:00 | |
| OE5MMP-10 | 2026-09-01 06:44:53 | 48.61014 | 18.71932 | 166° | 11km/h | 25370m | 4.6m/s | 0°C | 0% | 0hPa | 0V | 00:00:00 | 00:00:00 | 00:00:00 | |
| SQ9EZE-15 | 2026-09-01 06:44:45 | 48.61035 | 18.71935 | 204° | 16km/h | 25332m | 3.5m/s | -49.8°C | 0% | 0hPa | 0V | 00:00:00 | 00:00:00 | 00:00:00 | |
| OE5MMP-10 | 2026-09-01 06:44:44 | 48.61038 | 18.71941 | 145° | 11km/h | 25318m | 3.7m/s | 0°C | 0% | 0hPa | 0V | 00:00:00 | 00:00:00 | 00:00:00 | |
| PETON7-10 | 2026-09-01 06:44:42 | 48.61040 | 18.71937 | 145° | 11km/h | 25318m | 3.7m/s | 0°C | 0% | 0hPa | 0V | 00:00:00 | 00:00:00 | 00:00:00 | |
| ATIDSZ-14 | 2026-09-01 06:44:41 | 48.61043 | 18.71934 | 147° | 15km/h | 25318m | 3.8m/s | -49.9°C | 0% | 0hPa | 0V | 00:00:00 | 00:00:00 | 00:00:00 | |
| OE3JTB-15 | 2026-09-01 06:44:40 | 48.61047 | 18.71929 | 197° | 13km/h | 25305m | 3.9m/s | 0°C | 0% | 0hPa | 0V | 00:00:00 | 00:00:00 | 00:00:00 | |
| OE5MMP-10 | 2026-09-01 06:44:33 | 48.61060 | 18.71926 | 176° | 15km/h | 25277m | 3.6m/s | 0°C | 0% | 0hPa | 0V | 00:00:00 | 00:00:00 | 00:00:00 | |
| OE5DXL-15 | 2026-09-01 06:44:31 | 48.61066 | 18.71925 | 133° | 13km/h | 25267m | 4.9m/s | 0°C | 0% | 0hPa | 0V | 00:00:00 | 00:00:00 | 00:00:00 | |
| PETON7-10 | 2026-09-01 06:44:27 | 48.61071 | 18.71910 | 156° | 15km/h | 25249m | 3.8m/s | 0°C | 0% | 0hPa | 0V | 00:00:00 | 00:00:00 | 00:00:00 | |
| OE5MMP-10 | 2026-09-01 06:44:23 | 48.61082 | 18.71892 | 108° | 13km/h | 25225m | 4.5m/s | 0°C | 0% | 0hPa | 0V | 00:00:00 | 00:00:00 | 00:00:00 | |
| ATIDSZ-14 | 2026-09-01 06:44:20 | 48.61086 | 18.71881 | 125° | 5km/h | 25221m | 3.8m/s | -50.2°C | 0% | 0hPa | 0V | 00:00:00 | 00:00:00 | 00:00:00 | |
| OE5MMP-10 | 2026-09-01 06:44:13 | 48.61101 | 18.71856 | 71° | 13km/h | 25183m | 4.4m/s | 0°C | 0% | 0hPa | 0V | 00:00:00 | 00:00:00 | 00:00:00 | |
| PETON7-10 | 2026-09-01 06:44:12 | 48.61100 | 18.71850 | 71° | 13km/h | 25179m | 3.6m/s | 0°C | 0% | 0hPa | 0V | 00:00:00 | 00:00:00 | 00:00:00 | |
| OE3JTB-15 | 2026-09-01 06:44:10 | 48.61097 | 18.71840 | 134° | 11km/h | 25169m | 4.6m/s | 0°C | 0% | 0hPa | 0V | 00:00:00 | 00:00:00 | 00:00:00 | |
| OE5MMP-10 | 2026-09-01 06:44:03 | 48.61102 | 18.71816 | 44° | 11km/h | 25137m | 4.3m/s | 0°C | 0% | 0hPa | 0V | 00:00:00 | 00:00:00 | 00:00:00 | |
| OE3JTB-15 | 2026-09-01 06:42:43 | 48.61202 | 18.71751 | 118° | 15km/h | 24758m | 4.7m/s | 0°C | 0% | 0hPa | 0V | 00:00:00 | 00:00:00 | 00:00:00 | |
| SQ9EZE-15 | 2026-09-01 06:42:42 | 48.61203 | 18.71737 | 73° | 26km/h | 24753m | 4.7m/s | 0°C | 0% | 0hPa | 0V | 00:00:00 | 00:00:00 | 00:00:00 | |
| OE5MMP-10 | 2026-09-01 06:42:41 | 48.61203 | 18.71737 | 73° | 18km/h | 24738m | 4.0m/s | 0°C | 0% | 0hPa | 0V | 00:00:00 | 00:00:00 | 00:00:00 | |
| ATIDSZ-14 | 2026-09-01 06:42:38 | 48.61193 | 18.71723 | 39° | 9km/h | 24738m | 4.1m/s | -50.6°C | 0% | 0hPa | 0V | 00:00:00 | 00:00:00 | 00:00:00 | |
| SQ9EZE-14 | 2026-09-01 06:42:33 | 48.61196 | 18.71703 | 35° | 7km/h | 24713m | 5.3m/s | -50.8°C | 0% | 0hPa | 0V | 00:00:00 | 00:00:00 | 00:00:00 | |
| OE5DXL-15 | 2026-09-01 06:42:31 | 48.61190 | 18.71698 | 32° | 18km/h | 24697m | 5.3m/s | 0°C | 0% | 0hPa | 0V | 00:00:00 | 00:00:00 | 00:00:00 | |
| PETON7-10 | 2026-09-01 06:42:27 | 48.61180 | 18.71672 | 268° | 15km/h | 24677m | 4.3m/s | 0°C | 0% | 0hPa | 0V | 00:00:00 | 00:00:00 | 00:00:00 | |
| GYPAP8-17 | 2026-09-01 06:42:18 | 48.61155 | 18.71643 | 62° | 18km/h | 24632m | 3.8m/s | -51.0°C | 0% | 0hPa | 0V | 00:00:00 | 00:00:00 | 00:00:00 | |
| ATIDSZ-14 | 2026-09-01 06:42:17 | 48.61155 | 18.71643 | 62° | 18km/h | 24632m | 3.8m/s | -51.0°C | 0% | 0hPa | 0V | 00:00:00 | 00:00:00 | 00:00:00 | |
| OE3JTB-15 | 2026-09-01 06:42:14 | 48.61147 | 18.71633 | 20° | 16km/h | 24612m | 4.7m/s | 0°C | 0% | 0hPa | 0V | 00:00:00 | 00:00:00 | 00:00:00 | |
| PETON7-10 | 2026-09-01 06:42:12 | 48.61137 | 18.71627 | 45° | 16km/h | 24602m | 4.2m/s | 0°C | 0% | 0hPa | 0V | 00:00:00 | 00:00:00 | 00:00:00 | |
| OE5MMP-10 | 2026-09-01 06:42:01 | 48.61090 | 18.71597 | 59° | 18km/h | 24527m | 5.7m/s | 0°C | 0% | 0hPa | 0V | 00:00:00 | 00:00:00 | 00:00:00 | |
| PETON7-10 | 2026-09-01 06:41:57 | 48.61086 | 18.71592 | 30° | 18km/h | 24527m | 5.7m/s | 0°C | 0% | 0hPa | 0V | 00:00:00 | 00:00:00 | 00:00:00 | |
| OE3JTB-15 | 2026-09-01 06:41:45 | 48.61040 | 18.71560 | 7° | 15km/h | 24460m | 4.5m/s | 0°C | 0% | 0hPa | 0V | 00:00:00 | 00:00:00 | 00:00:00 | |
| PETON7-10 | 2026-09-01 06:41:42 | 48.61026 | 18.71546 | 25° | 15km/h | 24450m | 4.9m/s | 0°C | 0% | 0hPa | 0V | 00:00:00 | 00:00:00 | 00:00:00 | |
| OE5MMP-10 | 2026-09-01 06:41:41 | 48.61023 | 18.71544 | 25° | 16km/h | 24445m | 4.7m/s | 0°C | 0% | 0hPa | 0V | 00:00:00 | 00:00:00 | 00:00:00 | |
| ATIDSZ-14 | 2026-09-01 06:41:36 | 48.61003 | 18.71529 | 7° | 18km/h | 24425m | 6.2m/s | -51.1°C | 0% | 0hPa | 0V | 00:00:00 | 00:00:00 | 00:00:00 | |
| OE5MMP-10 | 2026-09-01 06:41:31 | 48.60988 | 18.71519 | 45° | 13km/h | 24400m | 5.6m/s | 0°C | 0% | 0hPa | 0V | 00:00:00 | 00:00:00 | 00:00:00 | |
| OE5DXL-15 | 2026-09-01 06:41:29 | 48.60984 | 18.71519 | 24° | 15km/h | 24383m | 5.7m/s | 0°C | 0% | 0hPa | 0V | 00:00:00 | 00:00:00 | 00:00:00 | |
| PETON7-10 | 2026-09-01 06:41:27 | 48.60979 | 18.71514 | 25° | 15km/h | 24374m | 4.3m/s | 0°C | 0% | 0hPa | 0V | 00:00:00 | 00:00:00 | 00:00:00 | |
| OE5MMP-10 | 2026-09-01 06:41:20 | 48.60960 | 18.71500 | 30° | 15km/h | 24329m | 4.4m/s | 0°C | 0% | 0hPa | 0V | 00:00:00 | 00:00:00 | 00:00:00 | |
| OE3JTB-15 | 2026-09-01 06:41:16 | 48.60945 | 18.71504 | 15° | 15km/h | 24324m | 5.5m/s | 0°C | 0% | 0hPa | 0V | 00:00:00 | 00:00:00 | 00:00:00 | |
| PETON7-10 | 2026-09-01 06:41:12 | 48.60935 | 18.71495 | 336° | 16km/h | 24300m | 4.1m/s | 0°C | 0% | 0hPa | 0V | 00:00:00 | 00:00:00 | 00:00:00 | |
| SONDE2-11 | 2026-09-01 06:41:10 | 48.60923 | 18.71500 | 5° | 26km/h | 24290m | 4.8m/s | -52.2°C | -1.0% | -1.0hPa | 0V | 00:00:00 | 00:00:00 | 00:00:00 | |
| OE3OSB-13 | 2026-09-01 06:41:05 | 48.60907 | 18.71504 | 357° | 4km/h | 24266m | 5.1m/s | -52.3°C | -1.0% | -1.0hPa | 0V | 00:00:00 | 00:00:00 | 00:00:00 | |
| OE5MMP-10 | 2026-09-01 06:41:00 | 48.60890 | 18.71510 | 337° | 16km/h | 24237m | 5.2m/s | 0°C | 0% | 0hPa | 0V | 00:00:00 | 00:00:00 | 00:00:00 | |
| OE5DXL-15 | 2026-09-01 06:40:59 | 48.60884 | 18.71514 | 352° | 11km/h | 24237m | 5.2m/s | 0°C | 0% | 0hPa | 0V | 00:00:00 | 00:00:00 | 00:00:00 | |
| PETON7-10 | 2026-09-01 06:40:57 | 48.60876 | 18.71512 | 296° | 15km/h | 24227m | 6.3m/s | 0°C | 0% | 0hPa | 0V | 00:00:00 | 00:00:00 | 00:00:00 | |
| ATIDSZ-14 | 2026-09-01 06:40:55 | 48.60872 | 18.71522 | 291° | 16km/h | 24222m | 5.0m/s | -51.6°C | 0% | 0hPa | 0V | 00:00:00 | 00:00:00 | 00:00:00 | |
| OE5MMP-10 | 2026-09-01 06:40:50 | 48.60859 | 18.71536 | 323° | 5km/h | 24198m | 5.2m/s | 0°C | 0% | 0hPa | 0V | 00:00:00 | 00:00:00 | 00:00:00 | |
| SQ9EZE-15 | 2026-09-01 06:40:49 | 48.60853 | 18.71539 | 292° | 13km/h | 24193m | 4.9m/s | -51.5°C | 0% | 0hPa | 0V | 00:00:00 | 00:00:00 | 00:00:00 | |
| OE3JTB-15 | 2026-09-01 06:40:47 | 48.60852 | 18.71549 | 297° | 9km/h | 24169m | 5.5m/s | 0°C | 0% | 0hPa | 0V | 00:00:00 | 00:00:00 | 00:00:00 | |
| PETON7-10 | 2026-09-01 06:40:42 | 48.60841 | 18.71558 | 320° | 7km/h | 24154m | 5.2m/s | 0°C | 0% | 0hPa | 0V | 00:00:00 | 00:00:00 | 00:00:00 | |
| OE5MMP-10 | 2026-09-01 06:40:40 | 48.60838 | 18.71560 | 295° | 7km/h | 24139m | 5.0m/s | 0°C | 0% | 0hPa | 0V | 00:00:00 | 00:00:00 | 00:00:00 | |
| ATIDSZ-14 | 2026-09-01 06:40:34 | 48.60833 | 18.71568 | 348° | 11km/h | 24120m | 4.5m/s | -51.1°C | 0% | 0hPa | 0V | 00:00:00 | 00:00:00 | 00:00:00 | |
| OE5MMP-10 | 2026-09-01 06:40:30 | 48.60831 | 18.71575 | 37° | 5km/h | 24095m | 4.5m/s | 0°C | 0% | 0hPa | 0V | 00:00:00 | 00:00:00 | 00:00:00 | |
| OE5DXL-15 | 2026-09-01 06:40:28 | 48.60830 | 18.71572 | 359° | 9km/h | 24086m | 4.8m/s | 0°C | 0% | 0hPa | 0V | 00:00:00 | 00:00:00 | 00:00:00 | |
| PETON7-10 | 2026-09-01 06:40:27 | 48.60828 | 18.71572 | 340° | 7km/h | 24081m | 3.8m/s | 0°C | 0% | 0hPa | 0V | 00:00:00 | 00:00:00 | 00:00:00 | |
| OE5MMP-10 | 2026-09-01 06:40:20 | 48.60827 | 18.71573 | 40° | 9km/h | 24052m | 4.7m/s | 0°C | 0% | 0hPa | 0V | 00:00:00 | 00:00:00 | 00:00:00 | |
| OE3JTB-15 | 2026-09-01 06:40:18 | 48.60824 | 18.71577 | 150° | 15km/h | 24018m | 4.0m/s | 0°C | 0% | 0hPa | 0V | 00:00:00 | 00:00:00 | 00:00:00 | |
| SQ9EZE-14 | 2026-09-01 06:40:16 | 48.60820 | 18.71569 | 217° | 5km/h | 24033m | 4.4m/s | -50.9°C | 0% | 0hPa | 0V | 00:00:00 | 00:00:00 | 00:00:00 | |
| ATIDSZ-14 | 2026-09-01 06:40:14 | 48.60823 | 18.71570 | 139° | 11km/h | 24023m | 5.7m/s | -51.0°C | 0% | 0hPa | 0V | 00:00:00 | 00:00:00 | 00:00:00 | |
| PETON7-10 | 2026-09-01 06:40:12 | 48.60828 | 18.71562 | 129° | 11km/h | 24009m | 5.0m/s | 0°C | 0% | 0hPa | 0V | 00:00:00 | 00:00:00 | 00:00:00 | |
| OE5MMP-10 | 2026-09-01 06:40:10 | 48.60829 | 18.71561 | 19° | 9km/h | 23994m | 4.7m/s | 0°C | 0% | 0hPa | 0V | 00:00:00 | 00:00:00 | 00:00:00 | |
| SONDE2-11 | 2026-09-01 06:40:07 | 48.60828 | 18.71554 | 161° | 13km/h | 23985m | 4.6m/s | -51.4°C | -1.0% | -1.0hPa | 0V | 00:00:00 | 00:00:00 | 00:00:00 | |
| OE3OSB-13 | 2026-09-01 06:40:03 | 48.60842 | 18.71551 | 112° | 13km/h | 23967m | 5.4m/s | -51.4°C | -1.0% | -1.0hPa | 0V | 00:00:00 | 00:00:00 | 00:00:00 | |
| OE5DXL-15 | 2026-09-01 06:39:58 | 48.60844 | 18.71535 | 161° | 15km/h | 23944m | 5.1m/s | 0°C | 0% | 0hPa | 0V | 00:00:00 | 00:00:00 | 00:00:00 | |
| PETON7-10 | 2026-09-01 06:39:57 | 48.60846 | 18.71535 | 150° | 15km/h | 23939m | 5.0m/s | 0°C | 0% | 0hPa | 0V | 00:00:00 | 00:00:00 | 00:00:00 | |
| OE5MMP-10 | 2026-09-01 06:39:55 | 48.60854 | 18.71527 | 130° | 24km/h | 23912m | 5.1m/s | 0°C | 0% | 0hPa | 0V | 00:00:00 | 00:00:00 | 00:00:00 | |
| ATIDSZ-14 | 2026-09-01 06:39:53 | 48.60859 | 18.71516 | 127° | 7km/h | 23925m | 5.0m/s | -50.8°C | 0% | 0hPa | 0V | 00:00:00 | 00:00:00 | 00:00:00 | |
| OE3JTB-15 | 2026-09-01 06:39:48 | 48.60869 | 18.71499 | 138° | 16km/h | 23902m | 3.7m/s | 0°C | 0% | 0hPa | 0V | 00:00:00 | 00:00:00 | 00:00:00 | |
| OE5MMP-10 | 2026-09-01 06:39:44 | 48.60876 | 18.71486 | 96° | 13km/h | 23878m | 4.3m/s | 0°C | 0% | 0hPa | 0V | 00:00:00 | 00:00:00 | 00:00:00 | |
| PETON7-10 | 2026-09-01 06:39:42 | 48.60877 | 18.71474 | 112° | 16km/h | 23869m | 4.2m/s | 0°C | 0% | 0hPa | 0V | 00:00:00 | 00:00:00 | 00:00:00 | |
| ATIDSZ-14 | 2026-09-01 06:39:33 | 48.60891 | 18.71432 | 120° | 18km/h | 23832m | 4.6m/s | -50.7°C | 0% | 0hPa | 0V | 00:00:00 | 00:00:00 | 00:00:00 | |
| OE5MMP-10 | 2026-09-01 06:39:31 | 48.60897 | 18.71418 | 126° | 16km/h | 23820m | 4.6m/s | 0°C | 0% | 0hPa | 0V | 00:00:00 | 00:00:00 | 00:00:00 | |
| OE5DXL-15 | 2026-09-01 06:39:28 | 48.60900 | 18.71403 | 85° | 15km/h | 23805m | 4.1m/s | 0°C | 0% | 0hPa | 0V | 00:00:00 | 00:00:00 | 00:00:00 | |
| PETON7-10 | 2026-09-01 06:39:27 | 48.60899 | 18.71397 | 94° | 15km/h | 23801m | 4.0m/s | 0°C | 0% | 0hPa | 0V | 00:00:00 | 00:00:00 | 00:00:00 | |
| OE5MMP-10 | 2026-09-01 06:39:21 | 48.60909 | 18.71370 | 106° | 15km/h | 23773m | 4.1m/s | 0°C | 0% | 0hPa | 0V | 00:00:00 | 00:00:00 | 00:00:00 | |
| ATIDSZ-14 | 2026-09-01 06:39:12 | 48.60907 | 18.71325 | 91° | 13km/h | 23735m | 4.7m/s | -50.4°C | 0% | 0hPa | 0V | 00:00:00 | 00:00:00 | 00:00:00 | |
| OE5MMP-10 | 2026-09-01 06:39:11 | 48.60908 | 18.71320 | 85° | 11km/h | 23731m | 4.9m/s | 0°C | 0% | 0hPa | 0V | 00:00:00 | 00:00:00 | 00:00:00 | |
| SONDE2-11 | 2026-09-01 06:39:05 | 48.60906 | 18.71294 | 105° | 11km/h | 23698m | 4.9m/s | -51.1°C | -1.0% | -1.0hPa | 0V | 00:00:00 | 00:00:00 | 00:00:00 | |
| OE5DXL-15 | 2026-09-01 06:38:58 | 48.60899 | 18.71271 | 330° | 5km/h | 23666m | 4.4m/s | 0°C | 0% | 0hPa | 0V | 00:00:00 | 00:00:00 | 00:00:00 | |
| PETON7-10 | 2026-09-01 06:38:57 | 48.60898 | 18.71272 | 330° | 7km/h | 23662m | 3.6m/s | 0°C | 0% | 0hPa | 0V | 00:00:00 | 00:00:00 | 00:00:00 | |
| OE5MMP-10 | 2026-09-01 06:38:54 | 48.60896 | 18.71272 | 55° | 9km/h | 23652m | 4.2m/s | 0°C | 0% | 0hPa | 0V | 00:00:00 | 00:00:00 | 00:00:00 | |
| ATIDSZ-14 | 2026-09-01 06:38:52 | 48.60892 | 18.71266 | 10° | 11km/h | 23643m | 4.7m/s | -51.0°C | 0% | 0hPa | 0V | 00:00:00 | 00:00:00 | 00:00:00 | |
| SQ9EZE-15 | 2026-09-01 06:38:48 | 48.60885 | 18.71264 | 336° | 4km/h | 23626m | 3.9m/s | -51.1°C | 0% | 0hPa | 0V | 00:00:00 | 00:00:00 | 00:00:00 | |
| OE5MMP-10 | 2026-09-01 06:38:44 | 48.60877 | 18.71270 | 58° | 5km/h | 23602m | 4.2m/s | 0°C | 0% | 0hPa | 0V | 00:00:00 | 00:00:00 | 00:00:00 | |
| PETON7-10 | 2026-09-01 06:38:42 | 48.60877 | 18.71264 | 21° | 5km/h | 23594m | 5.3m/s | 0°C | 0% | 0hPa | 0V | 00:00:00 | 00:00:00 | 00:00:00 | |
| OE3JTB-15 | 2026-09-01 06:38:39 | 48.60871 | 18.71268 | 247° | 7km/h | 23580m | 4.6m/s | 0°C | 0% | 0hPa | 0V | 00:00:00 | 00:00:00 | 00:00:00 | |
| ATIDSZ-14 | 2026-09-01 06:38:31 | 48.60871 | 18.71270 | 224° | 2km/h | 23548m | 5.4m/s | -51.2°C | 0% | 0hPa | 0V | 00:00:00 | 00:00:00 | 00:00:00 | |
| PETON7-10 | 2026-09-01 06:38:27 | 48.60872 | 18.71269 | 167° | 5km/h | 23524m | 5.1m/s | 0°C | 0% | 0hPa | 0V | 00:00:00 | 00:00:00 | 00:00:00 | |
| GYPAP8-17 | 2026-09-01 06:38:23 | 48.60873 | 18.71272 | 194° | 5km/h | 23510m | 5.5m/s | -51.3°C | 0% | 0hPa | 0V | 00:00:00 | 00:00:00 | 00:00:00 | |
| PETON7-10 | 2026-09-01 06:38:12 | 48.60885 | 18.71273 | 124° | 7km/h | 23454m | 4.8m/s | 0°C | 0% | 0hPa | 0V | 00:00:00 | 00:00:00 | 00:00:00 | |
| ATIDSZ-14 | 2026-09-01 06:38:11 | 48.60886 | 18.71271 | 130° | 9km/h | 23454m | 4.8m/s | -51.3°C | 0% | 0hPa | 0V | 00:00:00 | 00:00:00 | 00:00:00 | |
| SONDE2-11 | 2026-09-01 06:38:03 | 48.60892 | 18.71251 | 71° | 7km/h | 23412m | 4.8m/s | -52.1°C | -1.0% | -1.0hPa | 0V | 00:00:00 | 00:00:00 | 00:00:00 | |
| OE5DXL-15 | 2026-09-01 06:37:58 | 48.60893 | 18.71242 | 59° | 13km/h | 23388m | 4.7m/s | 0°C | 0% | 0hPa | 0V | 00:00:00 | 00:00:00 | 00:00:00 | |
| ATIDSZ-14 | 2026-09-01 06:37:50 | 48.60877 | 18.71210 | 73° | 13km/h | 23354m | 5.8m/s | -51.4°C | 0% | 0hPa | 0V | 00:00:00 | 00:00:00 | 00:00:00 | |
| PETON7-10 | 2026-09-01 06:37:42 | 48.60862 | 18.71180 | 46° | 13km/h | 23310m | 5.0m/s | 0°C | 0% | 0hPa | 0V | 00:00:00 | 00:00:00 | 00:00:00 | |
| ATIDSZ-14 | 2026-09-01 06:37:30 | 48.60845 | 18.71145 | 17° | 11km/h | 23257m | 4.9m/s | -51.2°C | 0% | 0hPa | 0V | 00:00:00 | 00:00:00 | 00:00:00 | |
| OE5DXL-15 | 2026-09-01 06:37:28 | 48.60838 | 18.71142 | 44° | 11km/h | 23242m | 4.8m/s | 0°C | 0% | 0hPa | 0V | 00:00:00 | 00:00:00 | 00:00:00 | |
| PETON7-10 | 2026-09-01 06:37:27 | 48.60835 | 18.71140 | 44° | 11km/h | 23237m | 4.5m/s | 0°C | 0% | 0hPa | 0V | 00:00:00 | 00:00:00 | 00:00:00 | |
| OE3JTB-15 | 2026-09-01 06:37:26 | 48.60835 | 18.71138 | 46° | 11km/h | 23237m | 4.5m/s | 0°C | 0% | 0hPa | 0V | 00:00:00 | 00:00:00 | 00:00:00 | |
| PETON7-10 | 2026-09-01 06:37:11 | 48.60800 | 18.71131 | 21° | 9km/h | 23157m | 4.6m/s | 0°C | 0% | 0hPa | 0V | 00:00:00 | 00:00:00 | 00:00:00 | |
| ATIDSZ-14 | 2026-09-01 06:37:09 | 48.60799 | 18.71129 | 5° | 5km/h | 23151m | 5.5m/s | -51.6°C | 0% | 0hPa | 0V | 00:00:00 | 00:00:00 | 00:00:00 | |
| OE5DXL-15 | 2026-09-01 06:36:58 | 48.60769 | 18.71131 | 337° | 15km/h | 23097m | 5.7m/s | 0°C | 0% | 0hPa | 0V | 00:00:00 | 00:00:00 | 00:00:00 | |
| PETON7-10 | 2026-09-01 06:36:56 | 48.60763 | 18.71135 | 355° | 13km/h | 23081m | 5.8m/s | 0°C | 0% | 0hPa | 0V | 00:00:00 | 00:00:00 | 00:00:00 | |
| SQ9EZE-15 | 2026-09-01 06:36:55 | 48.60759 | 18.71135 | 3° | 15km/h | 23081m | 5.8m/s | -51.7°C | 0% | 0hPa | 0V | 00:00:00 | 00:00:00 | 00:00:00 | |
| ATIDSZ-14 | 2026-09-01 06:36:49 | 48.60744 | 18.71140 | 1° | 5km/h | 23050m | 4.1m/s | -51.7°C | 0% | 0hPa | 0V | 00:00:00 | 00:00:00 | 00:00:00 | |
| PETON7-10 | 2026-09-01 06:36:41 | 48.60714 | 18.71138 | 16° | 16km/h | 23004m | 5.9m/s | 0°C | 0% | 0hPa | 0V | 00:00:00 | 00:00:00 | 00:00:00 | |
| ATIDSZ-14 | 2026-09-01 06:36:29 | 48.60661 | 18.71121 | 11° | 11km/h | 22941m | 4.5m/s | -51.8°C | 0% | 0hPa | 0V | 00:00:00 | 00:00:00 | 00:00:00 | |
| OE5DXL-15 | 2026-09-01 06:36:28 | 48.60662 | 18.71121 | 11° | 11km/h | 22937m | 4.7m/s | 0°C | 0% | 0hPa | 0V | 00:00:00 | 00:00:00 | 00:00:00 | |
| PETON7-10 | 2026-09-01 06:36:26 | 48.60654 | 18.71119 | 2° | 13km/h | 22926m | 4.2m/s | 0°C | 0% | 0hPa | 0V | 00:00:00 | 00:00:00 | 00:00:00 | |
| PETON7-10 | 2026-09-01 06:36:11 | 48.60612 | 18.71114 | 60° | 9km/h | 22852m | 4.0m/s | 0°C | 0% | 0hPa | 0V | 00:00:00 | 00:00:00 | 00:00:00 | |
| ATIDSZ-14 | 2026-09-01 06:36:08 | 48.60610 | 18.71111 | 323° | 13km/h | 22842m | 5.3m/s | -51.3°C | 0% | 0hPa | 0V | 00:00:00 | 00:00:00 | 00:00:00 | |
| OE5DXL-15 | 2026-09-01 06:35:58 | 48.60594 | 18.71124 | 334° | 7km/h | 22787m | 4.3m/s | 0°C | 0% | 0hPa | 0V | 00:00:00 | 00:00:00 | 00:00:00 | |
| PETON7-10 | 2026-09-01 06:35:56 | 48.60589 | 18.71128 | 124° | 5km/h | 22777m | 4.4m/s | 0°C | 0% | 0hPa | 0V | 00:00:00 | 00:00:00 | 00:00:00 | |
| ATIDSZ-14 | 2026-09-01 06:35:47 | 48.60583 | 18.71130 | 323° | 4km/h | 22739m | 5.2m/s | -51.5°C | 0% | 0hPa | 0V | 00:00:00 | 00:00:00 | 00:00:00 | |
| PETON7-10 | 2026-09-01 06:35:41 | 48.60577 | 18.71134 | 4° | 7km/h | 22705m | 3.8m/s | 0°C | 0% | 0hPa | 0V | 00:00:00 | 00:00:00 | 00:00:00 | |
| OE5DXL-15 | 2026-09-01 06:35:28 | 48.60571 | 18.71117 | 51° | 9km/h | 22643m | 4.5m/s | 0°C | 0% | 0hPa | 0V | 00:00:00 | 00:00:00 | 00:00:00 | |
| PETON7-10 | 2026-09-01 06:35:26 | 48.60569 | 18.71110 | 26° | 7km/h | 22634m | 5.2m/s | 0°C | 0% | 0hPa | 0V | 00:00:00 | 00:00:00 | 00:00:00 | |
| OE3JTB-15 | 2026-09-01 06:35:13 | 48.60556 | 18.71089 | 33° | 15km/h | 22573m | 3.8m/s | 0°C | 0% | 0hPa | 0V | 00:00:00 | 00:00:00 | 00:00:00 | |
| PETON7-10 | 2026-09-01 06:35:11 | 48.60552 | 18.71086 | 87° | 9km/h | 22563m | 4.4m/s | 0°C | 0% | 0hPa | 0V | 00:00:00 | 00:00:00 | 00:00:00 | |
| SQ9EZE-14 | 2026-09-01 06:35:10 | 48.60552 | 18.71081 | 96° | 15km/h | 22563m | 4.5m/s | -51.7°C | 0% | 0hPa | 0V | 00:00:00 | 00:00:00 | 00:00:00 | |
| ATIDSZ-14 | 2026-09-01 06:35:06 | 48.60548 | 18.71071 | 29° | 11km/h | 22546m | 5.0m/s | -51.6°C | 0% | 0hPa | 0V | 00:00:00 | 00:00:00 | 00:00:00 | |
| OE5DXL-15 | 2026-09-01 06:34:58 | 48.60539 | 18.71050 | 35° | 11km/h | 22504m | 3.5m/s | 0°C | 0% | 0hPa | 0V | 00:00:00 | 00:00:00 | 00:00:00 | |
| PETON7-10 | 2026-09-01 06:34:56 | 48.60534 | 18.71045 | 58° | 11km/h | 22495m | 4.5m/s | 0°C | 0% | 0hPa | 0V | 00:00:00 | 00:00:00 | 00:00:00 | |
| SQ9EZE-15 | 2026-09-01 06:34:54 | 48.60532 | 18.71035 | 84° | 15km/h | 22491m | 3.3m/s | -51.7°C | 0% | 0hPa | 0V | 00:00:00 | 00:00:00 | 00:00:00 | |
| ATIDSZ-14 | 2026-09-01 06:34:45 | 48.60520 | 18.71010 | 73° | 15km/h | 22449m | 4.7m/s | -51.7°C | 0% | 0hPa | 0V | 00:00:00 | 00:00:00 | 00:00:00 | |
| PETON7-10 | 2026-09-01 06:34:41 | 48.60512 | 18.71001 | 33° | 11km/h | 22427m | 4.6m/s | 0°C | 0% | 0hPa | 0V | 00:00:00 | 00:00:00 | 00:00:00 | |
| OE5DXL-15 | 2026-09-01 06:34:28 | 48.60485 | 18.70970 | 9° | 16km/h | 22369m | 3.9m/s | 0°C | 0% | 0hPa | 0V | 00:00:00 | 00:00:00 | 00:00:00 | |
| PETON7-10 | 2026-09-01 06:34:26 | 48.60479 | 18.70970 | 29° | 16km/h | 22360m | 4.6m/s | 0°C | 0% | 0hPa | 0V | 00:00:00 | 00:00:00 | 00:00:00 | |
| ATIDSZ-14 | 2026-09-01 06:34:25 | 48.60476 | 18.70968 | 43° | 15km/h | 22360m | 4.7m/s | -52.1°C | 0% | 0hPa | 0V | 00:00:00 | 00:00:00 | 00:00:00 | |
| PETON7-10 | 2026-09-01 06:34:11 | 48.60423 | 18.70947 | 3° | 16km/h | 22297m | 4.5m/s | 0°C | 0% | 0hPa | 0V | 00:00:00 | 00:00:00 | 00:00:00 | |
| ATIDSZ-14 | 2026-09-01 06:34:05 | 48.60394 | 18.70937 | 356° | 15km/h | 22272m | 3.6m/s | -51.9°C | 0% | 0hPa | 0V | 00:00:00 | 00:00:00 | 00:00:00 | |
| OE5DXL-15 | 2026-09-01 06:33:58 | 48.60373 | 18.70938 | 355° | 22km/h | 22241m | 5.3m/s | 0°C | 0% | 0hPa | 0V | 00:00:00 | 00:00:00 | 00:00:00 | |
| PETON7-10 | 2026-09-01 06:33:55 | 48.60353 | 18.70941 | 353° | 20km/h | 22227m | 4.4m/s | 0°C | 0% | 0hPa | 0V | 00:00:00 | 00:00:00 | 00:00:00 | |
| ATIDSZ-14 | 2026-09-01 06:33:44 | 48.60301 | 18.70962 | 326° | 15km/h | 22182m | 4.2m/s | -51.6°C | 0% | 0hPa | 0V | 00:00:00 | 00:00:00 | 00:00:00 | |
| PETON7-10 | 2026-09-01 06:33:40 | 48.60282 | 18.70966 | 2° | 24km/h | 22162m | 4.7m/s | 0°C | 0% | 0hPa | 0V | 00:00:00 | 00:00:00 | 00:00:00 | |
| OE3JTB-15 | 2026-09-01 06:33:35 | 48.60258 | 18.70980 | 357° | 24km/h | 22144m | 4.4m/s | 0°C | 0% | 0hPa | 0V | 00:00:00 | 00:00:00 | 00:00:00 | |
| GYPAP8-17 | 2026-09-01 06:33:33 | 48.60243 | 18.70982 | 354° | 27km/h | 22135m | 4.0m/s | -52.0°C | 0% | 0hPa | 0V | 00:00:00 | 00:00:00 | 00:00:00 | |
| OE5DXL-15 | 2026-09-01 06:33:28 | 48.60216 | 18.70989 | 313° | 16km/h | 22110m | 3.2m/s | 0°C | 0% | 0hPa | 0V | 00:00:00 | 00:00:00 | 00:00:00 | |
| PETON7-10 | 2026-09-01 06:33:25 | 48.60201 | 18.71003 | 357° | 18km/h | 22097m | 3.7m/s | 0°C | 0% | 0hPa | 0V | 00:00:00 | 00:00:00 | 00:00:00 | |
| ATIDSZ-14 | 2026-09-01 06:33:23 | 48.60187 | 18.71004 | 351° | 24km/h | 22093m | 4.4m/s | -52.4°C | 0% | 0hPa | 0V | 00:00:00 | 00:00:00 | 00:00:00 | |
| SQ9EZE-15 | 2026-09-01 06:33:17 | 48.60161 | 18.71015 | 348° | 16km/h | 22068m | 4.8m/s | -52.8°C | 0% | 0hPa | 0V | 00:00:00 | 00:00:00 | 00:00:00 | |
| PETON7-10 | 2026-09-01 06:33:10 | 48.60139 | 18.71031 | 354° | 13km/h | 22032m | 4.4m/s | 0°C | 0% | 0hPa | 0V | 00:00:00 | 00:00:00 | 00:00:00 | |
| OE3JTB-15 | 2026-09-01 06:33:04 | 48.60125 | 18.71042 | 305° | 13km/h | 22006m | 4.1m/s | 0°C | 0% | 0hPa | 0V | 00:00:00 | 00:00:00 | 00:00:00 | |
| ATIDSZ-14 | 2026-09-01 06:33:03 | 48.60124 | 18.71045 | 301° | 13km/h | 22006m | 4.2m/s | -53.8°C | 0% | 0hPa | 0V | 00:00:00 | 00:00:00 | 00:00:00 | |
| OE5DXL-15 | 2026-09-01 06:32:58 | 48.60115 | 18.71068 | 298° | 11km/h | 21978m | 5.4m/s | 0°C | 0% | 0hPa | 0V | 00:00:00 | 00:00:00 | 00:00:00 | |
| PETON7-10 | 2026-09-01 06:32:55 | 48.60114 | 18.71082 | 294° | 11km/h | 21965m | 4.0m/s | 0°C | 0% | 0hPa | 0V | 00:00:00 | 00:00:00 | 00:00:00 | |
| ATIDSZ-14 | 2026-09-01 06:32:42 | 48.60103 | 18.71121 | 294° | 11km/h | 21912m | 4.0m/s | -53.9°C | 0% | 0hPa | 0V | 00:00:00 | 00:00:00 | 00:00:00 | |
| PETON7-10 | 2026-09-01 06:32:40 | 48.60101 | 18.71128 | 296° | 11km/h | 21898m | 4.6m/s | 0°C | 0% | 0hPa | 0V | 00:00:00 | 00:00:00 | 00:00:00 | |
| OE3JTB-15 | 2026-09-01 06:32:35 | 48.60095 | 18.71142 | 273° | 13km/h | 21870m | 5.3m/s | 0°C | 0% | 0hPa | 0V | 00:00:00 | 00:00:00 | 00:00:00 | |
| OE5DXL-15 | 2026-09-01 06:32:28 | 48.60092 | 18.71164 | 308° | 9km/h | 21843m | 5.0m/s | 0°C | 0% | 0hPa | 0V | 00:00:00 | 00:00:00 | 00:00:00 | |
| PETON7-10 | 2026-09-01 06:32:25 | 48.60086 | 18.71174 | 288° | 9km/h | 21829m | 4.0m/s | 0°C | 0% | 0hPa | 0V | 00:00:00 | 00:00:00 | 00:00:00 | |
| ATIDSZ-14 | 2026-09-01 06:32:22 | 48.60086 | 18.71184 | 48° | 2km/h | 21820m | 5.6m/s | -53.6°C | 0% | 0hPa | 0V | 00:00:00 | 00:00:00 | 00:00:00 | |
| SQ9EZE-14 | 2026-09-01 06:32:13 | 48.60080 | 18.71193 | 53° | 5km/h | 21778m | 5.1m/s | -53.5°C | 0% | 0hPa | 0V | 00:00:00 | 00:00:00 | 00:00:00 | |
| PETON7-10 | 2026-09-01 06:32:10 | 48.60079 | 18.71187 | 8° | 11km/h | 21759m | 4.8m/s | 0°C | 0% | 0hPa | 0V | 00:00:00 | 00:00:00 | 00:00:00 | |
| OE5DXL-15 | 2026-09-01 06:31:58 | 48.60050 | 18.71192 | 342° | 9km/h | 21709m | 4.6m/s | 0°C | 0% | 0hPa | 0V | 00:00:00 | 00:00:00 | 00:00:00 | |
| PETON7-10 | 2026-09-01 06:31:55 | 48.60049 | 18.71197 | 34° | 11km/h | 21690m | 5.2m/s | 0°C | 0% | 0hPa | 0V | 00:00:00 | 00:00:00 | 00:00:00 | |
| OE3JTB-15 | 2026-09-01 06:31:51 | 48.60039 | 18.71193 | 301° | 11km/h | 21621m | 4.5m/s | 0°C | 0% | 0hPa | 0V | 00:00:00 | 00:00:00 | 00:00:00 | |
| ATIDSZ-14 | 2026-09-01 06:31:41 | 48.60030 | 18.71210 | 279° | 16km/h | 21630m | 5.4m/s | -53.5°C | 0% | 0hPa | 0V | 00:00:00 | 00:00:00 | 00:00:00 | |
| PETON7-10 | 2026-09-01 06:31:40 | 48.60030 | 18.71215 | 255° | 7km/h | 21621m | 4.5m/s | 0°C | 0% | 0hPa | 0V | 00:00:00 | 00:00:00 | 00:00:00 | |
| OE5DXL-15 | 2026-09-01 06:31:28 | 48.60034 | 18.71242 | 191° | 9km/h | 21565m | 4.6m/s | 0°C | 0% | 0hPa | 0V | 00:00:00 | 00:00:00 | 00:00:00 | |
| PETON7-10 | 2026-09-01 06:31:25 | 48.60036 | 18.71241 | 238° | 9km/h | 21551m | 4.0m/s | 0°C | 0% | 0hPa | 0V | 00:00:00 | 00:00:00 | 00:00:00 | |
| ATIDSZ-14 | 2026-09-01 06:31:20 | 48.60038 | 18.71262 | 259° | 11km/h | 21530m | 4.2m/s | -53.3°C | 0% | 0hPa | 0V | 00:00:00 | 00:00:00 | 00:00:00 | |
| PETON7-10 | 2026-09-01 06:31:10 | 48.60039 | 18.71280 | 333° | 9km/h | 21482m | 4.4m/s | 0°C | 0% | 0hPa | 0V | 00:00:00 | 00:00:00 | 00:00:00 | |
| ATIDSZ-14 | 2026-09-01 06:31:00 | 48.60023 | 18.71287 | 280° | 4km/h | 21441m | 4.8m/s | -53.8°C | 0% | 0hPa | 0V | 00:00:00 | 00:00:00 | 00:00:00 | |
| OE5DXL-15 | 2026-09-01 06:30:58 | 48.60024 | 18.71291 | 262° | 15km/h | 21433m | 4.2m/s | 0°C | 0% | 0hPa | 0V | 00:00:00 | 00:00:00 | 00:00:00 | |
| PETON7-10 | 2026-09-01 06:30:55 | 48.60018 | 18.71293 | 354° | 11km/h | 21414m | 4.6m/s | 0°C | 0% | 0hPa | 0V | 00:00:00 | 00:00:00 | 00:00:00 | |
| PETON7-10 | 2026-09-01 06:30:39 | 48.59973 | 18.71296 | 354° | 18km/h | 21342m | 4.6m/s | 0°C | 0% | 0hPa | 0V | 00:00:00 | 00:00:00 | 00:00:00 | |
| OE5DXL-15 | 2026-09-01 06:30:28 | 48.59921 | 18.71304 | 21° | 15km/h | 21294m | 5.0m/s | 0°C | 0% | 0hPa | 0V | 00:00:00 | 00:00:00 | 00:00:00 | |
| PETON7-10 | 2026-09-01 06:30:24 | 48.59907 | 18.71295 | 344° | 16km/h | 21277m | 3.8m/s | 0°C | 0% | 0hPa | 0V | 00:00:00 | 00:00:00 | 00:00:00 | |
| ATIDSZ-14 | 2026-09-01 06:30:18 | 48.59878 | 18.71295 | 353° | 18km/h | 21256m | 4.3m/s | -53.7°C | 0% | 0hPa | 0V | 00:00:00 | 00:00:00 | 00:00:00 | |
| PETON7-10 | 2026-09-01 06:30:09 | 48.59846 | 18.71297 | 344° | 11km/h | 21212m | 3.5m/s | 0°C | 0% | 0hPa | 0V | 00:00:00 | 00:00:00 | 00:00:00 | |
| OE5DXL-15 | 2026-09-01 06:29:58 | 48.59818 | 18.71309 | 283° | 9km/h | 21163m | 4.8m/s | 0°C | 0% | 0hPa | 0V | 00:00:00 | 00:00:00 | 00:00:00 | |
| PETON7-10 | 2026-09-01 06:29:54 | 48.59815 | 18.71317 | 353° | 9km/h | 21146m | 4.3m/s | 0°C | 0% | 0hPa | 0V | 00:00:00 | 00:00:00 | 00:00:00 | |
| PETON7-10 | 2026-09-01 06:29:39 | 48.59801 | 18.71339 | 216° | 9km/h | 21084m | 4.9m/s | 0°C | 0% | 0hPa | 0V | 00:00:00 | 00:00:00 | 00:00:00 | |
| ATIDSZ-14 | 2026-09-01 06:29:37 | 48.59803 | 18.71342 | 253° | 11km/h | 21079m | 3.8m/s | -53.0°C | 0% | 0hPa | 0V | 00:00:00 | 00:00:00 | 00:00:00 | |
| OE5DXL-15 | 2026-09-01 06:29:28 | 48.59810 | 18.71364 | 239° | 11km/h | 21036m | 3.7m/s | 0°C | 0% | 0hPa | 0V | 00:00:00 | 00:00:00 | 00:00:00 | |
| PETON7-10 | 2026-09-01 06:29:24 | 48.59812 | 18.71381 | 232° | 11km/h | 21020m | 3.7m/s | 0°C | 0% | 0hPa | 0V | 00:00:00 | 00:00:00 | 00:00:00 | |
| SQ9EZE-14 | 2026-09-01 06:29:23 | 48.59813 | 18.71383 | 229° | 9km/h | 21020m | 3.7m/s | -53.2°C | 0% | 0hPa | 0V | 00:00:00 | 00:00:00 | 00:00:00 | |
| ATIDSZ-14 | 2026-09-01 06:29:17 | 48.59824 | 18.71406 | 244° | 7km/h | 20994m | 5.2m/s | -53.1°C | 0% | 0hPa | 0V | 00:00:00 | 00:00:00 | 00:00:00 | |
| PETON7-10 | 2026-09-01 06:29:09 | 48.59840 | 18.71429 | 209° | 9km/h | 20955m | 4.5m/s | 0°C | 0% | 0hPa | 0V | 00:00:00 | 00:00:00 | 00:00:00 | |
| SQ9EZE-15 | 2026-09-01 06:28:59 | 48.59861 | 18.71442 | 201° | 7km/h | 20916m | 4.0m/s | -52.9°C | 0% | 0hPa | 0V | 00:00:00 | 00:00:00 | 00:00:00 | |
| OE5DXL-15 | 2026-09-01 06:28:58 | 48.59863 | 18.71443 | 211° | 9km/h | 20907m | 4.0m/s | 0°C | 0% | 0hPa | 0V | 00:00:00 | 00:00:00 | 00:00:00 | |
| ATIDSZ-14 | 2026-09-01 06:28:56 | 48.59869 | 18.71449 | 190° | 13km/h | 20902m | 4.9m/s | -52.9°C | 0% | 0hPa | 0V | 00:00:00 | 00:00:00 | 00:00:00 | |
| PETON7-10 | 2026-09-01 06:28:54 | 48.59873 | 18.71449 | 192° | 9km/h | 20889m | 4.3m/s | 0°C | 0% | 0hPa | 0V | 00:00:00 | 00:00:00 | 00:00:00 | |
| PETON7-10 | 2026-09-01 06:28:39 | 48.59901 | 18.71456 | 218° | 11km/h | 20823m | 4.3m/s | 0°C | 0% | 0hPa | 0V | 00:00:00 | 00:00:00 | 00:00:00 | |
| ATIDSZ-14 | 2026-09-01 06:28:36 | 48.59906 | 18.71465 | 195° | 7km/h | 20814m | 4.6m/s | -52.4°C | 0% | 0hPa | 0V | 00:00:00 | 00:00:00 | 00:00:00 | |
| OE5DXL-15 | 2026-09-01 06:28:28 | 48.59926 | 18.71472 | 208° | 7km/h | 20776m | 4.0m/s | 0°C | 0% | 0hPa | 0V | 00:00:00 | 00:00:00 | 00:00:00 | |
| PETON7-10 | 2026-09-01 06:28:24 | 48.59934 | 18.71474 | 191° | 7km/h | 20758m | 4.2m/s | 0°C | 0% | 0hPa | 0V | 00:00:00 | 00:00:00 | 00:00:00 | |
| ATIDSZ-14 | 2026-09-01 06:28:15 | 48.59949 | 18.71484 | 193° | 5km/h | 20724m | 3.2m/s | -52.2°C | 0% | 0hPa | 0V | 00:00:00 | 00:00:00 | 00:00:00 | |
| PETON7-10 | 2026-09-01 06:28:09 | 48.59952 | 18.71490 | 127° | 5km/h | 20694m | 4.6m/s | 0°C | 0% | 0hPa | 0V | 00:00:00 | 00:00:00 | 00:00:00 | |
| OE3OSB-13 | 2026-09-01 06:28:08 | 48.59953 | 18.71490 | 253° | 5km/h | 20690m | 4.0m/s | -52.8°C | -1.0% | -1.0hPa | 0V | 00:00:00 | 00:00:00 | 00:00:00 | |
| OE5DXL-15 | 2026-09-01 06:27:58 | 48.59951 | 18.71484 | 354° | 11km/h | 20648m | 4.4m/s | 0°C | 0% | 0hPa | 0V | 00:00:00 | 00:00:00 | 00:00:00 | |
| ATIDSZ-14 | 2026-09-01 06:27:55 | 48.59947 | 18.71486 | 0° | 0km/h | 20639m | 4.3m/s | -52.1°C | 0% | 0hPa | 0V | 00:00:00 | 00:00:00 | 00:00:00 | |
| PETON7-10 | 2026-09-01 06:27:54 | 48.59947 | 18.71486 | 75° | 11km/h | 20631m | 4.8m/s | 0°C | 0% | 0hPa | 0V | 00:00:00 | 00:00:00 | 00:00:00 | |
| ATIDSZ-14 | 2026-09-01 06:27:35 | 48.59911 | 18.71440 | 46° | 20km/h | 20547m | 5.1m/s | -52.2°C | 0% | 0hPa | 0V | 00:00:00 | 00:00:00 | 00:00:00 | |
| OE5DXL-15 | 2026-09-01 06:27:28 | 48.59893 | 18.71421 | 33° | 11km/h | 20515m | 4.6m/s | 0°C | 0% | 0hPa | 0V | 00:00:00 | 00:00:00 | 00:00:00 | |
| PETON7-10 | 2026-09-01 06:27:23 | 48.59878 | 18.71403 | 4° | 11km/h | 20494m | 3.4m/s | 0°C | 0% | 0hPa | 0V | 00:00:00 | 00:00:00 | 00:00:00 | |
| ATIDSZ-14 | 2026-09-01 06:27:14 | 48.59858 | 18.71391 | 352° | 13km/h | 20458m | 5.4m/s | -52.7°C | 0% | 0hPa | 0V | 00:00:00 | 00:00:00 | 00:00:00 | |
| SQ9EZE-14 | 2026-09-01 06:27:13 | 48.59855 | 18.71392 | 356° | 13km/h | 20454m | 3.8m/s | -52.7°C | 0% | 0hPa | 0V | 00:00:00 | 00:00:00 | 00:00:00 | |
| PETON7-10 | 2026-09-01 06:27:08 | 48.59847 | 18.71384 | 5° | 7km/h | 20427m | 5.4m/s | 0°C | 0% | 0hPa | 0V | 00:00:00 | 00:00:00 | 00:00:00 | |
| OE3OSB-13 | 2026-09-01 06:27:06 | 48.59843 | 18.71383 | 0° | 0km/h | 20418m | 4.0m/s | -53.3°C | -1.0% | -1.0hPa | 0V | 00:00:00 | 00:00:00 | 00:00:00 | |
| OE5DXL-15 | 2026-09-01 06:26:58 | 48.59833 | 18.71376 | 24° | 7km/h | 20383m | 3.2m/s | 0°C | 0% | 0hPa | 0V | 00:00:00 | 00:00:00 | 00:00:00 | |
| PETON7-10 | 2026-09-01 06:26:53 | 48.59831 | 18.71368 | 33° | 7km/h | 20360m | 3.6m/s | 0°C | 0% | 0hPa | 0V | 00:00:00 | 00:00:00 | 00:00:00 | |
| PETON7-10 | 2026-09-01 06:26:38 | 48.59845 | 18.71366 | 165° | 11km/h | 20292m | 4.1m/s | 0°C | 0% | 0hPa | 0V | 00:00:00 | 00:00:00 | 00:00:00 | |
| ATIDSZ-14 | 2026-09-01 06:26:33 | 48.59849 | 18.71355 | 147° | 16km/h | 20274m | 4.6m/s | -52.9°C | 0% | 0hPa | 0V | 00:00:00 | 00:00:00 | 00:00:00 | |
| OE5DXL-15 | 2026-09-01 06:26:28 | 48.59856 | 18.71346 | 72° | 13km/h | 20246m | 4.1m/s | 0°C | 0% | 0hPa | 0V | 00:00:00 | 00:00:00 | 00:00:00 | |
| PETON7-10 | 2026-09-01 06:26:23 | 48.59857 | 18.71321 | 85° | 13km/h | 20223m | 3.9m/s | 0°C | 0% | 0hPa | 0V | 00:00:00 | 00:00:00 | 00:00:00 | |
| OE3JTB-15 | 2026-09-01 06:26:22 | 48.59856 | 18.71321 | 65° | 11km/h | 20219m | 4.8m/s | 0°C | 0% | 0hPa | 0V | 00:00:00 | 00:00:00 | 00:00:00 | |
| ATIDSZ-14 | 2026-09-01 06:26:12 | 48.59847 | 18.71280 | 45° | 15km/h | 20175m | 3.9m/s | -53.0°C | 0% | 0hPa | 0V | 00:00:00 | 00:00:00 | 00:00:00 | |
| PETON7-10 | 2026-09-01 06:26:08 | 48.59842 | 18.71261 | 49° | 13km/h | 20153m | 4.3m/s | 0°C | 0% | 0hPa | 0V | 00:00:00 | 00:00:00 | 00:00:00 | |
| OE3OSB-13 | 2026-09-01 06:26:04 | 48.59834 | 18.71243 | 54° | 18km/h | 20134m | 5.6m/s | -53.7°C | -1.0% | -1.0hPa | 0V | 00:00:00 | 00:00:00 | 00:00:00 | |
| OE5DXL-15 | 2026-09-01 06:25:58 | 48.59828 | 18.71221 | 116° | 15km/h | 20106m | 5.4m/s | 0°C | 0% | 0hPa | 0V | 00:00:00 | 00:00:00 | 00:00:00 | |
| PETON7-10 | 2026-09-01 06:25:53 | 48.59819 | 18.71203 | 79° | 15km/h | 20081m | 5.0m/s | 0°C | 0% | 0hPa | 0V | 00:00:00 | 00:00:00 | 00:00:00 | |
| ATIDSZ-14 | 2026-09-01 06:25:52 | 48.59819 | 18.71195 | 95° | 16km/h | 20081m | 5.1m/s | -52.7°C | 0% | 0hPa | 0V | 00:00:00 | 00:00:00 | 00:00:00 | |
| OE3JTB-15 | 2026-09-01 06:25:47 | 48.59826 | 18.71179 | 98° | 11km/h | 20052m | 5.2m/s | 0°C | 0% | 0hPa | 0V | 00:00:00 | 00:00:00 | 00:00:00 | |
| PETON7-10 | 2026-09-01 06:25:38 | 48.59830 | 18.71134 | 122° | 20km/h | 20009m | 4.5m/s | 0°C | 0% | 0hPa | 0V | 00:00:00 | 00:00:00 | 00:00:00 | |
| ATIDSZ-14 | 2026-09-01 06:25:32 | 48.59843 | 18.71093 | 118° | 20km/h | 19980m | 4.5m/s | -52.5°C | 0% | 0hPa | 0V | 00:00:00 | 00:00:00 | 00:00:00 | |
| OE5DXL-15 | 2026-09-01 06:25:28 | 48.59855 | 18.71068 | 138° | 20km/h | 19967m | 4.2m/s | 0°C | 0% | 0hPa | 0V | 00:00:00 | 00:00:00 | 00:00:00 | |
| PETON7-10 | 2026-09-01 06:25:23 | 48.59868 | 18.71035 | 105° | 20km/h | 19939m | 4.0m/s | 0°C | 0% | 0hPa | 0V | 00:00:00 | 00:00:00 | 00:00:00 | |
| ATIDSZ-14 | 2026-09-01 06:25:10 | 48.59896 | 18.70943 | 121° | 11km/h | 19883m | 5.1m/s | -52.3°C | 0% | 0hPa | 0V | 00:00:00 | 00:00:00 | 00:00:00 | |
| PETON7-10 | 2026-09-01 06:25:08 | 48.59900 | 18.70934 | 94° | 16km/h | 19869m | 5.5m/s | 0°C | 0% | 0hPa | 0V | 00:00:00 | 00:00:00 | 00:00:00 | |
| SQ9EZE-15 | 2026-09-01 06:25:05 | 48.59898 | 18.70911 | 88° | 26km/h | 19860m | 5.6m/s | 0°C | 0% | 0hPa | 0V | 00:00:00 | 00:00:00 | 00:00:00 | |
| OE5DXL-15 | 2026-09-01 06:24:55 | 48.59897 | 18.70850 | 80° | 13km/h | 19809m | 4.3m/s | 0°C | 0% | 0hPa | 0V | 00:00:00 | 00:00:00 | 00:00:00 | |
| PETON7-10 | 2026-09-01 06:24:53 | 48.59895 | 18.70838 | 59° | 13km/h | 19800m | 4.1m/s | 0°C | 0% | 0hPa | 0V | 00:00:00 | 00:00:00 | 00:00:00 | |
| ATIDSZ-14 | 2026-09-01 06:24:50 | 48.59892 | 18.70830 | 69° | 15km/h | 19790m | 4.1m/s | -52.5°C | 0% | 0hPa | 0V | 00:00:00 | 00:00:00 | 00:00:00 | |
| SQ9EZE-14 | 2026-09-01 06:24:41 | 48.59873 | 18.70793 | 65° | 11km/h | 19749m | 5.2m/s | -52.6°C | 0% | 0hPa | 0V | 00:00:00 | 00:00:00 | 00:00:00 | |
| PETON7-10 | 2026-09-01 06:24:38 | 48.59868 | 18.70777 | 40° | 11km/h | 19731m | 3.8m/s | 0°C | 0% | 0hPa | 0V | 00:00:00 | 00:00:00 | 00:00:00 | |
| OE3JTB-15 | 2026-09-01 06:24:35 | 48.59865 | 18.70771 | 98° | 20km/h | 19717m | 5.2m/s | 0°C | 0% | 0hPa | 0V | 00:00:00 | 00:00:00 | 00:00:00 | |
| ATIDSZ-14 | 2026-09-01 06:24:29 | 48.59860 | 18.70743 | 62° | 11km/h | 19694m | 5.3m/s | -52.3°C | 0% | 0hPa | 0V | 00:00:00 | 00:00:00 | 00:00:00 | |
| OE5DXL-15 | 2026-09-01 06:24:25 | 48.59860 | 18.70731 | 93° | 18km/h | 19671m | 5.8m/s | 0°C | 0% | 0hPa | 0V | 00:00:00 | 00:00:00 | 00:00:00 | |
| PETON7-10 | 2026-09-01 06:24:23 | 48.59859 | 18.70718 | 59° | 16km/h | 19662m | 2.7m/s | 0°C | 0% | 0hPa | 0V | 00:00:00 | 00:00:00 | 00:00:00 | |
| ATIDSZ-14 | 2026-09-01 06:24:09 | 48.59862 | 18.70647 | 120° | 20km/h | 19603m | 4.3m/s | -52.6°C | 0% | 0hPa | 0V | 00:00:00 | 00:00:00 | 00:00:00 | |
| PETON7-10 | 2026-09-01 06:24:08 | 48.59864 | 18.70640 | 112° | 22km/h | 19594m | 5.5m/s | 0°C | 0% | 0hPa | 0V | 00:00:00 | 00:00:00 | 00:00:00 | |
| SP9KGR-15 | 2026-09-01 06:24:04 | 48.59864 | 18.70598 | 116° | 16km/h | 19576m | 4.8m/s | -52.7°C | 0% | 0hPa | 0V | 00:00:00 | 00:00:00 | 00:00:00 | |
| OE5DXL-15 | 2026-09-01 06:23:55 | 48.59875 | 18.70534 | 106° | 27km/h | 19535m | 4.4m/s | 0°C | 0% | 0hPa | 0V | 00:00:00 | 00:00:00 | 00:00:00 | |
| PETON7-10 | 2026-09-01 06:23:53 | 48.59879 | 18.70518 | 112° | 24km/h | 19525m | 4.6m/s | 0°C | 0% | 0hPa | 0V | 00:00:00 | 00:00:00 | 00:00:00 | |
| ATIDSZ-14 | 2026-09-01 06:23:48 | 48.59882 | 18.70472 | 79° | 24km/h | 19508m | 5.0m/s | -53.1°C | 0% | 0hPa | 0V | 00:00:00 | 00:00:00 | 00:00:00 | |
| SP9KGR-15 | 2026-09-01 06:23:47 | 48.59880 | 18.70464 | 87° | 22km/h | 19503m | 4.0m/s | -53.1°C | 0% | 0hPa | 0V | 00:00:00 | 00:00:00 | 00:00:00 | |
| PETON7-10 | 2026-09-01 06:23:38 | 48.59881 | 18.70380 | 91° | 31km/h | 19459m | 3.6m/s | 0°C | 0% | 0hPa | 0V | 00:00:00 | 00:00:00 | 00:00:00 | |
| ATIDSZ-14 | 2026-09-01 06:23:28 | 48.59882 | 18.70267 | 92° | 27km/h | 19419m | 5.2m/s | -53.2°C | 0% | 0hPa | 0V | 00:00:00 | 00:00:00 | 00:00:00 | |
| OE5DXL-15 | 2026-09-01 06:23:24 | 48.59879 | 18.70213 | 94° | 31km/h | 19396m | 5.0m/s | 0°C | 0% | 0hPa | 0V | 00:00:00 | 00:00:00 | 00:00:00 | |
| PETON7-10 | 2026-09-01 06:23:23 | 48.59879 | 18.70199 | 91° | 29km/h | 19391m | 4.7m/s | 0°C | 0% | 0hPa | 0V | 00:00:00 | 00:00:00 | 00:00:00 | |
| SP9KGR-15 | 2026-09-01 06:23:12 | 48.59864 | 18.70081 | 66° | 26km/h | 19347m | 3.7m/s | -53.4°C | 0% | 0hPa | 0V | 00:00:00 | 00:00:00 | 00:00:00 | |
| PETON7-10 | 2026-09-01 06:23:08 | 48.59860 | 18.70040 | 79° | 33km/h | 19324m | 5.3m/s | 0°C | 0% | 0hPa | 0V | 00:00:00 | 00:00:00 | 00:00:00 | |
| ATIDSZ-14 | 2026-09-01 06:23:07 | 48.59858 | 18.70028 | 79° | 33km/h | 19324m | 5.3m/s | -53.4°C | 0% | 0hPa | 0V | 00:00:00 | 00:00:00 | 00:00:00 | |
| GYPAP8-17 | 2026-09-01 06:22:56 | 48.59830 | 18.69899 | 65° | 37km/h | 19274m | 5.0m/s | -53.8°C | 0% | 0hPa | 0V | 00:00:00 | 00:00:00 | 00:00:00 | |
| OE5DXL-15 | 2026-09-01 06:22:54 | 48.59821 | 18.69876 | 63° | 29km/h | 19262m | 4.9m/s | 0°C | 0% | 0hPa | 0V | 00:00:00 | 00:00:00 | 00:00:00 | |
| PETON7-10 | 2026-09-01 06:22:53 | 48.59819 | 18.69865 | 86° | 31km/h | 19257m | 3.8m/s | 0°C | 0% | 0hPa | 0V | 00:00:00 | 00:00:00 | 00:00:00 | |
| SP9KGR-15 | 2026-09-01 06:22:50 | 48.59809 | 18.69820 | 59° | 35km/h | 19244m | 4.5m/s | -53.8°C | 0% | 0hPa | 0V | 00:00:00 | 00:00:00 | 00:00:00 | |
| ATIDSZ-14 | 2026-09-01 06:22:47 | 48.59801 | 18.69799 | 62° | 29km/h | 19235m | 4.3m/s | -53.7°C | 0% | 0hPa | 0V | 00:00:00 | 00:00:00 | 00:00:00 | |
| PETON7-10 | 2026-09-01 06:22:38 | 48.59771 | 18.69707 | 62° | 26km/h | 19191m | 4.4m/s | 0°C | 0% | 0hPa | 0V | 00:00:00 | 00:00:00 | 00:00:00 | |
| SQ9EZE-14 | 2026-09-01 06:22:33 | 48.59753 | 18.69651 | 69° | 20km/h | 19171m | 3.8m/s | -53.8°C | 0% | 0hPa | 0V | 00:00:00 | 00:00:00 | 00:00:00 | |
| ATIDSZ-14 | 2026-09-01 06:22:26 | 48.59735 | 18.69600 | 73° | 29km/h | 19144m | 3.9m/s | -53.8°C | 0% | 0hPa | 0V | 00:00:00 | 00:00:00 | 00:00:00 | |
| OE5DXL-15 | 2026-09-01 06:22:24 | 48.59734 | 18.69582 | 92° | 27km/h | 19131m | 3.4m/s | 0°C | 0% | 0hPa | 0V | 00:00:00 | 00:00:00 | 00:00:00 | |
| PETON7-10 | 2026-09-01 06:22:23 | 48.59734 | 18.69575 | 59° | 26km/h | 19127m | 5.2m/s | 0°C | 0% | 0hPa | 0V | 00:00:00 | 00:00:00 | 00:00:00 | |
| SQ9EZE-14 | 2026-09-01 06:22:16 | 48.59724 | 18.69516 | 83° | 16km/h | 19102m | 4.5m/s | -54.0°C | 0% | 0hPa | 0V | 00:00:00 | 00:00:00 | 00:00:00 | |
| PETON7-10 | 2026-09-01 06:22:08 | 48.59714 | 18.69431 | 61° | 27km/h | 19063m | 4.9m/s | 0°C | 0% | 0hPa | 0V | 00:00:00 | 00:00:00 | 00:00:00 | |
| ATIDSZ-14 | 2026-09-01 06:22:06 | 48.59710 | 18.69413 | 62° | 27km/h | 19058m | 4.4m/s | -54.1°C | 0% | 0hPa | 0V | 00:00:00 | 00:00:00 | 00:00:00 | |
| OE5DXL-15 | 2026-09-01 06:21:54 | 48.59677 | 18.69295 | 73° | 20km/h | 19002m | 4.0m/s | 0°C | 0% | 0hPa | 0V | 00:00:00 | 00:00:00 | 00:00:00 | |
| PETON7-10 | 2026-09-01 06:21:52 | 48.59675 | 18.69279 | 74° | 24km/h | 18993m | 4.1m/s | 0°C | 0% | 0hPa | 0V | 00:00:00 | 00:00:00 | 00:00:00 | |
| ATIDSZ-14 | 2026-09-01 06:21:45 | 48.59656 | 18.69221 | 81° | 18km/h | 18967m | 4.3m/s | -53.8°C | 0% | 0hPa | 0V | 00:00:00 | 00:00:00 | 00:00:00 | |
| PETON7-10 | 2026-09-01 06:21:37 | 48.59636 | 18.69160 | 60° | 18km/h | 18929m | 5.1m/s | 0°C | 0% | 0hPa | 0V | 00:00:00 | 00:00:00 | 00:00:00 | |
| SP9KGR-15 | 2026-09-01 06:21:29 | 48.59621 | 18.69109 | 65° | 20km/h | 18899m | 4.8m/s | -53.3°C | 0% | 0hPa | 0V | 00:00:00 | 00:00:00 | 00:00:00 | |
| ATIDSZ-14 | 2026-09-01 06:21:25 | 48.59611 | 18.69090 | 62° | 13km/h | 18881m | 4.2m/s | -53.3°C | 0% | 0hPa | 0V | 00:00:00 | 00:00:00 | 00:00:00 | |
| OE5DXL-15 | 2026-09-01 06:21:24 | 48.59609 | 18.69085 | 68° | 15km/h | 18872m | 3.6m/s | 0°C | 0% | 0hPa | 0V | 00:00:00 | 00:00:00 | 00:00:00 | |
| PETON7-10 | 2026-09-01 06:21:22 | 48.59605 | 18.69069 | 74° | 15km/h | 18864m | 4.0m/s | 0°C | 0% | 0hPa | 0V | 00:00:00 | 00:00:00 | 00:00:00 | |
| SP9KGR-15 | 2026-09-01 06:21:13 | 48.59586 | 18.69026 | 34° | 11km/h | 18830m | 3.5m/s | -53.2°C | 0% | 0hPa | 0V | 00:00:00 | 00:00:00 | 00:00:00 | |
| PETON7-10 | 2026-09-01 06:21:07 | 48.59571 | 18.69011 | 33° | 13km/h | 18801m | 3.8m/s | 0°C | 0% | 0hPa | 0V | 00:00:00 | 00:00:00 | 00:00:00 | |
| ATIDSZ-14 | 2026-09-01 06:21:04 | 48.59563 | 18.69003 | 50° | 11km/h | 18793m | 5.1m/s | -52.9°C | 0% | 0hPa | 0V | 00:00:00 | 00:00:00 | 00:00:00 | |
| SP9KGR-15 | 2026-09-01 06:20:55 | 48.59543 | 18.68971 | 60° | 7km/h | 18754m | 4.0m/s | -52.7°C | 0% | 0hPa | 0V | 00:00:00 | 00:00:00 | 00:00:00 | |
| OE5DXL-15 | 2026-09-01 06:20:54 | 48.59542 | 18.68968 | 53° | 13km/h | 18745m | 4.4m/s | 0°C | 0% | 0hPa | 0V | 00:00:00 | 00:00:00 | 00:00:00 | |
| PETON7-10 | 2026-09-01 06:20:52 | 48.59537 | 18.68958 | 47° | 15km/h | 18736m | 4.6m/s | 0°C | 0% | 0hPa | 0V | 00:00:00 | 00:00:00 | 00:00:00 | |
| ATIDSZ-14 | 2026-09-01 06:20:44 | 48.59525 | 18.68919 | 44° | 16km/h | 18706m | 5.4m/s | -52.7°C | 0% | 0hPa | 0V | 00:00:00 | 00:00:00 | 00:00:00 | |
| PETON7-10 | 2026-09-01 06:20:37 | 48.59512 | 18.68888 | 51° | 11km/h | 18672m | 4.9m/s | 0°C | 0% | 0hPa | 0V | 00:00:00 | 00:00:00 | 00:00:00 | |
| SP9KGR-15 | 2026-09-01 06:20:29 | 48.59497 | 18.68864 | 44° | 16km/h | 18636m | 4.4m/s | -52.9°C | 0% | 0hPa | 0V | 00:00:00 | 00:00:00 | 00:00:00 | |
| OE5DXL-15 | 2026-09-01 06:20:24 | 48.59487 | 18.68858 | 68° | 7km/h | 18615m | 4.2m/s | 0°C | 0% | 0hPa | 0V | 00:00:00 | 00:00:00 | 00:00:00 | |
| PETON7-10 | 2026-09-01 06:20:22 | 48.59486 | 18.68851 | 104° | 9km/h | 18606m | 3.5m/s | 0°C | 0% | 0hPa | 0V | 00:00:00 | 00:00:00 | 00:00:00 | |
| SP9KGR-15 | 2026-09-01 06:20:14 | 48.59473 | 18.68830 | 44° | 9km/h | 18567m | 3.6m/s | -53.0°C | 0% | 0hPa | 0V | 00:00:00 | 00:00:00 | 00:00:00 | |
| PETON7-10 | 2026-09-01 06:20:07 | 48.59461 | 18.68818 | 25° | 5km/h | 18541m | 4.6m/s | 0°C | 0% | 0hPa | 0V | 00:00:00 | 00:00:00 | 00:00:00 | |
| ATIDSZ-14 | 2026-09-01 06:20:03 | 48.59457 | 18.68814 | 16° | 2km/h | 18528m | 3.9m/s | -52.9°C | 0% | 0hPa | 0V | 00:00:00 | 00:00:00 | 00:00:00 | |
| SQ9EZE-14 | 2026-09-01 06:19:59 | 48.59448 | 18.68810 | 352° | 5km/h | 18510m | 4.6m/s | -52.7°C | 0% | 0hPa | 0V | 00:00:00 | 00:00:00 | 00:00:00 | |
| OE5DXL-15 | 2026-09-01 06:19:54 | 48.59446 | 18.68806 | 55° | 7km/h | 18484m | 3.9m/s | 0°C | 0% | 0hPa | 0V | 00:00:00 | 00:00:00 | 00:00:00 | |
| PETON7-10 | 2026-09-01 06:19:52 | 48.59445 | 18.68804 | 4° | 7km/h | 18475m | 3.6m/s | 0°C | 0% | 0hPa | 0V | 00:00:00 | 00:00:00 | 00:00:00 | |
| ATIDSZ-14 | 2026-09-01 06:19:42 | 48.59431 | 18.68800 | 361° | 11km/h | 18436m | 3.2m/s | -52.5°C | 0% | 0hPa | 0V | 00:00:00 | 00:00:00 | 00:00:00 | |
| PETON7-10 | 2026-09-01 06:19:37 | 48.59432 | 18.68800 | 62° | 5km/h | 18411m | 4.5m/s | 0°C | 0% | 0hPa | 0V | 00:00:00 | 00:00:00 | 00:00:00 | |
| OE5DXL-15 | 2026-09-01 06:19:24 | 48.59425 | 18.68784 | 1° | 7km/h | 18356m | 4.4m/s | 0°C | 0% | 0hPa | 0V | 00:00:00 | 00:00:00 | 00:00:00 | |
| PETON7-10 | 2026-09-01 06:19:22 | 48.59425 | 18.68782 | 166° | 7km/h | 18347m | 5.0m/s | 0°C | 0% | 0hPa | 0V | 00:00:00 | 00:00:00 | 00:00:00 | |
| ATIDSZ-14 | 2026-09-01 06:19:21 | 48.59426 | 18.68782 | 167° | 5km/h | 18347m | 5.0m/s | -51.8°C | 0% | 0hPa | 0V | 00:00:00 | 00:00:00 | 00:00:00 | |
| SP9KGR-15 | 2026-09-01 06:19:19 | 48.59429 | 18.68781 | 74° | 5km/h | 18339m | 5.1m/s | -51.7°C | 0% | 0hPa | 0V | 00:00:00 | 00:00:00 | 00:00:00 | |
| PETON7-10 | 2026-09-01 06:19:07 | 48.59422 | 18.68754 | 1° | 11km/h | 18281m | 3.3m/s | 0°C | 0% | 0hPa | 0V | 00:00:00 | 00:00:00 | 00:00:00 | |
| SP9KGR-15 | 2026-09-01 06:19:03 | 48.59420 | 18.68746 | 77° | 11km/h | 18268m | 3.6m/s | -52.0°C | 0% | 0hPa | 0V | 00:00:00 | 00:00:00 | 00:00:00 | |
| ATIDSZ-14 | 2026-09-01 06:19:01 | 48.59420 | 18.68740 | 77° | 5km/h | 18259m | 4.1m/s | -52.0°C | 0% | 0hPa | 0V | 00:00:00 | 00:00:00 | 00:00:00 | |
| OE5DXL-15 | 2026-09-01 06:18:54 | 48.59408 | 18.68710 | 78° | 15km/h | 18225m | 4.0m/s | 0°C | 0% | 0hPa | 0V | 00:00:00 | 00:00:00 | 00:00:00 | |
| PETON7-10 | 2026-09-01 06:18:52 | 48.59406 | 18.68702 | 71° | 13km/h | 18216m | 4.3m/s | 0°C | 0% | 0hPa | 0V | 00:00:00 | 00:00:00 | 00:00:00 | |
| SP9KGR-15 | 2026-09-01 06:18:48 | 48.59401 | 18.68682 | 35° | 11km/h | 18204m | 5.2m/s | -51.5°C | 0% | 0hPa | 0V | 00:00:00 | 00:00:00 | 00:00:00 | |
| ATIDSZ-14 | 2026-09-01 06:18:40 | 48.59390 | 18.68648 | 67° | 11km/h | 18169m | 4.1m/s | -51.3°C | 0% | 0hPa | 0V | 00:00:00 | 00:00:00 | 00:00:00 | |
| OE3JTB-15 | 2026-09-01 06:18:29 | 48.59380 | 18.68589 | 89° | 22km/h | 18114m | 4.7m/s | 0°C | 0% | 0hPa | 0V | 00:00:00 | 00:00:00 | 00:00:00 | |
| SP9KGR-15 | 2026-09-01 06:18:28 | 48.59382 | 18.68575 | 103° | 20km/h | 18114m | 4.8m/s | -51.2°C | 0% | 0hPa | 0V | 00:00:00 | 00:00:00 | 00:00:00 | |
| OE5DXL-15 | 2026-09-01 06:18:24 | 48.59383 | 18.68556 | 79° | 22km/h | 18097m | 3.9m/s | 0°C | 0% | 0hPa | 0V | 00:00:00 | 00:00:00 | 00:00:00 | |
| PETON7-10 | 2026-09-01 06:18:22 | 48.59382 | 18.68546 | 87° | 20km/h | 18089m | 3.9m/s | 0°C | 0% | 0hPa | 0V | 00:00:00 | 00:00:00 | 00:00:00 | |
| ATIDSZ-14 | 2026-09-01 06:18:20 | 48.59380 | 18.68532 | 96° | 18km/h | 18085m | 4.2m/s | -51.3°C | 0% | 0hPa | 0V | 00:00:00 | 00:00:00 | 00:00:00 | |
| SP9KGR-15 | 2026-09-01 06:18:10 | 48.59382 | 18.68455 | 93° | 16km/h | 18043m | 3.6m/s | -51.6°C | 0% | 0hPa | 0V | 00:00:00 | 00:00:00 | 00:00:00 | |
| GYPAP8-17 | 2026-09-01 06:18:07 | 48.59378 | 18.68420 | 81° | 26km/h | 18026m | 4.0m/s | -51.6°C | 0% | 0hPa | 0V | 00:00:00 | 00:00:00 | 00:00:00 | |
| ATIDSZ-14 | 2026-09-01 06:17:59 | 48.59376 | 18.68358 | 76° | 31km/h | 17997m | 3.6m/s | -51.6°C | 0% | 0hPa | 0V | 00:00:00 | 00:00:00 | 00:00:00 | |
| OE3JTB-15 | 2026-09-01 06:17:58 | 48.59377 | 18.68347 | 75° | 33km/h | 17994m | 3.2m/s | 0°C | 0% | 0hPa | 0V | 00:00:00 | 00:00:00 | 00:00:00 | |
| OE5DXL-15 | 2026-09-01 06:17:54 | 48.59375 | 18.68312 | 82° | 33km/h | 17972m | 3.5m/s | 0°C | 0% | 0hPa | 0V | 00:00:00 | 00:00:00 | 00:00:00 | |
| SP9KGR-15 | 2026-09-01 06:17:53 | 48.59374 | 18.68301 | 82° | 29km/h | 17972m | 3.6m/s | -51.4°C | 0% | 0hPa | 0V | 00:00:00 | 00:00:00 | 00:00:00 | |
| PETON7-10 | 2026-09-01 06:17:52 | 48.59373 | 18.68290 | 93° | 31km/h | 17964m | 4.5m/s | 0°C | 0% | 0hPa | 0V | 00:00:00 | 00:00:00 | 00:00:00 | |
| SQ9EZE-14 | 2026-09-01 06:17:42 | 48.59382 | 18.68173 | 100° | 40km/h | 17927m | 3.2m/s | -51.2°C | 0% | 0hPa | 0V | 00:00:00 | 00:00:00 | 00:00:00 | |
| ATIDSZ-14 | 2026-09-01 06:17:39 | 48.59389 | 18.68138 | 110° | 27km/h | 17914m | 4.8m/s | -51.1°C | 0% | 0hPa | 0V | 00:00:00 | 00:00:00 | 00:00:00 | |
| PETON7-10 | 2026-09-01 06:17:37 | 48.59390 | 18.68114 | 88° | 35km/h | 17902m | 4.8m/s | 0°C | 0% | 0hPa | 0V | 00:00:00 | 00:00:00 | 00:00:00 | |
| SP9KGR-15 | 2026-09-01 06:17:36 | 48.59390 | 18.68103 | 89° | 31km/h | 17902m | 4.8m/s | -50.9°C | 0% | 0hPa | 0V | 00:00:00 | 00:00:00 | 00:00:00 | |
| OE5DXL-15 | 2026-09-01 06:17:24 | 48.59406 | 18.67947 | 104° | 42km/h | 17853m | 4.6m/s | 0°C | 0% | 0hPa | 0V | 00:00:00 | 00:00:00 | 00:00:00 | |
| PETON7-10 | 2026-09-01 06:17:22 | 48.59410 | 18.67918 | 107° | 38km/h | 17839m | 3.7m/s | 0°C | 0% | 0hPa | 0V | 00:00:00 | 00:00:00 | 00:00:00 | |
| SP9KGR-15 | 2026-09-01 06:17:21 | 48.59414 | 18.67904 | 110° | 40km/h | 17839m | 3.7m/s | -50.7°C | 0% | 0hPa | 0V | 00:00:00 | 00:00:00 | 00:00:00 | |
| ATIDSZ-14 | 2026-09-01 06:17:18 | 48.59417 | 18.67860 | 86° | 38km/h | 17827m | 2.7m/s | -50.8°C | 0% | 0hPa | 0V | 00:00:00 | 00:00:00 | 00:00:00 | |
| GYPAP8-17 | 2026-09-01 06:17:09 | 48.59435 | 18.67730 | 91° | 38km/h | 17790m | 5.2m/s | -50.8°C | 0% | 0hPa | 0V | 00:00:00 | 00:00:00 | 00:00:00 | |
| OE3JTB-15 | 2026-09-01 06:17:08 | 48.59434 | 18.67716 | 82° | 57km/h | 17761m | 4.0m/s | 0°C | 0% | 0hPa | 0V | 00:00:00 | 00:00:00 | 00:00:00 | |
| PETON7-10 | 2026-09-01 06:17:07 | 48.59433 | 18.67700 | 87° | 49km/h | 17779m | 4.6m/s | 0°C | 0% | 0hPa | 0V | 00:00:00 | 00:00:00 | 00:00:00 | |
| SP9KGR-15 | 2026-09-01 06:17:06 | 48.59434 | 18.67685 | 99° | 40km/h | 17779m | 4.6m/s | -50.8°C | 0% | 0hPa | 0V | 00:00:00 | 00:00:00 | 00:00:00 | |
| ATIDSZ-14 | 2026-09-01 06:16:58 | 48.59453 | 18.67542 | 94° | 49km/h | 17745m | 3.6m/s | -50.7°C | 0% | 0hPa | 0V | 00:00:00 | 00:00:00 | 00:00:00 | |
| OE5DXL-15 | 2026-09-01 06:16:54 | 48.59465 | 18.67466 | 102° | 60km/h | 17725m | 4.2m/s | 0°C | 0% | 0hPa | 0V | 00:00:00 | 00:00:00 | 00:00:00 | |
| PETON7-10 | 2026-09-01 06:16:52 | 48.59468 | 18.67423 | 93° | 58km/h | 17717m | 3.5m/s | 0°C | 0% | 0hPa | 0V | 00:00:00 | 00:00:00 | 00:00:00 | |
| SP9KGR-15 | 2026-09-01 06:16:48 | 48.59475 | 18.67342 | 102° | 62km/h | 17706m | 4.2m/s | -51.0°C | 0% | 0hPa | 0V | 00:00:00 | 00:00:00 | 00:00:00 | |
| PETON7-10 | 2026-09-01 06:16:37 | 48.59494 | 18.67093 | 96° | 60km/h | 17661m | 3.7m/s | 0°C | 0% | 0hPa | 0V | 00:00:00 | 00:00:00 | 00:00:00 | |
| SP9KGR-15 | 2026-09-01 06:16:33 | 48.59488 | 18.66981 | 88° | 49km/h | 17646m | 3.3m/s | -51.7°C | 0% | 0hPa | 0V | 00:00:00 | 00:00:00 | 00:00:00 | |
| OE5DXL-15 | 2026-09-01 06:16:24 | 48.59485 | 18.66788 | 85° | 60km/h | 17613m | 4.4m/s | 0°C | 0% | 0hPa | 0V | 00:00:00 | 00:00:00 | 00:00:00 | |
| PETON7-10 | 2026-09-01 06:16:22 | 48.59481 | 18.66747 | 80° | 64km/h | 17606m | 4.4m/s | 0°C | 0% | 0hPa | 0V | 00:00:00 | 00:00:00 | 00:00:00 | |
| ATIDSZ-14 | 2026-09-01 06:16:17 | 48.59470 | 18.66624 | 84° | 68km/h | 17591m | 4.1m/s | -52.4°C | 0% | 0hPa | 0V | 00:00:00 | 00:00:00 | 00:00:00 | |
| SP9KGR-15 | 2026-09-01 06:16:16 | 48.59468 | 18.66599 | 80° | 64km/h | 17587m | 3.6m/s | -52.5°C | 0% | 0hPa | 0V | 00:00:00 | 00:00:00 | 00:00:00 | |
| PETON7-10 | 2026-09-01 06:16:07 | 48.59440 | 18.66385 | 71° | 58km/h | 17550m | 3.3m/s | 0°C | 0% | 0hPa | 0V | 00:00:00 | 00:00:00 | 00:00:00 | |
| SP9KGR-15 | 2026-09-01 06:16:01 | 48.59417 | 18.66260 | 79° | 64km/h | 17531m | 4.0m/s | -52.3°C | 0% | 0hPa | 0V | 00:00:00 | 00:00:00 | 00:00:00 | |
| ATIDSZ-14 | 2026-09-01 06:15:56 | 48.59401 | 18.66154 | 79° | 53km/h | 17513m | 3.7m/s | -52.1°C | 0% | 0hPa | 0V | 00:00:00 | 00:00:00 | 00:00:00 | |
| OE5DXL-15 | 2026-09-01 06:15:54 | 48.59395 | 18.66112 | 77° | 53km/h | 17502m | 3.3m/s | 0°C | 0% | 0hPa | 0V | 00:00:00 | 00:00:00 | 00:00:00 | |
| PETON7-10 | 2026-09-01 06:15:52 | 48.59387 | 18.66067 | 75° | 55km/h | 17493m | 3.6m/s | 0°C | 0% | 0hPa | 0V | 00:00:00 | 00:00:00 | 00:00:00 | |
| SP9KGR-15 | 2026-09-01 06:15:44 | 48.59358 | 18.65910 | 77° | 55km/h | 17468m | 2.9m/s | -51.9°C | 0% | 0hPa | 0V | 00:00:00 | 00:00:00 | 00:00:00 | |
| PETON7-10 | 2026-09-01 06:15:37 | 48.59332 | 18.65772 | 71° | 49km/h | 17439m | 3.2m/s | 0°C | 0% | 0hPa | 0V | 00:00:00 | 00:00:00 | 00:00:00 | |
| ATIDSZ-14 | 2026-09-01 06:15:36 | 48.59328 | 18.65755 | 77° | 44km/h | 17439m | 3.3m/s | -51.8°C | 0% | 0hPa | 0V | 00:00:00 | 00:00:00 | 00:00:00 | |
| SP9KGR-15 | 2026-09-01 06:15:29 | 48.59303 | 18.65631 | 72° | 57km/h | 17413m | 3.2m/s | -51.7°C | 0% | 0hPa | 0V | 00:00:00 | 00:00:00 | 00:00:00 | |
| OE5DXL-15 | 2026-09-01 06:15:24 | 48.59284 | 18.65540 | 74° | 51km/h | 17391m | 4.3m/s | 0°C | 0% | 0hPa | 0V | 00:00:00 | 00:00:00 | 00:00:00 | |
| ATIDSZ-14 | 2026-09-01 06:15:15 | 48.59241 | 18.65380 | 73° | 51km/h | 17362m | 3.1m/s | -51.5°C | 0% | 0hPa | 0V | 00:00:00 | 00:00:00 | 00:00:00 | |
| SP9KGR-15 | 2026-09-01 06:15:13 | 48.59232 | 18.65344 | 67° | 49km/h | 17354m | 3.5m/s | -51.6°C | 0% | 0hPa | 0V | 00:00:00 | 00:00:00 | 00:00:00 | |
| PETON7-10 | 2026-09-01 06:15:07 | 48.59199 | 18.65241 | 66° | 49km/h | 17328m | 3.5m/s | 0°C | 0% | 0hPa | 0V | 00:00:00 | 00:00:00 | 00:00:00 | |
| SP9KGR-15 | 2026-09-01 06:14:58 | 48.59145 | 18.65092 | 64° | 47km/h | 17296m | 3.9m/s | -51.7°C | 0% | 0hPa | 0V | 00:00:00 | 00:00:00 | 00:00:00 | |
| ATIDSZ-14 | 2026-09-01 06:14:55 | 48.59124 | 18.65043 | 51° | 51km/h | 17284m | 3.7m/s | -51.8°C | 0% | 0hPa | 0V | 00:00:00 | 00:00:00 | 00:00:00 | |
| OE5DXL-15 | 2026-09-01 06:14:54 | 48.59116 | 18.65028 | 53° | 49km/h | 17277m | 4.3m/s | 0°C | 0% | 0hPa | 0V | 00:00:00 | 00:00:00 | 00:00:00 | |
| OE3JTB-15 | 2026-09-01 06:14:53 | 48.59109 | 18.65012 | 62° | 42km/h | 17277m | 4.3m/s | 0°C | 0% | 0hPa | 0V | 00:00:00 | 00:00:00 | 00:00:00 | |
| PETON7-10 | 2026-09-01 06:14:52 | 48.59104 | 18.64996 | 67° | 49km/h | 17269m | 4.5m/s | 0°C | 0% | 0hPa | 0V | 00:00:00 | 00:00:00 | 00:00:00 | |
| SP9KGR-15 | 2026-09-01 06:14:43 | 48.59039 | 18.64862 | 62° | 49km/h | 17238m | 3.9m/s | -52.1°C | 0% | 0hPa | 0V | 00:00:00 | 00:00:00 | 00:00:00 | |
| PETON7-10 | 2026-09-01 06:14:37 | 48.58992 | 18.64771 | 47° | 42km/h | 17210m | 3.3m/s | 0°C | 0% | 0hPa | 0V | 00:00:00 | 00:00:00 | 00:00:00 | |
| ATIDSZ-14 | 2026-09-01 06:14:34 | 48.58971 | 18.64732 | 66° | 37km/h | 17203m | 5.2m/s | -52.9°C | 0% | 0hPa | 0V | 00:00:00 | 00:00:00 | 00:00:00 | |
| SP9KGR-15 | 2026-09-01 06:14:28 | 48.58931 | 18.64660 | 46° | 53km/h | 17177m | 3.8m/s | -52.9°C | 0% | 0hPa | 0V | 00:00:00 | 00:00:00 | 00:00:00 | |
| OE5DXL-15 | 2026-09-01 06:14:24 | 48.58912 | 18.64605 | 83° | 35km/h | 17155m | 5.2m/s | 0°C | 0% | 0hPa | 0V | 00:00:00 | 00:00:00 | 00:00:00 | |
| PETON7-10 | 2026-09-01 06:14:22 | 48.58906 | 18.64587 | 36° | 37km/h | 17145m | 5.6m/s | 0°C | 0% | 0hPa | 0V | 00:00:00 | 00:00:00 | 00:00:00 | |
| ATIDSZ-14 | 2026-09-01 06:14:14 | 48.58863 | 18.64493 | 23° | 33km/h | 17108m | 3.7m/s | -52.8°C | 0% | 0hPa | 0V | 00:00:00 | 00:00:00 | 00:00:00 | |
| SP9KGR-15 | 2026-09-01 06:14:12 | 48.58855 | 18.64486 | 39° | 40km/h | 17104m | 4.7m/s | -52.8°C | 0% | 0hPa | 0V | 00:00:00 | 00:00:00 | 00:00:00 | |
| PETON7-10 | 2026-09-01 06:14:07 | 48.58842 | 18.64416 | 72° | 31km/h | 17073m | 6.0m/s | 0°C | 0% | 0hPa | 0V | 00:00:00 | 00:00:00 | 00:00:00 | |
| OE5DXL-15 | 2026-09-01 06:13:54 | 48.58815 | 18.64275 | 76° | 38km/h | 17012m | 4.2m/s | 0°C | 0% | 0hPa | 0V | 00:00:00 | 00:00:00 | 00:00:00 | |
| ATIDSZ-14 | 2026-09-01 06:13:53 | 48.58813 | 18.64262 | 84° | 35km/h | 17012m | 4.2m/s | -52.3°C | 0% | 0hPa | 0V | 00:00:00 | 00:00:00 | 00:00:00 | |
| PETON7-10 | 2026-09-01 06:13:52 | 48.58813 | 18.64249 | 93° | 37km/h | 17003m | 3.7m/s | 0°C | 0% | 0hPa | 0V | 00:00:00 | 00:00:00 | 00:00:00 | |
| SP9KGR-15 | 2026-09-01 06:13:39 | 48.58828 | 18.64057 | 92° | 35km/h | 16948m | 3.6m/s | -52.7°C | 0% | 0hPa | 0V | 00:00:00 | 00:00:00 | 00:00:00 | |
| PETON7-10 | 2026-09-01 06:13:37 | 48.58829 | 18.64044 | 97° | 42km/h | 16938m | 4.2m/s | 0°C | 0% | 0hPa | 0V | 00:00:00 | 00:00:00 | 00:00:00 | |
| ATIDSZ-14 | 2026-09-01 06:13:32 | 48.58838 | 18.63968 | 107° | 40km/h | 16921m | 3.8m/s | -53.0°C | 0% | 0hPa | 0V | 00:00:00 | 00:00:00 | 00:00:00 | |
| OE5DXL-15 | 2026-09-01 06:13:24 | 48.58855 | 18.63840 | 108° | 46km/h | 16882m | 4.0m/s | 0°C | 0% | 0hPa | 0V | 00:00:00 | 00:00:00 | 00:00:00 | |
| SQ9EZE-15 | 2026-09-01 06:13:23 | 48.58858 | 18.63824 | 108° | 44km/h | 16882m | 4.1m/s | -53.7°C | 0% | 0hPa | 0V | 00:00:00 | 00:00:00 | 00:00:00 | |
| PETON7-10 | 2026-09-01 06:13:22 | 48.58861 | 18.63808 | 101° | 46km/h | 16873m | 3.6m/s | 0°C | 0% | 0hPa | 0V | 00:00:00 | 00:00:00 | 00:00:00 | |
| SP9KGR-15 | 2026-09-01 06:13:21 | 48.58863 | 18.63790 | 98° | 47km/h | 16873m | 3.7m/s | -53.9°C | 0% | 0hPa | 0V | 00:00:00 | 00:00:00 | 00:00:00 | |
| OE3JTB-15 | 2026-09-01 06:13:16 | 48.58875 | 18.63709 | 95° | 44km/h | 16825m | 4.8m/s | 0°C | 0% | 0hPa | 0V | 00:00:00 | 00:00:00 | 00:00:00 | |
| ATIDSZ-14 | 2026-09-01 06:13:12 | 48.58880 | 18.63638 | 93° | 49km/h | 16834m | 4.0m/s | -54.5°C | 0% | 0hPa | 0V | 00:00:00 | 00:00:00 | 00:00:00 | |
| PETON7-10 | 2026-09-01 06:13:07 | 48.58891 | 18.63553 | 95° | 46km/h | 16808m | 4.9m/s | 0°C | 0% | 0hPa | 0V | 00:00:00 | 00:00:00 | 00:00:00 | |
| SP9KGR-15 | 2026-09-01 06:13:05 | 48.58892 | 18.63524 | 96° | 38km/h | 16803m | 3.8m/s | -54.2°C | 0% | 0hPa | 0V | 00:00:00 | 00:00:00 | 00:00:00 | |
| SQ9EZE-15 | 2026-09-01 06:12:59 | 48.58902 | 18.63421 | 103° | 37km/h | 16777m | 4.9m/s | -54.2°C | 0% | 0hPa | 0V | 00:00:00 | 00:00:00 | 00:00:00 | |
| OE5DXL-15 | 2026-09-01 06:12:54 | 48.58906 | 18.63337 | 100° | 46km/h | 16750m | 4.2m/s | 0°C | 0% | 0hPa | 0V | 00:00:00 | 00:00:00 | 00:00:00 | |
| PETON7-10 | 2026-09-01 06:12:52 | 48.58910 | 18.63295 | 103° | 42km/h | 16741m | 4.9m/s | 0°C | 0% | 0hPa | 0V | 00:00:00 | 00:00:00 | 00:00:00 | |
| ATIDSZ-14 | 2026-09-01 06:12:51 | 48.58912 | 18.63280 | 103° | 42km/h | 16741m | 5.0m/s | -54.3°C | 0% | 0hPa | 0V | 00:00:00 | 00:00:00 | 00:00:00 | |
| SP9KGR-15 | 2026-09-01 06:12:50 | 48.58914 | 18.63264 | 99° | 38km/h | 16737m | 4.4m/s | -54.4°C | 0% | 0hPa | 0V | 00:00:00 | 00:00:00 | 00:00:00 | |
| OE3JTB-15 | 2026-09-01 06:12:47 | 48.58914 | 18.63218 | 91° | 47km/h | 16667m | 4.0m/s | 0°C | 0% | 0hPa | 0V | 00:00:00 | 00:00:00 | 00:00:00 | |
| PETON7-10 | 2026-09-01 06:12:37 | 48.58929 | 18.63057 | 101° | 46km/h | 16672m | 5.5m/s | 0°C | 0% | 0hPa | 0V | 00:00:00 | 00:00:00 | 00:00:00 | |
| SQ9EZE-14 | 2026-09-01 06:12:35 | 48.58934 | 18.63019 | 96° | 49km/h | 16667m | 4.1m/s | -54.0°C | 0% | 0hPa | 0V | 00:00:00 | 00:00:00 | 00:00:00 | |
| ATIDSZ-14 | 2026-09-01 06:12:31 | 48.58941 | 18.62957 | 102° | 44km/h | 16648m | 4.3m/s | -53.8°C | 0% | 0hPa | 0V | 00:00:00 | 00:00:00 | 00:00:00 | |
| OE5DXL-15 | 2026-09-01 06:12:24 | 48.58957 | 18.62834 | 101° | 49km/h | 16610m | 5.1m/s | 0°C | 0% | 0hPa | 0V | 00:00:00 | 00:00:00 | 00:00:00 | |
| PETON7-10 | 2026-09-01 06:12:22 | 48.58961 | 18.62801 | 101° | 51km/h | 16602m | 4.4m/s | 0°C | 0% | 0hPa | 0V | 00:00:00 | 00:00:00 | 00:00:00 | |
| GYPAP8-17 | 2026-09-01 06:12:19 | 48.58969 | 18.62744 | 107° | 51km/h | 16592m | 4.4m/s | -53.8°C | 0% | 0hPa | 0V | 00:00:00 | 00:00:00 | 00:00:00 | |
| SP9KGR-15 | 2026-09-01 06:12:18 | 48.58972 | 18.62725 | 100° | 51km/h | 16588m | 4.9m/s | -53.8°C | 0% | 0hPa | 0V | 00:00:00 | 00:00:00 | 00:00:00 | |
| OE3JTB-15 | 2026-09-01 06:12:13 | 48.58983 | 18.62631 | 106° | 49km/h | 16556m | 4.4m/s | 0°C | 0% | 0hPa | 0V | 00:00:00 | 00:00:00 | 00:00:00 | |
| ATIDSZ-14 | 2026-09-01 06:12:10 | 48.58996 | 18.62571 | 104° | 55km/h | 16551m | 5.1m/s | -54.3°C | 0% | 0hPa | 0V | 00:00:00 | 00:00:00 | 00:00:00 | |
| PETON7-10 | 2026-09-01 06:12:07 | 48.59001 | 18.62516 | 101° | 49km/h | 16532m | 4.9m/s | 0°C | 0% | 0hPa | 0V | 00:00:00 | 00:00:00 | 00:00:00 | |
| OE3OSB-13 | 2026-09-01 06:12:05 | 48.59006 | 18.62478 | 100° | 53km/h | 16527m | 4.3m/s | -55.3°C | -1.0% | -1.0hPa | 0V | 00:00:00 | 00:00:00 | 00:00:00 | |
| OE5DXL-15 | 2026-09-01 06:11:54 | 48.59035 | 18.62276 | 103° | 47km/h | 16473m | 4.5m/s | 0°C | 0% | 0hPa | 0V | 00:00:00 | 00:00:00 | 00:00:00 | |
| PETON7-10 | 2026-09-01 06:11:52 | 48.59040 | 18.62240 | 105° | 47km/h | 16469m | 3.9m/s | 0°C | 0% | 0hPa | 0V | 00:00:00 | 00:00:00 | 00:00:00 | |
| ATIDSZ-14 | 2026-09-01 06:11:50 | 48.59047 | 18.62204 | 106° | 47km/h | 16460m | 4.1m/s | -54.9°C | 0% | 0hPa | 0V | 00:00:00 | 00:00:00 | 00:00:00 | |
| OE3JTB-15 | 2026-09-01 06:11:44 | 48.59058 | 18.62099 | 97° | 46km/h | 16430m | 4.0m/s | 0°C | 0% | 0hPa | 0V | 00:00:00 | 00:00:00 | 00:00:00 | |
| PETON7-10 | 2026-09-01 06:11:37 | 48.59076 | 18.61974 | 94° | 46km/h | 16399m | 3.8m/s | 0°C | 0% | 0hPa | 0V | 00:00:00 | 00:00:00 | 00:00:00 | |
| ATIDSZ-14 | 2026-09-01 06:11:29 | 48.59088 | 18.61830 | 93° | 47km/h | 16369m | 3.9m/s | -54.6°C | 0% | 0hPa | 0V | 00:00:00 | 00:00:00 | 00:00:00 | |
| SP9KGR-15 | 2026-09-01 06:11:28 | 48.59090 | 18.61813 | 93° | 44km/h | 16365m | 4.8m/s | -54.7°C | 0% | 0hPa | 0V | 00:00:00 | 00:00:00 | 00:00:00 | |
| OE5DXL-15 | 2026-09-01 06:11:24 | 48.59092 | 18.61745 | 99° | 46km/h | 16344m | 3.7m/s | 0°C | 0% | 0hPa | 0V | 00:00:00 | 00:00:00 | 00:00:00 | |
| PETON7-10 | 2026-09-01 06:11:22 | 48.59095 | 18.61710 | 91° | 46km/h | 16336m | 3.3m/s | 0°C | 0% | 0hPa | 0V | 00:00:00 | 00:00:00 | 00:00:00 | |
| OE3JTB-15 | 2026-09-01 06:11:15 | 48.59095 | 18.61593 | 93° | 47km/h | 16306m | 4.1m/s | 0°C | 0% | 0hPa | 0V | 00:00:00 | 00:00:00 | 00:00:00 | |
| ATIDSZ-14 | 2026-09-01 06:11:09 | 48.59097 | 18.61489 | 86° | 47km/h | 16285m | 4.9m/s | -54.1°C | 0% | 0hPa | 0V | 00:00:00 | 00:00:00 | 00:00:00 | |
| PETON7-10 | 2026-09-01 06:11:07 | 48.59094 | 18.61452 | 93° | 47km/h | 16272m | 3.9m/s | 0°C | 0% | 0hPa | 0V | 00:00:00 | 00:00:00 | 00:00:00 | |
| OE3OSB-13 | 2026-09-01 06:11:03 | 48.59097 | 18.61365 | 89° | 44km/h | 16256m | 4.3m/s | -55.0°C | -1.0% | -1.0hPa | 0V | 00:00:00 | 00:00:00 | 00:00:00 | |
| SQ9EZE-15 | 2026-09-01 06:10:58 | 48.59092 | 18.61294 | 86° | 47km/h | 16239m | 4.8m/s | -54.2°C | 0% | 0hPa | 0V | 00:00:00 | 00:00:00 | 00:00:00 | |
| OE5DXL-15 | 2026-09-01 06:10:54 | 48.59094 | 18.61219 | 93° | 53km/h | 16223m | 4.8m/s | 0°C | 0% | 0hPa | 0V | 00:00:00 | 00:00:00 | 00:00:00 | |
| PETON7-10 | 2026-09-01 06:10:52 | 48.59093 | 18.61184 | 80° | 53km/h | 16210m | 4.4m/s | 0°C | 0% | 0hPa | 0V | 00:00:00 | 00:00:00 | 00:00:00 | |
| ATIDSZ-14 | 2026-09-01 06:10:48 | 48.59084 | 18.61102 | 84° | 53km/h | 16198m | 4.1m/s | -54.1°C | 0% | 0hPa | 0V | 00:00:00 | 00:00:00 | 00:00:00 | |
| OE3JTB-15 | 2026-09-01 06:10:46 | 48.59082 | 18.61062 | 90° | 55km/h | 16185m | 3.6m/s | 0°C | 0% | 0hPa | 0V | 00:00:00 | 00:00:00 | 00:00:00 | |
| PETON7-10 | 2026-09-01 06:10:37 | 48.59068 | 18.60882 | 85° | 57km/h | 16149m | 3.7m/s | 0°C | 0% | 0hPa | 0V | 00:00:00 | 00:00:00 | 00:00:00 | |
| ATIDSZ-14 | 2026-09-01 06:10:28 | 48.59047 | 18.60694 | 82° | 51km/h | 16118m | 5.1m/s | -53.6°C | 0% | 0hPa | 0V | 00:00:00 | 00:00:00 | 00:00:00 | |
| OE5DXL-15 | 2026-09-01 06:10:24 | 48.59039 | 18.60609 | 83° | 62km/h | 16094m | 3.6m/s | 0°C | 0% | 0hPa | 0V | 00:00:00 | 00:00:00 | 00:00:00 | |
| PETON7-10 | 2026-09-01 06:10:22 | 48.59035 | 18.60564 | 80° | 60km/h | 16086m | 4.0m/s | 0°C | 0% | 0hPa | 0V | 00:00:00 | 00:00:00 | 00:00:00 | |
| OE3JTB-15 | 2026-09-01 06:10:17 | 48.59015 | 18.60459 | 75° | 62km/h | 16070m | 4.6m/s | 0°C | 0% | 0hPa | 0V | 00:00:00 | 00:00:00 | 00:00:00 | |
| PETON7-10 | 2026-09-01 06:10:07 | 48.58974 | 18.60234 | 69° | 64km/h | 16026m | 4.8m/s | 0°C | 0% | 0hPa | 0V | 00:00:00 | 00:00:00 | 00:00:00 | |
| OM5KV | 2026-09-01 06:09:56 | 48.58909 | 18.59986 | 65° | 62km/h | 15986m | 4.1m/s | -53.4°C | 0% | 0hPa | 0V | 00:00:00 | 00:00:00 | 00:00:00 | |
| OE5DXL-15 | 2026-09-01 06:09:54 | 48.58897 | 18.59944 | 69° | 64km/h | 15975m | 3.6m/s | 0°C | 0% | 0hPa | 0V | 00:00:00 | 00:00:00 | 00:00:00 | |
| SQ9EZE-14 | 2026-09-01 06:09:53 | 48.58891 | 18.59923 | 68° | 60km/h | 15975m | 3.7m/s | -53.4°C | 0% | 0hPa | 0V | 00:00:00 | 00:00:00 | 00:00:00 | |
| PETON7-10 | 2026-09-01 06:09:52 | 48.58884 | 18.59902 | 63° | 64km/h | 15968m | 3.7m/s | 0°C | 0% | 0hPa | 0V | 00:00:00 | 00:00:00 | 00:00:00 | |
| OE3JTB-15 | 2026-09-01 06:09:48 | 48.58855 | 18.59816 | 64° | 64km/h | 15953m | 3.3m/s | 0°C | 0% | 0hPa | 0V | 00:00:00 | 00:00:00 | 00:00:00 | |
| ATIDSZ-14 | 2026-09-01 06:09:47 | 48.58848 | 18.59795 | 63° | 62km/h | 15953m | 3.3m/s | -53.4°C | 0% | 0hPa | 0V | 00:00:00 | 00:00:00 | 00:00:00 | |
| OM5KV | 2026-09-01 06:09:44 | 48.58826 | 18.59730 | 62° | 64km/h | 15942m | 3.9m/s | -53.4°C | 0% | 0hPa | 0V | 00:00:00 | 00:00:00 | 00:00:00 | |
| SQ9EZE-14 | 2026-09-01 06:09:38 | 48.58782 | 18.59603 | 61° | 66km/h | 15921m | 3.5m/s | -53.3°C | 0% | 0hPa | 0V | 00:00:00 | 00:00:00 | 00:00:00 | |
| PETON7-10 | 2026-09-01 06:09:37 | 48.58773 | 18.59581 | 60° | 66km/h | 15913m | 3.3m/s | 0°C | 0% | 0hPa | 0V | 00:00:00 | 00:00:00 | 00:00:00 | |
| OM5KV | 2026-09-01 06:09:32 | 48.58733 | 18.59475 | 66° | 66km/h | 15899m | 3.2m/s | -53.3°C | 0% | 0hPa | 0V | 00:00:00 | 00:00:00 | 00:00:00 | |
| SQ9EZE-15 | 2026-09-01 06:09:30 | 48.58718 | 18.59431 | 61° | 66km/h | 15891m | 3.3m/s | -53.4°C | 0% | 0hPa | 0V | 00:00:00 | 00:00:00 | 00:00:00 | |
| ATIDSZ-14 | 2026-09-01 06:09:26 | 48.58685 | 18.59343 | 57° | 66km/h | 15876m | 3.2m/s | -53.4°C | 0% | 0hPa | 0V | 00:00:00 | 00:00:00 | 00:00:00 | |
| OE5DXL-15 | 2026-09-01 06:09:24 | 48.58667 | 18.59301 | 64° | 62km/h | 15866m | 3.1m/s | 0°C | 0% | 0hPa | 0V | 00:00:00 | 00:00:00 | 00:00:00 | |
| PETON7-10 | 2026-09-01 06:09:22 | 48.58654 | 18.59258 | 64° | 60km/h | 15859m | 3.0m/s | 0°C | 0% | 0hPa | 0V | 00:00:00 | 00:00:00 | 00:00:00 | |
| OM5KV | 2026-09-01 06:09:20 | 48.58639 | 18.59218 | 59° | 62km/h | 15855m | 4.0m/s | -53.8°C | 0% | 0hPa | 0V | 00:00:00 | 00:00:00 | 00:00:00 | |
| OE3JTB-15 | 2026-09-01 06:09:19 | 48.58630 | 18.59197 | 58° | 62km/h | 15847m | 4.3m/s | 0°C | 0% | 0hPa | 0V | 00:00:00 | 00:00:00 | 00:00:00 | |
| OM5KV | 2026-09-01 06:09:14 | 48.58589 | 18.59095 | 62° | 58km/h | 15833m | 4.5m/s | -53.9°C | 0% | 0hPa | 0V | 00:00:00 | 00:00:00 | 00:00:00 | |
| OM5KV | 2026-09-01 06:09:08 | 48.58540 | 18.58982 | 54° | 62km/h | 15812m | 3.5m/s | -53.9°C | 0% | 0hPa | 0V | 00:00:00 | 00:00:00 | 00:00:00 | |
| PETON7-10 | 2026-09-01 06:09:07 | 48.58530 | 18.58963 | 57° | 62km/h | 15804m | 3.1m/s | 0°C | 0% | 0hPa | 0V | 00:00:00 | 00:00:00 | 00:00:00 | |
| ATIDSZ-14 | 2026-09-01 06:09:05 | 48.58514 | 18.58924 | 57° | 60km/h | 15800m | 4.2m/s | -54.0°C | 0% | 0hPa | 0V | 00:00:00 | 00:00:00 | 00:00:00 | |
| OM5KV | 2026-09-01 06:09:02 | 48.58489 | 18.58868 | 59° | 60km/h | 15789m | 3.2m/s | -54.0°C | 0% | 0hPa | 0V | 00:00:00 | 00:00:00 | 00:00:00 | |
| SQ9EZE-15 | 2026-09-01 06:08:57 | 48.58444 | 18.58769 | 61° | 62km/h | 15771m | 3.6m/s | -54.0°C | 0% | 0hPa | 0V | 00:00:00 | 00:00:00 | 00:00:00 | |
| OM5KV | 2026-09-01 06:08:55 | 48.58427 | 18.58731 | 54° | 60km/h | 15764m | 3.4m/s | -54.2°C | 0% | 0hPa | 0V | 00:00:00 | 00:00:00 | 00:00:00 | |
| OE5DXL-15 | 2026-09-01 06:08:54 | 48.58418 | 18.58712 | 56° | 64km/h | 15756m | 3.2m/s | 0°C | 0% | 0hPa | 0V | 00:00:00 | 00:00:00 | 00:00:00 | |
| PETON7-10 | 2026-09-01 06:08:52 | 48.58401 | 18.58670 | 60° | 64km/h | 15748m | 3.5m/s | 0°C | 0% | 0hPa | 0V | 00:00:00 | 00:00:00 | 00:00:00 | |
| OE3JTB-15 | 2026-09-01 06:08:50 | 48.58384 | 18.58627 | 60° | 64km/h | 15741m | 4.0m/s | 0°C | 0% | 0hPa | 0V | 00:00:00 | 00:00:00 | 00:00:00 | |
| OM5KV | 2026-09-01 06:08:46 | 48.58359 | 18.58542 | 61° | 62km/h | 15732m | 3.9m/s | -54.1°C | 0% | 0hPa | 0V | 00:00:00 | 00:00:00 | 00:00:00 | |
| ATIDSZ-14 | 2026-09-01 06:08:45 | 48.58349 | 18.58521 | 56° | 66km/h | 15728m | 3.2m/s | -54.1°C | 0% | 0hPa | 0V | 00:00:00 | 00:00:00 | 00:00:00 | |
| OM5KV | 2026-09-01 06:08:37 | 48.58283 | 18.58325 | 57° | 66km/h | 15695m | 3.8m/s | -54.0°C | 0% | 0hPa | 0V | 00:00:00 | 00:00:00 | 00:00:00 | |
| OM5KV | 2026-09-01 06:08:26 | 48.58209 | 18.58107 | 67° | 68km/h | 15658m | 3.9m/s | -53.9°C | 0% | 0hPa | 0V | 00:00:00 | 00:00:00 | 00:00:00 | |
| GYPAP8-17 | 2026-09-01 06:08:25 | 48.58203 | 18.58085 | 69° | 60km/h | 15654m | 4.5m/s | -53.9°C | 0% | 0hPa | 0V | 00:00:00 | 00:00:00 | 00:00:00 | |
| OE5DXL-15 | 2026-09-01 06:08:24 | 48.58197 | 18.58064 | 69° | 58km/h | 15647m | 4.0m/s | 0°C | 0% | 0hPa | 0V | 00:00:00 | 00:00:00 | 00:00:00 | |
| PETON7-10 | 2026-09-01 06:08:22 | 48.58187 | 18.58025 | 68° | 60km/h | 15640m | 3.7m/s | 0°C | 0% | 0hPa | 0V | 00:00:00 | 00:00:00 | 00:00:00 | |
| OE3JTB-15 | 2026-09-01 06:08:21 | 48.58181 | 18.58005 | 63° | 58km/h | 15640m | 3.7m/s | 0°C | 0% | 0hPa | 0V | 00:00:00 | 00:00:00 | 00:00:00 | |
| OM5KV | 2026-09-01 06:08:11 | 48.58108 | 18.57807 | 57° | 58km/h | 15599m | 5.1m/s | -53.4°C | 0% | 0hPa | 0V | 00:00:00 | 00:00:00 | 00:00:00 | |
| PETON7-10 | 2026-09-01 06:08:07 | 48.58075 | 18.57726 | 64° | 57km/h | 15580m | 4.7m/s | 0°C | 0% | 0hPa | 0V | 00:00:00 | 00:00:00 | 00:00:00 | |
| OM5KV | 2026-09-01 06:08:06 | 48.58068 | 18.57704 | 65° | 60km/h | 15580m | 4.7m/s | -53.3°C | 0% | 0hPa | 0V | 00:00:00 | 00:00:00 | 00:00:00 | |
| ATIDSZ-14 | 2026-09-01 06:08:04 | 48.58056 | 18.57669 | 63° | 47km/h | 15572m | 3.9m/s | -53.1°C | 0% | 0hPa | 0V | 00:00:00 | 00:00:00 | 00:00:00 | |
| OM5KV | 2026-09-01 06:08:00 | 48.58031 | 18.57593 | 64° | 58km/h | 15556m | 3.8m/s | -53.1°C | 0% | 0hPa | 0V | 00:00:00 | 00:00:00 | 00:00:00 | |
| OM5KV | 2026-09-01 06:07:55 | 48.57993 | 18.57502 | 59° | 49km/h | 15536m | 3.9m/s | -52.9°C | 0% | 0hPa | 0V | 00:00:00 | 00:00:00 | 00:00:00 | |
| OE5DXL-15 | 2026-09-01 06:07:54 | 48.57986 | 18.57485 | 62° | 55km/h | 15528m | 3.4m/s | 0°C | 0% | 0hPa | 0V | 00:00:00 | 00:00:00 | 00:00:00 | |
| OE3JTB-15 | 2026-09-01 06:07:52 | 48.57973 | 18.57445 | 66° | 55km/h | 15520m | 3.8m/s | 0°C | 0% | 0hPa | 0V | 00:00:00 | 00:00:00 | 00:00:00 | |
| OM5KV | 2026-09-01 06:07:47 | 48.57939 | 18.57356 | 57° | 53km/h | 15504m | 4.4m/s | -52.7°C | 0% | 0hPa | 0V | 00:00:00 | 00:00:00 | 00:00:00 | |
| ATIDSZ-14 | 2026-09-01 06:07:43 | 48.57910 | 18.57284 | 61° | 51km/h | 15488m | 4.0m/s | -52.7°C | 0% | 0hPa | 0V | 00:00:00 | 00:00:00 | 00:00:00 | |
| OM5KV | 2026-09-01 06:07:42 | 48.57904 | 18.57267 | 62° | 53km/h | 15484m | 4.7m/s | -52.7°C | 0% | 0hPa | 0V | 00:00:00 | 00:00:00 | 00:00:00 | |
| OM5KV | 2026-09-01 06:07:41 | 48.57897 | 18.57249 | 61° | 57km/h | 15480m | 3.6m/s | -52.7°C | 0% | 0hPa | 0V | 00:00:00 | 00:00:00 | 00:00:00 | |
| PETON7-10 | 2026-09-01 06:07:37 | 48.57870 | 18.57179 | 61° | 57km/h | 15460m | 3.3m/s | 0°C | 0% | 0hPa | 0V | 00:00:00 | 00:00:00 | 00:00:00 | |
| OM5KV | 2026-09-01 06:07:36 | 48.57863 | 18.57159 | 63° | 60km/h | 15460m | 3.3m/s | -52.4°C | 0% | 0hPa | 0V | 00:00:00 | 00:00:00 | 00:00:00 | |
| OM5KV | 2026-09-01 06:07:30 | 48.57816 | 18.57058 | 58° | 55km/h | 15435m | 4.0m/s | -52.4°C | 0% | 0hPa | 0V | 00:00:00 | 00:00:00 | 00:00:00 | |
| OE5DXL-15 | 2026-09-01 06:07:24 | 48.57772 | 18.56946 | 58° | 58km/h | 15407m | 3.9m/s | 0°C | 0% | 0hPa | 0V | 00:00:00 | 00:00:00 | 00:00:00 | |
| OE3JTB-15 | 2026-09-01 06:07:23 | 48.57765 | 18.56928 | 53° | 58km/h | 15399m | 3.7m/s | 0°C | 0% | 0hPa | 0V | 00:00:00 | 00:00:00 | 00:00:00 | |
| PETON7-10 | 2026-09-01 06:07:22 | 48.57757 | 18.56912 | 53° | 58km/h | 15399m | 3.7m/s | 0°C | 0% | 0hPa | 0V | 00:00:00 | 00:00:00 | 00:00:00 | |
| SQ9EZE-14 | 2026-09-01 06:07:13 | 48.57686 | 18.56750 | 50° | 57km/h | 15367m | 3.3m/s | -52.0°C | 0% | 0hPa | 0V | 00:00:00 | 00:00:00 | 00:00:00 | |
| SQ9EZE-15 | 2026-09-01 06:07:07 | 48.57632 | 18.56615 | 54° | 57km/h | 15337m | 5.3m/s | 0°C | 0% | 0hPa | 0V | 00:00:00 | 00:00:00 | 00:00:00 | |
| PETON7-10 | 2026-09-01 06:07:06 | 48.57632 | 18.56615 | 54° | 60km/h | 15332m | 4.3m/s | 0°C | 0% | 0hPa | 0V | 00:00:00 | 00:00:00 | 00:00:00 | |
| OM5KV | 2026-09-01 06:07:03 | 48.57592 | 18.56547 | 58° | 68km/h | 15319m | 4.7m/s | -52.0°C | 0% | 0hPa | 0V | 00:00:00 | 00:00:00 | 00:00:00 | |
| ATIDSZ-14 | 2026-09-01 06:07:02 | 48.57592 | 18.56547 | 58° | 68km/h | 15319m | 4.7m/s | -52.0°C | 0% | 0hPa | 0V | 00:00:00 | 00:00:00 | 00:00:00 | |
| OM5KV | 2026-09-01 06:06:59 | 48.57565 | 18.56463 | 63° | 58km/h | 15300m | 4.4m/s | -52.0°C | 0% | 0hPa | 0V | 00:00:00 | 00:00:00 | 00:00:00 | |
| OM5KV | 2026-09-01 06:06:56 | 48.57549 | 18.56428 | 50° | 57km/h | 15290m | 5.5m/s | -51.8°C | 0% | 0hPa | 0V | 00:00:00 | 00:00:00 | 00:00:00 | |
| OE5DXL-15 | 2026-09-01 06:06:54 | 48.57530 | 18.56392 | 57° | 60km/h | 15275m | 4.0m/s | 0°C | 0% | 0hPa | 0V | 00:00:00 | 00:00:00 | 00:00:00 | |
| OM5KV | 2026-09-01 06:06:53 | 48.57521 | 18.56370 | 67° | 66km/h | 15275m | 4.0m/s | -51.9°C | 0% | 0hPa | 0V | 00:00:00 | 00:00:00 | 00:00:00 | |
| PETON7-10 | 2026-09-01 06:06:51 | 48.57510 | 18.56326 | 67° | 58km/h | 15260m | 4.8m/s | 0°C | 0% | 0hPa | 0V | 00:00:00 | 00:00:00 | 00:00:00 | |
| OM5KV | 2026-09-01 06:06:50 | 48.57496 | 18.56288 | 59° | 58km/h | 15256m | 4.7m/s | -51.7°C | 0% | 0hPa | 0V | 00:00:00 | 00:00:00 | 00:00:00 | |
| OM5KV | 2026-09-01 06:06:47 | 48.57480 | 18.56252 | 56° | 55km/h | 15246m | 5.2m/s | -51.7°C | 0% | 0hPa | 0V | 00:00:00 | 00:00:00 | 00:00:00 | |
| ATIDSZ-14 | 2026-09-01 06:06:42 | 48.57445 | 18.56148 | 68° | 55km/h | 15221m | 4.0m/s | -51.4°C | 0% | 0hPa | 0V | 00:00:00 | 00:00:00 | 00:00:00 | |
| PETON7-10 | 2026-09-01 06:06:36 | 48.57408 | 18.56027 | 73° | 60km/h | 15187m | 5.1m/s | 0°C | 0% | 0hPa | 0V | 00:00:00 | 00:00:00 | 00:00:00 | |
| OM5KV | 2026-09-01 06:06:32 | 48.57390 | 18.55941 | 68° | 58km/h | 15172m | 5.8m/s | -51.2°C | 0% | 0hPa | 0V | 00:00:00 | 00:00:00 | 00:00:00 | |
| OM5KV | 2026-09-01 06:06:30 | 48.57377 | 18.55898 | 68° | 60km/h | 15162m | 5.5m/s | -51.2°C | 0% | 0hPa | 0V | 00:00:00 | 00:00:00 | 00:00:00 | |
| OM5KV | 2026-09-01 06:06:26 | 48.57359 | 18.55812 | 73° | 60km/h | 15143m | 4.4m/s | -51.3°C | 0% | 0hPa | 0V | 00:00:00 | 00:00:00 | 00:00:00 | |
| OE3JTB-15 | 2026-09-01 06:06:25 | 48.57355 | 18.55792 | 69° | 62km/h | 15134m | 4.2m/s | 0°C | 0% | 0hPa | 0V | 00:00:00 | 00:00:00 | 00:00:00 | |
| OE5DXL-15 | 2026-09-01 06:06:24 | 48.57350 | 18.55769 | 72° | 62km/h | 15129m | 4.8m/s | 0°C | 0% | 0hPa | 0V | 00:00:00 | 00:00:00 | 00:00:00 | |
| PETON7-10 | 2026-09-01 06:06:21 | 48.57334 | 18.55704 | 71° | 62km/h | 15115m | 4.3m/s | 0°C | 0% | 0hPa | 0V | 00:00:00 | 00:00:00 | 00:00:00 | |
| OM5KV | 2026-09-01 06:06:19 | 48.57326 | 18.55659 | 76° | 62km/h | 15110m | 5.3m/s | -51.2°C | 0% | 0hPa | 0V | 00:00:00 | 00:00:00 | 00:00:00 | |
| OM5KV | 2026-09-01 06:06:13 | 48.57305 | 18.55520 | 78° | 68km/h | 15084m | 4.0m/s | -51.3°C | 0% | 0hPa | 0V | 00:00:00 | 00:00:00 | 00:00:00 | |
| PETON7-10 | 2026-09-01 06:06:06 | 48.57279 | 18.55359 | 75° | 60km/h | 15050m | 4.0m/s | 0°C | 0% | 0hPa | 0V | 00:00:00 | 00:00:00 | 00:00:00 | |
| OM5KV | 2026-09-01 06:06:01 | 48.57261 | 18.55220 | 75° | 64km/h | 15030m | 4.6m/s | -51.3°C | 0% | 0hPa | 0V | 00:00:00 | 00:00:00 | 00:00:00 | |
| OE3JTB-15 | 2026-09-01 06:05:55 | 48.57241 | 18.55110 | 80° | 57km/h | 15004m | 4.7m/s | 0°C | 0% | 0hPa | 0V | 00:00:00 | 00:00:00 | 00:00:00 | |
| OE5DXL-15 | 2026-09-01 06:05:54 | 48.57238 | 18.55089 | 76° | 57km/h | 15000m | 3.6m/s | 0°C | 0% | 0hPa | 0V | 00:00:00 | 00:00:00 | 00:00:00 | |
| OM5KV | 2026-09-01 06:05:53 | 48.57234 | 18.55067 | 73° | 60km/h | 15000m | 3.6m/s | -51.1°C | 0% | 0hPa | 0V | 00:00:00 | 00:00:00 | 00:00:00 | |
| PETON7-10 | 2026-09-01 06:05:51 | 48.57226 | 18.55023 | 79° | 57km/h | 14989m | 4.5m/s | 0°C | 0% | 0hPa | 0V | 00:00:00 | 00:00:00 | 00:00:00 | |
| OM5KV | 2026-09-01 06:05:49 | 48.57212 | 18.54936 | 80° | 55km/h | 14977m | 4.3m/s | -51.1°C | 0% | 0hPa | 0V | 00:00:00 | 00:00:00 | 00:00:00 | |
| OM5KV | 2026-09-01 06:05:43 | 48.57201 | 18.54850 | 78° | 62km/h | 14962m | 4.3m/s | -51.2°C | 0% | 0hPa | 0V | 00:00:00 | 00:00:00 | 00:00:00 | |
| OM5KV | 2026-09-01 06:05:42 | 48.57197 | 18.54828 | 80° | 58km/h | 14958m | 3.8m/s | -51.2°C | 0% | 0hPa | 0V | 00:00:00 | 00:00:00 | 00:00:00 | |
| ATIDSZ-14 | 2026-09-01 06:05:40 | 48.57192 | 18.54784 | 79° | 58km/h | 14950m | 3.7m/s | -51.2°C | 0% | 0hPa | 0V | 00:00:00 | 00:00:00 | 00:00:00 | |
| PETON7-10 | 2026-09-01 06:05:36 | 48.57182 | 18.54703 | 83° | 58km/h | 14931m | 4.3m/s | 0°C | 0% | 0hPa | 0V | 00:00:00 | 00:00:00 | 00:00:00 | |
| OE3JTB-15 | 2026-09-01 06:05:26 | 48.57166 | 18.54489 | 84° | 69km/h | 14893m | 4.7m/s | 0°C | 0% | 0hPa | 0V | 00:00:00 | 00:00:00 | 00:00:00 | |
| OM5KV | 2026-09-01 06:05:25 | 48.57164 | 18.54468 | 82° | 57km/h | 14893m | 4.7m/s | -51.4°C | 0% | 0hPa | 0V | 00:00:00 | 00:00:00 | 00:00:00 | |
| OE5DXL-15 | 2026-09-01 06:05:24 | 48.57162 | 18.54447 | 83° | 71km/h | 14884m | 3.2m/s | 0°C | 0% | 0hPa | 0V | 00:00:00 | 00:00:00 | 00:00:00 | |
| PETON7-10 | 2026-09-01 06:05:21 | 48.57155 | 18.54374 | 81° | 68km/h | 14872m | 3.4m/s | 0°C | 0% | 0hPa | 0V | 00:00:00 | 00:00:00 | 00:00:00 | |
| ATIDSZ-14 | 2026-09-01 06:05:20 | 48.57153 | 18.54350 | 83° | 64km/h | 14872m | 3.4m/s | -51.4°C | 0% | 0hPa | 0V | 00:00:00 | 00:00:00 | 00:00:00 | |
| OM5KV | 2026-09-01 06:05:19 | 48.57151 | 18.54325 | 85° | 69km/h | 14868m | 4.3m/s | -51.5°C | 0% | 0hPa | 0V | 00:00:00 | 00:00:00 | 00:00:00 | |
| OM5KV | 2026-09-01 06:05:14 | 48.57145 | 18.54202 | 86° | 69km/h | 14850m | 3.6m/s | -51.7°C | 0% | 0hPa | 0V | 00:00:00 | 00:00:00 | 00:00:00 | |
| PETON7-10 | 2026-09-01 06:05:06 | 48.57134 | 18.53985 | 86° | 77km/h | 14817m | 3.3m/s | 0°C | 0% | 0hPa | 0V | 00:00:00 | 00:00:00 | 00:00:00 | |
| SQ9EZE-15 | 2026-09-01 06:05:04 | 48.57129 | 18.53927 | 81° | 75km/h | 14814m | 3.5m/s | -51.8°C | 0% | 0hPa | 0V | 00:00:00 | 00:00:00 | 00:00:00 | |
| OM5KV | 2026-09-01 06:05:03 | 48.57125 | 18.53900 | 79° | 75km/h | 14810m | 2.8m/s | -51.8°C | 0% | 0hPa | 0V | 00:00:00 | 00:00:00 | 00:00:00 | |
| ATIDSZ-14 | 2026-09-01 06:04:59 | 48.57114 | 18.53784 | 87° | 69km/h | 14796m | 2.8m/s | -51.9°C | 0% | 0hPa | 0V | 00:00:00 | 00:00:00 | 00:00:00 | |
| OE3JTB-15 | 2026-09-01 06:04:57 | 48.57111 | 18.53730 | 84° | 77km/h | 14786m | 3.1m/s | 0°C | 0% | 0hPa | 0V | 00:00:00 | 00:00:00 | 00:00:00 | |
| OE5DXL-15 | 2026-09-01 06:04:54 | 48.57102 | 18.53639 | 80° | 77km/h | 14777m | 3.6m/s | 0°C | 0% | 0hPa | 0V | 00:00:00 | 00:00:00 | 00:00:00 | |
| PETON7-10 | 2026-09-01 06:04:51 | 48.57092 | 18.53552 | 82° | 77km/h | 14767m | 3.0m/s | 0°C | 0% | 0hPa | 0V | 00:00:00 | 00:00:00 | 00:00:00 | |
| SQ9EZE-14 | 2026-09-01 06:04:47 | 48.57077 | 18.53435 | 78° | 82km/h | 14758m | 3.8m/s | -52.1°C | 0% | 0hPa | 0V | 00:00:00 | 00:00:00 | 00:00:00 | |
| ATIDSZ-14 | 2026-09-01 06:04:39 | 48.57043 | 18.53203 | 75° | 78km/h | 14731m | 4.0m/s | -52.4°C | 0% | 0hPa | 0V | 00:00:00 | 00:00:00 | 00:00:00 | |
| PETON7-10 | 2026-09-01 06:04:36 | 48.57028 | 18.53119 | 78° | 73km/h | 14718m | 2.9m/s | 0°C | 0% | 0hPa | 0V | 00:00:00 | 00:00:00 | 00:00:00 | |
| OM5KV | 2026-09-01 06:04:32 | 48.57013 | 18.53010 | 78° | 73km/h | 14708m | 2.8m/s | -52.6°C | 0% | 0hPa | 0V | 00:00:00 | 00:00:00 | 00:00:00 | |
| OM5KV | 2026-09-01 06:04:31 | 48.57009 | 18.52983 | 78° | 73km/h | 14705m | 3.1m/s | -52.6°C | 0% | 0hPa | 0V | 00:00:00 | 00:00:00 | 00:00:00 | |
| OE3JTB-15 | 2026-09-01 06:04:28 | 48.56995 | 18.52899 | 75° | 71km/h | 14693m | 2.2m/s | 0°C | 0% | 0hPa | 0V | 00:00:00 | 00:00:00 | 00:00:00 | |
| OM5KV | 2026-09-01 06:04:26 | 48.56985 | 18.52845 | 74° | 71km/h | 14690m | 3.6m/s | -52.7°C | 0% | 0hPa | 0V | 00:00:00 | 00:00:00 | 00:00:00 | |
| OM5KV | 2026-09-01 06:04:25 | 48.56980 | 18.52821 | 75° | 64km/h | 14686m | 2.8m/s | -52.8°C | 0% | 0hPa | 0V | 00:00:00 | 00:00:00 | 00:00:00 | |
| OE5DXL-15 | 2026-09-01 06:04:24 | 48.56975 | 18.52798 | 80° | 71km/h | 14680m | 3.2m/s | 0°C | 0% | 0hPa | 0V | 00:00:00 | 00:00:00 | 00:00:00 | |
| PETON7-10 | 2026-09-01 06:04:21 | 48.56964 | 18.52713 | 79° | 71km/h | 14671m | 3.1m/s | 0°C | 0% | 0hPa | 0V | 00:00:00 | 00:00:00 | 00:00:00 | |
| OM5KV | 2026-09-01 06:04:20 | 48.56961 | 18.52686 | 78° | 71km/h | 14671m | 3.1m/s | -52.7°C | 0% | 0hPa | 0V | 00:00:00 | 00:00:00 | 00:00:00 | |
| ATIDSZ-14 | 2026-09-01 06:04:18 | 48.56952 | 18.52633 | 78° | 71km/h | 14664m | 3.0m/s | -52.8°C | 0% | 0hPa | 0V | 00:00:00 | 00:00:00 | 00:00:00 | |
| OM5KV | 2026-09-01 06:04:15 | 48.56940 | 18.52528 | 83° | 75km/h | 14651m | 3.2m/s | -52.7°C | 0% | 0hPa | 0V | 00:00:00 | 00:00:00 | 00:00:00 | |
| OM5KV | 2026-09-01 06:04:09 | 48.56922 | 18.52392 | 81° | 66km/h | 14635m | 2.4m/s | -52.7°C | 0% | 0hPa | 0V | 00:00:00 | 00:00:00 | 00:00:00 | |
| OM5KV | 2026-09-01 06:04:08 | 48.56919 | 18.52367 | 84° | 68km/h | 14632m | 3.3m/s | -52.7°C | 0% | 0hPa | 0V | 00:00:00 | 00:00:00 | 00:00:00 | |
| PETON7-10 | 2026-09-01 06:04:06 | 48.56916 | 18.52312 | 85° | 69km/h | 14623m | 3.5m/s | 0°C | 0% | 0hPa | 0V | 00:00:00 | 00:00:00 | 00:00:00 | |
| OM5KV | 2026-09-01 06:04:03 | 48.56904 | 18.52205 | 77° | 69km/h | 14613m | 2.8m/s | -52.7°C | 0% | 0hPa | 0V | 00:00:00 | 00:00:00 | 00:00:00 | |
| OE3JTB-15 | 2026-09-01 06:03:59 | 48.56891 | 18.52129 | 78° | 68km/h | 14600m | 3.4m/s | 0°C | 0% | 0hPa | 0V | 00:00:00 | 00:00:00 | 00:00:00 | |
| OM5KV | 2026-09-01 06:03:58 | 48.56885 | 18.52072 | 84° | 77km/h | 14597m | 3.7m/s | -52.6°C | 0% | 0hPa | 0V | 00:00:00 | 00:00:00 | 00:00:00 | |
| ATIDSZ-14 | 2026-09-01 06:03:57 | 48.56885 | 18.52072 | 84° | 77km/h | 14597m | 3.7m/s | -52.6°C | 0% | 0hPa | 0V | 00:00:00 | 00:00:00 | 00:00:00 | |
| OM5KV | 2026-09-01 06:03:56 | 48.56883 | 18.52044 | 85° | 69km/h | 14593m | 3.3m/s | -52.6°C | 0% | 0hPa | 0V | 00:00:00 | 00:00:00 | 00:00:00 | |
| OE5DXL-15 | 2026-09-01 06:03:54 | 48.56878 | 18.51992 | 82° | 66km/h | 14583m | 3.1m/s | 0°C | 0% | 0hPa | 0V | 00:00:00 | 00:00:00 | 00:00:00 | |
| OM5KV | 2026-09-01 06:03:51 | 48.56872 | 18.51916 | 84° | 66km/h | 14576m | 3.2m/s | -52.6°C | 0% | 0hPa | 0V | 00:00:00 | 00:00:00 | 00:00:00 | |
| PETON7-10 | 2026-09-01 06:03:50 | 48.56869 | 18.51890 | 83° | 68km/h | 14570m | 2.4m/s | 0°C | 0% | 0hPa | 0V | 00:00:00 | 00:00:00 | 00:00:00 | |
| OM5KV | 2026-09-01 06:03:41 | 48.56851 | 18.51659 | 82° | 68km/h | 14544m | 3.3m/s | -52.6°C | 0% | 0hPa | 0V | 00:00:00 | 00:00:00 | 00:00:00 | |
| ATIDSZ-14 | 2026-09-01 06:03:37 | 48.56844 | 18.51559 | 81° | 68km/h | 14530m | 3.0m/s | -52.6°C | 0% | 0hPa | 0V | 00:00:00 | 00:00:00 | 00:00:00 | |
| PETON7-10 | 2026-09-01 06:03:35 | 48.56838 | 18.51509 | 80° | 64km/h | 14519m | 3.9m/s | 0°C | 0% | 0hPa | 0V | 00:00:00 | 00:00:00 | 00:00:00 | |
| OE3JTB-15 | 2026-09-01 06:03:30 | 48.56824 | 18.51390 | 82° | 64km/h | 14505m | 3.9m/s | 0°C | 0% | 0hPa | 0V | 00:00:00 | 00:00:00 | 00:00:00 | |
| SQ9EZE-15 | 2026-09-01 06:03:27 | 48.56815 | 18.51318 | 82° | 64km/h | 14495m | 2.9m/s | -52.7°C | 0% | 0hPa | 0V | 00:00:00 | 00:00:00 | 00:00:00 | |
| OM5KV | 2026-09-01 06:03:26 | 48.56813 | 18.51293 | 81° | 64km/h | 14492m | 2.9m/s | -52.6°C | 0% | 0hPa | 0V | 00:00:00 | 00:00:00 | 00:00:00 | |
| OE5DXL-15 | 2026-09-01 06:03:24 | 48.56805 | 18.51243 | 79° | 66km/h | 14482m | 3.9m/s | 0°C | 0% | 0hPa | 0V | 00:00:00 | 00:00:00 | 00:00:00 | |
| OM5KV | 2026-09-01 06:03:23 | 48.56801 | 18.51221 | 79° | 62km/h | 14482m | 4.0m/s | -52.6°C | 0% | 0hPa | 0V | 00:00:00 | 00:00:00 | 00:00:00 | |
| PETON7-10 | 2026-09-01 06:03:20 | 48.56793 | 18.51151 | 79° | 64km/h | 14469m | 3.6m/s | 0°C | 0% | 0hPa | 0V | 00:00:00 | 00:00:00 | 00:00:00 | |
| OM5KV | 2026-09-01 06:03:16 | 48.56779 | 18.51029 | 78° | 68km/h | 14455m | 3.2m/s | -52.6°C | 0% | 0hPa | 0V | 00:00:00 | 00:00:00 | 00:00:00 | |
| OM5KV | 2026-09-01 06:03:15 | 48.56779 | 18.51029 | 78° | 68km/h | 14455m | 3.2m/s | -52.6°C | 0% | 0hPa | 0V | 00:00:00 | 00:00:00 | 00:00:00 | |
| PETON7-10 | 2026-09-01 06:03:05 | 48.56755 | 18.50786 | 81° | 66km/h | 14418m | 2.8m/s | 0°C | 0% | 0hPa | 0V | 00:00:00 | 00:00:00 | 00:00:00 | |
| OE3JTB-15 | 2026-09-01 06:03:01 | 48.56747 | 18.50685 | 85° | 68km/h | 14404m | 3.6m/s | 0°C | 0% | 0hPa | 0V | 00:00:00 | 00:00:00 | 00:00:00 | |
| ATIDSZ-14 | 2026-09-01 06:02:56 | 48.56738 | 18.50559 | 80° | 62km/h | 14389m | 3.6m/s | -52.8°C | 0% | 0hPa | 0V | 00:00:00 | 00:00:00 | 00:00:00 | |
| OE5DXL-15 | 2026-09-01 06:02:54 | 48.56731 | 18.50511 | 78° | 68km/h | 14377m | 4.4m/s | 0°C | 0% | 0hPa | 0V | 00:00:00 | 00:00:00 | 00:00:00 | |
| PETON7-10 | 2026-09-01 06:02:50 | 48.56723 | 18.50414 | 83° | 68km/h | 14363m | 2.8m/s | 0°C | 0% | 0hPa | 0V | 00:00:00 | 00:00:00 | 00:00:00 | |
| OM5KV | 2026-09-01 06:02:41 | 48.56704 | 18.50189 | 86° | 71km/h | 14334m | 3.7m/s | -52.6°C | 0% | 0hPa | 0V | 00:00:00 | 00:00:00 | 00:00:00 | |
| OM5KV | 2026-09-01 06:02:39 | 48.56701 | 18.50136 | 86° | 68km/h | 14327m | 3.5m/s | -52.6°C | 0% | 0hPa | 0V | 00:00:00 | 00:00:00 | 00:00:00 | |
| PETON7-10 | 2026-09-01 06:02:35 | 48.56695 | 18.50034 | 86° | 71km/h | 14309m | 4.0m/s | 0°C | 0% | 0hPa | 0V | 00:00:00 | 00:00:00 | 00:00:00 | |
| OM5KV | 2026-09-01 06:02:33 | 48.56692 | 18.49982 | 84° | 73km/h | 14306m | 3.1m/s | -52.6°C | 0% | 0hPa | 0V | 00:00:00 | 00:00:00 | 00:00:00 | |
| OE3JTB-15 | 2026-09-01 06:02:32 | 48.56690 | 18.49953 | 85° | 73km/h | 14300m | 3.8m/s | 0°C | 0% | 0hPa | 0V | 00:00:00 | 00:00:00 | 00:00:00 | |
| SQ9EZE-14 | 2026-09-01 06:02:30 | 48.56686 | 18.49876 | 89° | 69km/h | 14292m | 4.4m/s | -52.6°C | 0% | 0hPa | 0V | 00:00:00 | 00:00:00 | 00:00:00 | |
| OM5KV | 2026-09-01 06:02:29 | 48.56686 | 18.49876 | 89° | 69km/h | 14292m | 4.4m/s | -52.6°C | 0% | 0hPa | 0V | 00:00:00 | 00:00:00 | 00:00:00 | |
| OE5DXL-15 | 2026-09-01 06:02:23 | 48.56681 | 18.49709 | 91° | 73km/h | 14266m | 2.4m/s | 0°C | 0% | 0hPa | 0V | 00:00:00 | 00:00:00 | 00:00:00 | |
| OM5KV | 2026-09-01 06:02:22 | 48.56681 | 18.49680 | 91° | 73km/h | 14266m | 2.5m/s | -52.8°C | 0% | 0hPa | 0V | 00:00:00 | 00:00:00 | 00:00:00 | |
| PETON7-10 | 2026-09-01 06:02:20 | 48.56681 | 18.49623 | 90° | 75km/h | 14255m | 3.3m/s | 0°C | 0% | 0hPa | 0V | 00:00:00 | 00:00:00 | 00:00:00 | |
| OM5KV | 2026-09-01 06:02:16 | 48.56678 | 18.49508 | 92° | 75km/h | 14244m | 4.4m/s | -52.8°C | 0% | 0hPa | 0V | 00:00:00 | 00:00:00 | 00:00:00 | |
| ATIDSZ-14 | 2026-09-01 06:02:15 | 48.56679 | 18.49479 | 92° | 78km/h | 14240m | 3.5m/s | -52.7°C | 0% | 0hPa | 0V | 00:00:00 | 00:00:00 | 00:00:00 | |
| SQ9EZE-14 | 2026-09-01 06:02:14 | 48.56680 | 18.49449 | 92° | 78km/h | 14237m | 3.6m/s | -52.7°C | 0% | 0hPa | 0V | 00:00:00 | 00:00:00 | 00:00:00 | |
| OM5KV | 2026-09-01 06:02:10 | 48.56680 | 18.49336 | 89° | 75km/h | 14222m | 3.7m/s | -52.5°C | 0% | 0hPa | 0V | 00:00:00 | 00:00:00 | 00:00:00 | |
| OM5KV | 2026-09-01 06:02:09 | 48.56678 | 18.49308 | 88° | 73km/h | 14218m | 4.5m/s | -52.5°C | 0% | 0hPa | 0V | 00:00:00 | 00:00:00 | 00:00:00 | |
| PETON7-10 | 2026-09-01 06:02:05 | 48.56676 | 18.49194 | 89° | 73km/h | 14198m | 3.5m/s | 0°C | 0% | 0hPa | 0V | 00:00:00 | 00:00:00 | 00:00:00 | |
| OM5KV | 2026-09-01 06:02:04 | 48.56675 | 18.49167 | 90° | 69km/h | 14198m | 3.5m/s | -52.4°C | 0% | 0hPa | 0V | 00:00:00 | 00:00:00 | 00:00:00 | |
| OE3JTB-15 | 2026-09-01 06:02:03 | 48.56675 | 18.49140 | 90° | 71km/h | 14191m | 3.2m/s | 0°C | 0% | 0hPa | 0V | 00:00:00 | 00:00:00 | 00:00:00 | |
| OM5KV | 2026-09-01 06:01:58 | 48.56673 | 18.49002 | 86° | 80km/h | 14176m | 3.3m/s | -52.4°C | 0% | 0hPa | 0V | 00:00:00 | 00:00:00 | 00:00:00 | |
| ATIDSZ-14 | 2026-09-01 06:01:54 | 48.56669 | 18.48893 | 92° | 71km/h | 14161m | 3.7m/s | -52.3°C | 0% | 0hPa | 0V | 00:00:00 | 00:00:00 | 00:00:00 | |
| OE5DXL-15 | 2026-09-01 06:01:53 | 48.56670 | 18.48867 | 86° | 71km/h | 14154m | 3.9m/s | 0°C | 0% | 0hPa | 0V | 00:00:00 | 00:00:00 | 00:00:00 | |
| OM5KV | 2026-09-01 06:01:52 | 48.56669 | 18.48837 | 88° | 75km/h | 14154m | 3.9m/s | -52.2°C | 0% | 0hPa | 0V | 00:00:00 | 00:00:00 | 00:00:00 | |
| PETON7-10 | 2026-09-01 06:01:50 | 48.56666 | 18.48780 | 86° | 71km/h | 14142m | 3.2m/s | 0°C | 0% | 0hPa | 0V | 00:00:00 | 00:00:00 | 00:00:00 | |
| OM5KV | 2026-09-01 06:01:45 | 48.56658 | 18.48645 | 86° | 71km/h | 14127m | 3.3m/s | -52.1°C | 0% | 0hPa | 0V | 00:00:00 | 00:00:00 | 00:00:00 | |
| OM5KV | 2026-09-01 06:01:41 | 48.56652 | 18.48535 | 87° | 78km/h | 14111m | 3.0m/s | -52.3°C | 0% | 0hPa | 0V | 00:00:00 | 00:00:00 | 00:00:00 | |
| OM5KV | 2026-09-01 06:01:39 | 48.56649 | 18.48479 | 85° | 66km/h | 14104m | 3.7m/s | -52.4°C | 0% | 0hPa | 0V | 00:00:00 | 00:00:00 | 00:00:00 | |
| PETON7-10 | 2026-09-01 06:01:35 | 48.56644 | 18.48379 | 86° | 73km/h | 14083m | 3.9m/s | 0°C | 0% | 0hPa | 0V | 00:00:00 | 00:00:00 | 00:00:00 | |
| OE3JTB-15 | 2026-09-01 06:01:34 | 48.56642 | 18.48352 | 84° | 77km/h | 14083m | 3.9m/s | 0°C | 0% | 0hPa | 0V | 00:00:00 | 00:00:00 | 00:00:00 | |
| OM5KV | 2026-09-01 06:01:33 | 48.56640 | 18.48325 | 85° | 73km/h | 14079m | 4.8m/s | -52.3°C | 0% | 0hPa | 0V | 00:00:00 | 00:00:00 | 00:00:00 | |
| OM5KV | 2026-09-01 06:01:26 | 48.56631 | 18.48132 | 89° | 73km/h | 14051m | 4.0m/s | -52.1°C | 0% | 0hPa | 0V | 00:00:00 | 00:00:00 | 00:00:00 | |
| OE5DXL-15 | 2026-09-01 06:01:23 | 48.56627 | 18.48047 | 86° | 82km/h | 14039m | 3.3m/s | 0°C | 0% | 0hPa | 0V | 00:00:00 | 00:00:00 | 00:00:00 | |
| OM5KV | 2026-09-01 06:01:22 | 48.56626 | 18.48018 | 85° | 75km/h | 14035m | 4.3m/s | -52.1°C | 0% | 0hPa | 0V | 00:00:00 | 00:00:00 | 00:00:00 | |
| OM5KV | 2026-09-01 06:01:21 | 48.56624 | 18.47989 | 85° | 77km/h | 14031m | 3.8m/s | -52.1°C | 0% | 0hPa | 0V | 00:00:00 | 00:00:00 | 00:00:00 | |
| PETON7-10 | 2026-09-01 06:01:20 | 48.56622 | 18.47960 | 85° | 80km/h | 14023m | 4.5m/s | 0°C | 0% | 0hPa | 0V | 00:00:00 | 00:00:00 | 00:00:00 | |
| OM5KV | 2026-09-01 06:01:15 | 48.56618 | 18.47812 | 89° | 75km/h | 14007m | 4.6m/s | -52.1°C | 0% | 0hPa | 0V | 00:00:00 | 00:00:00 | 00:00:00 | |
| ATIDSZ-14 | 2026-09-01 06:01:13 | 48.56616 | 18.47754 | 87° | 78km/h | 13999m | 4.7m/s | -52.2°C | 0% | 0hPa | 0V | 00:00:00 | 00:00:00 | 00:00:00 | |
| OM5KV | 2026-09-01 06:01:10 | 48.56612 | 18.47659 | 88° | 80km/h | 13987m | 3.9m/s | -52.3°C | 0% | 0hPa | 0V | 00:00:00 | 00:00:00 | 00:00:00 | |
| OM5KV | 2026-09-01 06:01:09 | 48.56612 | 18.47629 | 91° | 77km/h | 13983m | 4.1m/s | -52.3°C | 0% | 0hPa | 0V | 00:00:00 | 00:00:00 | 00:00:00 | |
| OM5KV | 2026-09-01 06:01:04 | 48.56609 | 18.47473 | 86° | 86km/h | 13963m | 4.9m/s | -52.2°C | 0% | 0hPa | 0V | 00:00:00 | 00:00:00 | 00:00:00 | |
| OM5KV | 2026-09-01 06:01:03 | 48.56606 | 18.47407 | 87° | 86km/h | 13954m | 4.7m/s | -52.2°C | 0% | 0hPa | 0V | 00:00:00 | 00:00:00 | 00:00:00 | |
| OM5KV | 2026-09-01 06:00:56 | 48.56601 | 18.47217 | 86° | 78km/h | 13931m | 3.8m/s | -52.1°C | 0% | 0hPa | 0V | 00:00:00 | 00:00:00 | 00:00:00 | |
| OE5DXL-15 | 2026-09-01 06:00:53 | 48.56596 | 18.47125 | 86° | 84km/h | 13914m | 4.0m/s | 0°C | 0% | 0hPa | 0V | 00:00:00 | 00:00:00 | 00:00:00 | |
| OM5KV | 2026-09-01 06:00:51 | 48.56593 | 18.47061 | 89° | 86km/h | 13910m | 4.6m/s | -52.0°C | 0% | 0hPa | 0V | 00:00:00 | 00:00:00 | 00:00:00 | |
| PETON7-10 | 2026-09-01 06:00:50 | 48.56592 | 18.47029 | 88° | 84km/h | 13902m | 4.8m/s | 0°C | 0% | 0hPa | 0V | 00:00:00 | 00:00:00 | 00:00:00 | |
| OM5KV | 2026-09-01 06:00:45 | 48.56585 | 18.46874 | 91° | 84km/h | 13886m | 4.3m/s | -51.8°C | 0% | 0hPa | 0V | 00:00:00 | 00:00:00 | 00:00:00 | |
| OM5KV | 2026-09-01 06:00:40 | 48.56580 | 18.46713 | 84° | 82km/h | 13866m | 4.1m/s | -51.9°C | 0% | 0hPa | 0V | 00:00:00 | 00:00:00 | 00:00:00 | |
| OM5KV | 2026-09-01 06:00:39 | 48.56577 | 18.46683 | 85° | 80km/h | 13863m | 3.2m/s | -51.9°C | 0% | 0hPa | 0V | 00:00:00 | 00:00:00 | 00:00:00 | |
| OE3JTB-15 | 2026-09-01 06:00:36 | 48.56572 | 18.46584 | 88° | 88km/h | 13850m | 4.4m/s | 0°C | 0% | 0hPa | 0V | 00:00:00 | 00:00:00 | 00:00:00 | |
| PETON7-10 | 2026-09-01 06:00:34 | 48.56570 | 18.46520 | 86° | 86km/h | 13838m | 4.0m/s | 0°C | 0% | 0hPa | 0V | 00:00:00 | 00:00:00 | 00:00:00 | |
| ATIDSZ-14 | 2026-09-01 06:00:32 | 48.56566 | 18.46456 | 84° | 84km/h | 13834m | 4.6m/s | -52.0°C | 0% | 0hPa | 0V | 00:00:00 | 00:00:00 | 00:00:00 | |
| OM5KV | 2026-09-01 06:00:28 | 48.56554 | 18.46325 | 85° | 88km/h | 13817m | 4.5m/s | -52.0°C | 0% | 0hPa | 0V | 00:00:00 | 00:00:00 | 00:00:00 | |
| OM5KV | 2026-09-01 06:00:27 | 48.56552 | 18.46292 | 86° | 86km/h | 13814m | 3.5m/s | -52.0°C | 0% | 0hPa | 0V | 00:00:00 | 00:00:00 | 00:00:00 | |
| OE5DXL-15 | 2026-09-01 06:00:23 | 48.56541 | 18.46164 | 81° | 91km/h | 13793m | 4.4m/s | 0°C | 0% | 0hPa | 0V | 00:00:00 | 00:00:00 | 00:00:00 | |
| OM5KV | 2026-09-01 06:00:22 | 48.56538 | 18.46130 | 81° | 89km/h | 13793m | 4.4m/s | -52.1°C | 0% | 0hPa | 0V | 00:00:00 | 00:00:00 | 00:00:00 | |
| OM5KV | 2026-09-01 06:00:21 | 48.56534 | 18.46096 | 81° | 89km/h | 13789m | 3.5m/s | -52.0°C | 0% | 0hPa | 0V | 00:00:00 | 00:00:00 | 00:00:00 | |
| PETON7-10 | 2026-09-01 06:00:19 | 48.56527 | 18.46030 | 83° | 91km/h | 13778m | 4.2m/s | 0°C | 0% | 0hPa | 0V | 00:00:00 | 00:00:00 | 00:00:00 | |
| SQ9EZE-15 | 2026-09-01 06:00:15 | 48.56513 | 18.45895 | 82° | 88km/h | 13767m | 3.5m/s | -52.0°C | 0% | 0hPa | 0V | 00:00:00 | 00:00:00 | 00:00:00 | |
| ATIDSZ-14 | 2026-09-01 06:00:12 | 48.56501 | 18.45791 | 82° | 93km/h | 13754m | 4.7m/s | -52.0°C | 0% | 0hPa | 0V | 00:00:00 | 00:00:00 | 00:00:00 | |
| OM5KV | 2026-09-01 06:00:10 | 48.56494 | 18.45723 | 82° | 91km/h | 13746m | 5.0m/s | -52.0°C | 0% | 0hPa | 0V | 00:00:00 | 00:00:00 | 00:00:00 | |
| OE3JTB-15 | 2026-09-01 06:00:07 | 48.56483 | 18.45620 | 83° | 93km/h | 13731m | 4.1m/s | 0°C | 0% | 0hPa | 0V | 00:00:00 | 00:00:00 | 00:00:00 | |
| GYPAP8-17 | 2026-09-01 06:00:05 | 48.56477 | 18.45552 | 82° | 93km/h | 13726m | 4.5m/s | -52.0°C | 0% | 0hPa | 0V | 00:00:00 | 00:00:00 | 00:00:00 | |
| PETON7-10 | 2026-09-01 06:00:04 | 48.56473 | 18.45516 | 81° | 93km/h | 13719m | 4.5m/s | 0°C | 0% | 0hPa | 0V | 00:00:00 | 00:00:00 | 00:00:00 | |
| OM5KV | 2026-09-01 05:59:58 | 48.56455 | 18.45307 | 85° | 88km/h | 13699m | 4.4m/s | -52.3°C | 0% | 0hPa | 0V | 00:00:00 | 00:00:00 | 00:00:00 | |
| SQ9EZE-15 | 2026-09-01 05:59:55 | 48.56446 | 18.45205 | 84° | 93km/h | 13687m | 4.4m/s | -52.4°C | 0% | 0hPa | 0V | 00:00:00 | 00:00:00 | 00:00:00 | |
| OE5DXL-15 | 2026-09-01 05:59:53 | 48.56441 | 18.45132 | 83° | 93km/h | 13675m | 3.5m/s | 0°C | 0% | 0hPa | 0V | 00:00:00 | 00:00:00 | 00:00:00 | |
| ATIDSZ-14 | 2026-09-01 05:59:51 | 48.56435 | 18.45060 | 85° | 93km/h | 13671m | 4.2m/s | -52.5°C | 0% | 0hPa | 0V | 00:00:00 | 00:00:00 | 00:00:00 | |
| PETON7-10 | 2026-09-01 05:59:49 | 48.56431 | 18.44991 | 85° | 95km/h | 13660m | 3.3m/s | 0°C | 0% | 0hPa | 0V | 00:00:00 | 00:00:00 | 00:00:00 | |
| OM5KV | 2026-09-01 05:59:47 | 48.56426 | 18.44920 | 87° | 95km/h | 13656m | 4.4m/s | -52.4°C | 0% | 0hPa | 0V | 00:00:00 | 00:00:00 | 00:00:00 | |
| OM5KV | 2026-09-01 05:59:46 | 48.56425 | 18.44884 | 88° | 97km/h | 13652m | 3.3m/s | -52.4°C | 0% | 0hPa | 0V | 00:00:00 | 00:00:00 | 00:00:00 | |
| OM5KV | 2026-09-01 05:59:41 | 48.56413 | 18.44702 | 86° | 89km/h | 13633m | 4.0m/s | -52.3°C | 0% | 0hPa | 0V | 00:00:00 | 00:00:00 | 00:00:00 | |
| OM5KV | 2026-09-01 05:59:39 | 48.56408 | 18.44634 | 85° | 89km/h | 13625m | 4.6m/s | -52.3°C | 0% | 0hPa | 0V | 00:00:00 | 00:00:00 | 00:00:00 | |
| OE3JTB-15 | 2026-09-01 05:59:38 | 48.56406 | 18.44599 | 85° | 89km/h | 13617m | 4.7m/s | 0°C | 0% | 0hPa | 0V | 00:00:00 | 00:00:00 | 00:00:00 | |
| OM5KV | 2026-09-01 05:59:35 | 48.56397 | 18.44492 | 84° | 95km/h | 13609m | 4.2m/s | -52.4°C | 0% | 0hPa | 0V | 00:00:00 | 00:00:00 | 00:00:00 | |
| PETON7-10 | 2026-09-01 05:59:34 | 48.56395 | 18.44457 | 84° | 89km/h | 13602m | 4.5m/s | 0°C | 0% | 0hPa | 0V | 00:00:00 | 00:00:00 | 00:00:00 | |
| SQ9EZE-15 | 2026-09-01 05:59:33 | 48.56392 | 18.44424 | 83° | 86km/h | 13602m | 4.6m/s | -52.4°C | 0% | 0hPa | 0V | 00:00:00 | 00:00:00 | 00:00:00 | |
| OM5KV | 2026-09-01 05:59:31 | 48.56382 | 18.44361 | 84° | 91km/h | 13594m | 4.2m/s | -52.5°C | 0% | 0hPa | 0V | 00:00:00 | 00:00:00 | 00:00:00 | |
| OM5KV | 2026-09-01 05:59:28 | 48.56380 | 18.44259 | 83° | 93km/h | 13583m | 4.2m/s | -52.5°C | 0% | 0hPa | 0V | 00:00:00 | 00:00:00 | 00:00:00 | |
| OE5DXL-15 | 2026-09-01 05:59:22 | 48.56358 | 18.44053 | 84° | 88km/h | 13557m | 3.6m/s | 0°C | 0% | 0hPa | 0V | 00:00:00 | 00:00:00 | 00:00:00 | |
| OM5KV | 2026-09-01 05:59:21 | 48.56356 | 18.44020 | 86° | 89km/h | 13557m | 3.6m/s | -52.3°C | 0% | 0hPa | 0V | 00:00:00 | 00:00:00 | 00:00:00 | |
| PETON7-10 | 2026-09-01 05:59:19 | 48.56350 | 18.43953 | 81° | 88km/h | 13545m | 4.4m/s | 0°C | 0% | 0hPa | 0V | 00:00:00 | 00:00:00 | 00:00:00 | |
| OM5KV | 2026-09-01 05:59:16 | 48.56339 | 18.43851 | 83° | 86km/h | 13537m | 4.8m/s | -52.2°C | 0% | 0hPa | 0V | 00:00:00 | 00:00:00 | 00:00:00 | |
| OM5KV | 2026-09-01 05:59:14 | 48.56334 | 18.43788 | 85° | 82km/h | 13529m | 4.6m/s | -52.2°C | 0% | 0hPa | 0V | 00:00:00 | 00:00:00 | 00:00:00 | |
| ATIDSZ-14 | 2026-09-01 05:59:10 | 48.56325 | 18.43658 | 84° | 89km/h | 13514m | 4.6m/s | -52.2°C | 0% | 0hPa | 0V | 00:00:00 | 00:00:00 | 00:00:00 | |
| OE3JTB-15 | 2026-09-01 05:59:09 | 48.56322 | 18.43624 | 83° | 89km/h | 13506m | 4.5m/s | 0°C | 0% | 0hPa | 0V | 00:00:00 | 00:00:00 | 00:00:00 | |
| OM5KV | 2026-09-01 05:59:08 | 48.56319 | 18.43590 | 83° | 89km/h | 13506m | 4.6m/s | -52.2°C | 0% | 0hPa | 0V | 00:00:00 | 00:00:00 | 00:00:00 | |
| PETON7-10 | 2026-09-01 05:59:04 | 48.56310 | 18.43457 | 88° | 89km/h | 13488m | 3.7m/s | 0°C | 0% | 0hPa | 0V | 00:00:00 | 00:00:00 | 00:00:00 | |
| OM5KV | 2026-09-01 05:59:02 | 48.56307 | 18.43391 | 87° | 88km/h | 13484m | 3.7m/s | -52.2°C | 0% | 0hPa | 0V | 00:00:00 | 00:00:00 | 00:00:00 | |
| OM5KV | 2026-09-01 05:58:56 | 48.56298 | 18.43182 | 87° | 95km/h | 13461m | 4.2m/s | -52.3°C | 0% | 0hPa | 0V | 00:00:00 | 00:00:00 | 00:00:00 | |
| OE5DXL-15 | 2026-09-01 05:58:52 | 48.56292 | 18.43047 | 88° | 93km/h | 13442m | 3.4m/s | 0°C | 0% | 0hPa | 0V | 00:00:00 | 00:00:00 | 00:00:00 | |
| OM5KV | 2026-09-01 05:58:50 | 48.56291 | 18.42979 | 89° | 91km/h | 13438m | 4.6m/s | -52.2°C | 0% | 0hPa | 0V | 00:00:00 | 00:00:00 | 00:00:00 | |
| PETON7-10 | 2026-09-01 05:58:49 | 48.56290 | 18.42943 | 89° | 91km/h | 13431m | 4.5m/s | 0°C | 0% | 0hPa | 0V | 00:00:00 | 00:00:00 | 00:00:00 | |
| OM5KV | 2026-09-01 05:58:44 | 48.56284 | 18.42773 | 91° | 82km/h | 13415m | 4.3m/s | -53.0°C | 0% | 0hPa | 0V | 00:00:00 | 00:00:00 | 00:00:00 | |
| OE3JTB-15 | 2026-09-01 05:58:40 | 48.56284 | 18.42636 | 88° | 99km/h | 13393m | 3.4m/s | 0°C | 0% | 0hPa | 0V | 00:00:00 | 00:00:00 | 00:00:00 | |
| PETON7-10 | 2026-09-01 05:58:34 | 48.56273 | 18.42424 | 88° | 99km/h | 13374m | 3.5m/s | 0°C | 0% | 0hPa | 0V | 00:00:00 | 00:00:00 | 00:00:00 | |
| OM5KV | 2026-09-01 05:58:33 | 48.56273 | 18.42387 | 89° | 99km/h | 13374m | 3.6m/s | -53.2°C | 0% | 0hPa | 0V | 00:00:00 | 00:00:00 | 00:00:00 | |
| OM5KV | 2026-09-01 05:58:31 | 48.56269 | 18.42311 | 86° | 100km/h | 13366m | 3.1m/s | -53.2°C | 0% | 0hPa | 0V | 00:00:00 | 00:00:00 | 00:00:00 | |
| ATIDSZ-14 | 2026-09-01 05:58:29 | 48.56264 | 18.42234 | 86° | 100km/h | 13359m | 3.6m/s | -53.2°C | 0% | 0hPa | 0V | 00:00:00 | 00:00:00 | 00:00:00 | |
| OM5KV | 2026-09-01 05:58:27 | 48.56260 | 18.42161 | 85° | 95km/h | 13352m | 2.9m/s | -53.2°C | 0% | 0hPa | 0V | 00:00:00 | 00:00:00 | 00:00:00 | |
| OE5DXL-15 | 2026-09-01 05:58:22 | 48.56247 | 18.41970 | 87° | 99km/h | 13335m | 4.0m/s | 0°C | 0% | 0hPa | 0V | 00:00:00 | 00:00:00 | 00:00:00 | |
| OM5KV | 2026-09-01 05:58:21 | 48.56247 | 18.41933 | 90° | 99km/h | 13331m | 3.3m/s | -53.3°C | 0% | 0hPa | 0V | 00:00:00 | 00:00:00 | 00:00:00 | |
| PETON7-10 | 2026-09-01 05:58:19 | 48.56244 | 18.41860 | 86° | 100km/h | 13320m | 3.6m/s | 0°C | 0% | 0hPa | 0V | 00:00:00 | 00:00:00 | 00:00:00 | |
| OM5KV | 2026-09-01 05:58:16 | 48.56238 | 18.41748 | 87° | 104km/h | 13313m | 3.0m/s | -53.3°C | 0% | 0hPa | 0V | 00:00:00 | 00:00:00 | 00:00:00 | |
| OM5KV | 2026-09-01 05:58:13 | 48.56230 | 18.41632 | 84° | 102km/h | 13302m | 3.6m/s | -53.3°C | 0% | 0hPa | 0V | 00:00:00 | 00:00:00 | 00:00:00 | |
| OE3JTB-15 | 2026-09-01 05:58:11 | 48.56224 | 18.41556 | 83° | 97km/h | 13296m | 4.0m/s | 0°C | 0% | 0hPa | 0V | 00:00:00 | 00:00:00 | 00:00:00 | |
| ATIDSZ-14 | 2026-09-01 05:58:08 | 48.56214 | 18.41440 | 84° | 106km/h | 13284m | 4.1m/s | -53.4°C | 0% | 0hPa | 0V | 00:00:00 | 00:00:00 | 00:00:00 | |
| OM5KV | 2026-09-01 05:58:07 | 48.56210 | 18.41400 | 82° | 104km/h | 13280m | 3.8m/s | -53.3°C | 0% | 0hPa | 0V | 00:00:00 | 00:00:00 | 00:00:00 | |
| PETON7-10 | 2026-09-01 05:58:04 | 48.56198 | 18.41287 | 84° | 97km/h | 13267m | 4.4m/s | 0°C | 0% | 0hPa | 0V | 00:00:00 | 00:00:00 | 00:00:00 | |
| OM5KV | 2026-09-01 05:58:01 | 48.56188 | 18.41178 | 83° | 95km/h | 13259m | 3.9m/s | -53.1°C | 0% | 0hPa | 0V | 00:00:00 | 00:00:00 | 00:00:00 | |
| OM5KV | 2026-09-01 05:57:58 | 48.56180 | 18.41067 | 83° | 97km/h | 13248m | 3.7m/s | -53.1°C | 0% | 0hPa | 0V | 00:00:00 | 00:00:00 | 00:00:00 | |
| OE5DXL-15 | 2026-09-01 05:57:52 | 48.56158 | 18.40853 | 84° | 95km/h | 13226m | 3.0m/s | 0°C | 0% | 0hPa | 0V | 00:00:00 | 00:00:00 | 00:00:00 | |
| OM5KV | 2026-09-01 05:57:50 | 48.56151 | 18.40780 | 83° | 97km/h | 13219m | 3.5m/s | -53.0°C | 0% | 0hPa | 0V | 00:00:00 | 00:00:00 | 00:00:00 | |
| PETON7-10 | 2026-09-01 05:57:49 | 48.56148 | 18.40743 | 83° | 93km/h | 13212m | 2.7m/s | 0°C | 0% | 0hPa | 0V | 00:00:00 | 00:00:00 | 00:00:00 | |
| ATIDSZ-14 | 2026-09-01 05:57:48 | 48.56145 | 18.40706 | 84° | 97km/h | 13212m | 2.8m/s | -53.0°C | 0% | 0hPa | 0V | 00:00:00 | 00:00:00 | 00:00:00 | |
| OM5KV | 2026-09-01 05:57:46 | 48.56137 | 18.40636 | 79° | 89km/h | 13205m | 3.4m/s | -53.0°C | 0% | 0hPa | 0V | 00:00:00 | 00:00:00 | 00:00:00 | |
| OM5KV | 2026-09-01 05:57:44 | 48.56129 | 18.40567 | 82° | 95km/h | 13197m | 3.0m/s | -53.1°C | 0% | 0hPa | 0V | 00:00:00 | 00:00:00 | 00:00:00 | |
| OE3JTB-15 | 2026-09-01 05:57:42 | 48.56121 | 18.40495 | 82° | 95km/h | 13186m | 4.1m/s | 0°C | 0% | 0hPa | 0V | 00:00:00 | 00:00:00 | 00:00:00 | |
| OM5KV | 2026-09-01 05:57:40 | 48.56116 | 18.40424 | 86° | 95km/h | 13182m | 3.3m/s | -53.2°C | 0% | 0hPa | 0V | 00:00:00 | 00:00:00 | 00:00:00 | |
| OM5KV | 2026-09-01 05:57:38 | 48.56110 | 18.40355 | 79° | 88km/h | 13175m | 3.4m/s | -53.1°C | 0% | 0hPa | 0V | 00:00:00 | 00:00:00 | 00:00:00 | |
| PETON7-10 | 2026-09-01 05:57:34 | 48.56092 | 18.40218 | 81° | 97km/h | 13157m | 3.4m/s | 0°C | 0% | 0hPa | 0V | 00:00:00 | 00:00:00 | 00:00:00 | |
| OM5KV | 2026-09-01 05:57:33 | 48.56088 | 18.40182 | 81° | 95km/h | 13157m | 3.5m/s | -53.0°C | 0% | 0hPa | 0V | 00:00:00 | 00:00:00 | 00:00:00 | |
| OM5KV | 2026-09-01 05:57:28 | 48.56064 | 18.39970 | 77° | 99km/h | 13134m | 2.9m/s | -53.1°C | 0% | 0hPa | 0V | 00:00:00 | 00:00:00 | 00:00:00 | |
| ATIDSZ-14 | 2026-09-01 05:57:27 | 48.56064 | 18.39970 | 77° | 99km/h | 13134m | 2.9m/s | -53.1°C | 0% | 0hPa | 0V | 00:00:00 | 00:00:00 | 00:00:00 | |
| OE5DXL-15 | 2026-09-01 05:57:21 | 48.56039 | 18.39750 | 81° | 106km/h | 13107m | 4.6m/s | 0°C | 0% | 0hPa | 0V | 00:00:00 | 00:00:00 | 00:00:00 | |
| OM5KV | 2026-09-01 05:57:16 | 48.56013 | 18.39564 | 83° | 99km/h | 13092m | 4.0m/s | -52.9°C | 0% | 0hPa | 0V | 00:00:00 | 00:00:00 | 00:00:00 | |
| OM5KV | 2026-09-01 05:57:15 | 48.56006 | 18.39487 | 81° | 104km/h | 13085m | 2.8m/s | -52.9°C | 0% | 0hPa | 0V | 00:00:00 | 00:00:00 | 00:00:00 | |
| OE3JTB-15 | 2026-09-01 05:57:13 | 48.56001 | 18.39453 | 79° | 110km/h | 13073m | 4.2m/s | 0°C | 0% | 0hPa | 0V | 00:00:00 | 00:00:00 | 00:00:00 | |
| OM5KV | 2026-09-01 05:57:09 | 48.55982 | 18.39297 | 82° | 108km/h | 13066m | 3.8m/s | -52.8°C | 0% | 0hPa | 0V | 00:00:00 | 00:00:00 | 00:00:00 | |
| OM5KV | 2026-09-01 05:57:08 | 48.55977 | 18.39257 | 81° | 106km/h | 13062m | 3.6m/s | -52.8°C | 0% | 0hPa | 0V | 00:00:00 | 00:00:00 | 00:00:00 | |
| ATIDSZ-14 | 2026-09-01 05:57:07 | 48.55972 | 18.39217 | 79° | 106km/h | 13058m | 4.1m/s | -52.9°C | 0% | 0hPa | 0V | 00:00:00 | 00:00:00 | 00:00:00 | |
| PETON7-10 | 2026-09-01 05:57:03 | 48.55950 | 18.39062 | 80° | 110km/h | 13039m | 4.1m/s | 0°C | 0% | 0hPa | 0V | 00:00:00 | 00:00:00 | 00:00:00 | |
| OM5KV | 2026-09-01 05:57:02 | 48.55945 | 18.39023 | 80° | 110km/h | 13039m | 4.2m/s | -53.1°C | 0% | 0hPa | 0V | 00:00:00 | 00:00:00 | 00:00:00 | |
| OM5KV | 2026-09-01 05:56:57 | 48.55918 | 18.38815 | 80° | 108km/h | 13020m | 3.4m/s | -53.4°C | 0% | 0hPa | 0V | 00:00:00 | 00:00:00 | 00:00:00 | |
| OM5KV | 2026-09-01 05:56:56 | 48.55913 | 18.38775 | 80° | 108km/h | 13017m | 3.5m/s | -53.4°C | 0% | 0hPa | 0V | 00:00:00 | 00:00:00 | 00:00:00 | |
| OE5DXL-15 | 2026-09-01 05:56:51 | 48.55886 | 18.38565 | 79° | 111km/h | 12996m | 3.6m/s | 0°C | 0% | 0hPa | 0V | 00:00:00 | 00:00:00 | 00:00:00 | |
| OM5KV | 2026-09-01 05:56:50 | 48.55880 | 18.38523 | 78° | 110km/h | 12996m | 3.7m/s | -53.5°C | 0% | 0hPa | 0V | 00:00:00 | 00:00:00 | 00:00:00 | |
| PETON7-10 | 2026-09-01 05:56:48 | 48.55867 | 18.38442 | 77° | 111km/h | 12984m | 4.8m/s | 0°C | 0% | 0hPa | 0V | 00:00:00 | 00:00:00 | 00:00:00 | |
| ATIDSZ-14 | 2026-09-01 05:56:46 | 48.55853 | 18.38362 | 76° | 108km/h | 12980m | 3.2m/s | -53.5°C | 0% | 0hPa | 0V | 00:00:00 | 00:00:00 | 00:00:00 | |
| OM5KV | 2026-09-01 05:56:45 | 48.55846 | 18.38321 | 76° | 113km/h | 12976m | 5.1m/s | -53.5°C | 0% | 0hPa | 0V | 00:00:00 | 00:00:00 | 00:00:00 | |
| OM5KV | 2026-09-01 05:56:44 | 48.55838 | 18.38278 | 75° | 119km/h | 12971m | 3.7m/s | -53.4°C | 0% | 0hPa | 0V | 00:00:00 | 00:00:00 | 00:00:00 | |
| OE3JTB-15 | 2026-09-01 05:56:42 | 48.55821 | 18.38194 | 74° | 110km/h | 12960m | 4.0m/s | 0°C | 0% | 0hPa | 0V | 00:00:00 | 00:00:00 | 00:00:00 | |
| OM5KV | 2026-09-01 05:56:39 | 48.55800 | 18.38075 | 76° | 111km/h | 12952m | 3.1m/s | -53.2°C | 0% | 0hPa | 0V | 00:00:00 | 00:00:00 | 00:00:00 | |
| OM5KV | 2026-09-01 05:56:34 | 48.55747 | 18.37828 | 71° | 111km/h | 12930m | 3.4m/s | -53.2°C | 0% | 0hPa | 0V | 00:00:00 | 00:00:00 | 00:00:00 | |
| PETON7-10 | 2026-09-01 05:56:33 | 48.55747 | 18.37828 | 70° | 110km/h | 12927m | 3.9m/s | 0°C | 0% | 0hPa | 0V | 00:00:00 | 00:00:00 | 00:00:00 | |
| OM5KV | 2026-09-01 05:56:28 | 48.55705 | 18.37625 | 75° | 110km/h | 12911m | 4.3m/s | -53.1°C | 0% | 0hPa | 0V | 00:00:00 | 00:00:00 | 00:00:00 | |
| ATIDSZ-14 | 2026-09-01 05:56:26 | 48.55688 | 18.37546 | 71° | 108km/h | 12903m | 4.5m/s | -53.0°C | 0% | 0hPa | 0V | 00:00:00 | 00:00:00 | 00:00:00 | |
| OM5KV | 2026-09-01 05:56:23 | 48.55653 | 18.37390 | 74° | 110km/h | 12887m | 4.6m/s | -52.8°C | 0% | 0hPa | 0V | 00:00:00 | 00:00:00 | 00:00:00 | |
| OM5KV | 2026-09-01 05:56:22 | 48.55653 | 18.37390 | 74° | 110km/h | 12887m | 4.6m/s | -52.8°C | 0% | 0hPa | 0V | 00:00:00 | 00:00:00 | 00:00:00 | |
| OE5DXL-15 | 2026-09-01 05:56:21 | 48.55645 | 18.37350 | 73° | 104km/h | 12879m | 4.4m/s | 0°C | 0% | 0hPa | 0V | 00:00:00 | 00:00:00 | 00:00:00 | |
| PETON7-10 | 2026-09-01 05:56:18 | 48.55620 | 18.37231 | 71° | 104km/h | 12867m | 3.5m/s | 0°C | 0% | 0hPa | 0V | 00:00:00 | 00:00:00 | 00:00:00 | |
| OM5KV | 2026-09-01 05:56:16 | 48.55603 | 18.37155 | 74° | 106km/h | 12863m | 4.1m/s | -52.7°C | 0% | 0hPa | 0V | 00:00:00 | 00:00:00 | 00:00:00 | |
| OE3JTB-15 | 2026-09-01 05:56:14 | 48.55580 | 18.37042 | 72° | 102km/h | 12852m | 3.9m/s | 0°C | 0% | 0hPa | 0V | 00:00:00 | 00:00:00 | 00:00:00 | |
| OM5KV | 2026-09-01 05:56:10 | 48.55555 | 18.36928 | 73° | 110km/h | 12838m | 4.8m/s | -52.6°C | 0% | 0hPa | 0V | 00:00:00 | 00:00:00 | 00:00:00 | |
| ATIDSZ-14 | 2026-09-01 05:56:05 | 48.55516 | 18.36734 | 73° | 99km/h | 12818m | 4.0m/s | -52.6°C | 0% | 0hPa | 0V | 00:00:00 | 00:00:00 | 00:00:00 | |
| OM5KV | 2026-09-01 05:56:04 | 48.55509 | 18.36698 | 75° | 99km/h | 12814m | 4.5m/s | -52.6°C | 0% | 0hPa | 0V | 00:00:00 | 00:00:00 | 00:00:00 | |
| PETON7-10 | 2026-09-01 05:56:03 | 48.55503 | 18.36662 | 76° | 102km/h | 12806m | 4.4m/s | 0°C | 0% | 0hPa | 0V | 00:00:00 | 00:00:00 | 00:00:00 | |
| OM5KV | 2026-09-01 05:55:58 | 48.55460 | 18.36436 | 75° | 97km/h | 12786m | 4.0m/s | -53.1°C | 0% | 0hPa | 0V | 00:00:00 | 00:00:00 | 00:00:00 | |
| OM5KV | 2026-09-01 05:55:54 | 48.55444 | 18.36330 | 77° | 97km/h | 12775m | 4.0m/s | -53.4°C | 0% | 0hPa | 0V | 00:00:00 | 00:00:00 | 00:00:00 | |
| OM5KV | 2026-09-01 05:55:51 | 48.55411 | 18.36214 | 72° | 111km/h | 12763m | 3.3m/s | -53.7°C | 0% | 0hPa | 0V | 00:00:00 | 00:00:00 | 00:00:00 | |
| OE5DXL-15 | 2026-09-01 05:55:50 | 48.55411 | 18.36174 | 71° | 100km/h | 12752m | 4.7m/s | 0°C | 0% | 0hPa | 0V | 00:00:00 | 00:00:00 | 00:00:00 | |
| OM5KV | 2026-09-01 05:55:49 | 48.55395 | 18.36098 | 76° | 102km/h | 12752m | 4.8m/s | -53.7°C | 0% | 0hPa | 0V | 00:00:00 | 00:00:00 | 00:00:00 | |
| PETON7-10 | 2026-09-01 05:55:48 | 48.55395 | 18.36098 | 75° | 102km/h | 12748m | 4.2m/s | 0°C | 0% | 0hPa | 0V | 00:00:00 | 00:00:00 | 00:00:00 | |
| ATIDSZ-14 | 2026-09-01 05:55:45 | 48.55374 | 18.35986 | 74° | 104km/h | 12739m | 4.5m/s | -53.8°C | 0% | 0hPa | 0V | 00:00:00 | 00:00:00 | 00:00:00 | |
| OE3JTB-15 | 2026-09-01 05:55:44 | 48.55366 | 18.35948 | 73° | 99km/h | 12731m | 4.4m/s | 0°C | 0% | 0hPa | 0V | 00:00:00 | 00:00:00 | 00:00:00 | |
| OM5KV | 2026-09-01 05:55:41 | 48.55340 | 18.35834 | 74° | 100km/h | 12724m | 5.4m/s | -53.8°C | 0% | 0hPa | 0V | 00:00:00 | 00:00:00 | 00:00:00 | |
| OM5KV | 2026-09-01 05:55:40 | 48.55333 | 18.35798 | 78° | 97km/h | 12715m | 4.8m/s | -53.8°C | 0% | 0hPa | 0V | 00:00:00 | 00:00:00 | 00:00:00 | |
| OM5KV | 2026-09-01 05:55:29 | 48.55268 | 18.35392 | 78° | 100km/h | 12674m | 5.0m/s | -53.8°C | 0% | 0hPa | 0V | 00:00:00 | 00:00:00 | 00:00:00 | |
| OM5KV | 2026-09-01 05:55:27 | 48.55251 | 18.35278 | 77° | 97km/h | 12662m | 3.8m/s | -53.8°C | 0% | 0hPa | 0V | 00:00:00 | 00:00:00 | 00:00:00 | |
| ATIDSZ-14 | 2026-09-01 05:55:24 | 48.55240 | 18.35208 | 81° | 93km/h | 12654m | 4.4m/s | -53.7°C | 0% | 0hPa | 0V | 00:00:00 | 00:00:00 | 00:00:00 | |
| OM5KV | 2026-09-01 05:55:22 | 48.55234 | 18.35137 | 85° | 95km/h | 12646m | 3.9m/s | -53.7°C | 0% | 0hPa | 0V | 00:00:00 | 00:00:00 | 00:00:00 | |
| OM5KV | 2026-09-01 05:55:20 | 48.55230 | 18.35062 | 85° | 102km/h | 12639m | 3.0m/s | -53.8°C | 0% | 0hPa | 0V | 00:00:00 | 00:00:00 | 00:00:00 | |
| OE5DXL-15 | 2026-09-01 05:55:19 | 48.55226 | 18.35023 | 83° | 97km/h | 12635m | 3.8m/s | 0°C | 0% | 0hPa | 0V | 00:00:00 | 00:00:00 | 00:00:00 | |
| PETON7-10 | 2026-09-01 05:55:18 | 48.55223 | 18.34987 | 80° | 95km/h | 12627m | 3.7m/s | 0°C | 0% | 0hPa | 0V | 00:00:00 | 00:00:00 | 00:00:00 | |
| OM5KV | 2026-09-01 05:55:17 | 48.55219 | 18.34954 | 80° | 89km/h | 12627m | 3.7m/s | -53.8°C | 0% | 0hPa | 0V | 00:00:00 | 00:00:00 | 00:00:00 | |
| OE3JTB-15 | 2026-09-01 05:55:15 | 48.55211 | 18.34884 | 83° | 97km/h | 12620m | 3.0m/s | 0°C | 0% | 0hPa | 0V | 00:00:00 | 00:00:00 | 00:00:00 | |
| OM5KV | 2026-09-01 05:55:11 | 48.55201 | 18.34737 | 84° | 100km/h | 12605m | 3.0m/s | -53.9°C | 0% | 0hPa | 0V | 00:00:00 | 00:00:00 | 00:00:00 | |
| OM5KV | 2026-09-01 05:55:10 | 48.55196 | 18.34666 | 86° | 89km/h | 12598m | 3.0m/s | -54.0°C | 0% | 0hPa | 0V | 00:00:00 | 00:00:00 | 00:00:00 | |
| OM5KV | 2026-09-01 05:55:06 | 48.55189 | 18.34522 | 88° | 97km/h | 12584m | 4.1m/s | -54.1°C | 0% | 0hPa | 0V | 00:00:00 | 00:00:00 | 00:00:00 | |
| ATIDSZ-14 | 2026-09-01 05:55:04 | 48.55188 | 18.34486 | 89° | 95km/h | 12580m | 3.6m/s | -54.1°C | 0% | 0hPa | 0V | 00:00:00 | 00:00:00 | 00:00:00 | |
| PETON7-10 | 2026-09-01 05:55:03 | 48.55187 | 18.34449 | 87° | 99km/h | 12573m | 3.1m/s | 0°C | 0% | 0hPa | 0V | 00:00:00 | 00:00:00 | 00:00:00 | |
| OM5KV | 2026-09-01 05:54:59 | 48.55178 | 18.34303 | 87° | 91km/h | 12562m | 3.9m/s | -54.4°C | 0% | 0hPa | 0V | 00:00:00 | 00:00:00 | 00:00:00 | |
| OM5KV | 2026-09-01 05:54:58 | 48.55177 | 18.34267 | 89° | 97km/h | 12558m | 3.9m/s | -54.4°C | 0% | 0hPa | 0V | 00:00:00 | 00:00:00 | 00:00:00 | |
| OM5KV | 2026-09-01 05:54:52 | 48.55176 | 18.34040 | 88° | 97km/h | 12536m | 3.3m/s | -54.6°C | 0% | 0hPa | 0V | 00:00:00 | 00:00:00 | 00:00:00 | |
| OE5DXL-15 | 2026-09-01 05:54:49 | 48.55171 | 18.33928 | 92° | 100km/h | 12521m | 3.2m/s | 0°C | 0% | 0hPa | 0V | 00:00:00 | 00:00:00 | 00:00:00 | |
| PETON7-10 | 2026-09-01 05:54:48 | 48.55171 | 18.33891 | 89° | 99km/h | 12518m | 3.5m/s | 0°C | 0% | 0hPa | 0V | 00:00:00 | 00:00:00 | 00:00:00 | |
| OM5KV | 2026-09-01 05:54:47 | 48.55170 | 18.33855 | 93° | 93km/h | 12518m | 3.6m/s | -54.7°C | 0% | 0hPa | 0V | 00:00:00 | 00:00:00 | 00:00:00 | |
| OE3JTB-15 | 2026-09-01 05:54:46 | 48.55171 | 18.33819 | 94° | 99km/h | 12511m | 2.5m/s | 0°C | 0% | 0hPa | 0V | 00:00:00 | 00:00:00 | 00:00:00 | |
| OM5KV | 2026-09-01 05:54:39 | 48.55160 | 18.33555 | 90° | 97km/h | 12489m | 4.2m/s | -54.6°C | 0% | 0hPa | 0V | 00:00:00 | 00:00:00 | 00:00:00 | |
| OM5KV | 2026-09-01 05:54:36 | 48.55159 | 18.33443 | 89° | 100km/h | 12478m | 3.5m/s | -54.6°C | 0% | 0hPa | 0V | 00:00:00 | 00:00:00 | 00:00:00 | |
| OM5KV | 2026-09-01 05:54:34 | 48.55156 | 18.33369 | 87° | 99km/h | 12470m | 3.6m/s | -54.6°C | 0% | 0hPa | 0V | 00:00:00 | 00:00:00 | 00:00:00 | |
| PETON7-10 | 2026-09-01 05:54:33 | 48.55155 | 18.33330 | 88° | 100km/h | 12462m | 3.6m/s | 0°C | 0% | 0hPa | 0V | 00:00:00 | 00:00:00 | 00:00:00 | |
| OM5KV | 2026-09-01 05:54:30 | 48.55154 | 18.33216 | 93° | 97km/h | 12455m | 3.7m/s | -54.4°C | 0% | 0hPa | 0V | 00:00:00 | 00:00:00 | 00:00:00 | |
| OM5KV | 2026-09-01 05:54:28 | 48.55155 | 18.33140 | 91° | 99km/h | 12447m | 4.0m/s | -54.3°C | 0% | 0hPa | 0V | 00:00:00 | 00:00:00 | 00:00:00 | |
| OM5KV | 2026-09-01 05:54:24 | 48.55154 | 18.32986 | 91° | 104km/h | 12432m | 3.8m/s | -54.2°C | 0% | 0hPa | 0V | 00:00:00 | 00:00:00 | 00:00:00 | |
| ATIDSZ-14 | 2026-09-01 05:54:23 | 48.55154 | 18.32947 | 90° | 99km/h | 12428m | 3.7m/s | -54.2°C | 0% | 0hPa | 0V | 00:00:00 | 00:00:00 | 00:00:00 | |
| OM5KV | 2026-09-01 05:54:19 | 48.55155 | 18.32795 | 94° | 102km/h | 12414m | 4.7m/s | -54.2°C | 0% | 0hPa | 0V | 00:00:00 | 00:00:00 | 00:00:00 | |
| OM5KV | 2026-09-01 05:54:18 | 48.55157 | 18.32718 | 93° | 100km/h | 12405m | 4.4m/s | -54.3°C | 0% | 0hPa | 0V | 00:00:00 | 00:00:00 | 00:00:00 | |
| PETON7-10 | 2026-09-01 05:54:17 | 48.55158 | 18.32718 | 93° | 100km/h | 12401m | 3.2m/s | 0°C | 0% | 0hPa | 0V | 00:00:00 | 00:00:00 | 00:00:00 | |
| OM5KV | 2026-09-01 05:54:13 | 48.55159 | 18.32564 | 93° | 102km/h | 12390m | 4.1m/s | -54.5°C | 0% | 0hPa | 0V | 00:00:00 | 00:00:00 | 00:00:00 | |
| OM5KV | 2026-09-01 05:54:11 | 48.55162 | 18.32487 | 95° | 100km/h | 12383m | 4.1m/s | -54.5°C | 0% | 0hPa | 0V | 00:00:00 | 00:00:00 | 00:00:00 | |
| OM5KV | 2026-09-01 05:54:08 | 48.55165 | 18.32370 | 91° | 102km/h | 12372m | 4.6m/s | -54.8°C | 0% | 0hPa | 0V | 00:00:00 | 00:00:00 | 00:00:00 | |
| OM5KV | 2026-09-01 05:54:06 | 48.55165 | 18.32294 | 91° | 100km/h | 12364m | 3.9m/s | -54.8°C | 0% | 0hPa | 0V | 00:00:00 | 00:00:00 | 00:00:00 | |
| PETON7-10 | 2026-09-01 05:54:02 | 48.55173 | 18.32141 | 97° | 104km/h | 12344m | 4.7m/s | 0°C | 0% | 0hPa | 0V | 00:00:00 | 00:00:00 | 00:00:00 | |
| OM5KV | 2026-09-01 05:53:58 | 48.55183 | 18.31982 | 96° | 106km/h | 12332m | 3.9m/s | -55.0°C | 0% | 0hPa | 0V | 00:00:00 | 00:00:00 | 00:00:00 | |
| OM5KV | 2026-09-01 05:53:52 | 48.55204 | 18.31751 | 99° | 104km/h | 12310m | 3.1m/s | -55.1°C | 0% | 0hPa | 0V | 00:00:00 | 00:00:00 | 00:00:00 | |
| OM5KV | 2026-09-01 05:53:51 | 48.55207 | 18.31712 | 97° | 106km/h | 12306m | 4.2m/s | -55.2°C | 0% | 0hPa | 0V | 00:00:00 | 00:00:00 | 00:00:00 | |
| OE3JTB-15 | 2026-09-01 05:53:48 | 48.55216 | 18.31593 | 101° | 113km/h | 12289m | 4.6m/s | 0°C | 0% | 0hPa | 0V | 00:00:00 | 00:00:00 | 00:00:00 | |
| OE5DXL-15 | 2026-09-01 05:53:46 | 48.55226 | 18.31514 | 101° | 115km/h | 12277m | 3.7m/s | 0°C | 0% | 0hPa | 0V | 00:00:00 | 00:00:00 | 00:00:00 | |
| OM5KV | 2026-09-01 05:53:45 | 48.55231 | 18.31472 | 101° | 113km/h | 12280m | 4.0m/s | -55.1°C | 0% | 0hPa | 0V | 00:00:00 | 00:00:00 | 00:00:00 | |
| ATIDSZ-14 | 2026-09-01 05:53:42 | 48.55244 | 18.31347 | 97° | 108km/h | 12269m | 5.1m/s | -55.2°C | 0% | 0hPa | 0V | 00:00:00 | 00:00:00 | 00:00:00 | |
| PETON7-10 | 2026-09-01 05:53:32 | 48.55288 | 18.30927 | 97° | 119km/h | 12226m | 4.1m/s | 0°C | 0% | 0hPa | 0V | 00:00:00 | 00:00:00 | 00:00:00 | |
| OM5KV | 2026-09-01 05:53:28 | 48.55306 | 18.30754 | 102° | 122km/h | 12210m | 5.4m/s | -55.5°C | 0% | 0hPa | 0V | 00:00:00 | 00:00:00 | 00:00:00 | |
| OM5KV | 2026-09-01 05:53:23 | 48.55324 | 18.30527 | 99° | 115km/h | 12190m | 3.7m/s | -56.2°C | 0% | 0hPa | 0V | 00:00:00 | 00:00:00 | 00:00:00 | |
| ATIDSZ-14 | 2026-09-01 05:53:21 | 48.55333 | 18.30436 | 100° | 126km/h | 12182m | 4.7m/s | -56.5°C | 0% | 0hPa | 0V | 00:00:00 | 00:00:00 | 00:00:00 | |
| OE3JTB-15 | 2026-09-01 05:53:19 | 48.55341 | 18.30340 | 96° | 126km/h | 12169m | 4.8m/s | 0°C | 0% | 0hPa | 0V | 00:00:00 | 00:00:00 | 00:00:00 | |
| PETON7-10 | 2026-09-01 05:53:17 | 48.55346 | 18.30247 | 94° | 124km/h | 12161m | 4.5m/s | 0°C | 0% | 0hPa | 0V | 00:00:00 | 00:00:00 | 00:00:00 | |
| OE5DXL-15 | 2026-09-01 05:53:16 | 48.55348 | 18.30203 | 97° | 128km/h | 12157m | 3.5m/s | 0°C | 0% | 0hPa | 0V | 00:00:00 | 00:00:00 | 00:00:00 | |
| GYPAP8-17 | 2026-09-01 05:53:06 | 48.55386 | 18.29732 | 96° | 124km/h | 12120m | 4.3m/s | -56.7°C | 0% | 0hPa | 0V | 00:00:00 | 00:00:00 | 00:00:00 | |
| PETON7-10 | 2026-09-01 05:53:02 | 48.55400 | 18.29540 | 98° | 130km/h | 12099m | 4.9m/s | 0°C | 0% | 0hPa | 0V | 00:00:00 | 00:00:00 | 00:00:00 | |
| ATIDSZ-14 | 2026-09-01 05:53:00 | 48.55409 | 18.29441 | 100° | 130km/h | 12094m | 3.6m/s | -56.7°C | 0% | 0hPa | 0V | 00:00:00 | 00:00:00 | 00:00:00 | |
| OE3JTB-15 | 2026-09-01 05:52:50 | 48.55447 | 18.28953 | 98° | 130km/h | 12049m | 4.4m/s | 0°C | 0% | 0hPa | 0V | 00:00:00 | 00:00:00 | 00:00:00 | |
| PETON7-10 | 2026-09-01 05:52:47 | 48.55457 | 18.28803 | 94° | 130km/h | 12036m | 4.2m/s | 0°C | 0% | 0hPa | 0V | 00:00:00 | 00:00:00 | 00:00:00 | |
| OE5DXL-15 | 2026-09-01 05:52:46 | 48.55458 | 18.28753 | 94° | 128km/h | 12032m | 4.4m/s | 0°C | 0% | 0hPa | 0V | 00:00:00 | 00:00:00 | 00:00:00 | |
| ATIDSZ-14 | 2026-09-01 05:52:40 | 48.55475 | 18.28453 | 96° | 130km/h | 12010m | 3.8m/s | -57.6°C | 0% | 0hPa | 0V | 00:00:00 | 00:00:00 | 00:00:00 | |
| PETON7-10 | 2026-09-01 05:52:32 | 48.55490 | 18.28060 | 96° | 128km/h | 11972m | 3.4m/s | 0°C | 0% | 0hPa | 0V | 00:00:00 | 00:00:00 | 00:00:00 | |
| OE3JTB-15 | 2026-09-01 05:52:21 | 48.55506 | 18.27528 | 94° | 124km/h | 11927m | 4.2m/s | 0°C | 0% | 0hPa | 0V | 00:00:00 | 00:00:00 | 00:00:00 | |
| ATIDSZ-14 | 2026-09-01 05:52:19 | 48.55509 | 18.27431 | 93° | 128km/h | 11923m | 3.9m/s | -57.3°C | 0% | 0hPa | 0V | 00:00:00 | 00:00:00 | 00:00:00 | |
| PETON7-10 | 2026-09-01 05:52:17 | 48.55512 | 18.27335 | 93° | 124km/h | 11910m | 4.7m/s | 0°C | 0% | 0hPa | 0V | 00:00:00 | 00:00:00 | 00:00:00 | |
| OE5DXL-15 | 2026-09-01 05:52:16 | 48.55513 | 18.27288 | 90° | 122km/h | 11905m | 4.2m/s | 0°C | 0% | 0hPa | 0V | 00:00:00 | 00:00:00 | 00:00:00 | |
| PETON7-10 | 2026-09-01 05:52:02 | 48.55519 | 18.26627 | 93° | 120km/h | 11847m | 4.8m/s | 0°C | 0% | 0hPa | 0V | 00:00:00 | 00:00:00 | 00:00:00 | |
| ATIDSZ-14 | 2026-09-01 05:51:59 | 48.55520 | 18.26489 | 89° | 120km/h | 11839m | 4.7m/s | -56.8°C | 0% | 0hPa | 0V | 00:00:00 | 00:00:00 | 00:00:00 | |
| OE3JTB-15 | 2026-09-01 05:51:52 | 48.55519 | 18.26165 | 92° | 119km/h | 11812m | 4.0m/s | 0°C | 0% | 0hPa | 0V | 00:00:00 | 00:00:00 | 00:00:00 | |
| PETON7-10 | 2026-09-01 05:51:47 | 48.55514 | 18.25936 | 88° | 119km/h | 11788m | 4.1m/s | 0°C | 0% | 0hPa | 0V | 00:00:00 | 00:00:00 | 00:00:00 | |
| OE5DXL-15 | 2026-09-01 05:51:46 | 48.55514 | 18.25890 | 90° | 117km/h | 11784m | 4.0m/s | 0°C | 0% | 0hPa | 0V | 00:00:00 | 00:00:00 | 00:00:00 | |
| ATIDSZ-14 | 2026-09-01 05:51:38 | 48.55504 | 18.25529 | 89° | 113km/h | 11757m | 2.9m/s | -56.5°C | 0% | 0hPa | 0V | 00:00:00 | 00:00:00 | 00:00:00 | |
| PETON7-10 | 2026-09-01 05:51:32 | 48.55497 | 18.25265 | 88° | 117km/h | 11730m | 6.4m/s | 0°C | 0% | 0hPa | 0V | 00:00:00 | 00:00:00 | 00:00:00 | |
| OE3JTB-15 | 2026-09-01 05:51:23 | 48.55484 | 18.24864 | 87° | 117km/h | 11694m | 3.2m/s | 0°C | 0% | 0hPa | 0V | 00:00:00 | 00:00:00 | 00:00:00 | |
| ATIDSZ-14 | 2026-09-01 05:51:18 | 48.55476 | 18.24642 | 88° | 113km/h | 11679m | 3.2m/s | -56.4°C | 0% | 0hPa | 0V | 00:00:00 | 00:00:00 | 00:00:00 | |
| PETON7-10 | 2026-09-01 05:51:17 | 48.55474 | 18.24598 | 88° | 119km/h | 11672m | 3.3m/s | 0°C | 0% | 0hPa | 0V | 00:00:00 | 00:00:00 | 00:00:00 | |
| OE5DXL-15 | 2026-09-01 05:51:16 | 48.55473 | 18.24553 | 87° | 119km/h | 11668m | 3.3m/s | 0°C | 0% | 0hPa | 0V | 00:00:00 | 00:00:00 | 00:00:00 | |
| OM5KV | 2026-09-01 05:51:04 | 48.55468 | 18.24012 | 96° | 119km/h | 11626m | 3.8m/s | -56.3°C | 0% | 0hPa | 0V | 00:00:00 | 00:00:00 | 00:00:00 | |
| OM5KV | 2026-09-01 05:51:03 | 48.55470 | 18.23968 | 94° | 113km/h | 11622m | 2.6m/s | -56.3°C | 0% | 0hPa | 0V | 00:00:00 | 00:00:00 | 00:00:00 | |
| PETON7-10 | 2026-09-01 05:51:02 | 48.55470 | 18.23925 | 90° | 119km/h | 11615m | 3.7m/s | 0°C | 0% | 0hPa | 0V | 00:00:00 | 00:00:00 | 00:00:00 | |
| OM5KV | 2026-09-01 05:50:58 | 48.55468 | 18.23745 | 94° | 117km/h | 11604m | 3.8m/s | -56.3°C | 0% | 0hPa | 0V | 00:00:00 | 00:00:00 | 00:00:00 | |
| OM5KV | 2026-09-01 05:50:57 | 48.55469 | 18.23700 | 95° | 117km/h | 11600m | 4.2m/s | -56.3°C | 0% | 0hPa | 0V | 00:00:00 | 00:00:00 | 00:00:00 | |
| OE3JTB-15 | 2026-09-01 05:50:54 | 48.55477 | 18.23570 | 95° | 120km/h | 11589m | 2.8m/s | 0°C | 0% | 0hPa | 0V | 00:00:00 | 00:00:00 | 00:00:00 | |
| OM5KV | 2026-09-01 05:50:51 | 48.55479 | 18.23432 | 91° | 126km/h | 11577m | 3.8m/s | -56.2°C | 0% | 0hPa | 0V | 00:00:00 | 00:00:00 | 00:00:00 | |
| PETON7-10 | 2026-09-01 05:50:47 | 48.55486 | 18.23251 | 98° | 119km/h | 11559m | 4.0m/s | 0°C | 0% | 0hPa | 0V | 00:00:00 | 00:00:00 | 00:00:00 | |
| OE5DXL-15 | 2026-09-01 05:50:46 | 48.55490 | 18.23208 | 97° | 120km/h | 11555m | 3.2m/s | 0°C | 0% | 0hPa | 0V | 00:00:00 | 00:00:00 | 00:00:00 | |
| OM5KV | 2026-09-01 05:50:44 | 48.55495 | 18.23118 | 93° | 124km/h | 11551m | 3.7m/s | -56.1°C | 0% | 0hPa | 0V | 00:00:00 | 00:00:00 | 00:00:00 | |
| OM5KV | 2026-09-01 05:50:40 | 48.55499 | 18.22932 | 95° | 119km/h | 11537m | 3.1m/s | -56.2°C | 0% | 0hPa | 0V | 00:00:00 | 00:00:00 | 00:00:00 | |
| OM5KV | 2026-09-01 05:50:39 | 48.55501 | 18.22888 | 95° | 115km/h | 11534m | 3.7m/s | -56.2°C | 0% | 0hPa | 0V | 00:00:00 | 00:00:00 | 00:00:00 | |
| ATIDSZ-14 | 2026-09-01 05:50:37 | 48.55505 | 18.22800 | 94° | 119km/h | 11528m | 4.2m/s | -56.1°C | 0% | 0hPa | 0V | 00:00:00 | 00:00:00 | 00:00:00 | |
| OM5KV | 2026-09-01 05:50:35 | 48.55507 | 18.22706 | 91° | 126km/h | 11520m | 4.1m/s | -56.0°C | 0% | 0hPa | 0V | 00:00:00 | 00:00:00 | 00:00:00 | |
| OM5KV | 2026-09-01 05:50:33 | 48.55506 | 18.22613 | 91° | 119km/h | 11513m | 3.5m/s | -55.9°C | 0% | 0hPa | 0V | 00:00:00 | 00:00:00 | 00:00:00 | |
| PETON7-10 | 2026-09-01 05:50:32 | 48.55507 | 18.22568 | 93° | 120km/h | 11506m | 3.4m/s | 0°C | 0% | 0hPa | 0V | 00:00:00 | 00:00:00 | 00:00:00 | |
| OM5KV | 2026-09-01 05:50:29 | 48.55513 | 18.22434 | 94° | 117km/h | 11498m | 3.2m/s | -55.8°C | 0% | 0hPa | 0V | 00:00:00 | 00:00:00 | 00:00:00 | |
| OM5KV | 2026-09-01 05:50:27 | 48.55516 | 18.22342 | 93° | 124km/h | 11491m | 3.4m/s | -55.8°C | 0% | 0hPa | 0V | 00:00:00 | 00:00:00 | 00:00:00 | |
| OE3JTB-15 | 2026-09-01 05:50:25 | 48.55517 | 18.22248 | 92° | 122km/h | 11481m | 3.9m/s | 0°C | 0% | 0hPa | 0V | 00:00:00 | 00:00:00 | 00:00:00 | |
| OM5KV | 2026-09-01 05:50:24 | 48.55518 | 18.22202 | 93° | 122km/h | 11481m | 3.9m/s | -55.6°C | 0% | 0hPa | 0V | 00:00:00 | 00:00:00 | 00:00:00 | |
| OM5KV | 2026-09-01 05:50:22 | 48.55520 | 18.22109 | 93° | 120km/h | 11474m | 4.2m/s | -55.6°C | 0% | 0hPa | 0V | 00:00:00 | 00:00:00 | 00:00:00 | |
| OM5KV | 2026-09-01 05:50:19 | 48.55525 | 18.21926 | 93° | 122km/h | 11458m | 3.5m/s | -55.5°C | 0% | 0hPa | 0V | 00:00:00 | 00:00:00 | 00:00:00 | |
| PETON7-10 | 2026-09-01 05:50:16 | 48.55527 | 18.21831 | 92° | 122km/h | 11448m | 3.4m/s | 0°C | 0% | 0hPa | 0V | 00:00:00 | 00:00:00 | 00:00:00 | |
| OE5DXL-15 | 2026-09-01 05:50:14 | 48.55528 | 18.21735 | 91° | 119km/h | 11437m | 3.8m/s | 0°C | 0% | 0hPa | 0V | 00:00:00 | 00:00:00 | 00:00:00 | |
| OM5KV | 2026-09-01 05:50:12 | 48.55530 | 18.21646 | 94° | 117km/h | 11437m | 3.9m/s | -55.3°C | 0% | 0hPa | 0V | 00:00:00 | 00:00:00 | 00:00:00 | |
| OM5KV | 2026-09-01 05:50:10 | 48.55533 | 18.21555 | 93° | 120km/h | 11430m | 4.1m/s | -55.2°C | 0% | 0hPa | 0V | 00:00:00 | 00:00:00 | 00:00:00 | |
| OM5KV | 2026-09-01 05:50:07 | 48.55535 | 18.21412 | 93° | 128km/h | 11418m | 3.5m/s | -55.2°C | 0% | 0hPa | 0V | 00:00:00 | 00:00:00 | 00:00:00 | |
| OM5KV | 2026-09-01 05:50:04 | 48.55537 | 18.21271 | 94° | 120km/h | 11407m | 3.1m/s | -55.2°C | 0% | 0hPa | 0V | 00:00:00 | 00:00:00 | 00:00:00 | |
| PETON7-10 | 2026-09-01 05:50:01 | 48.55540 | 18.21133 | 92° | 126km/h | 11393m | 3.6m/s | 0°C | 0% | 0hPa | 0V | 00:00:00 | 00:00:00 | 00:00:00 | |
| OE3JTB-15 | 2026-09-01 05:49:56 | 48.55545 | 18.20892 | 92° | 128km/h | 11379m | 3.6m/s | 0°C | 0% | 0hPa | 0V | 00:00:00 | 00:00:00 | 00:00:00 | |
| OM5KV | 2026-09-01 05:49:52 | 48.55548 | 18.20702 | 93° | 128km/h | 11364m | 3.6m/s | -54.9°C | 0% | 0hPa | 0V | 00:00:00 | 00:00:00 | 00:00:00 | |
| PETON7-10 | 2026-09-01 05:49:46 | 48.55557 | 18.20414 | 93° | 128km/h | 11338m | 4.2m/s | 0°C | 0% | 0hPa | 0V | 00:00:00 | 00:00:00 | 00:00:00 | |
| OM5KV | 2026-09-01 05:49:41 | 48.55565 | 18.20166 | 95° | 128km/h | 11323m | 3.1m/s | -54.7°C | 0% | 0hPa | 0V | 00:00:00 | 00:00:00 | 00:00:00 | |
| OM5KV | 2026-09-01 05:49:39 | 48.55569 | 18.20069 | 97° | 128km/h | 11317m | 3.8m/s | -54.6°C | 0% | 0hPa | 0V | 00:00:00 | 00:00:00 | 00:00:00 | |
| ATIDSZ-14 | 2026-09-01 05:49:35 | 48.55579 | 18.19876 | 93° | 126km/h | 11303m | 3.9m/s | -54.5°C | 0% | 0hPa | 0V | 00:00:00 | 00:00:00 | 00:00:00 | |
| OM5KV | 2026-09-01 05:49:33 | 48.55583 | 18.19779 | 96° | 128km/h | 11296m | 4.0m/s | -54.5°C | 0% | 0hPa | 0V | 00:00:00 | 00:00:00 | 00:00:00 | |
| PETON7-10 | 2026-09-01 05:49:31 | 48.55590 | 18.19683 | 97° | 131km/h | 11286m | 3.0m/s | 0°C | 0% | 0hPa | 0V | 00:00:00 | 00:00:00 | 00:00:00 | |
| OM5KV | 2026-09-01 05:49:29 | 48.55597 | 18.19584 | 96° | 131km/h | 11282m | 3.8m/s | -54.3°C | 0% | 0hPa | 0V | 00:00:00 | 00:00:00 | 00:00:00 | |
| OM5KV | 2026-09-01 05:49:28 | 48.55599 | 18.19535 | 95° | 130km/h | 11279m | 3.2m/s | -54.3°C | 0% | 0hPa | 0V | 00:00:00 | 00:00:00 | 00:00:00 | |
| OE3JTB-15 | 2026-09-01 05:49:27 | 48.55601 | 18.19485 | 94° | 130km/h | 11271m | 3.0m/s | 0°C | 0% | 0hPa | 0V | 00:00:00 | 00:00:00 | 00:00:00 | |
| OM5KV | 2026-09-01 05:49:24 | 48.55606 | 18.19338 | 95° | 124km/h | 11264m | 3.5m/s | -54.3°C | 0% | 0hPa | 0V | 00:00:00 | 00:00:00 | 00:00:00 | |
| OM5KV | 2026-09-01 05:49:22 | 48.55612 | 18.19242 | 96° | 130km/h | 11257m | 3.2m/s | -54.2°C | 0% | 0hPa | 0V | 00:00:00 | 00:00:00 | 00:00:00 | |
| OM5KV | 2026-09-01 05:49:19 | 48.55621 | 18.19040 | 94° | 135km/h | 11244m | 3.8m/s | -54.2°C | 0% | 0hPa | 0V | 00:00:00 | 00:00:00 | 00:00:00 | |
| PETON7-10 | 2026-09-01 05:49:16 | 48.55626 | 18.18939 | 97° | 130km/h | 11233m | 3.4m/s | 0°C | 0% | 0hPa | 0V | 00:00:00 | 00:00:00 | 00:00:00 | |
| ATIDSZ-14 | 2026-09-01 05:49:15 | 48.55630 | 18.18889 | 98° | 133km/h | 11233m | 3.4m/s | -54.1°C | 0% | 0hPa | 0V | 00:00:00 | 00:00:00 | 00:00:00 | |
| OM5KV | 2026-09-01 05:49:13 | 48.55638 | 18.18791 | 97° | 128km/h | 11226m | 2.8m/s | -54.1°C | 0% | 0hPa | 0V | 00:00:00 | 00:00:00 | 00:00:00 | |
| OM5KV | 2026-09-01 05:49:10 | 48.55649 | 18.18592 | 96° | 128km/h | 11212m | 3.0m/s | -54.0°C | 0% | 0hPa | 0V | 00:00:00 | 00:00:00 | 00:00:00 | |
| OM5KV | 2026-09-01 05:49:07 | 48.55656 | 18.18494 | 99° | 131km/h | 11205m | 3.5m/s | -54.0°C | 0% | 0hPa | 0V | 00:00:00 | 00:00:00 | 00:00:00 | |
| OM5KV | 2026-09-01 05:49:03 | 48.55670 | 18.18298 | 96° | 130km/h | 11190m | 3.0m/s | -53.9°C | 0% | 0hPa | 0V | 00:00:00 | 00:00:00 | 00:00:00 | |
| PETON7-10 | 2026-09-01 05:49:01 | 48.55676 | 18.18201 | 97° | 126km/h | 11179m | 3.2m/s | 0°C | 0% | 0hPa | 0V | 00:00:00 | 00:00:00 | 00:00:00 | |
| OE3JTB-15 | 2026-09-01 05:48:58 | 48.55686 | 18.18056 | 95° | 126km/h | 11171m | 3.5m/s | 0°C | 0% | 0hPa | 0V | 00:00:00 | 00:00:00 | 00:00:00 | |
| ATIDSZ-14 | 2026-09-01 05:48:55 | 48.55697 | 18.17860 | 97° | 130km/h | 11157m | 4.0m/s | -53.6°C | 0% | 0hPa | 0V | 00:00:00 | 00:00:00 | 00:00:00 | |
| OM5KV | 2026-09-01 05:48:54 | 48.55697 | 18.17860 | 97° | 130km/h | 11157m | 4.0m/s | -53.6°C | 0% | 0hPa | 0V | 00:00:00 | 00:00:00 | 00:00:00 | |
| OM5KV | 2026-09-01 05:48:52 | 48.55705 | 18.17765 | 99° | 126km/h | 11149m | 4.0m/s | -53.5°C | 0% | 0hPa | 0V | 00:00:00 | 00:00:00 | 00:00:00 | |
| OM5KV | 2026-09-01 05:48:48 | 48.55721 | 18.17577 | 97° | 130km/h | 11134m | 3.8m/s | -53.6°C | 0% | 0hPa | 0V | 00:00:00 | 00:00:00 | 00:00:00 | |
| OM5KV | 2026-09-01 05:48:47 | 48.55728 | 18.17480 | 97° | 128km/h | 11127m | 3.0m/s | -53.5°C | 0% | 0hPa | 0V | 00:00:00 | 00:00:00 | 00:00:00 | |
| PETON7-10 | 2026-09-01 05:48:46 | 48.55728 | 18.17480 | 96° | 124km/h | 11124m | 3.6m/s | 0°C | 0% | 0hPa | 0V | 00:00:00 | 00:00:00 | 00:00:00 | |
| OM5KV | 2026-09-01 05:48:43 | 48.55737 | 18.17336 | 96° | 122km/h | 11115m | 4.3m/s | -53.4°C | 0% | 0hPa | 0V | 00:00:00 | 00:00:00 | 00:00:00 | |
| OM5KV | 2026-09-01 05:48:40 | 48.55747 | 18.17198 | 99° | 126km/h | 11104m | 3.0m/s | -53.4°C | 0% | 0hPa | 0V | 00:00:00 | 00:00:00 | 00:00:00 | |
| OM5KV | 2026-09-01 05:48:37 | 48.55760 | 18.17058 | 98° | 122km/h | 11094m | 3.2m/s | -53.4°C | 0% | 0hPa | 0V | 00:00:00 | 00:00:00 | 00:00:00 | |
| ATIDSZ-14 | 2026-09-01 05:48:34 | 48.55768 | 18.16915 | 95° | 124km/h | 11082m | 3.4m/s | -53.3°C | 0% | 0hPa | 0V | 00:00:00 | 00:00:00 | 00:00:00 | |
| OM5KV | 2026-09-01 05:48:33 | 48.55770 | 18.16868 | 97° | 124km/h | 11079m | 3.2m/s | -53.2°C | 0% | 0hPa | 0V | 00:00:00 | 00:00:00 | 00:00:00 | |
| OM5KV | 2026-09-01 05:48:32 | 48.55774 | 18.16821 | 100° | 126km/h | 11075m | 3.7m/s | -53.2°C | 0% | 0hPa | 0V | 00:00:00 | 00:00:00 | 00:00:00 | |
| PETON7-10 | 2026-09-01 05:48:31 | 48.55780 | 18.16773 | 101° | 122km/h | 11067m | 3.0m/s | 0°C | 0% | 0hPa | 0V | 00:00:00 | 00:00:00 | 00:00:00 | |
| OE3JTB-15 | 2026-09-01 05:48:29 | 48.55790 | 18.16682 | 100° | 120km/h | 11042m | 4.3m/s | 0°C | 0% | 0hPa | 0V | 00:00:00 | 00:00:00 | 00:00:00 | |
| OM5KV | 2026-09-01 05:48:27 | 48.55798 | 18.16588 | 96° | 126km/h | 11057m | 3.3m/s | -53.1°C | 0% | 0hPa | 0V | 00:00:00 | 00:00:00 | 00:00:00 | |
| OM5KV | 2026-09-01 05:48:26 | 48.55801 | 18.16541 | 96° | 124km/h | 11053m | 3.7m/s | -53.1°C | 0% | 0hPa | 0V | 00:00:00 | 00:00:00 | 00:00:00 | |
| OM5KV | 2026-09-01 05:48:21 | 48.55821 | 18.16310 | 98° | 122km/h | 11034m | 4.3m/s | -52.9°C | 0% | 0hPa | 0V | 00:00:00 | 00:00:00 | 00:00:00 | |
| OM5KV | 2026-09-01 05:48:20 | 48.55824 | 18.16264 | 97° | 124km/h | 11030m | 2.7m/s | -52.9°C | 0% | 0hPa | 0V | 00:00:00 | 00:00:00 | 00:00:00 | |
| PETON7-10 | 2026-09-01 05:48:16 | 48.55837 | 18.16077 | 98° | 120km/h | 11012m | 3.8m/s | 0°C | 0% | 0hPa | 0V | 00:00:00 | 00:00:00 | 00:00:00 | |
| OM5KV | 2026-09-01 05:48:15 | 48.55841 | 18.16030 | 98° | 122km/h | 11012m | 3.9m/s | -52.7°C | 0% | 0hPa | 0V | 00:00:00 | 00:00:00 | 00:00:00 | |
| OM5KV | 2026-09-01 05:48:10 | 48.55860 | 18.15754 | 97° | 124km/h | 10989m | 3.4m/s | -52.5°C | 0% | 0hPa | 0V | 00:00:00 | 00:00:00 | 00:00:00 | |
| OM5KV | 2026-09-01 05:48:09 | 48.55860 | 18.15754 | 97° | 124km/h | 10989m | 3.4m/s | -52.5°C | 0% | 0hPa | 0V | 00:00:00 | 00:00:00 | 00:00:00 | |
| OM5KV | 2026-09-01 05:48:04 | 48.55876 | 18.15524 | 98° | 120km/h | 10970m | 4.0m/s | -52.3°C | 0% | 0hPa | 0V | 00:00:00 | 00:00:00 | 00:00:00 | |
| OM5KV | 2026-09-01 05:48:03 | 48.55880 | 18.15479 | 98° | 117km/h | 10967m | 3.4m/s | -52.3°C | 0% | 0hPa | 0V | 00:00:00 | 00:00:00 | 00:00:00 | |
| PETON7-10 | 2026-09-01 05:48:01 | 48.55888 | 18.15389 | 97° | 119km/h | 10956m | 4.4m/s | 0°C | 0% | 0hPa | 0V | 00:00:00 | 00:00:00 | 00:00:00 | |
| OE3JTB-15 | 2026-09-01 05:47:58 | 48.55897 | 18.15251 | 96° | 119km/h | 10944m | 3.3m/s | 0°C | 0% | 0hPa | 0V | 00:00:00 | 00:00:00 | 00:00:00 | |
| OM5KV | 2026-09-01 05:47:57 | 48.55900 | 18.15205 | 97° | 122km/h | 10944m | 3.3m/s | -52.1°C | 0% | 0hPa | 0V | 00:00:00 | 00:00:00 | 00:00:00 | |
| ATIDSZ-14 | 2026-09-01 05:47:52 | 48.55915 | 18.14978 | 97° | 119km/h | 10926m | 4.0m/s | -52.0°C | 0% | 0hPa | 0V | 00:00:00 | 00:00:00 | 00:00:00 | |
| PETON7-10 | 2026-09-01 05:47:45 | 48.55937 | 18.14664 | 96° | 119km/h | 10895m | 3.9m/s | 0°C | 0% | 0hPa | 0V | 00:00:00 | 00:00:00 | 00:00:00 | |
| OM5KV | 2026-09-01 05:47:43 | 48.55942 | 18.14574 | 97° | 119km/h | 10891m | 4.3m/s | -51.7°C | 0% | 0hPa | 0V | 00:00:00 | 00:00:00 | 00:00:00 | |
| OM5KV | 2026-09-01 05:47:39 | 48.55956 | 18.14398 | 98° | 119km/h | 10875m | 3.1m/s | -51.6°C | 0% | 0hPa | 0V | 00:00:00 | 00:00:00 | 00:00:00 | |
| OM5KV | 2026-09-01 05:47:37 | 48.55962 | 18.14307 | 96° | 120km/h | 10868m | 3.4m/s | -51.6°C | 0% | 0hPa | 0V | 00:00:00 | 00:00:00 | 00:00:00 | |
| ATIDSZ-14 | 2026-09-01 05:47:32 | 48.55977 | 18.14084 | 98° | 120km/h | 10850m | 3.9m/s | -51.4°C | 0% | 0hPa | 0V | 00:00:00 | 00:00:00 | 00:00:00 | |
| PETON7-10 | 2026-09-01 05:47:30 | 48.55985 | 18.13994 | 97° | 119km/h | 10839m | 4.4m/s | 0°C | 0% | 0hPa | 0V | 00:00:00 | 00:00:00 | 00:00:00 | |
| OE3JTB-15 | 2026-09-01 05:47:29 | 48.55988 | 18.13949 | 97° | 119km/h | 10835m | 4.0m/s | 0°C | 0% | 0hPa | 0V | 00:00:00 | 00:00:00 | 00:00:00 | |
| OM5KV | 2026-09-01 05:47:28 | 48.55992 | 18.13903 | 97° | 122km/h | 10835m | 4.0m/s | -51.4°C | 0% | 0hPa | 0V | 00:00:00 | 00:00:00 | 00:00:00 | |
| OM5KV | 2026-09-01 05:47:26 | 48.55997 | 18.13813 | 97° | 117km/h | 10827m | 3.6m/s | -51.4°C | 0% | 0hPa | 0V | 00:00:00 | 00:00:00 | 00:00:00 | |
| OM5KV | 2026-09-01 05:47:20 | 48.56017 | 18.13544 | 94° | 120km/h | 10804m | 3.4m/s | -51.2°C | 0% | 0hPa | 0V | 00:00:00 | 00:00:00 | 00:00:00 | |
| PETON7-10 | 2026-09-01 05:47:15 | 48.56034 | 18.13321 | 98° | 119km/h | 10782m | 3.0m/s | 0°C | 0% | 0hPa | 0V | 00:00:00 | 00:00:00 | 00:00:00 | |
| OM5KV | 2026-09-01 05:47:13 | 48.56040 | 18.13228 | 96° | 120km/h | 10778m | 4.0m/s | -51.0°C | 0% | 0hPa | 0V | 00:00:00 | 00:00:00 | 00:00:00 | |
| OM5KV | 2026-09-01 05:47:11 | 48.56045 | 18.13138 | 96° | 119km/h | 10771m | 3.8m/s | -50.9°C | 0% | 0hPa | 0V | 00:00:00 | 00:00:00 | 00:00:00 | |
| OM5KV | 2026-09-01 05:47:07 | 48.56060 | 18.12958 | 99° | 120km/h | 10756m | 3.8m/s | -50.7°C | 0% | 0hPa | 0V | 00:00:00 | 00:00:00 | 00:00:00 | |
| OM5KV | 2026-09-01 05:47:06 | 48.56064 | 18.12912 | 99° | 119km/h | 10752m | 4.3m/s | -50.7°C | 0% | 0hPa | 0V | 00:00:00 | 00:00:00 | 00:00:00 | |
| PETON7-10 | 2026-09-01 05:47:00 | 48.56088 | 18.12643 | 99° | 119km/h | 10725m | 3.7m/s | 0°C | 0% | 0hPa | 0V | 00:00:00 | 00:00:00 | 00:00:00 | |
| OM5KV | 2026-09-01 05:46:55 | 48.56109 | 18.12417 | 97° | 117km/h | 10711m | 3.9m/s | -50.4°C | 0% | 0hPa | 0V | 00:00:00 | 00:00:00 | 00:00:00 | |
| OE3JTB-15 | 2026-09-01 05:46:54 | 48.56112 | 18.12373 | 98° | 120km/h | 10700m | 3.2m/s | 0°C | 0% | 0hPa | 0V | 00:00:00 | 00:00:00 | 00:00:00 | |
| ATIDSZ-14 | 2026-09-01 05:46:51 | 48.56123 | 18.12235 | 98° | 124km/h | 10697m | 4.3m/s | -50.3°C | 0% | 0hPa | 0V | 00:00:00 | 00:00:00 | 00:00:00 | |
| OM5KV | 2026-09-01 05:46:48 | 48.56138 | 18.12055 | 100° | 119km/h | 10682m | 4.3m/s | -50.3°C | 0% | 0hPa | 0V | 00:00:00 | 00:00:00 | 00:00:00 | |
| PETON7-10 | 2026-09-01 05:46:45 | 48.56148 | 18.11964 | 99° | 120km/h | 10670m | 3.5m/s | 0°C | 0% | 0hPa | 0V | 00:00:00 | 00:00:00 | 00:00:00 | |
| OM5KV | 2026-09-01 05:46:42 | 48.56160 | 18.11826 | 98° | 119km/h | 10663m | 3.2m/s | -50.0°C | 0% | 0hPa | 0V | 00:00:00 | 00:00:00 | 00:00:00 | |
| OM5KV | 2026-09-01 05:46:41 | 48.56164 | 18.11781 | 98° | 119km/h | 10660m | 3.6m/s | -50.0°C | 0% | 0hPa | 0V | 00:00:00 | 00:00:00 | 00:00:00 | |
| OM5KV | 2026-09-01 05:46:36 | 48.56186 | 18.11557 | 100° | 124km/h | 10642m | 3.8m/s | -49.9°C | 0% | 0hPa | 0V | 00:00:00 | 00:00:00 | 00:00:00 | |
| PETON7-10 | 2026-09-01 05:46:30 | 48.56213 | 18.11285 | 98° | 120km/h | 10616m | 3.6m/s | 0°C | 0% | 0hPa | 0V | 00:00:00 | 00:00:00 | 00:00:00 | |
| OE3JTB-15 | 2026-09-01 05:46:25 | 48.56236 | 18.11054 | 99° | 122km/h | 10602m | 3.6m/s | 0°C | 0% | 0hPa | 0V | 00:00:00 | 00:00:00 | 00:00:00 | |
| OM5KV | 2026-09-01 05:46:19 | 48.56259 | 18.10783 | 100° | 124km/h | 10580m | 4.0m/s | -49.3°C | 0% | 0hPa | 0V | 00:00:00 | 00:00:00 | 00:00:00 | |
| PETON7-10 | 2026-09-01 05:46:15 | 48.56280 | 18.10599 | 97° | 120km/h | 10563m | 3.2m/s | 0°C | 0% | 0hPa | 0V | 00:00:00 | 00:00:00 | 00:00:00 | |
| OM5KV | 2026-09-01 05:46:14 | 48.56282 | 18.10553 | 96° | 120km/h | 10563m | 3.3m/s | -49.2°C | 0% | 0hPa | 0V | 00:00:00 | 00:00:00 | 00:00:00 | |
| OM5KV | 2026-09-01 05:46:13 | 48.56285 | 18.10508 | 97° | 117km/h | 10559m | 3.5m/s | -49.2°C | 0% | 0hPa | 0V | 00:00:00 | 00:00:00 | 00:00:00 | |
| ATIDSZ-14 | 2026-09-01 05:46:10 | 48.56298 | 18.10372 | 101° | 122km/h | 10548m | 4.2m/s | -49.1°C | 0% | 0hPa | 0V | 00:00:00 | 00:00:00 | 00:00:00 | |
| OM5KV | 2026-09-01 05:46:08 | 48.56308 | 18.10281 | 100° | 122km/h | 10542m | 4.2m/s | -49.0°C | 0% | 0hPa | 0V | 00:00:00 | 00:00:00 | 00:00:00 | |
| OM5KV | 2026-09-01 05:46:07 | 48.56312 | 18.10234 | 98° | 122km/h | 10538m | 2.5m/s | -48.9°C | 0% | 0hPa | 0V | 00:00:00 | 00:00:00 | 00:00:00 | |
| PETON7-10 | 2026-09-01 05:46:00 | 48.56343 | 18.09913 | 99° | 120km/h | 10509m | 4.3m/s | 0°C | 0% | 0hPa | 0V | 00:00:00 | 00:00:00 | 00:00:00 | |
| OM5KV | 2026-09-01 05:45:57 | 48.56356 | 18.09774 | 99° | 120km/h | 10501m | 3.0m/s | -48.7°C | 0% | 0hPa | 0V | 00:00:00 | 00:00:00 | 00:00:00 | |
| OM5KV | 2026-09-01 05:45:55 | 48.56364 | 18.09686 | 99° | 115km/h | 10493m | 3.6m/s | -48.6°C | 0% | 0hPa | 0V | 00:00:00 | 00:00:00 | 00:00:00 | |
| OE3JTB-15 | 2026-09-01 05:45:53 | 48.56373 | 18.09596 | 100° | 122km/h | 10483m | 4.0m/s | 0°C | 0% | 0hPa | 0V | 00:00:00 | 00:00:00 | 00:00:00 | |
| OM5KV | 2026-09-01 05:45:51 | 48.56383 | 18.09501 | 99° | 126km/h | 10479m | 4.1m/s | -48.5°C | 0% | 0hPa | 0V | 00:00:00 | 00:00:00 | 00:00:00 | |
| ATIDSZ-14 | 2026-09-01 05:45:49 | 48.56390 | 18.09407 | 97° | 120km/h | 10471m | 4.0m/s | -48.4°C | 0% | 0hPa | 0V | 00:00:00 | 00:00:00 | 00:00:00 | |
| PETON7-10 | 2026-09-01 05:45:45 | 48.56407 | 18.09229 | 98° | 122km/h | 10454m | 3.8m/s | 0°C | 0% | 0hPa | 0V | 00:00:00 | 00:00:00 | 00:00:00 | |
| OM5KV | 2026-09-01 05:45:43 | 48.56415 | 18.09134 | 99° | 126km/h | 10450m | 3.2m/s | -48.2°C | 0% | 0hPa | 0V | 00:00:00 | 00:00:00 | 00:00:00 | |
| OM5KV | 2026-09-01 05:45:37 | 48.56439 | 18.08858 | 100° | 122km/h | 10428m | 4.2m/s | -48.0°C | 0% | 0hPa | 0V | 00:00:00 | 00:00:00 | 00:00:00 | |
| OM5KV | 2026-09-01 05:45:31 | 48.56462 | 18.08583 | 101° | 119km/h | 10408m | 2.8m/s | -47.9°C | 0% | 0hPa | 0V | 00:00:00 | 00:00:00 | 00:00:00 | |
| ATIDSZ-14 | 2026-09-01 05:45:29 | 48.56472 | 18.08491 | 99° | 126km/h | 10401m | 3.0m/s | -47.9°C | 0% | 0hPa | 0V | 00:00:00 | 00:00:00 | 00:00:00 | |
| OM5KV | 2026-09-01 05:45:28 | 48.56477 | 18.08444 | 99° | 124km/h | 10398m | 4.1m/s | -47.8°C | 0% | 0hPa | 0V | 00:00:00 | 00:00:00 | 00:00:00 | |
| OE3JTB-15 | 2026-09-01 05:45:24 | 48.56491 | 18.08260 | 98° | 120km/h | 10380m | 4.0m/s | 0°C | 0% | 0hPa | 0V | 00:00:00 | 00:00:00 | 00:00:00 | |
| OM5KV | 2026-09-01 05:45:22 | 48.56499 | 18.08171 | 99° | 122km/h | 10376m | 3.0m/s | -47.5°C | 0% | 0hPa | 0V | 00:00:00 | 00:00:00 | 00:00:00 | |
| OM5KV | 2026-09-01 05:45:20 | 48.56508 | 18.08077 | 100° | 122km/h | 10369m | 3.4m/s | -47.5°C | 0% | 0hPa | 0V | 00:00:00 | 00:00:00 | 00:00:00 | |
| OM5KV | 2026-09-01 05:45:16 | 48.56524 | 18.07894 | 98° | 117km/h | 10355m | 3.1m/s | -47.4°C | 0% | 0hPa | 0V | 00:00:00 | 00:00:00 | 00:00:00 | |
| PETON7-10 | 2026-09-01 05:45:15 | 48.56527 | 18.07850 | 97° | 120km/h | 10348m | 3.1m/s | 0°C | 0% | 0hPa | 0V | 00:00:00 | 00:00:00 | 00:00:00 | |
| OM5KV | 2026-09-01 05:45:14 | 48.56531 | 18.07805 | 97° | 119km/h | 10348m | 3.1m/s | -47.3°C | 0% | 0hPa | 0V | 00:00:00 | 00:00:00 | 00:00:00 | |
| OM5KV | 2026-09-01 05:45:10 | 48.56545 | 18.07618 | 99° | 122km/h | 10334m | 4.5m/s | -47.2°C | 0% | 0hPa | 0V | 00:00:00 | 00:00:00 | 00:00:00 | |
| ATIDSZ-14 | 2026-09-01 05:45:08 | 48.56553 | 18.07528 | 97° | 119km/h | 10326m | 4.1m/s | -47.2°C | 0% | 0hPa | 0V | 00:00:00 | 00:00:00 | 00:00:00 | |
| OM5KV | 2026-09-01 05:45:04 | 48.56565 | 18.07347 | 97° | 124km/h | 10311m | 4.0m/s | -47.1°C | 0% | 0hPa | 0V | 00:00:00 | 00:00:00 | 00:00:00 | |
| PETON7-10 | 2026-09-01 05:45:00 | 48.56580 | 18.07160 | 96° | 122km/h | 10292m | 3.8m/s | 0°C | 0% | 0hPa | 0V | 00:00:00 | 00:00:00 | 00:00:00 | |
| OE3JTB-15 | 2026-09-01 05:44:55 | 48.56594 | 18.06926 | 97° | 119km/h | 10239m | 3.9m/s | 0°C | 0% | 0hPa | 0V | 00:00:00 | 00:00:00 | 00:00:00 | |
| OM5KV | 2026-09-01 05:44:52 | 48.56606 | 18.06789 | 96° | 115km/h | 10268m | 3.3m/s | -46.8°C | 0% | 0hPa | 0V | 00:00:00 | 00:00:00 | 00:00:00 | |
| OM5KV | 2026-09-01 05:44:49 | 48.56610 | 18.06656 | 95° | 122km/h | 10258m | 3.7m/s | -46.8°C | 0% | 0hPa | 0V | 00:00:00 | 00:00:00 | 00:00:00 | |
| ATIDSZ-14 | 2026-09-01 05:44:48 | 48.56613 | 18.06609 | 96° | 124km/h | 10253m | 4.5m/s | -46.7°C | 0% | 0hPa | 0V | 00:00:00 | 00:00:00 | 00:00:00 | |
| PETON7-10 | 2026-09-01 05:44:45 | 48.56621 | 18.06466 | 95° | 119km/h | 10239m | 3.9m/s | 0°C | 0% | 0hPa | 0V | 00:00:00 | 00:00:00 | 00:00:00 | |
| OM5KV | 2026-09-01 05:44:43 | 48.56627 | 18.06376 | 96° | 115km/h | 10235m | 4.1m/s | -46.6°C | 0% | 0hPa | 0V | 00:00:00 | 00:00:00 | 00:00:00 | |
| OM5KV | 2026-09-01 05:44:36 | 48.56643 | 18.06060 | 96° | 122km/h | 10210m | 4.1m/s | -46.4°C | 0% | 0hPa | 0V | 00:00:00 | 00:00:00 | 00:00:00 | |
| OM5KV | 2026-09-01 05:44:31 | 48.56655 | 18.05837 | 94° | 119km/h | 10192m | 3.1m/s | -46.2°C | 0% | 0hPa | 0V | 00:00:00 | 00:00:00 | 00:00:00 | |
| OM5KV | 2026-09-01 05:44:30 | 48.56657 | 18.05792 | 96° | 119km/h | 10188m | 3.5m/s | -46.3°C | 0% | 0hPa | 0V | 00:00:00 | 00:00:00 | 00:00:00 | |
| PETON7-10 | 2026-09-01 05:44:29 | 48.56660 | 18.05747 | 97° | 117km/h | 10182m | 3.7m/s | 0°C | 0% | 0hPa | 0V | 00:00:00 | 00:00:00 | 00:00:00 | |
| ATIDSZ-14 | 2026-09-01 05:44:27 | 48.56665 | 18.05657 | 94° | 117km/h | 10178m | 2.7m/s | -46.2°C | 0% | 0hPa | 0V | 00:00:00 | 00:00:00 | 00:00:00 | |
| OM5KV | 2026-09-01 05:44:24 | 48.56671 | 18.05524 | 96° | 119km/h | 10168m | 3.3m/s | -46.1°C | 0% | 0hPa | 0V | 00:00:00 | 00:00:00 | 00:00:00 | |
| OM5KV | 2026-09-01 05:44:23 | 48.56675 | 18.05479 | 98° | 120km/h | 10164m | 4.3m/s | -46.1°C | 0% | 0hPa | 0V | 00:00:00 | 00:00:00 | 00:00:00 | |
| OE3JTB-15 | 2026-09-01 05:44:20 | 48.56684 | 18.05342 | 94° | 115km/h | 10153m | 3.6m/s | 0°C | 0% | 0hPa | 0V | 00:00:00 | 00:00:00 | 00:00:00 | |
| OM5KV | 2026-09-01 05:44:17 | 48.56689 | 18.05210 | 95° | 115km/h | 10141m | 3.5m/s | -45.9°C | 0% | 0hPa | 0V | 00:00:00 | 00:00:00 | 00:00:00 | |
| PETON7-10 | 2026-09-01 05:44:14 | 48.56699 | 18.05077 | 96° | 117km/h | 10127m | 2.7m/s | 0°C | 0% | 0hPa | 0V | 00:00:00 | 00:00:00 | 00:00:00 | |
| ATIDSZ-14 | 2026-09-01 05:44:07 | 48.56717 | 18.04766 | 97° | 117km/h | 10106m | 3.1m/s | -45.6°C | 0% | 0hPa | 0V | 00:00:00 | 00:00:00 | 00:00:00 | |
| OM5KV | 2026-09-01 05:44:04 | 48.56724 | 18.04632 | 96° | 117km/h | 10095m | 3.6m/s | -45.6°C | 0% | 0hPa | 0V | 00:00:00 | 00:00:00 | 00:00:00 | |
| PETON7-10 | 2026-09-01 05:43:59 | 48.56735 | 18.04414 | 94° | 115km/h | 10073m | 4.0m/s | 0°C | 0% | 0hPa | 0V | 00:00:00 | 00:00:00 | 00:00:00 | |
| OM5KV | 2026-09-01 05:43:53 | 48.56748 | 18.04156 | 95° | 111km/h | 10056m | 3.5m/s | -45.3°C | 0% | 0hPa | 0V | 00:00:00 | 00:00:00 | 00:00:00 | |
| OE3JTB-15 | 2026-09-01 05:43:51 | 48.56751 | 18.04069 | 93° | 115km/h | 10015m | 3.6m/s | 0°C | 0% | 0hPa | 0V | 00:00:00 | 00:00:00 | 00:00:00 | |
| OM5KV | 2026-09-01 05:43:48 | 48.56759 | 18.03936 | 97° | 113km/h | 10038m | 4.1m/s | -45.1°C | 0% | 0hPa | 0V | 00:00:00 | 00:00:00 | 00:00:00 | |
| OM5KV | 2026-09-01 05:43:47 | 48.56762 | 18.03893 | 96° | 111km/h | 10035m | 2.9m/s | -45.1°C | 0% | 0hPa | 0V | 00:00:00 | 00:00:00 | 00:00:00 | |
| ATIDSZ-14 | 2026-09-01 05:43:46 | 48.56763 | 18.03851 | 95° | 113km/h | 10031m | 3.6m/s | -45.1°C | 0% | 0hPa | 0V | 00:00:00 | 00:00:00 | 00:00:00 | |
| PETON7-10 | 2026-09-01 05:43:44 | 48.56769 | 18.03762 | 96° | 113km/h | 10021m | 3.9m/s | 0°C | 0% | 0hPa | 0V | 00:00:00 | 00:00:00 | 00:00:00 | |
| OM5KV | 2026-09-01 05:43:42 | 48.56775 | 18.03675 | 96° | 110km/h | 10018m | 2.8m/s | -45.0°C | 0% | 0hPa | 0V | 00:00:00 | 00:00:00 | 00:00:00 | |
| OM5KV | 2026-09-01 05:43:41 | 48.56777 | 18.03633 | 97° | 110km/h | 10015m | 3.7m/s | -45.0°C | 0% | 0hPa | 0V | 00:00:00 | 00:00:00 | 00:00:00 | |
| OM5KV | 2026-09-01 05:43:36 | 48.56792 | 18.03416 | 97° | 115km/h | 9996m | 3.3m/s | -44.9°C | 0% | 0hPa | 0V | 00:00:00 | 00:00:00 | 00:00:00 | |
| PETON7-10 | 2026-09-01 05:43:29 | 48.56812 | 18.03117 | 96° | 115km/h | 9967m | 3.6m/s | 0°C | 0% | 0hPa | 0V | 00:00:00 | 00:00:00 | 00:00:00 | |
| ATIDSZ-14 | 2026-09-01 05:43:26 | 48.56820 | 18.02982 | 98° | 117km/h | 9959m | 3.1m/s | -44.6°C | 0% | 0hPa | 0V | 00:00:00 | 00:00:00 | 00:00:00 | |
| OE3JTB-15 | 2026-09-01 05:43:17 | 48.56845 | 18.02595 | 97° | 113km/h | 9922m | 3.0m/s | 0°C | 0% | 0hPa | 0V | 00:00:00 | 00:00:00 | 00:00:00 | |
| PETON7-10 | 2026-09-01 05:43:14 | 48.56854 | 18.02465 | 94° | 113km/h | 9912m | 3.4m/s | 0°C | 0% | 0hPa | 0V | 00:00:00 | 00:00:00 | 00:00:00 | |
| OE3OSB-13 | 2026-09-01 05:43:05 | 48.56879 | 18.02034 | 94° | 106km/h | 9879m | 2.4m/s | -44.2°C | -1.0% | -1.0hPa | 0V | 00:00:00 | 00:00:00 | 00:00:00 | |
| PETON7-10 | 2026-09-01 05:42:59 | 48.56889 | 18.01819 | 95° | 113km/h | 9858m | 3.9m/s | 0°C | 0% | 0hPa | 0V | 00:00:00 | 00:00:00 | 00:00:00 | |
| OM5KV | 2026-09-01 05:42:57 | 48.56893 | 18.01734 | 97° | 110km/h | 9854m | 3.2m/s | -43.9°C | 0% | 0hPa | 0V | 00:00:00 | 00:00:00 | 00:00:00 | |
| OE3JTB-15 | 2026-09-01 05:42:48 | 48.56916 | 18.01349 | 97° | 110km/h | 9818m | 3.7m/s | 0°C | 0% | 0hPa | 0V | 00:00:00 | 00:00:00 | 00:00:00 | |
| PETON7-10 | 2026-09-01 05:42:44 | 48.56928 | 18.01179 | 95° | 110km/h | 9803m | 4.1m/s | 0°C | 0% | 0hPa | 0V | 00:00:00 | 00:00:00 | 00:00:00 | |
| PETON7-10 | 2026-09-01 05:42:29 | 48.56976 | 18.00562 | 96° | 108km/h | 9747m | 3.2m/s | 0°C | 0% | 0hPa | 0V | 00:00:00 | 00:00:00 | 00:00:00 | |
| ATIDSZ-14 | 2026-09-01 05:42:24 | 48.56993 | 18.00357 | 98° | 108km/h | 9733m | 3.7m/s | -43.1°C | 0% | 0hPa | 0V | 00:00:00 | 00:00:00 | 00:00:00 | |
| OM5KV | 2026-09-01 05:42:22 | 48.57001 | 18.00274 | 98° | 108km/h | 9726m | 4.0m/s | -43.0°C | 0% | 0hPa | 0V | 00:00:00 | 00:00:00 | 00:00:00 | |
| OE3JTB-15 | 2026-09-01 05:42:19 | 48.57010 | 18.00154 | 99° | 106km/h | 9715m | 3.2m/s | 0°C | 0% | 0hPa | 0V | 00:00:00 | 00:00:00 | 00:00:00 | |
| OM5KV | 2026-09-01 05:42:16 | 48.57022 | 18.00032 | 101° | 108km/h | 9704m | 3.6m/s | -42.9°C | 0% | 0hPa | 0V | 00:00:00 | 00:00:00 | 00:00:00 | |
| PETON7-10 | 2026-09-01 05:42:14 | 48.57030 | 17.99953 | 98° | 106km/h | 9692m | 4.5m/s | 0°C | 0% | 0hPa | 0V | 00:00:00 | 00:00:00 | 00:00:00 | |
| OM5KV | 2026-09-01 05:42:11 | 48.57042 | 17.99832 | 98° | 110km/h | 9684m | 4.5m/s | -42.7°C | 0% | 0hPa | 0V | 00:00:00 | 00:00:00 | 00:00:00 | |
| OM5KV | 2026-09-01 05:42:05 | 48.57066 | 17.99593 | 99° | 104km/h | 9661m | 3.6m/s | -42.5°C | 0% | 0hPa | 0V | 00:00:00 | 00:00:00 | 00:00:00 | |
| ATIDSZ-14 | 2026-09-01 05:42:03 | 48.57072 | 17.99514 | 98° | 104km/h | 9654m | 3.7m/s | -42.5°C | 0% | 0hPa | 0V | 00:00:00 | 00:00:00 | 00:00:00 | |
| OM5KV | 2026-09-01 05:42:01 | 48.57080 | 17.99433 | 101° | 108km/h | 9645m | 3.3m/s | -42.4°C | 0% | 0hPa | 0V | 00:00:00 | 00:00:00 | 00:00:00 | |
| PETON7-10 | 2026-09-01 05:41:59 | 48.57088 | 17.99352 | 97° | 106km/h | 9634m | 4.2m/s | 0°C | 0% | 0hPa | 0V | 00:00:00 | 00:00:00 | 00:00:00 | |
| OM5KV | 2026-09-01 05:41:56 | 48.57099 | 17.99233 | 100° | 104km/h | 9626m | 4.4m/s | -42.2°C | 0% | 0hPa | 0V | 00:00:00 | 00:00:00 | 00:00:00 | |
| OM5KV | 2026-09-01 05:41:52 | 48.57113 | 17.99074 | 98° | 108km/h | 9610m | 3.9m/s | -42.2°C | 0% | 0hPa | 0V | 00:00:00 | 00:00:00 | 00:00:00 | |
| OM5KV | 2026-09-01 05:41:50 | 48.57120 | 17.98992 | 99° | 108km/h | 9602m | 3.2m/s | -42.1°C | 0% | 0hPa | 0V | 00:00:00 | 00:00:00 | 00:00:00 | |
| OE3JTB-15 | 2026-09-01 05:41:49 | 48.57124 | 17.98951 | 98° | 106km/h | 9598m | 4.3m/s | 0°C | 0% | 0hPa | 0V | 00:00:00 | 00:00:00 | 00:00:00 | |
| OM5KV | 2026-09-01 05:41:45 | 48.57137 | 17.98797 | 98° | 102km/h | 9582m | 3.7m/s | -42.0°C | 0% | 0hPa | 0V | 00:00:00 | 00:00:00 | 00:00:00 | |
| PETON7-10 | 2026-09-01 05:41:44 | 48.57140 | 17.98757 | 99° | 106km/h | 9574m | 4.4m/s | 0°C | 0% | 0hPa | 0V | 00:00:00 | 00:00:00 | 00:00:00 | |
| ATIDSZ-14 | 2026-09-01 05:41:43 | 48.57145 | 17.98717 | 99° | 111km/h | 9574m | 4.4m/s | -41.9°C | 0% | 0hPa | 0V | 00:00:00 | 00:00:00 | 00:00:00 | |
| OM5KV | 2026-09-01 05:41:39 | 48.57159 | 17.98552 | 97° | 102km/h | 9557m | 3.7m/s | -41.8°C | 0% | 0hPa | 0V | 00:00:00 | 00:00:00 | 00:00:00 | |
| OM5KV | 2026-09-01 05:41:35 | 48.57172 | 17.98397 | 98° | 106km/h | 9542m | 3.7m/s | -41.6°C | 0% | 0hPa | 0V | 00:00:00 | 00:00:00 | 00:00:00 | |
| OM5KV | 2026-09-01 05:41:33 | 48.57178 | 17.98315 | 99° | 111km/h | 9534m | 3.9m/s | -41.5°C | 0% | 0hPa | 0V | 00:00:00 | 00:00:00 | 00:00:00 | |
| PETON7-10 | 2026-09-01 05:41:29 | 48.57192 | 17.98154 | 98° | 106km/h | 9514m | 4.1m/s | 0°C | 0% | 0hPa | 0V | 00:00:00 | 00:00:00 | 00:00:00 | |
| OM5KV | 2026-09-01 05:41:26 | 48.57202 | 17.98039 | 100° | 106km/h | 9506m | 3.5m/s | -41.3°C | 0% | 0hPa | 0V | 00:00:00 | 00:00:00 | 00:00:00 | |
| ATIDSZ-14 | 2026-09-01 05:41:22 | 48.57215 | 17.97879 | 98° | 106km/h | 9490m | 3.5m/s | -41.1°C | 0% | 0hPa | 0V | 00:00:00 | 00:00:00 | 00:00:00 | |
| OE3JTB-15 | 2026-09-01 05:41:20 | 48.57221 | 17.97799 | 97° | 104km/h | 9479m | 3.4m/s | 0°C | 0% | 0hPa | 0V | 00:00:00 | 00:00:00 | 00:00:00 | |
| OM5KV | 2026-09-01 05:41:16 | 48.57234 | 17.97638 | 98° | 110km/h | 9467m | 4.3m/s | -41.0°C | 0% | 0hPa | 0V | 00:00:00 | 00:00:00 | 00:00:00 | |
| OM5KV | 2026-09-01 05:41:14 | 48.57241 | 17.97556 | 98° | 108km/h | 9460m | 4.5m/s | -40.8°C | 0% | 0hPa | 0V | 00:00:00 | 00:00:00 | 00:00:00 | |
| PETON7-10 | 2026-09-01 05:41:13 | 48.57244 | 17.97515 | 96° | 104km/h | 9451m | 4.4m/s | 0°C | 0% | 0hPa | 0V | 00:00:00 | 00:00:00 | 00:00:00 | |
| OM5KV | 2026-09-01 05:41:10 | 48.57253 | 17.97396 | 97° | 106km/h | 9443m | 4.4m/s | -40.8°C | 0% | 0hPa | 0V | 00:00:00 | 00:00:00 | 00:00:00 | |
| ATIDSZ-14 | 2026-09-01 05:41:02 | 48.57277 | 17.97081 | 96° | 108km/h | 9410m | 4.4m/s | -40.6°C | 0% | 0hPa | 0V | 00:00:00 | 00:00:00 | 00:00:00 | |
| PETON7-10 | 2026-09-01 05:40:58 | 48.57290 | 17.96920 | 99° | 102km/h | 9391m | 4.6m/s | 0°C | 0% | 0hPa | 0V | 00:00:00 | 00:00:00 | 00:00:00 | |
| OM5KV | 2026-09-01 05:40:56 | 48.57296 | 17.96844 | 96° | 100km/h | 9386m | 4.1m/s | -40.3°C | 0% | 0hPa | 0V | 00:00:00 | 00:00:00 | 00:00:00 | |
| OM5KV | 2026-09-01 05:40:52 | 48.57305 | 17.96687 | 97° | 104km/h | 9370m | 3.9m/s | -40.2°C | 0% | 0hPa | 0V | 00:00:00 | 00:00:00 | 00:00:00 | |
| OE3JTB-15 | 2026-09-01 05:40:51 | 48.57308 | 17.96647 | 99° | 102km/h | 9366m | 3.9m/s | 0°C | 0% | 0hPa | 0V | 00:00:00 | 00:00:00 | 00:00:00 | |
| OM5KV | 2026-09-01 05:40:45 | 48.57323 | 17.96414 | 94° | 102km/h | 9341m | 3.9m/s | -40.0°C | 0% | 0hPa | 0V | 00:00:00 | 00:00:00 | 00:00:00 | |
| PETON7-10 | 2026-09-01 05:40:43 | 48.57328 | 17.96336 | 98° | 102km/h | 9329m | 4.3m/s | 0°C | 0% | 0hPa | 0V | 00:00:00 | 00:00:00 | 00:00:00 | |
| ATIDSZ-14 | 2026-09-01 05:40:41 | 48.57333 | 17.96256 | 95° | 106km/h | 9325m | 4.1m/s | -39.8°C | 0% | 0hPa | 0V | 00:00:00 | 00:00:00 | 00:00:00 | |
| OM5KV | 2026-09-01 05:40:39 | 48.57338 | 17.96177 | 96° | 102km/h | 9316m | 4.1m/s | -39.7°C | 0% | 0hPa | 0V | 00:00:00 | 00:00:00 | 00:00:00 | |
| OM5KV | 2026-09-01 05:40:34 | 48.57349 | 17.95984 | 96° | 102km/h | 9295m | 4.7m/s | -39.7°C | 0% | 0hPa | 0V | 00:00:00 | 00:00:00 | 00:00:00 | |
| OM5KV | 2026-09-01 05:40:33 | 48.57351 | 17.95945 | 96° | 104km/h | 9291m | 3.5m/s | -39.6°C | 0% | 0hPa | 0V | 00:00:00 | 00:00:00 | 00:00:00 | |
| PETON7-10 | 2026-09-01 05:40:28 | 48.57360 | 17.95749 | 96° | 99km/h | 9266m | 3.4m/s | 0°C | 0% | 0hPa | 0V | 00:00:00 | 00:00:00 | 00:00:00 | |
| OM5KV | 2026-09-01 05:40:27 | 48.57362 | 17.95711 | 98° | 100km/h | 9266m | 3.5m/s | -39.4°C | 0% | 0hPa | 0V | 00:00:00 | 00:00:00 | 00:00:00 | |
| OM5KV | 2026-09-01 05:40:23 | 48.57371 | 17.95560 | 96° | 100km/h | 9249m | 3.9m/s | -39.4°C | 0% | 0hPa | 0V | 00:00:00 | 00:00:00 | 00:00:00 | |
| OE3JTB-15 | 2026-09-01 05:40:22 | 48.57374 | 17.95522 | 95° | 100km/h | 9241m | 3.7m/s | 0°C | 0% | 0hPa | 0V | 00:00:00 | 00:00:00 | 00:00:00 | |
| ATIDSZ-14 | 2026-09-01 05:40:21 | 48.57376 | 17.95483 | 96° | 102km/h | 9241m | 3.7m/s | -39.3°C | 0% | 0hPa | 0V | 00:00:00 | 00:00:00 | 00:00:00 | |
| OM5KV | 2026-09-01 05:40:18 | 48.57388 | 17.95334 | 97° | 97km/h | 9224m | 4.7m/s | -39.1°C | 0% | 0hPa | 0V | 00:00:00 | 00:00:00 | 00:00:00 | |
| PETON7-10 | 2026-09-01 05:40:13 | 48.57397 | 17.95183 | 96° | 100km/h | 9204m | 3.9m/s | 0°C | 0% | 0hPa | 0V | 00:00:00 | 00:00:00 | 00:00:00 | |
| OM5KV | 2026-09-01 05:40:12 | 48.57400 | 17.95145 | 98° | 100km/h | 9204m | 3.9m/s | -39.0°C | 0% | 0hPa | 0V | 00:00:00 | 00:00:00 | 00:00:00 | |
| OM5KV | 2026-09-01 05:40:09 | 48.57409 | 17.95033 | 100° | 99km/h | 9191m | 3.7m/s | -38.9°C | 0% | 0hPa | 0V | 00:00:00 | 00:00:00 | 00:00:00 | |
| OM5KV | 2026-09-01 05:40:04 | 48.57425 | 17.94840 | 98° | 104km/h | 9171m | 4.2m/s | -38.7°C | 0% | 0hPa | 0V | 00:00:00 | 00:00:00 | 00:00:00 | |
| ATIDSZ-14 | 2026-09-01 05:40:00 | 48.57438 | 17.94690 | 97° | 97km/h | 9154m | 3.1m/s | -38.6°C | 0% | 0hPa | 0V | 00:00:00 | 00:00:00 | 00:00:00 | |
| PETON7-10 | 2026-09-01 05:39:58 | 48.57444 | 17.94614 | 98° | 100km/h | 9142m | 4.5m/s | 0°C | 0% | 0hPa | 0V | 00:00:00 | 00:00:00 | 00:00:00 | |
| OE3JTB-15 | 2026-09-01 05:39:53 | 48.57458 | 17.94421 | 97° | 99km/h | 9126m | 3.7m/s | 0°C | 0% | 0hPa | 0V | 00:00:00 | 00:00:00 | 00:00:00 | |
| OM5KV | 2026-09-01 05:39:52 | 48.57462 | 17.94385 | 99° | 97km/h | 9122m | 4.8m/s | -38.4°C | 0% | 0hPa | 0V | 00:00:00 | 00:00:00 | 00:00:00 | |
| OM5KV | 2026-09-01 05:39:49 | 48.57473 | 17.94270 | 98° | 102km/h | 9109m | 3.7m/s | -38.3°C | 0% | 0hPa | 0V | 00:00:00 | 00:00:00 | 00:00:00 | |
| OM5KV | 2026-09-01 05:39:45 | 48.57484 | 17.94116 | 97° | 99km/h | 9092m | 4.9m/s | -38.0°C | 0% | 0hPa | 0V | 00:00:00 | 00:00:00 | 00:00:00 | |
| PETON7-10 | 2026-09-01 05:39:43 | 48.57491 | 17.94042 | 100° | 100km/h | 9079m | 3.7m/s | 0°C | 0% | 0hPa | 0V | 00:00:00 | 00:00:00 | 00:00:00 | |
| ATIDSZ-14 | 2026-09-01 05:39:40 | 48.57503 | 17.93932 | 100° | 102km/h | 9071m | 3.8m/s | -37.8°C | 0% | 0hPa | 0V | 00:00:00 | 00:00:00 | 00:00:00 | |
| OM5KV | 2026-09-01 05:39:34 | 48.57523 | 17.93703 | 98° | 97km/h | 9046m | 4.3m/s | -37.6°C | 0% | 0hPa | 0V | 00:00:00 | 00:00:00 | 00:00:00 | |
| OM5KV | 2026-09-01 05:39:32 | 48.57530 | 17.93629 | 100° | 102km/h | 9037m | 4.1m/s | -37.6°C | 0% | 0hPa | 0V | 00:00:00 | 00:00:00 | 00:00:00 | |
| PETON7-10 | 2026-09-01 05:39:28 | 48.57547 | 17.93475 | 101° | 100km/h | 9016m | 5.2m/s | 0°C | 0% | 0hPa | 0V | 00:00:00 | 00:00:00 | 00:00:00 | |
| OE3JTB-15 | 2026-09-01 05:39:24 | 48.57561 | 17.93331 | 98° | 102km/h | 9000m | 5.1m/s | 0°C | 0% | 0hPa | 0V | 00:00:00 | 00:00:00 | 00:00:00 | |
| OM5KV | 2026-09-01 05:39:23 | 48.57564 | 17.93293 | 99° | 102km/h | 9000m | 5.1m/s | -37.3°C | 0% | 0hPa | 0V | 00:00:00 | 00:00:00 | 00:00:00 | |
| OM5KV | 2026-09-01 05:39:21 | 48.57573 | 17.93214 | 101° | 108km/h | 8991m | 3.6m/s | -37.2°C | 0% | 0hPa | 0V | 00:00:00 | 00:00:00 | 00:00:00 | |
| ATIDSZ-14 | 2026-09-01 05:39:19 | 48.57581 | 17.93136 | 98° | 97km/h | 8982m | 4.0m/s | -37.1°C | 0% | 0hPa | 0V | 00:00:00 | 00:00:00 | 00:00:00 | |
| OM5KV | 2026-09-01 05:39:17 | 48.57587 | 17.93063 | 99° | 100km/h | 8973m | 3.5m/s | -37.1°C | 0% | 0hPa | 0V | 00:00:00 | 00:00:00 | 00:00:00 | |
| PETON7-10 | 2026-09-01 05:39:13 | 48.57603 | 17.92910 | 100° | 102km/h | 8953m | 3.9m/s | 0°C | 0% | 0hPa | 0V | 00:00:00 | 00:00:00 | 00:00:00 | |
| OM5KV | 2026-09-01 05:39:12 | 48.57607 | 17.92871 | 101° | 104km/h | 8953m | 3.9m/s | -36.9°C | 0% | 0hPa | 0V | 00:00:00 | 00:00:00 | 00:00:00 | |
| OM5KV | 2026-09-01 05:39:09 | 48.57618 | 17.92755 | 99° | 102km/h | 8941m | 3.9m/s | -36.9°C | 0% | 0hPa | 0V | 00:00:00 | 00:00:00 | 00:00:00 | |
| OM5KV | 2026-09-01 05:39:06 | 48.57629 | 17.92641 | 99° | 100km/h | 8928m | 4.8m/s | -36.8°C | 0% | 0hPa | 0V | 00:00:00 | 00:00:00 | 00:00:00 | |
| OM5KV | 2026-09-01 05:39:02 | 48.57644 | 17.92487 | 100° | 102km/h | 8911m | 3.8m/s | -36.6°C | 0% | 0hPa | 0V | 00:00:00 | 00:00:00 | 00:00:00 | |
| OM5KV | 2026-09-01 05:39:00 | 48.57653 | 17.92410 | 101° | 100km/h | 8902m | 3.9m/s | -36.7°C | 0% | 0hPa | 0V | 00:00:00 | 00:00:00 | 00:00:00 | |
| ATIDSZ-14 | 2026-09-01 05:38:59 | 48.57657 | 17.92373 | 102° | 102km/h | 8898m | 3.9m/s | -36.6°C | 0% | 0hPa | 0V | 00:00:00 | 00:00:00 | 00:00:00 | |
| PETON7-10 | 2026-09-01 05:38:58 | 48.57662 | 17.92334 | 101° | 102km/h | 8890m | 4.2m/s | 0°C | 0% | 0hPa | 0V | 00:00:00 | 00:00:00 | 00:00:00 | |
| OM5KV | 2026-09-01 05:38:57 | 48.57666 | 17.92297 | 99° | 99km/h | 8890m | 4.3m/s | -36.5°C | 0% | 0hPa | 0V | 00:00:00 | 00:00:00 | 00:00:00 | |
| OM5KV | 2026-09-01 05:38:55 | 48.57672 | 17.92220 | 98° | 104km/h | 8882m | 3.7m/s | -36.5°C | 0% | 0hPa | 0V | 00:00:00 | 00:00:00 | 00:00:00 | |
| OE3JTB-15 | 2026-09-01 05:38:54 | 48.57675 | 17.92181 | 98° | 102km/h | 8873m | 3.8m/s | 0°C | 0% | 0hPa | 0V | 00:00:00 | 00:00:00 | 00:00:00 | |
| OM5KV | 2026-09-01 05:38:51 | 48.57689 | 17.92063 | 103° | 104km/h | 8864m | 4.1m/s | -36.3°C | 0% | 0hPa | 0V | 00:00:00 | 00:00:00 | 00:00:00 | |
| OM5KV | 2026-09-01 05:38:49 | 48.57698 | 17.91988 | 100° | 99km/h | 8856m | 4.2m/s | -36.3°C | 0% | 0hPa | 0V | 00:00:00 | 00:00:00 | 00:00:00 | |
| OM5KV | 2026-09-01 05:38:45 | 48.57713 | 17.91836 | 102° | 104km/h | 8840m | 3.9m/s | -36.2°C | 0% | 0hPa | 0V | 00:00:00 | 00:00:00 | 00:00:00 | |
| PETON7-10 | 2026-09-01 05:38:43 | 48.57724 | 17.91759 | 102° | 102km/h | 8827m | 4.5m/s | 0°C | 0% | 0hPa | 0V | 00:00:00 | 00:00:00 | 00:00:00 | |
| OM5KV | 2026-09-01 05:38:40 | 48.57734 | 17.91643 | 96° | 102km/h | 8819m | 4.5m/s | -36.0°C | 0% | 0hPa | 0V | 00:00:00 | 00:00:00 | 00:00:00 | |
| ATIDSZ-14 | 2026-09-01 05:38:38 | 48.57740 | 17.91565 | 99° | 104km/h | 8811m | 3.7m/s | -35.9°C | 0% | 0hPa | 0V | 00:00:00 | 00:00:00 | 00:00:00 | |
| OM5KV | 2026-09-01 05:38:34 | 48.57758 | 17.91413 | 101° | 104km/h | 8794m | 4.3m/s | -35.8°C | 0% | 0hPa | 0V | 00:00:00 | 00:00:00 | 00:00:00 | |
| PETON7-10 | 2026-09-01 05:38:28 | 48.57781 | 17.91178 | 99° | 102km/h | 8765m | 4.1m/s | 0°C | 0% | 0hPa | 0V | 00:00:00 | 00:00:00 | 00:00:00 | |
| OE3JTB-15 | 2026-09-01 05:38:25 | 48.57792 | 17.91061 | 100° | 102km/h | 8753m | 3.8m/s | 0°C | 0% | 0hPa | 0V | 00:00:00 | 00:00:00 | 00:00:00 | |
| ATIDSZ-14 | 2026-09-01 05:38:18 | 48.57816 | 17.90793 | 98° | 99km/h | 8728m | 4.5m/s | -35.2°C | 0% | 0hPa | 0V | 00:00:00 | 00:00:00 | 00:00:00 | |
| PETON7-10 | 2026-09-01 05:38:13 | 48.57832 | 17.90597 | 98° | 102km/h | 8703m | 4.6m/s | 0°C | 0% | 0hPa | 0V | 00:00:00 | 00:00:00 | 00:00:00 | |
| OM5KV | 2026-09-01 05:38:07 | 48.57849 | 17.90369 | 97° | 100km/h | 8683m | 3.8m/s | -34.9°C | 0% | 0hPa | 0V | 00:00:00 | 00:00:00 | 00:00:00 | |
| OM5KV | 2026-09-01 05:38:04 | 48.57859 | 17.90250 | 98° | 106km/h | 8670m | 4.3m/s | -34.7°C | 0% | 0hPa | 0V | 00:00:00 | 00:00:00 | 00:00:00 | |
| OM5KV | 2026-09-01 05:38:00 | 48.57868 | 17.90094 | 94° | 100km/h | 8654m | 3.8m/s | -34.6°C | 0% | 0hPa | 0V | 00:00:00 | 00:00:00 | 00:00:00 | |
| PETON7-10 | 2026-09-01 05:37:58 | 48.57872 | 17.90018 | 98° | 102km/h | 8642m | 4.3m/s | 0°C | 0% | 0hPa | 0V | 00:00:00 | 00:00:00 | 00:00:00 | |
| ATIDSZ-14 | 2026-09-01 05:37:57 | 48.57875 | 17.89979 | 98° | 102km/h | 8642m | 4.4m/s | -34.5°C | 0% | 0hPa | 0V | 00:00:00 | 00:00:00 | 00:00:00 | |
| OE3JTB-15 | 2026-09-01 05:37:56 | 48.57878 | 17.89939 | 97° | 100km/h | 8634m | 4.2m/s | 0°C | 0% | 0hPa | 0V | 00:00:00 | 00:00:00 | 00:00:00 | |
| OM5KV | 2026-09-01 05:37:48 | 48.57899 | 17.89633 | 98° | 108km/h | 8607m | 3.8m/s | -34.4°C | 0% | 0hPa | 0V | 00:00:00 | 00:00:00 | 00:00:00 | |
| OM5KV | 2026-09-01 05:37:46 | 48.57904 | 17.89551 | 95° | 106km/h | 8597m | 4.2m/s | -34.3°C | 0% | 0hPa | 0V | 00:00:00 | 00:00:00 | 00:00:00 | |
| OM5KV | 2026-09-01 05:37:42 | 48.57909 | 17.89404 | 98° | 89km/h | 8580m | 3.1m/s | -34.2°C | 0% | 0hPa | 0V | 00:00:00 | 00:00:00 | 00:00:00 | |
| ATIDSZ-14 | 2026-09-01 05:37:36 | 48.57920 | 17.89168 | 94° | 100km/h | 8555m | 4.2m/s | -34.0°C | 0% | 0hPa | 0V | 00:00:00 | 00:00:00 | 00:00:00 | |
| OM5KV | 2026-09-01 05:37:34 | 48.57922 | 17.89095 | 94° | 91km/h | 8546m | 4.6m/s | -33.9°C | 0% | 0hPa | 0V | 00:00:00 | 00:00:00 | 00:00:00 | |
| PETON7-10 | 2026-09-01 05:37:28 | 48.57936 | 17.88869 | 92° | 97km/h | 8517m | 2.4m/s | 0°C | 0% | 0hPa | 0V | 00:00:00 | 00:00:00 | 00:00:00 | |
| OE3JTB-15 | 2026-09-01 05:37:27 | 48.57936 | 17.88829 | 90° | 95km/h | 8513m | 5.2m/s | 0°C | 0% | 0hPa | 0V | 00:00:00 | 00:00:00 | 00:00:00 | |
| OM5KV | 2026-09-01 05:37:22 | 48.57945 | 17.88654 | 97° | 102km/h | 8496m | 4.6m/s | -33.5°C | 0% | 0hPa | 0V | 00:00:00 | 00:00:00 | 00:00:00 | |
| OM5KV | 2026-09-01 05:37:17 | 48.57952 | 17.88465 | 93° | 89km/h | 8474m | 5.0m/s | -33.3°C | 0% | 0hPa | 0V | 00:00:00 | 00:00:00 | 00:00:00 | |
| ATIDSZ-14 | 2026-09-01 05:37:16 | 48.57952 | 17.88431 | 90° | 89km/h | 8471m | 3.2m/s | -33.3°C | 0% | 0hPa | 0V | 00:00:00 | 00:00:00 | 00:00:00 | |
| PETON7-10 | 2026-09-01 05:37:13 | 48.57955 | 17.88322 | 94° | 95km/h | 8455m | 5.0m/s | 0°C | 0% | 0hPa | 0V | 00:00:00 | 00:00:00 | 00:00:00 | |
| OM5KV | 2026-09-01 05:37:10 | 48.57953 | 17.88206 | 87° | 97km/h | 8447m | 4.4m/s | -33.1°C | 0% | 0hPa | 0V | 00:00:00 | 00:00:00 | 00:00:00 | |
| OM5KV | 2026-09-01 05:37:05 | 48.57957 | 17.88032 | 93° | 93km/h | 8427m | 3.6m/s | -32.9°C | 0% | 0hPa | 0V | 00:00:00 | 00:00:00 | 00:00:00 | |
| OM5KV | 2026-09-01 05:37:00 | 48.57957 | 17.87817 | 91° | 95km/h | 8404m | 3.8m/s | -32.8°C | 0% | 0hPa | 0V | 00:00:00 | 00:00:00 | 00:00:00 | |
| PETON7-10 | 2026-09-01 05:36:58 | 48.57957 | 17.87781 | 93° | 91km/h | 8396m | 3.8m/s | 0°C | 0% | 0hPa | 0V | 00:00:00 | 00:00:00 | 00:00:00 | |
| ATIDSZ-14 | 2026-09-01 05:36:55 | 48.57962 | 17.87675 | 93° | 86km/h | 8388m | 3.2m/s | -32.7°C | 0% | 0hPa | 0V | 00:00:00 | 00:00:00 | 00:00:00 | |
| OM5KV | 2026-09-01 05:36:53 | 48.57961 | 17.87608 | 88° | 91km/h | 8380m | 3.2m/s | -32.7°C | 0% | 0hPa | 0V | 00:00:00 | 00:00:00 | 00:00:00 | |
| OM5KV | 2026-09-01 05:36:48 | 48.57959 | 17.87433 | 94° | 93km/h | 8360m | 4.1m/s | -32.7°C | 0% | 0hPa | 0V | 00:00:00 | 00:00:00 | 00:00:00 | |
| OM5KV | 2026-09-01 05:36:43 | 48.57957 | 17.87232 | 92° | 86km/h | 8338m | 3.5m/s | -32.5°C | 0% | 0hPa | 0V | 00:00:00 | 00:00:00 | 00:00:00 | |
| OM5KV | 2026-09-01 05:36:37 | 48.57960 | 17.87062 | 91° | 93km/h | 8320m | 4.2m/s | -32.3°C | 0% | 0hPa | 0V | 00:00:00 | 00:00:00 | 00:00:00 | |
| ATIDSZ-14 | 2026-09-01 05:36:35 | 48.57961 | 17.86995 | 92° | 86km/h | 8312m | 4.2m/s | -32.3°C | 0% | 0hPa | 0V | 00:00:00 | 00:00:00 | 00:00:00 | |
| OM5KV | 2026-09-01 05:36:31 | 48.57960 | 17.86862 | 89° | 91km/h | 8297m | 3.9m/s | -32.2°C | 0% | 0hPa | 0V | 00:00:00 | 00:00:00 | 00:00:00 | |
| OE3JTB-15 | 2026-09-01 05:36:29 | 48.57959 | 17.86792 | 90° | 89km/h | 8286m | 3.8m/s | 0°C | 0% | 0hPa | 0V | 00:00:00 | 00:00:00 | 00:00:00 | |
| PETON7-10 | 2026-09-01 05:36:28 | 48.57959 | 17.86760 | 89° | 89km/h | 8283m | 2.9m/s | 0°C | 0% | 0hPa | 0V | 00:00:00 | 00:00:00 | 00:00:00 | |
| OM5KV | 2026-09-01 05:36:26 | 48.57958 | 17.86693 | 92° | 88km/h | 8279m | 3.9m/s | -32.0°C | 0% | 0hPa | 0V | 00:00:00 | 00:00:00 | 00:00:00 | |
| OM5KV | 2026-09-01 05:36:20 | 48.57960 | 17.86488 | 89° | 88km/h | 8256m | 3.1m/s | -31.8°C | 0% | 0hPa | 0V | 00:00:00 | 00:00:00 | 00:00:00 | |
| ATIDSZ-14 | 2026-09-01 05:36:14 | 48.57959 | 17.86284 | 91° | 93km/h | 8234m | 3.9m/s | -31.7°C | 0% | 0hPa | 0V | 00:00:00 | 00:00:00 | 00:00:00 | |
| PETON7-10 | 2026-09-01 05:36:13 | 48.57958 | 17.86248 | 87° | 89km/h | 8227m | 3.7m/s | 0°C | 0% | 0hPa | 0V | 00:00:00 | 00:00:00 | 00:00:00 | |
| OM5KV | 2026-09-01 05:36:09 | 48.57957 | 17.86117 | 91° | 91km/h | 8216m | 3.6m/s | -31.5°C | 0% | 0hPa | 0V | 00:00:00 | 00:00:00 | 00:00:00 | |
| OM5KV | 2026-09-01 05:36:03 | 48.57957 | 17.85912 | 91° | 84km/h | 8193m | 3.8m/s | -31.3°C | 0% | 0hPa | 0V | 00:00:00 | 00:00:00 | 00:00:00 | |
| OM5KV | 2026-09-01 05:36:02 | 48.57956 | 17.85879 | 90° | 89km/h | 8190m | 3.2m/s | -31.3°C | 0% | 0hPa | 0V | 00:00:00 | 00:00:00 | 00:00:00 | |
| OE3JTB-15 | 2026-09-01 05:36:00 | 48.57956 | 17.85808 | 92° | 91km/h | 8183m | 2.9m/s | 0°C | 0% | 0hPa | 0V | 00:00:00 | 00:00:00 | 00:00:00 | |
| PETON7-10 | 2026-09-01 05:35:58 | 48.57957 | 17.85735 | 91° | 89km/h | 8172m | 3.9m/s | 0°C | 0% | 0hPa | 0V | 00:00:00 | 00:00:00 | 00:00:00 | |
| OM5KV | 2026-09-01 05:35:57 | 48.57957 | 17.85700 | 92° | 91km/h | 8172m | 4.0m/s | -31.1°C | 0% | 0hPa | 0V | 00:00:00 | 00:00:00 | 00:00:00 | |
| OM5KV | 2026-09-01 05:35:56 | 48.57958 | 17.85666 | 93° | 88km/h | 8169m | 3.0m/s | -31.1°C | 0% | 0hPa | 0V | 00:00:00 | 00:00:00 | 00:00:00 | |
| ATIDSZ-14 | 2026-09-01 05:35:54 | 48.57958 | 17.85599 | 90° | 89km/h | 8161m | 3.3m/s | -31.1°C | 0% | 0hPa | 0V | 00:00:00 | 00:00:00 | 00:00:00 | |
| OM5KV | 2026-09-01 05:35:51 | 48.57958 | 17.85462 | 91° | 89km/h | 8147m | 3.4m/s | -31.0°C | 0% | 0hPa | 0V | 00:00:00 | 00:00:00 | 00:00:00 | |
| OM5KV | 2026-09-01 05:35:46 | 48.57961 | 17.85325 | 91° | 93km/h | 8134m | 3.4m/s | -30.8°C | 0% | 0hPa | 0V | 00:00:00 | 00:00:00 | 00:00:00 | |
| OM5KV | 2026-09-01 05:35:44 | 48.57962 | 17.85255 | 91° | 89km/h | 8127m | 4.0m/s | -30.7°C | 0% | 0hPa | 0V | 00:00:00 | 00:00:00 | 00:00:00 | |
| PETON7-10 | 2026-09-01 05:35:43 | 48.57962 | 17.85221 | 93° | 91km/h | 8120m | 3.6m/s | 0°C | 0% | 0hPa | 0V | 00:00:00 | 00:00:00 | 00:00:00 | |
| OM5KV | 2026-09-01 05:35:40 | 48.57964 | 17.85118 | 92° | 91km/h | 8113m | 3.3m/s | -30.6°C | 0% | 0hPa | 0V | 00:00:00 | 00:00:00 | 00:00:00 | |
| OM5KV | 2026-09-01 05:35:38 | 48.57965 | 17.85049 | 94° | 89km/h | 8106m | 3.8m/s | -30.5°C | 0% | 0hPa | 0V | 00:00:00 | 00:00:00 | 00:00:00 | |
| OM5KV | 2026-09-01 05:35:34 | 48.57967 | 17.84913 | 92° | 91km/h | 8091m | 3.0m/s | -30.4°C | 0% | 0hPa | 0V | 00:00:00 | 00:00:00 | 00:00:00 | |
| ATIDSZ-14 | 2026-09-01 05:35:33 | 48.57968 | 17.84877 | 91° | 93km/h | 8088m | 3.8m/s | -30.4°C | 0% | 0hPa | 0V | 00:00:00 | 00:00:00 | 00:00:00 | |
| OE3JTB-15 | 2026-09-01 05:35:31 | 48.57968 | 17.84807 | 94° | 91km/h | 8077m | 3.8m/s | 0°C | 0% | 0hPa | 0V | 00:00:00 | 00:00:00 | 00:00:00 | |
| OM5KV | 2026-09-01 05:35:27 | 48.57971 | 17.84670 | 93° | 89km/h | 8066m | 3.2m/s | -30.3°C | 0% | 0hPa | 0V | 00:00:00 | 00:00:00 | 00:00:00 | |
| OM5KV | 2026-09-01 05:35:21 | 48.57973 | 17.84462 | 93° | 93km/h | 8044m | 3.0m/s | -30.1°C | 0% | 0hPa | 0V | 00:00:00 | 00:00:00 | 00:00:00 | |
| OM5KV | 2026-09-01 05:35:19 | 48.57976 | 17.84393 | 94° | 89km/h | 8037m | 3.8m/s | -30.0°C | 0% | 0hPa | 0V | 00:00:00 | 00:00:00 | 00:00:00 | |
| OM5KV | 2026-09-01 05:35:06 | 48.57985 | 17.83948 | 91° | 89km/h | 7990m | 4.1m/s | -29.6°C | 0% | 0hPa | 0V | 00:00:00 | 00:00:00 | 00:00:00 | |
| OM5KV | 2026-09-01 05:35:05 | 48.57986 | 17.83913 | 94° | 91km/h | 7987m | 2.3m/s | -29.5°C | 0% | 0hPa | 0V | 00:00:00 | 00:00:00 | 00:00:00 | |
| OE3JTB-15 | 2026-09-01 05:35:02 | 48.57988 | 17.83808 | 93° | 91km/h | 7976m | 2.9m/s | 0°C | 0% | 0hPa | 0V | 00:00:00 | 00:00:00 | 00:00:00 | |
| OM5KV | 2026-09-01 05:35:00 | 48.57989 | 17.83737 | 92° | 93km/h | 7968m | 2.9m/s | -29.4°C | 0% | 0hPa | 0V | 00:00:00 | 00:00:00 | 00:00:00 | |
| OM5KV | 2026-09-01 05:34:59 | 48.57990 | 17.83702 | 93° | 91km/h | 7965m | 3.7m/s | -29.4°C | 0% | 0hPa | 0V | 00:00:00 | 00:00:00 | 00:00:00 | |
| PETON7-10 | 2026-09-01 05:34:58 | 48.57991 | 17.83668 | 92° | 91km/h | 7959m | 3.5m/s | 0°C | 0% | 0hPa | 0V | 00:00:00 | 00:00:00 | 00:00:00 | |
| ATIDSZ-14 | 2026-09-01 05:34:52 | 48.57995 | 17.83461 | 95° | 91km/h | 7941m | 3.5m/s | -29.2°C | 0% | 0hPa | 0V | 00:00:00 | 00:00:00 | 00:00:00 | |
| OM5KV | 2026-09-01 05:34:49 | 48.57998 | 17.83356 | 92° | 93km/h | 7930m | 3.8m/s | -29.1°C | 0% | 0hPa | 0V | 00:00:00 | 00:00:00 | 00:00:00 | |
| OM5KV | 2026-09-01 05:34:46 | 48.57998 | 17.83252 | 90° | 93km/h | 7919m | 3.3m/s | -29.0°C | 0% | 0hPa | 0V | 00:00:00 | 00:00:00 | 00:00:00 | |
| PETON7-10 | 2026-09-01 05:34:43 | 48.58001 | 17.83148 | 94° | 95km/h | 7907m | 3.5m/s | 0°C | 0% | 0hPa | 0V | 00:00:00 | 00:00:00 | 00:00:00 | |
| OM5KV | 2026-09-01 05:34:39 | 48.58006 | 17.83003 | 92° | 99km/h | 7896m | 3.3m/s | -28.9°C | 0% | 0hPa | 0V | 00:00:00 | 00:00:00 | 00:00:00 | |
| OM5KV | 2026-09-01 05:34:35 | 48.58009 | 17.82860 | 95° | 84km/h | 7883m | 3.3m/s | -28.7°C | 0% | 0hPa | 0V | 00:00:00 | 00:00:00 | 00:00:00 | |
| OE3JTB-15 | 2026-09-01 05:34:33 | 48.58012 | 17.82792 | 93° | 95km/h | 7874m | 3.8m/s | 0°C | 0% | 0hPa | 0V | 00:00:00 | 00:00:00 | 00:00:00 | |
| ATIDSZ-14 | 2026-09-01 05:34:32 | 48.58012 | 17.82756 | 94° | 97km/h | 7874m | 3.8m/s | -28.7°C | 0% | 0hPa | 0V | 00:00:00 | 00:00:00 | 00:00:00 | |
| OM5KV | 2026-09-01 05:34:29 | 48.58015 | 17.82644 | 92° | 97km/h | 7863m | 2.6m/s | -28.5°C | 0% | 0hPa | 0V | 00:00:00 | 00:00:00 | 00:00:00 | |
| PETON7-10 | 2026-09-01 05:34:28 | 48.58016 | 17.82608 | 96° | 93km/h | 7857m | 2.4m/s | 0°C | 0% | 0hPa | 0V | 00:00:00 | 00:00:00 | 00:00:00 | |
| OM5KV | 2026-09-01 05:34:22 | 48.58024 | 17.82397 | 94° | 93km/h | 7841m | 4.0m/s | -28.4°C | 0% | 0hPa | 0V | 00:00:00 | 00:00:00 | 00:00:00 | |
| OM5KV | 2026-09-01 05:34:17 | 48.58030 | 17.82215 | 94° | 93km/h | 7824m | 3.6m/s | -28.3°C | 0% | 0hPa | 0V | 00:00:00 | 00:00:00 | 00:00:00 | |
| PETON7-10 | 2026-09-01 05:34:13 | 48.58033 | 17.82074 | 94° | 95km/h | 7806m | 3.3m/s | 0°C | 0% | 0hPa | 0V | 00:00:00 | 00:00:00 | 00:00:00 | |
| ATIDSZ-14 | 2026-09-01 05:34:11 | 48.58035 | 17.82000 | 93° | 97km/h | 7802m | 4.1m/s | -28.1°C | 0% | 0hPa | 0V | 00:00:00 | 00:00:00 | 00:00:00 | |
| OE3JTB-15 | 2026-09-01 05:34:04 | 48.58040 | 17.81748 | 92° | 93km/h | 7779m | 3.7m/s | 0°C | 0% | 0hPa | 0V | 00:00:00 | 00:00:00 | 00:00:00 | |
| OM5KV | 2026-09-01 05:34:01 | 48.58044 | 17.81642 | 92° | 91km/h | 7769m | 3.4m/s | -27.9°C | 0% | 0hPa | 0V | 00:00:00 | 00:00:00 | 00:00:00 | |
| PETON7-10 | 2026-09-01 05:33:58 | 48.58045 | 17.81536 | 92° | 93km/h | 7756m | 3.2m/s | 0°C | 0% | 0hPa | 0V | 00:00:00 | 00:00:00 | 00:00:00 | |
| OM5KV | 2026-09-01 05:33:55 | 48.58049 | 17.81429 | 95° | 93km/h | 7749m | 4.0m/s | -27.8°C | 0% | 0hPa | 0V | 00:00:00 | 00:00:00 | 00:00:00 | |
| OM5KV | 2026-09-01 05:33:53 | 48.58055 | 17.81286 | 94° | 95km/h | 7735m | 2.6m/s | -27.7°C | 0% | 0hPa | 0V | 00:00:00 | 00:00:00 | 00:00:00 | |
| ATIDSZ-14 | 2026-09-01 05:33:51 | 48.58055 | 17.81286 | 94° | 95km/h | 7735m | 2.6m/s | -27.7°C | 0% | 0hPa | 0V | 00:00:00 | 00:00:00 | 00:00:00 | |
| PETON7-10 | 2026-09-01 05:33:43 | 48.58064 | 17.81001 | 93° | 95km/h | 7705m | 3.9m/s | 0°C | 0% | 0hPa | 0V | 00:00:00 | 00:00:00 | 00:00:00 | |
| OM5KV | 2026-09-01 05:33:41 | 48.58065 | 17.80930 | 93° | 91km/h | 7702m | 2.7m/s | -27.4°C | 0% | 0hPa | 0V | 00:00:00 | 00:00:00 | 00:00:00 | |
| OE3JTB-15 | 2026-09-01 05:33:35 | 48.58070 | 17.80714 | 93° | 93km/h | 7679m | 3.0m/s | 0°C | 0% | 0hPa | 0V | 00:00:00 | 00:00:00 | 00:00:00 | |
| OM5KV | 2026-09-01 05:33:34 | 48.58071 | 17.80678 | 95° | 93km/h | 7679m | 3.0m/s | -27.2°C | 0% | 0hPa | 0V | 00:00:00 | 00:00:00 | 00:00:00 | |
| OM5KV | 2026-09-01 05:33:32 | 48.58073 | 17.80607 | 93° | 93km/h | 7672m | 3.4m/s | -27.2°C | 0% | 0hPa | 0V | 00:00:00 | 00:00:00 | 00:00:00 | |
| ATIDSZ-14 | 2026-09-01 05:33:30 | 48.58075 | 17.80535 | 92° | 97km/h | 7665m | 4.1m/s | -27.2°C | 0% | 0hPa | 0V | 00:00:00 | 00:00:00 | 00:00:00 | |
| PETON7-10 | 2026-09-01 05:33:28 | 48.58075 | 17.80462 | 90° | 93km/h | 7655m | 2.9m/s | 0°C | 0% | 0hPa | 0V | 00:00:00 | 00:00:00 | 00:00:00 | |
| OM5KV | 2026-09-01 05:33:26 | 48.58077 | 17.80391 | 96° | 91km/h | 7651m | 3.2m/s | -27.0°C | 0% | 0hPa | 0V | 00:00:00 | 00:00:00 | 00:00:00 | |
| OM5KV | 2026-09-01 05:33:20 | 48.58081 | 17.80181 | 93° | 95km/h | 7632m | 4.1m/s | -26.9°C | 0% | 0hPa | 0V | 00:00:00 | 00:00:00 | 00:00:00 | |
| OM5KV | 2026-09-01 05:33:19 | 48.58083 | 17.80145 | 95° | 93km/h | 7629m | 3.2m/s | -26.9°C | 0% | 0hPa | 0V | 00:00:00 | 00:00:00 | 00:00:00 | |
| OM5KV | 2026-09-01 05:33:14 | 48.58091 | 17.79967 | 94° | 97km/h | 7612m | 3.7m/s | -26.8°C | 0% | 0hPa | 0V | 00:00:00 | 00:00:00 | 00:00:00 | |
| PETON7-10 | 2026-09-01 05:33:13 | 48.58092 | 17.79930 | 92° | 95km/h | 7605m | 3.4m/s | 0°C | 0% | 0hPa | 0V | 00:00:00 | 00:00:00 | 00:00:00 | |
| ATIDSZ-14 | 2026-09-01 05:33:10 | 48.58097 | 17.79817 | 95° | 97km/h | 7599m | 3.0m/s | -26.6°C | 0% | 0hPa | 0V | 00:00:00 | 00:00:00 | 00:00:00 | |
| OM5KV | 2026-09-01 05:33:08 | 48.58101 | 17.79747 | 97° | 88km/h | 7592m | 2.8m/s | -26.4°C | 0% | 0hPa | 0V | 00:00:00 | 00:00:00 | 00:00:00 | |
| OE3JTB-15 | 2026-09-01 05:33:05 | 48.58104 | 17.79642 | 92° | 95km/h | 7579m | 2.9m/s | 0°C | 0% | 0hPa | 0V | 00:00:00 | 00:00:00 | 00:00:00 | |
| OM5KV | 2026-09-01 05:33:00 | 48.58112 | 17.79459 | 96° | 93km/h | 7567m | 2.7m/s | -26.3°C | 0% | 0hPa | 0V | 00:00:00 | 00:00:00 | 00:00:00 | |
| PETON7-10 | 2026-09-01 05:32:58 | 48.58116 | 17.79388 | 95° | 95km/h | 7557m | 3.1m/s | 0°C | 0% | 0hPa | 0V | 00:00:00 | 00:00:00 | 00:00:00 | |
| S52SK | 2026-09-01 05:32:56 | 48.58119 | 17.79317 | 96° | 91km/h | 7554m | 3.0m/s | -26.3°C | 0% | 0hPa | 0V | 00:00:00 | 00:00:00 | 00:00:00 | |
| OM5KV | 2026-09-01 05:32:55 | 48.58121 | 17.79282 | 96° | 91km/h | 7551m | 3.1m/s | -26.2°C | 0% | 0hPa | 0V | 00:00:00 | 00:00:00 | 00:00:00 | |
| OM5KV | 2026-09-01 05:32:54 | 48.58123 | 17.79246 | 97° | 97km/h | 7547m | 2.9m/s | -26.2°C | 0% | 0hPa | 0V | 00:00:00 | 00:00:00 | 00:00:00 | |
| ATIDSZ-14 | 2026-09-01 05:32:49 | 48.58133 | 17.79064 | 96° | 95km/h | 7532m | 3.2m/s | -26.1°C | 0% | 0hPa | 0V | 00:00:00 | 00:00:00 | 00:00:00 | |
| OM5KV | 2026-09-01 05:32:46 | 48.58140 | 17.78921 | 95° | 97km/h | 7519m | 4.0m/s | -26.0°C | 0% | 0hPa | 0V | 00:00:00 | 00:00:00 | 00:00:00 | |
| OM5KV | 2026-09-01 05:32:44 | 48.58143 | 17.78884 | 94° | 95km/h | 7516m | 2.2m/s | -25.9°C | 0% | 0hPa | 0V | 00:00:00 | 00:00:00 | 00:00:00 | |
| PETON7-10 | 2026-09-01 05:32:43 | 48.58145 | 17.78848 | 94° | 95km/h | 7510m | 2.5m/s | 0°C | 0% | 0hPa | 0V | 00:00:00 | 00:00:00 | 00:00:00 | |
| OM5KV | 2026-09-01 05:32:40 | 48.58151 | 17.78740 | 97° | 89km/h | 7503m | 2.6m/s | -25.8°C | 0% | 0hPa | 0V | 00:00:00 | 00:00:00 | 00:00:00 | |
| OE3JTB-15 | 2026-09-01 05:32:35 | 48.58162 | 17.78560 | 94° | 95km/h | 7484m | 3.3m/s | 0°C | 0% | 0hPa | 0V | 00:00:00 | 00:00:00 | 00:00:00 | |
| OM5KV | 2026-09-01 05:32:33 | 48.58167 | 17.78485 | 99° | 99km/h | 7482m | 2.5m/s | -25.7°C | 0% | 0hPa | 0V | 00:00:00 | 00:00:00 | 00:00:00 | |
| PETON7-10 | 2026-09-01 05:32:28 | 48.58177 | 17.78309 | 96° | 95km/h | 7462m | 3.5m/s | 0°C | 0% | 0hPa | 0V | 00:00:00 | 00:00:00 | 00:00:00 | |
| OM5KV | 2026-09-01 05:32:23 | 48.58188 | 17.78130 | 95° | 95km/h | 7449m | 3.3m/s | -25.4°C | 0% | 0hPa | 0V | 00:00:00 | 00:00:00 | 00:00:00 | |
| OM5KV | 2026-09-01 05:32:18 | 48.58200 | 17.77951 | 98° | 95km/h | 7432m | 2.8m/s | -25.2°C | 0% | 0hPa | 0V | 00:00:00 | 00:00:00 | 00:00:00 | |
| OM5KV | 2026-09-01 05:32:16 | 48.58205 | 17.77879 | 94° | 95km/h | 7425m | 2.5m/s | -25.2°C | 0% | 0hPa | 0V | 00:00:00 | 00:00:00 | 00:00:00 | |
| PETON7-10 | 2026-09-01 05:32:13 | 48.58211 | 17.77772 | 96° | 93km/h | 7413m | 2.6m/s | 0°C | 0% | 0hPa | 0V | 00:00:00 | 00:00:00 | 00:00:00 | |
| OM5KV | 2026-09-01 05:32:12 | 48.58213 | 17.77737 | 98° | 91km/h | 7413m | 2.7m/s | -25.0°C | 0% | 0hPa | 0V | 00:00:00 | 00:00:00 | 00:00:00 | |
| OM5KV | 2026-09-01 05:32:10 | 48.58220 | 17.77666 | 99° | 95km/h | 7406m | 3.4m/s | -25.0°C | 0% | 0hPa | 0V | 00:00:00 | 00:00:00 | 00:00:00 | |
| ATIDSZ-14 | 2026-09-01 05:32:08 | 48.58224 | 17.77595 | 95° | 93km/h | 7400m | 3.0m/s | -25.0°C | 0% | 0hPa | 0V | 00:00:00 | 00:00:00 | 00:00:00 | |
| OE3JTB-15 | 2026-09-01 05:32:06 | 48.58228 | 17.77523 | 96° | 93km/h | 7391m | 3.5m/s | 0°C | 0% | 0hPa | 0V | 00:00:00 | 00:00:00 | 00:00:00 | |
| OM5KV | 2026-09-01 05:32:04 | 48.58232 | 17.77451 | 96° | 93km/h | 7387m | 3.8m/s | -25.0°C | 0% | 0hPa | 0V | 00:00:00 | 00:00:00 | 00:00:00 | |
| OM5KV | 2026-09-01 05:32:01 | 48.58244 | 17.77310 | 100° | 95km/h | 7374m | 3.0m/s | -24.8°C | 0% | 0hPa | 0V | 00:00:00 | 00:00:00 | 00:00:00 | |
| S52SK | 2026-09-01 05:32:00 | 48.58244 | 17.77310 | 100° | 95km/h | 7374m | 3.0m/s | -24.8°C | 0% | 0hPa | 0V | 00:00:00 | 00:00:00 | 00:00:00 | |
| OM5KV | 2026-09-01 05:31:59 | 48.58248 | 17.77274 | 99° | 93km/h | 7371m | 3.5m/s | -24.9°C | 0% | 0hPa | 0V | 00:00:00 | 00:00:00 | 00:00:00 | |
| PETON7-10 | 2026-09-01 05:31:58 | 48.58251 | 17.77239 | 97° | 93km/h | 7364m | 3.7m/s | 0°C | 0% | 0hPa | 0V | 00:00:00 | 00:00:00 | 00:00:00 | |
| OM5KV | 2026-09-01 05:31:54 | 48.58258 | 17.77094 | 95° | 93km/h | 7353m | 2.9m/s | -24.6°C | 0% | 0hPa | 0V | 00:00:00 | 00:00:00 | 00:00:00 | |
| OM5KV | 2026-09-01 05:31:53 | 48.58260 | 17.77058 | 97° | 95km/h | 7350m | 4.0m/s | -24.6°C | 0% | 0hPa | 0V | 00:00:00 | 00:00:00 | 00:00:00 | |
| OM5KV | 2026-09-01 05:31:48 | 48.58274 | 17.76842 | 98° | 91km/h | 7328m | 3.4m/s | -24.5°C | 0% | 0hPa | 0V | 00:00:00 | 00:00:00 | 00:00:00 | |
| ATIDSZ-14 | 2026-09-01 05:31:47 | 48.58274 | 17.76842 | 98° | 91km/h | 7328m | 3.4m/s | -24.5°C | 0% | 0hPa | 0V | 00:00:00 | 00:00:00 | 00:00:00 | |
| OM5KV | 2026-09-01 05:31:42 | 48.58286 | 17.76669 | 96° | 93km/h | 7312m | 3.1m/s | -24.3°C | 0% | 0hPa | 0V | 00:00:00 | 00:00:00 | 00:00:00 | |
| OE3JTB-15 | 2026-09-01 05:31:37 | 48.58296 | 17.76490 | 95° | 91km/h | 7291m | 3.2m/s | 0°C | 0% | 0hPa | 0V | 00:00:00 | 00:00:00 | 00:00:00 | |
| OM5KV | 2026-09-01 05:31:36 | 48.58298 | 17.76455 | 96° | 88km/h | 7291m | 3.2m/s | -24.1°C | 0% | 0hPa | 0V | 00:00:00 | 00:00:00 | 00:00:00 | |
| OM5KV | 2026-09-01 05:31:31 | 48.58311 | 17.76282 | 97° | 93km/h | 7273m | 4.1m/s | -24.0°C | 0% | 0hPa | 0V | 00:00:00 | 00:00:00 | 00:00:00 | |
| PETON7-10 | 2026-09-01 05:31:28 | 48.58317 | 17.76180 | 96° | 91km/h | 7259m | 3.2m/s | 0°C | 0% | 0hPa | 0V | 00:00:00 | 00:00:00 | 00:00:00 | |
| ATIDSZ-14 | 2026-09-01 05:31:27 | 48.58319 | 17.76146 | 97° | 89km/h | 7259m | 3.3m/s | -24.0°C | 0% | 0hPa | 0V | 00:00:00 | 00:00:00 | 00:00:00 | |
| OM5KV | 2026-09-01 05:31:25 | 48.58324 | 17.76078 | 98° | 89km/h | 7251m | 4.3m/s | -24.0°C | 0% | 0hPa | 0V | 00:00:00 | 00:00:00 | 00:00:00 | |
| OM5KV | 2026-09-01 05:31:19 | 48.58336 | 17.75867 | 95° | 91km/h | 7230m | 3.4m/s | -23.8°C | 0% | 0hPa | 0V | 00:00:00 | 00:00:00 | 00:00:00 | |
| OM5KV | 2026-09-01 05:31:14 | 48.58347 | 17.75695 | 97° | 91km/h | 7212m | 3.8m/s | -23.6°C | 0% | 0hPa | 0V | 00:00:00 | 00:00:00 | 00:00:00 | |
| PETON7-10 | 2026-09-01 05:31:12 | 48.58351 | 17.75626 | 97° | 93km/h | 7201m | 2.2m/s | 0°C | 0% | 0hPa | 0V | 00:00:00 | 00:00:00 | 00:00:00 | |
| OE3JTB-15 | 2026-09-01 05:31:08 | 48.58361 | 17.75486 | 94° | 93km/h | 7186m | 3.0m/s | 0°C | 0% | 0hPa | 0V | 00:00:00 | 00:00:00 | 00:00:00 | |
| ATIDSZ-14 | 2026-09-01 05:31:06 | 48.58367 | 17.75414 | 99° | 95km/h | 7183m | 4.2m/s | -23.5°C | 0% | 0hPa | 0V | 00:00:00 | 00:00:00 | 00:00:00 | |
| S52SK | 2026-09-01 05:31:03 | 48.58374 | 17.75311 | 99° | 88km/h | 7171m | 4.3m/s | -23.3°C | 0% | 0hPa | 0V | 00:00:00 | 00:00:00 | 00:00:00 | |
| OM5KV | 2026-09-01 05:31:02 | 48.58377 | 17.75277 | 99° | 89km/h | 7167m | 3.3m/s | -23.2°C | 0% | 0hPa | 0V | 00:00:00 | 00:00:00 | 00:00:00 | |
| PETON7-10 | 2026-09-01 05:30:57 | 48.58390 | 17.75097 | 95° | 93km/h | 7145m | 4.0m/s | 0°C | 0% | 0hPa | 0V | 00:00:00 | 00:00:00 | 00:00:00 | |
| OM5KV | 2026-09-01 05:30:55 | 48.58395 | 17.75027 | 99° | 91km/h | 7141m | 3.3m/s | -23.1°C | 0% | 0hPa | 0V | 00:00:00 | 00:00:00 | 00:00:00 | |
| OM5KV | 2026-09-01 05:30:54 | 48.58398 | 17.74992 | 97° | 91km/h | 7137m | 3.7m/s | -23.0°C | 0% | 0hPa | 0V | 00:00:00 | 00:00:00 | 00:00:00 | |
| OM5KV | 2026-09-01 05:30:48 | 48.58415 | 17.74777 | 99° | 91km/h | 7114m | 3.6m/s | -22.9°C | 0% | 0hPa | 0V | 00:00:00 | 00:00:00 | 00:00:00 | |
| ATIDSZ-14 | 2026-09-01 05:30:46 | 48.58421 | 17.74709 | 98° | 89km/h | 7107m | 3.9m/s | -22.8°C | 0% | 0hPa | 0V | 00:00:00 | 00:00:00 | 00:00:00 | |
| PETON7-10 | 2026-09-01 05:30:42 | 48.58434 | 17.74569 | 99° | 93km/h | 7088m | 3.1m/s | 0°C | 0% | 0hPa | 0V | 00:00:00 | 00:00:00 | 00:00:00 | |
| OE3JTB-15 | 2026-09-01 05:30:39 | 48.58444 | 17.74461 | 97° | 95km/h | 7079m | 3.2m/s | 0°C | 0% | 0hPa | 0V | 00:00:00 | 00:00:00 | 00:00:00 | |
| OM5KV | 2026-09-01 05:30:38 | 48.58447 | 17.74427 | 98° | 89km/h | 7075m | 4.8m/s | -22.5°C | 0% | 0hPa | 0V | 00:00:00 | 00:00:00 | 00:00:00 | |
| OM5KV | 2026-09-01 05:30:37 | 48.58450 | 17.74392 | 100° | 93km/h | 7072m | 3.0m/s | -22.4°C | 0% | 0hPa | 0V | 00:00:00 | 00:00:00 | 00:00:00 | |
| OM5KV | 2026-09-01 05:30:29 | 48.58475 | 17.74106 | 99° | 89km/h | 7040m | 4.4m/s | -22.1°C | 0% | 0hPa | 0V | 00:00:00 | 00:00:00 | 00:00:00 | |
| PETON7-10 | 2026-09-01 05:30:27 | 48.58481 | 17.74037 | 99° | 95km/h | 7028m | 4.3m/s | 0°C | 0% | 0hPa | 0V | 00:00:00 | 00:00:00 | 00:00:00 | |
| ATIDSZ-14 | 2026-09-01 05:30:25 | 48.58488 | 17.73962 | 98° | 99km/h | 7024m | 3.5m/s | -22.0°C | 0% | 0hPa | 0V | 00:00:00 | 00:00:00 | 00:00:00 | |
| OM5KV | 2026-09-01 05:30:22 | 48.58498 | 17.73854 | 99° | 91km/h | 7013m | 4.1m/s | -21.8°C | 0% | 0hPa | 0V | 00:00:00 | 00:00:00 | 00:00:00 | |
| OM5KV | 2026-09-01 05:30:21 | 48.58501 | 17.73819 | 99° | 89km/h | 7009m | 3.9m/s | -21.8°C | 0% | 0hPa | 0V | 00:00:00 | 00:00:00 | 00:00:00 | |
| PETON7-10 | 2026-09-01 05:30:12 | 48.58531 | 17.73502 | 99° | 95km/h | 6969m | 4.3m/s | 0°C | 0% | 0hPa | 0V | 00:00:00 | 00:00:00 | 00:00:00 | |
| OE3JTB-15 | 2026-09-01 05:30:10 | 48.58537 | 17.73428 | 97° | 95km/h | 6960m | 3.8m/s | 0°C | 0% | 0hPa | 0V | 00:00:00 | 00:00:00 | 00:00:00 | |
| OM5KV | 2026-09-01 05:30:08 | 48.58543 | 17.73354 | 97° | 95km/h | 6956m | 4.8m/s | -21.4°C | 0% | 0hPa | 0V | 00:00:00 | 00:00:00 | 00:00:00 | |
| S52SK | 2026-09-01 05:30:07 | 48.58546 | 17.73319 | 97° | 91km/h | 6952m | 3.8m/s | -21.3°C | 0% | 0hPa | 0V | 00:00:00 | 00:00:00 | 00:00:00 | |
| ATIDSZ-14 | 2026-09-01 05:30:05 | 48.58553 | 17.73249 | 100° | 95km/h | 6944m | 3.0m/s | -21.2°C | 0% | 0hPa | 0V | 00:00:00 | 00:00:00 | 00:00:00 | |
| OM5KV | 2026-09-01 05:30:04 | 48.58556 | 17.73213 | 99° | 95km/h | 6940m | 4.8m/s | -21.2°C | 0% | 0hPa | 0V | 00:00:00 | 00:00:00 | 00:00:00 | |
| OM5KV | 2026-09-01 05:29:58 | 48.58575 | 17.72998 | 99° | 93km/h | 6914m | 4.3m/s | -21.0°C | 0% | 0hPa | 0V | 00:00:00 | 00:00:00 | 00:00:00 | |
| PETON7-10 | 2026-09-01 05:29:57 | 48.58578 | 17.72963 | 98° | 95km/h | 6905m | 3.7m/s | 0°C | 0% | 0hPa | 0V | 00:00:00 | 00:00:00 | 00:00:00 | |
| OM5KV | 2026-09-01 05:29:52 | 48.58595 | 17.72785 | 99° | 93km/h | 6887m | 5.1m/s | -20.8°C | 0% | 0hPa | 0V | 00:00:00 | 00:00:00 | 00:00:00 | |
| OM5KV | 2026-09-01 05:29:50 | 48.58601 | 17.72714 | 96° | 95km/h | 6878m | 3.8m/s | -20.7°C | 0% | 0hPa | 0V | 00:00:00 | 00:00:00 | 00:00:00 | |
| OM5KV | 2026-09-01 05:29:46 | 48.58614 | 17.72566 | 98° | 99km/h | 6860m | 4.2m/s | -20.5°C | 0% | 0hPa | 0V | 00:00:00 | 00:00:00 | 00:00:00 | |
| ATIDSZ-14 | 2026-09-01 05:29:44 | 48.58619 | 17.72493 | 97° | 95km/h | 6852m | 4.2m/s | -20.4°C | 0% | 0hPa | 0V | 00:00:00 | 00:00:00 | 00:00:00 | |
| PETON7-10 | 2026-09-01 05:29:42 | 48.58623 | 17.72422 | 94° | 95km/h | 6839m | 3.8m/s | 0°C | 0% | 0hPa | 0V | 00:00:00 | 00:00:00 | 00:00:00 | |
| OE3JTB-15 | 2026-09-01 05:29:41 | 48.58625 | 17.72386 | 97° | 93km/h | 6839m | 3.8m/s | 0°C | 0% | 0hPa | 0V | 00:00:00 | 00:00:00 | 00:00:00 | |
| OM5KV | 2026-09-01 05:29:40 | 48.58628 | 17.72351 | 99° | 93km/h | 6835m | 4.9m/s | -20.2°C | 0% | 0hPa | 0V | 00:00:00 | 00:00:00 | 00:00:00 | |
| OM5KV | 2026-09-01 05:29:39 | 48.58631 | 17.72316 | 98° | 93km/h | 6830m | 4.3m/s | -20.2°C | 0% | 0hPa | 0V | 00:00:00 | 00:00:00 | 00:00:00 | |
| OM5KV | 2026-09-01 05:29:33 | 48.58647 | 17.72097 | 96° | 91km/h | 6803m | 4.5m/s | -20.1°C | 0% | 0hPa | 0V | 00:00:00 | 00:00:00 | 00:00:00 | |
| PETON7-10 | 2026-09-01 05:29:27 | 48.58660 | 17.71881 | 97° | 91km/h | 6771m | 4.5m/s | 0°C | 0% | 0hPa | 0V | 00:00:00 | 00:00:00 | 00:00:00 | |
| ATIDSZ-14 | 2026-09-01 05:29:24 | 48.58666 | 17.71775 | 96° | 88km/h | 6762m | 5.4m/s | -19.7°C | 0% | 0hPa | 0V | 00:00:00 | 00:00:00 | 00:00:00 | |
| OM5KV | 2026-09-01 05:29:23 | 48.58669 | 17.71742 | 100° | 86km/h | 6757m | 4.0m/s | -19.7°C | 0% | 0hPa | 0V | 00:00:00 | 00:00:00 | 00:00:00 | |
| OM5KV | 2026-09-01 05:29:22 | 48.58673 | 17.71709 | 101° | 89km/h | 6753m | 4.6m/s | -19.7°C | 0% | 0hPa | 0V | 00:00:00 | 00:00:00 | 00:00:00 | |
| OM5KV | 2026-09-01 05:29:17 | 48.58689 | 17.71499 | 99° | 89km/h | 6724m | 4.9m/s | -19.5°C | 0% | 0hPa | 0V | 00:00:00 | 00:00:00 | 00:00:00 | |
| PETON7-10 | 2026-09-01 05:29:12 | 48.58702 | 17.71363 | 96° | 89km/h | 6700m | 4.7m/s | 0°C | 0% | 0hPa | 0V | 00:00:00 | 00:00:00 | 00:00:00 | |
| OM5KV | 2026-09-01 05:29:11 | 48.58704 | 17.71327 | 95° | 93km/h | 6700m | 4.8m/s | -19.3°C | 0% | 0hPa | 0V | 00:00:00 | 00:00:00 | 00:00:00 | |
| S52SK | 2026-09-01 05:29:10 | 48.58706 | 17.71292 | 97° | 91km/h | 6695m | 5.2m/s | -19.2°C | 0% | 0hPa | 0V | 00:00:00 | 00:00:00 | 00:00:00 | |
| OM5KV | 2026-09-01 05:29:05 | 48.58723 | 17.71127 | 99° | 88km/h | 6671m | 4.8m/s | -19.0°C | 0% | 0hPa | 0V | 00:00:00 | 00:00:00 | 00:00:00 | |
| ATIDSZ-14 | 2026-09-01 05:29:03 | 48.58729 | 17.71058 | 98° | 91km/h | 6660m | 4.4m/s | -18.9°C | 0% | 0hPa | 0V | 00:00:00 | 00:00:00 | 00:00:00 | |
| OM5KV | 2026-09-01 05:28:59 | 48.58741 | 17.70921 | 101° | 91km/h | 6640m | 5.7m/s | -18.7°C | 0% | 0hPa | 0V | 00:00:00 | 00:00:00 | 00:00:00 | |
| PETON7-10 | 2026-09-01 05:28:57 | 48.58747 | 17.70856 | 97° | 86km/h | 6625m | 4.7m/s | 0°C | 0% | 0hPa | 0V | 00:00:00 | 00:00:00 | 00:00:00 | |
| OM5KV | 2026-09-01 05:28:51 | 48.58766 | 17.70655 | 100° | 86km/h | 6601m | 5.9m/s | -18.4°C | 0% | 0hPa | 0V | 00:00:00 | 00:00:00 | 00:00:00 | |
| OM5KV | 2026-09-01 05:28:46 | 48.58782 | 17.70497 | 97° | 86km/h | 6577m | 4.7m/s | -18.2°C | 0% | 0hPa | 0V | 00:00:00 | 00:00:00 | 00:00:00 | |
| OM5KV | 2026-09-01 05:28:44 | 48.58786 | 17.70430 | 97° | 89km/h | 6568m | 4.3m/s | -18.1°C | 0% | 0hPa | 0V | 00:00:00 | 00:00:00 | 00:00:00 | |
| OE3JTB-15 | 2026-09-01 05:28:43 | 48.58789 | 17.70397 | 98° | 86km/h | 6563m | 5.6m/s | 0°C | 0% | 0hPa | 0V | 00:00:00 | 00:00:00 | 00:00:00 | |
| PETON7-10 | 2026-09-01 05:28:42 | 48.58792 | 17.70364 | 99° | 86km/h | 6553m | 5.0m/s | 0°C | 0% | 0hPa | 0V | 00:00:00 | 00:00:00 | 00:00:00 | |
| OM5KV | 2026-09-01 05:28:41 | 48.58795 | 17.70333 | 100° | 84km/h | 6553m | 5.1m/s | -18.0°C | 0% | 0hPa | 0V | 00:00:00 | 00:00:00 | 00:00:00 | |
| OM5KV | 2026-09-01 05:28:35 | 48.58812 | 17.70136 | 98° | 89km/h | 6523m | 5.2m/s | -17.8°C | 0% | 0hPa | 0V | 00:00:00 | 00:00:00 | 00:00:00 | |
| OM5KV | 2026-09-01 05:28:29 | 48.58824 | 17.69942 | 97° | 86km/h | 6493m | 4.2m/s | -17.5°C | 0% | 0hPa | 0V | 00:00:00 | 00:00:00 | 00:00:00 | |
| PETON7-10 | 2026-09-01 05:28:27 | 48.58828 | 17.69877 | 95° | 84km/h | 6478m | 4.2m/s | 0°C | 0% | 0hPa | 0V | 00:00:00 | 00:00:00 | 00:00:00 | |
| OM5KV | 2026-09-01 05:28:25 | 48.58830 | 17.69812 | 95° | 86km/h | 6473m | 5.1m/s | -17.3°C | 0% | 0hPa | 0V | 00:00:00 | 00:00:00 | 00:00:00 | |
| OM5KV | 2026-09-01 05:28:24 | 48.58832 | 17.69779 | 97° | 86km/h | 6468m | 4.9m/s | -17.2°C | 0% | 0hPa | 0V | 00:00:00 | 00:00:00 | 00:00:00 | |
| ATIDSZ-14 | 2026-09-01 05:28:22 | 48.58837 | 17.69716 | 97° | 82km/h | 6458m | 5.3m/s | -17.1°C | 0% | 0hPa | 0V | 00:00:00 | 00:00:00 | 00:00:00 | |
| OM5KV | 2026-09-01 05:28:20 | 48.58850 | 17.69492 | 98° | 82km/h | 6423m | 5.4m/s | -17.0°C | 0% | 0hPa | 0V | 00:00:00 | 00:00:00 | 00:00:00 | |
| OE3JTB-15 | 2026-09-01 05:28:14 | 48.58852 | 17.69460 | 96° | 82km/h | 6412m | 4.6m/s | 0°C | 0% | 0hPa | 0V | 00:00:00 | 00:00:00 | 00:00:00 | |
| PETON7-10 | 2026-09-01 05:28:12 | 48.58855 | 17.69399 | 92° | 82km/h | 6402m | 4.1m/s | 0°C | 0% | 0hPa | 0V | 00:00:00 | 00:00:00 | 00:00:00 | |
| OM5KV | 2026-09-01 05:28:10 | 48.58863 | 17.69240 | 97° | 86km/h | 6383m | 4.9m/s | -16.6°C | 0% | 0hPa | 0V | 00:00:00 | 00:00:00 | 00:00:00 | |
| OM5KV | 2026-09-01 05:28:09 | 48.58863 | 17.69240 | 97° | 86km/h | 6383m | 4.9m/s | -16.6°C | 0% | 0hPa | 0V | 00:00:00 | 00:00:00 | 00:00:00 | |
| OM5KV | 2026-09-01 05:28:03 | 48.58868 | 17.69117 | 90° | 80km/h | 6362m | 4.8m/s | -16.4°C | 0% | 0hPa | 0V | 00:00:00 | 00:00:00 | 00:00:00 | |
| ATIDSZ-14 | 2026-09-01 05:28:02 | 48.58868 | 17.69086 | 93° | 80km/h | 6358m | 4.7m/s | -16.3°C | 0% | 0hPa | 0V | 00:00:00 | 00:00:00 | 00:00:00 | |
| OM5KV | 2026-09-01 05:27:58 | 48.58875 | 17.68959 | 96° | 82km/h | 6337m | 5.0m/s | -16.1°C | 0% | 0hPa | 0V | 00:00:00 | 00:00:00 | 00:00:00 | |
| PETON7-10 | 2026-09-01 05:27:57 | 48.58877 | 17.68928 | 92° | 82km/h | 6328m | 3.8m/s | 0°C | 0% | 0hPa | 0V | 00:00:00 | 00:00:00 | 00:00:00 | |
| OM5KV | 2026-09-01 05:27:53 | 48.58880 | 17.68776 | 93° | 86km/h | 6309m | 4.2m/s | -15.9°C | 0% | 0hPa | 0V | 00:00:00 | 00:00:00 | 00:00:00 | |
| S52SK | 2026-09-01 05:27:51 | 48.58883 | 17.68712 | 95° | 82km/h | 6300m | 3.9m/s | -15.8°C | 0% | 0hPa | 0V | 00:00:00 | 00:00:00 | 00:00:00 | |
| OE3JTB-15 | 2026-09-01 05:27:45 | 48.58887 | 17.68554 | 94° | 80km/h | 6277m | 4.8m/s | 0°C | 0% | 0hPa | 0V | 00:00:00 | 00:00:00 | 00:00:00 | |
| PETON7-10 | 2026-09-01 05:27:41 | 48.58890 | 17.68433 | 90° | 80km/h | 6254m | 5.1m/s | 0°C | 0% | 0hPa | 0V | 00:00:00 | 00:00:00 | 00:00:00 | |
| OM5KV | 2026-09-01 05:27:37 | 48.58890 | 17.68308 | 93° | 82km/h | 6239m | 4.2m/s | -15.2°C | 0% | 0hPa | 0V | 00:00:00 | 00:00:00 | 00:00:00 | |
| OM5KV | 2026-09-01 05:27:31 | 48.58893 | 17.68122 | 92° | 80km/h | 6212m | 4.3m/s | -15.0°C | 0% | 0hPa | 0V | 00:00:00 | 00:00:00 | 00:00:00 | |
| OM5KV | 2026-09-01 05:27:30 | 48.58893 | 17.68092 | 92° | 82km/h | 6208m | 4.2m/s | -15.0°C | 0% | 0hPa | 0V | 00:00:00 | 00:00:00 | 00:00:00 | |
| PETON7-10 | 2026-09-01 05:27:26 | 48.58895 | 17.67969 | 92° | 80km/h | 6185m | 5.0m/s | 0°C | 0% | 0hPa | 0V | 00:00:00 | 00:00:00 | 00:00:00 | |
| OM5KV | 2026-09-01 05:27:24 | 48.58895 | 17.67907 | 92° | 77km/h | 6180m | 4.2m/s | -14.8°C | 0% | 0hPa | 0V | 00:00:00 | 00:00:00 | 00:00:00 | |
| ATIDSZ-14 | 2026-09-01 05:27:21 | 48.58896 | 17.67816 | 94° | 80km/h | 6166m | 5.0m/s | -14.7°C | 0% | 0hPa | 0V | 00:00:00 | 00:00:00 | 00:00:00 | |
| OM5KV | 2026-09-01 05:27:18 | 48.58899 | 17.67724 | 90° | 80km/h | 6151m | 5.1m/s | -14.6°C | 0% | 0hPa | 0V | 00:00:00 | 00:00:00 | 00:00:00 | |
| OE3JTB-15 | 2026-09-01 05:27:16 | 48.58897 | 17.67664 | 86° | 78km/h | 6138m | 3.5m/s | 0°C | 0% | 0hPa | 0V | 00:00:00 | 00:00:00 | 00:00:00 | |
| PETON7-10 | 2026-09-01 05:27:11 | 48.58900 | 17.67515 | 92° | 78km/h | 6115m | 5.4m/s | 0°C | 0% | 0hPa | 0V | 00:00:00 | 00:00:00 | 00:00:00 | |
| OM5KV | 2026-09-01 05:27:02 | 48.58903 | 17.67247 | 94° | 75km/h | 6079m | 3.8m/s | -14.0°C | 0% | 0hPa | 0V | 00:00:00 | 00:00:00 | 00:00:00 | |
| ATIDSZ-14 | 2026-09-01 05:27:00 | 48.58905 | 17.67188 | 93° | 82km/h | 6069m | 3.7m/s | -13.9°C | 0% | 0hPa | 0V | 00:00:00 | 00:00:00 | 00:00:00 | |
| PETON7-10 | 2026-09-01 05:26:56 | 48.58908 | 17.67069 | 98° | 78km/h | 6047m | 5.5m/s | 0°C | 0% | 0hPa | 0V | 00:00:00 | 00:00:00 | 00:00:00 | |
| OM5KV | 2026-09-01 05:26:55 | 48.58911 | 17.67010 | 94° | 80km/h | 6042m | 3.5m/s | -13.7°C | 0% | 0hPa | 0V | 00:00:00 | 00:00:00 | 00:00:00 | |
| S52SK | 2026-09-01 05:26:53 | 48.58914 | 17.66980 | 94° | 77km/h | 6038m | 5.2m/s | -13.7°C | 0% | 0hPa | 0V | 00:00:00 | 00:00:00 | 00:00:00 | |
| OM5KV | 2026-09-01 05:26:48 | 48.58923 | 17.66833 | 98° | 78km/h | 6015m | 4.0m/s | -13.6°C | 0% | 0hPa | 0V | 00:00:00 | 00:00:00 | 00:00:00 | |
| OE3JTB-15 | 2026-09-01 05:26:47 | 48.58925 | 17.66803 | 96° | 73km/h | 6010m | 4.4m/s | 0°C | 0% | 0hPa | 0V | 00:00:00 | 00:00:00 | 00:00:00 | |
| OM5KV | 2026-09-01 05:26:43 | 48.58932 | 17.66685 | 95° | 77km/h | 5993m | 3.9m/s | -13.6°C | 0% | 0hPa | 0V | 00:00:00 | 00:00:00 | 00:00:00 | |
| PETON7-10 | 2026-09-01 05:26:41 | 48.58935 | 17.66627 | 96° | 75km/h | 5980m | 3.9m/s | 0°C | 0% | 0hPa | 0V | 00:00:00 | 00:00:00 | 00:00:00 | |
| ATIDSZ-14 | 2026-09-01 05:26:39 | 48.58938 | 17.66570 | 94° | 75km/h | 5976m | 4.1m/s | -13.6°C | 0% | 0hPa | 0V | 00:00:00 | 00:00:00 | 00:00:00 | |
| OM5KV | 2026-09-01 05:26:37 | 48.58940 | 17.66512 | 94° | 77km/h | 5968m | 4.7m/s | -13.6°C | 0% | 0hPa | 0V | 00:00:00 | 00:00:00 | 00:00:00 | |
| OM5KV | 2026-09-01 05:26:35 | 48.58943 | 17.66451 | 96° | 78km/h | 5959m | 3.6m/s | -13.6°C | 0% | 0hPa | 0V | 00:00:00 | 00:00:00 | 00:00:00 | |
| OM5KV | 2026-09-01 05:26:31 | 48.58951 | 17.66315 | 94° | 71km/h | 5940m | 3.9m/s | -13.6°C | 0% | 0hPa | 0V | 00:00:00 | 00:00:00 | 00:00:00 | |
| OM5KV | 2026-09-01 05:26:29 | 48.58952 | 17.66287 | 93° | 75km/h | 5936m | 3.8m/s | -13.5°C | 0% | 0hPa | 0V | 00:00:00 | 00:00:00 | 00:00:00 | |
| PETON7-10 | 2026-09-01 05:26:26 | 48.58955 | 17.66204 | 94° | 69km/h | 5921m | 3.9m/s | 0°C | 0% | 0hPa | 0V | 00:00:00 | 00:00:00 | 00:00:00 | |
| ATIDSZ-14 | 2026-09-01 05:26:19 | 48.58961 | 17.66017 | 93° | 68km/h | 5898m | 4.4m/s | -13.5°C | 0% | 0hPa | 0V | 00:00:00 | 00:00:00 | 00:00:00 | |
| OE3JTB-15 | 2026-09-01 05:26:18 | 48.58962 | 17.65991 | 93° | 68km/h | 5891m | 3.8m/s | 0°C | 0% | 0hPa | 0V | 00:00:00 | 00:00:00 | 00:00:00 | |
| OM5KV | 2026-09-01 05:26:17 | 48.58962 | 17.65965 | 92° | 68km/h | 5891m | 3.9m/s | -13.5°C | 0% | 0hPa | 0V | 00:00:00 | 00:00:00 | 00:00:00 | |
| PETON7-10 | 2026-09-01 05:26:11 | 48.58964 | 17.65810 | 99° | 68km/h | 5865m | 4.8m/s | 0°C | 0% | 0hPa | 0V | 00:00:00 | 00:00:00 | 00:00:00 | |
| OM5KV | 2026-09-01 05:26:07 | 48.58963 | 17.65702 | 86° | 69km/h | 5852m | 5.1m/s | -13.2°C | 0% | 0hPa | 0V | 00:00:00 | 00:00:00 | 00:00:00 | |
| OM5KV | 2026-09-01 05:26:06 | 48.58962 | 17.65677 | 92° | 64km/h | 5847m | 4.4m/s | -13.2°C | 0% | 0hPa | 0V | 00:00:00 | 00:00:00 | 00:00:00 | |
| OM5KV | 2026-09-01 05:26:01 | 48.58960 | 17.65553 | 89° | 66km/h | 5817m | 3.8m/s | -13.0°C | 0% | 0hPa | 0V | 00:00:00 | 00:00:00 | 00:00:00 | |
| ATIDSZ-14 | 2026-09-01 05:25:58 | 48.58960 | 17.65476 | 93° | 64km/h | 5817m | 3.8m/s | -12.9°C | 0% | 0hPa | 0V | 00:00:00 | 00:00:00 | 00:00:00 | |
| S52SK | 2026-09-01 05:25:57 | 48.58960 | 17.65452 | 92° | 64km/h | 5814m | 2.3m/s | -12.9°C | 0% | 0hPa | 0V | 00:00:00 | 00:00:00 | 00:00:00 | |
| PETON7-10 | 2026-09-01 05:25:56 | 48.58960 | 17.65427 | 87° | 68km/h | 5808m | 2.3m/s | 0°C | 0% | 0hPa | 0V | 00:00:00 | 00:00:00 | 00:00:00 | |
| OE3JTB-15 | 2026-09-01 05:25:49 | 48.58953 | 17.65245 | 85° | 68km/h | 5785m | 3.1m/s | 0°C | 0% | 0hPa | 0V | 00:00:00 | 00:00:00 | 00:00:00 | |
| OM5KV | 2026-09-01 05:25:44 | 48.58944 | 17.65118 | 89° | 66km/h | 5771m | 3.5m/s | -12.5°C | 0% | 0hPa | 0V | 00:00:00 | 00:00:00 | 00:00:00 | |
| PETON7-10 | 2026-09-01 05:25:41 | 48.58943 | 17.65043 | 87° | 69km/h | 5759m | 3.5m/s | 0°C | 0% | 0hPa | 0V | 00:00:00 | 00:00:00 | 00:00:00 | |
| ATIDSZ-14 | 2026-09-01 05:25:38 | 48.58937 | 17.64967 | 86° | 69km/h | 5752m | 3.7m/s | -12.4°C | 0% | 0hPa | 0V | 00:00:00 | 00:00:00 | 00:00:00 | |
| OM5KV | 2026-09-01 05:25:34 | 48.58925 | 17.64728 | 84° | 69km/h | 5741m | 3.5m/s | -12.3°C | 0% | 0hPa | 0V | 00:00:00 | 00:00:00 | 00:00:00 | |
| PETON7-10 | 2026-09-01 05:25:26 | 48.58918 | 17.64650 | 82° | 69km/h | 5716m | 2.4m/s | 0°C | 0% | 0hPa | 0V | 00:00:00 | 00:00:00 | 00:00:00 | |
| OM5KV | 2026-09-01 05:25:25 | 48.58916 | 17.64623 | 84° | 71km/h | 5716m | 2.4m/s | -12.4°C | 0% | 0hPa | 0V | 00:00:00 | 00:00:00 | 00:00:00 | |
| OE3JTB-15 | 2026-09-01 05:25:20 | 48.58908 | 17.64491 | 83° | 68km/h | 5701m | 2.2m/s | 0°C | 0% | 0hPa | 0V | 00:00:00 | 00:00:00 | 00:00:00 | |
| ATIDSZ-14 | 2026-09-01 05:25:17 | 48.58900 | 17.64413 | 85° | 71km/h | 5696m | 2.7m/s | -12.4°C | 0% | 0hPa | 0V | 00:00:00 | 00:00:00 | 00:00:00 | |
| OM5KV | 2026-09-01 05:25:12 | 48.58893 | 17.64282 | 88° | 64km/h | 5683m | 3.5m/s | -12.4°C | 0% | 0hPa | 0V | 00:00:00 | 00:00:00 | 00:00:00 | |
| PETON7-10 | 2026-09-01 05:25:11 | 48.58892 | 17.64257 | 81° | 68km/h | 5679m | 2.6m/s | 0°C | 0% | 0hPa | 0V | 00:00:00 | 00:00:00 | 00:00:00 | |
| ATIDSZ-14 | 2026-09-01 05:24:57 | 48.58878 | 17.63893 | 90° | 68km/h | 5651m | 2.6m/s | -12.2°C | 0% | 0hPa | 0V | 00:00:00 | 00:00:00 | 00:00:00 | |
| PETON7-10 | 2026-09-01 05:24:56 | 48.58877 | 17.63868 | 87° | 66km/h | 5647m | 2.3m/s | 0°C | 0% | 0hPa | 0V | 00:00:00 | 00:00:00 | 00:00:00 | |
| OE3JTB-15 | 2026-09-01 05:24:51 | 48.58871 | 17.63745 | 86° | 68km/h | 5638m | 1.1m/s | 0°C | 0% | 0hPa | 0V | 00:00:00 | 00:00:00 | 00:00:00 | |
| OM5KV | 2026-09-01 05:24:41 | 48.58870 | 17.63489 | 89° | 64km/h | 5623m | 0.9m/s | -12.5°C | 0% | 0hPa | 0V | 00:00:00 | 00:00:00 | 00:00:00 | |
| PETON7-10 | 2026-09-01 05:24:40 | 48.58870 | 17.63464 | 88° | 68km/h | 5619m | 0.8m/s | 0°C | 0% | 0hPa | 0V | 00:00:00 | 00:00:00 | 00:00:00 | |
| OM5KV | 2026-09-01 05:24:39 | 48.58869 | 17.63439 | 89° | 68km/h | 5619m | 0.9m/s | -12.6°C | 0% | 0hPa | 0V | 00:00:00 | 00:00:00 | 00:00:00 | |
| ATIDSZ-14 | 2026-09-01 05:24:36 | 48.58868 | 17.63364 | 91° | 66km/h | 5614m | 2.2m/s | -12.7°C | 0% | 0hPa | 0V | 00:00:00 | 00:00:00 | 00:00:00 | |
| OM5KV | 2026-09-01 05:24:32 | 48.58870 | 17.63257 | 89° | 69km/h | 5607m | 2.1m/s | -12.7°C | 0% | 0hPa | 0V | 00:00:00 | 00:00:00 | 00:00:00 | |
| OM5KV | 2026-09-01 05:24:26 | 48.58868 | 17.63104 | 90° | 69km/h | 5597m | 1.6m/s | -12.7°C | 0% | 0hPa | 0V | 00:00:00 | 00:00:00 | 00:00:00 | |
| PETON7-10 | 2026-09-01 05:24:25 | 48.58868 | 17.63078 | 91° | 69km/h | 5593m | 0.4m/s | 0°C | 0% | 0hPa | 0V | 00:00:00 | 00:00:00 | 00:00:00 | |
| OE3JTB-15 | 2026-09-01 05:24:22 | 48.58870 | 17.63002 | 91° | 71km/h | 5590m | 0.6m/s | 0°C | 0% | 0hPa | 0V | 00:00:00 | 00:00:00 | 00:00:00 | |
| OM5KV | 2026-09-01 05:24:20 | 48.58870 | 17.62951 | 89° | 71km/h | 5587m | 1.5m/s | -12.7°C | 0% | 0hPa | 0V | 00:00:00 | 00:00:00 | 00:00:00 | |
| ATIDSZ-14 | 2026-09-01 05:24:16 | 48.58867 | 17.62845 | 94° | 64km/h | 5583m | 2.0m/s | -12.7°C | 0% | 0hPa | 0V | 00:00:00 | 00:00:00 | 00:00:00 | |
| OM5KV | 2026-09-01 05:24:12 | 48.58868 | 17.62740 | 90° | 71km/h | 5577m | 2.1m/s | -12.7°C | 0% | 0hPa | 0V | 00:00:00 | 00:00:00 | 00:00:00 | |
| PETON7-10 | 2026-09-01 05:24:10 | 48.58865 | 17.62685 | 85° | 71km/h | 5573m | 1.0m/s | 0°C | 0% | 0hPa | 0V | 00:00:00 | 00:00:00 | 00:00:00 | |
| PETON7-10 | 2026-09-01 05:23:55 | 48.58859 | 17.62270 | 88° | 75km/h | 5560m | 1.5m/s | 0°C | 0% | 0hPa | 0V | 00:00:00 | 00:00:00 | 00:00:00 | |
| OE3JTB-15 | 2026-09-01 05:23:53 | 48.58858 | 17.62214 | 90° | 77km/h | 5559m | 0.9m/s | 0°C | 0% | 0hPa | 0V | 00:00:00 | 00:00:00 | 00:00:00 | |
| OM5KV | 2026-09-01 05:23:52 | 48.58858 | 17.62186 | 93° | 75km/h | 5559m | 0.9m/s | -12.7°C | 0% | 0hPa | 0V | 00:00:00 | 00:00:00 | 00:00:00 | |
| PETON7-10 | 2026-09-01 05:23:40 | 48.58855 | 17.61844 | 88° | 78km/h | 5553m | -1.1m/s | 0°C | 0% | 0hPa | 0V | 00:00:00 | 00:00:00 | 00:00:00 | |
| ATIDSZ-14 | 2026-09-01 05:23:35 | 48.58853 | 17.61692 | 86° | 84km/h | 5551m | 0.0m/s | -13.6°C | 0% | 0hPa | 0V | 00:00:00 | 00:00:00 | 00:00:00 | |
| PETON7-10 | 2026-09-01 05:23:25 | 48.58846 | 17.61398 | 89° | 71km/h | 5548m | 0.8m/s | 0°C | 0% | 0hPa | 0V | 00:00:00 | 00:00:00 | 00:00:00 | |
| OE3JTB-15 | 2026-09-01 05:23:24 | 48.58845 | 17.61369 | 87° | 69km/h | 5548m | 0.8m/s | 0°C | 0% | 0hPa | 0V | 00:00:00 | 00:00:00 | 00:00:00 | |
| ATIDSZ-14 | 2026-09-01 05:23:14 | 48.58843 | 17.61097 | 90° | 75km/h | 5546m | 0.0m/s | -14.2°C | 0% | 0hPa | 0V | 00:00:00 | 00:00:00 | 00:00:00 | |
| PETON7-10 | 2026-09-01 05:23:10 | 48.58842 | 17.60990 | 92° | 69km/h | 5544m | 0.9m/s | 0°C | 0% | 0hPa | 0V | 00:00:00 | 00:00:00 | 00:00:00 | |
| OM5KV | 2026-09-01 05:23:03 | 48.58840 | 17.60804 | 92° | 64km/h | 5541m | 0.4m/s | -14.1°C | 0% | 0hPa | 0V | 00:00:00 | 00:00:00 | 00:00:00 | |
| OM5KV | 2026-09-01 05:23:02 | 48.58841 | 17.60753 | 91° | 68km/h | 5540m | 0.0m/s | -14.1°C | 0% | 0hPa | 0V | 00:00:00 | 00:00:00 | 00:00:00 | |
| PETON7-10 | 2026-09-01 05:22:55 | 48.58836 | 17.60595 | 89° | 69km/h | 5540m | 0.7m/s | 0°C | 0% | 0hPa | 0V | 00:00:00 | 00:00:00 | 00:00:00 | |
| ATIDSZ-14 | 2026-09-01 05:22:54 | 48.58836 | 17.60570 | 92° | 64km/h | 5540m | 0.7m/s | -14.2°C | 0% | 0hPa | 0V | 00:00:00 | 00:00:00 | 00:00:00 | |
| OM5KV | 2026-09-01 05:22:50 | 48.58838 | 17.60467 | 88° | 73km/h | 5537m | 1.1m/s | -14.2°C | 0% | 0hPa | 0V | 00:00:00 | 00:00:00 | 00:00:00 | |
| PETON7-10 | 2026-09-01 05:22:40 | 48.58830 | 17.60197 | 90° | 71km/h | 5535m | -0.9m/s | 0°C | 0% | 0hPa | 0V | 00:00:00 | 00:00:00 | 00:00:00 | |
| OM5KV | 2026-09-01 05:22:39 | 48.58830 | 17.60172 | 91° | 68km/h | 5535m | -0.9m/s | -14.2°C | 0% | 0hPa | 0V | 00:00:00 | 00:00:00 | 00:00:00 | |
| ATIDSZ-14 | 2026-09-01 05:22:33 | 48.58828 | 17.60007 | 91° | 68km/h | 5533m | 0.9m/s | -14.2°C | 0% | 0hPa | 0V | 00:00:00 | 00:00:00 | 00:00:00 | |
| OM5KV | 2026-09-01 05:22:30 | 48.58828 | 17.59927 | 88° | 69km/h | 5532m | -0.6m/s | -14.2°C | 0% | 0hPa | 0V | 00:00:00 | 00:00:00 | 00:00:00 | |
| OM5KV | 2026-09-01 05:22:29 | 48.58827 | 17.59901 | 89° | 69km/h | 5532m | 1.1m/s | -14.2°C | 0% | 0hPa | 0V | 00:00:00 | 00:00:00 | 00:00:00 | |
| OE3JTB-15 | 2026-09-01 05:22:26 | 48.58826 | 17.59820 | 89° | 71km/h | 5531m | 0.3m/s | 0°C | 0% | 0hPa | 0V | 00:00:00 | 00:00:00 | 00:00:00 | |
| OM5KV | 2026-09-01 05:22:24 | 48.58826 | 17.59763 | 91° | 75km/h | 5531m | 0.7m/s | -14.2°C | 0% | 0hPa | 0V | 00:00:00 | 00:00:00 | 00:00:00 | |
| OM5KV | 2026-09-01 05:22:18 | 48.58826 | 17.59601 | 89° | 68km/h | 5528m | -0.1m/s | -14.3°C | 0% | 0hPa | 0V | 00:00:00 | 00:00:00 | 00:00:00 | |
| OM5KV | 2026-09-01 05:22:17 | 48.58826 | 17.59575 | 89° | 73km/h | 5528m | 1.3m/s | -14.4°C | 0% | 0hPa | 0V | 00:00:00 | 00:00:00 | 00:00:00 | |
| ATIDSZ-14 | 2026-09-01 05:22:13 | 48.58824 | 17.59451 | 92° | 80km/h | 5525m | 1.5m/s | -14.4°C | 0% | 0hPa | 0V | 00:00:00 | 00:00:00 | 00:00:00 | |
| OM5KV | 2026-09-01 05:22:07 | 48.58820 | 17.59285 | 81° | 69km/h | 5517m | 0.6m/s | -14.5°C | 0% | 0hPa | 0V | 00:00:00 | 00:00:00 | 00:00:00 | |
| OM5KV | 2026-09-01 05:22:02 | 48.58813 | 17.59152 | 88° | 64km/h | 5510m | 1.2m/s | -14.5°C | 0% | 0hPa | 0V | 00:00:00 | 00:00:00 | 00:00:00 | |
| OM5KV | 2026-09-01 05:22:01 | 48.58812 | 17.59128 | 89° | 64km/h | 5509m | 0.4m/s | -14.6°C | 0% | 0hPa | 0V | 00:00:00 | 00:00:00 | 00:00:00 | |
| OE3JTB-15 | 2026-09-01 05:21:57 | 48.58806 | 17.59028 | 87° | 64km/h | 5506m | 1.6m/s | 0°C | 0% | 0hPa | 0V | 00:00:00 | 00:00:00 | 00:00:00 | |
| OM5KV | 2026-09-01 05:21:53 | 48.58799 | 17.58900 | 88° | 66km/h | 5503m | 0.3m/s | -14.7°C | 0% | 0hPa | 0V | 00:00:00 | 00:00:00 | 00:00:00 | |
| ATIDSZ-14 | 2026-09-01 05:21:52 | 48.58799 | 17.58900 | 88° | 66km/h | 5502m | 1.6m/s | -14.7°C | 0% | 0hPa | 0V | 00:00:00 | 00:00:00 | 00:00:00 | |
| OM5KV | 2026-09-01 05:21:45 | 48.58781 | 17.58680 | 84° | 62km/h | 5491m | 1.4m/s | -14.7°C | 0% | 0hPa | 0V | 00:00:00 | 00:00:00 | 00:00:00 | |
| OM5KV | 2026-09-01 05:21:37 | 48.58767 | 17.58531 | 90° | 68km/h | 5483m | 0.7m/s | -14.7°C | 0% | 0hPa | 0V | 00:00:00 | 00:00:00 | 00:00:00 | |
| ATIDSZ-14 | 2026-09-01 05:21:31 | 48.58758 | 17.58392 | 82° | 66km/h | 5475m | 1.8m/s | -14.8°C | 0% | 0hPa | 0V | 00:00:00 | 00:00:00 | 00:00:00 | |
| OM5KV | 2026-09-01 05:21:29 | 48.58752 | 17.58323 | 84° | 55km/h | 5467m | 2.5m/s | -14.7°C | 0% | 0hPa | 0V | 00:00:00 | 00:00:00 | 00:00:00 | |
| OE3JTB-15 | 2026-09-01 05:21:28 | 48.58752 | 17.58323 | 83° | 58km/h | 5467m | 2.4m/s | 0°C | 0% | 0hPa | 0V | 00:00:00 | 00:00:00 | 00:00:00 | |
| ATIDSZ-14 | 2026-09-01 05:21:11 | 48.58714 | 17.57939 | 84° | 62km/h | 5426m | 0.5m/s | -14.8°C | 0% | 0hPa | 0V | 00:00:00 | 00:00:00 | 00:00:00 | |
| OM5KV | 2026-09-01 05:21:10 | 48.58712 | 17.57915 | 86° | 62km/h | 5424m | 4.4m/s | -14.8°C | 0% | 0hPa | 0V | 00:00:00 | 00:00:00 | 00:00:00 | |
| OE3JTB-15 | 2026-09-01 05:20:59 | 48.58693 | 17.57686 | 83° | 55km/h | 5387m | 3.2m/s | 0°C | 0% | 0hPa | 0V | 00:00:00 | 00:00:00 | 00:00:00 | |
| OM5KV | 2026-09-01 05:20:53 | 48.58676 | 17.57569 | 77° | 51km/h | 5375m | 1.1m/s | -14.5°C | 0% | 0hPa | 0V | 00:00:00 | 00:00:00 | 00:00:00 | |
| OM5KV | 2026-09-01 05:20:51 | 48.58669 | 17.57506 | 82° | 60km/h | 5368m | 1.8m/s | -14.4°C | 0% | 0hPa | 0V | 00:00:00 | 00:00:00 | 00:00:00 | |
| ATIDSZ-14 | 2026-09-01 05:20:50 | 48.58669 | 17.57506 | 82° | 60km/h | 5368m | 1.8m/s | -14.4°C | 0% | 0hPa | 0V | 00:00:00 | 00:00:00 | 00:00:00 | |
| OM5KV | 2026-09-01 05:20:47 | 48.58661 | 17.57442 | 79° | 51km/h | 5361m | 2.0m/s | -14.3°C | 0% | 0hPa | 0V | 00:00:00 | 00:00:00 | 00:00:00 | |
| OM5KV | 2026-09-01 05:20:39 | 48.58638 | 17.57281 | 77° | 51km/h | 5341m | 2.3m/s | -14.2°C | 0% | 0hPa | 0V | 00:00:00 | 00:00:00 | 00:00:00 | |
| OM5KV | 2026-09-01 05:20:36 | 48.58628 | 17.57203 | 85° | 51km/h | 5332m | 1.7m/s | -14.2°C | 0% | 0hPa | 0V | 00:00:00 | 00:00:00 | 00:00:00 | |
| OM5KV | 2026-09-01 05:20:34 | 48.58626 | 17.57183 | 84° | 55km/h | 5330m | 3.5m/s | -14.1°C | 0% | 0hPa | 0V | 00:00:00 | 00:00:00 | 00:00:00 | |
| OE3JTB-15 | 2026-09-01 05:20:30 | 48.58612 | 17.57100 | 79° | 55km/h | 5320m | 2.9m/s | 0°C | 0% | 0hPa | 0V | 00:00:00 | 00:00:00 | 00:00:00 | |
| OM5KV | 2026-09-01 05:20:28 | 48.58606 | 17.57063 | 72° | 53km/h | 5315m | 2.8m/s | -14.0°C | 0% | 0hPa | 0V | 00:00:00 | 00:00:00 | 00:00:00 | |
| OM5KV | 2026-09-01 05:20:22 | 48.58585 | 17.56940 | 71° | 53km/h | 5300m | 2.5m/s | -13.8°C | 0% | 0hPa | 0V | 00:00:00 | 00:00:00 | 00:00:00 | |
| OM5KV | 2026-09-01 05:20:17 | 48.58568 | 17.56841 | 81° | 60km/h | 5287m | 3.9m/s | -13.6°C | 0% | 0hPa | 0V | 00:00:00 | 00:00:00 | 00:00:00 | |
| OM5KV | 2026-09-01 05:20:11 | 48.58550 | 17.56713 | 79° | 51km/h | 5270m | 2.8m/s | -13.5°C | 0% | 0hPa | 0V | 00:00:00 | 00:00:00 | 00:00:00 | |
| OM5KV | 2026-09-01 05:20:10 | 48.58544 | 17.56675 | 77° | 53km/h | 5265m | 3.7m/s | -13.4°C | 0% | 0hPa | 0V | 00:00:00 | 00:00:00 | 00:00:00 | |
| ATIDSZ-14 | 2026-09-01 05:20:09 | 48.58544 | 17.56675 | 77° | 53km/h | 5265m | 3.7m/s | -13.4°C | 0% | 0hPa | 0V | 00:00:00 | 00:00:00 | 00:00:00 | |
| OM5KV | 2026-09-01 05:20:04 | 48.58527 | 17.56572 | 83° | 55km/h | 5252m | 2.0m/s | -13.3°C | 0% | 0hPa | 0V | 00:00:00 | 00:00:00 | 00:00:00 | |
| OE3JTB-15 | 2026-09-01 05:20:01 | 48.58521 | 17.56514 | 80° | 53km/h | 5242m | 2.2m/s | 0°C | 0% | 0hPa | 0V | 00:00:00 | 00:00:00 | 00:00:00 | |
| OM5KV | 2026-09-01 05:20:00 | 48.58519 | 17.56494 | 81° | 57km/h | 5242m | 2.3m/s | -13.3°C | 0% | 0hPa | 0V | 00:00:00 | 00:00:00 | 00:00:00 | |
| OM5KV | 2026-09-01 05:19:58 | 48.58512 | 17.56450 | 73° | 58km/h | 5236m | 2.7m/s | -13.2°C | 0% | 0hPa | 0V | 00:00:00 | 00:00:00 | 00:00:00 | |
| OM5KV | 2026-09-01 05:19:54 | 48.58498 | 17.56371 | 78° | 53km/h | 5225m | 2.3m/s | -13.2°C | 0% | 0hPa | 0V | 00:00:00 | 00:00:00 | 00:00:00 | |
| OM5KV | 2026-09-01 05:19:53 | 48.58495 | 17.56351 | 80° | 53km/h | 5222m | 3.6m/s | -13.1°C | 0% | 0hPa | 0V | 00:00:00 | 00:00:00 | 00:00:00 | |
| ATIDSZ-14 | 2026-09-01 05:19:49 | 48.58481 | 17.56272 | 67° | 53km/h | 5211m | 3.2m/s | -13.1°C | 0% | 0hPa | 0V | 00:00:00 | 00:00:00 | 00:00:00 | |
| OM5KV | 2026-09-01 05:19:47 | 48.58472 | 17.56236 | 72° | 46km/h | 5206m | 3.2m/s | -13.1°C | 0% | 0hPa | 0V | 00:00:00 | 00:00:00 | 00:00:00 | |
| OM5KV | 2026-09-01 05:19:43 | 48.58462 | 17.56160 | 82° | 55km/h | 5194m | 2.4m/s | -13.0°C | 0% | 0hPa | 0V | 00:00:00 | 00:00:00 | 00:00:00 | |
| OM5KV | 2026-09-01 05:19:37 | 48.58438 | 17.56045 | 75° | 47km/h | 5176m | 2.6m/s | -12.9°C | 0% | 0hPa | 0V | 00:00:00 | 00:00:00 | 00:00:00 | |
| OM5KV | 2026-09-01 05:19:36 | 48.58435 | 17.56028 | 77° | 49km/h | 5173m | 4.5m/s | -12.9°C | 0% | 0hPa | 0V | 00:00:00 | 00:00:00 | 00:00:00 | |
| OE3JTB-15 | 2026-09-01 05:19:32 | 48.58425 | 17.55950 | 76° | 53km/h | 5155m | 3.8m/s | 0°C | 0% | 0hPa | 0V | 00:00:00 | 00:00:00 | 00:00:00 | |
| OM5KV | 2026-09-01 05:19:31 | 48.58421 | 17.55933 | 67° | 49km/h | 5155m | 3.8m/s | -12.7°C | 0% | 0hPa | 0V | 00:00:00 | 00:00:00 | 00:00:00 | |
| OM5KV | 2026-09-01 05:19:30 | 48.58416 | 17.55914 | 62° | 57km/h | 5151m | 3.4m/s | -12.7°C | 0% | 0hPa | 0V | 00:00:00 | 00:00:00 | 00:00:00 | |
| ATIDSZ-14 | 2026-09-01 05:19:28 | 48.58404 | 17.55875 | 71° | 55km/h | 5144m | 2.9m/s | -12.6°C | 0% | 0hPa | 0V | 00:00:00 | 00:00:00 | 00:00:00 | |
| OM5KV | 2026-09-01 05:19:24 | 48.58387 | 17.55807 | 73° | 44km/h | 5131m | 3.9m/s | -12.5°C | 0% | 0hPa | 0V | 00:00:00 | 00:00:00 | 00:00:00 | |
| OM5KV | 2026-09-01 05:19:19 | 48.58372 | 17.55709 | 68° | 51km/h | 5112m | 4.0m/s | -12.3°C | 0% | 0hPa | 0V | 00:00:00 | 00:00:00 | 00:00:00 | |
| OM5KV | 2026-09-01 05:19:18 | 48.58362 | 17.55677 | 64° | 42km/h | 5104m | 4.4m/s | -12.2°C | 0% | 0hPa | 0V | 00:00:00 | 00:00:00 | 00:00:00 | |
| OM5KV | 2026-09-01 05:19:10 | 48.58322 | 17.55524 | 70° | 57km/h | 5073m | 3.4m/s | -12.0°C | 0% | 0hPa | 0V | 00:00:00 | 00:00:00 | 00:00:00 | |
| ATIDSZ-14 | 2026-09-01 05:19:08 | 48.58317 | 17.55503 | 74° | 58km/h | 5069m | 5.0m/s | -11.9°C | 0% | 0hPa | 0V | 00:00:00 | 00:00:00 | 00:00:00 | |
| OM5KV | 2026-09-01 05:19:07 | 48.58312 | 17.55482 | 75° | 60km/h | 5064m | 5.1m/s | -11.9°C | 0% | 0hPa | 0V | 00:00:00 | 00:00:00 | 00:00:00 | |
| OE3JTB-15 | 2026-09-01 05:19:03 | 48.58297 | 17.55403 | 68° | 55km/h | 5040m | 5.0m/s | 0°C | 0% | 0hPa | 0V | 00:00:00 | 00:00:00 | 00:00:00 | |
| OM5KV | 2026-09-01 05:19:00 | 48.58275 | 17.55344 | 63° | 62km/h | 5031m | 4.2m/s | -11.6°C | 0% | 0hPa | 0V | 00:00:00 | 00:00:00 | 00:00:00 | |
| OM5KV | 2026-09-01 05:18:56 | 48.58255 | 17.55268 | 74° | 60km/h | 5012m | 2.7m/s | -11.4°C | 0% | 0hPa | 0V | 00:00:00 | 00:00:00 | 00:00:00 | |
| OM5KV | 2026-09-01 05:18:55 | 48.58244 | 17.55225 | 63° | 58km/h | 5005m | 2.2m/s | -11.3°C | 0% | 0hPa | 0V | 00:00:00 | 00:00:00 | 00:00:00 | |
| ATIDSZ-14 | 2026-09-01 05:18:47 | 48.58205 | 17.55093 | 73° | 53km/h | 4977m | 4.0m/s | -11.1°C | 0% | 0hPa | 0V | 00:00:00 | 00:00:00 | 00:00:00 | |
| OM5KV | 2026-09-01 05:18:43 | 48.58184 | 17.55017 | 68° | 55km/h | 4961m | 3.6m/s | -10.9°C | 0% | 0hPa | 0V | 00:00:00 | 00:00:00 | 00:00:00 | |
| OM5KV | 2026-09-01 05:18:42 | 48.58178 | 17.54998 | 64° | 55km/h | 4956m | 4.2m/s | -10.9°C | 0% | 0hPa | 0V | 00:00:00 | 00:00:00 | 00:00:00 | |
| OM5KV | 2026-09-01 05:18:37 | 48.58147 | 17.54878 | 62° | 60km/h | 4933m | 3.2m/s | -10.8°C | 0% | 0hPa | 0V | 00:00:00 | 00:00:00 | 00:00:00 | |
| OM5KV | 2026-09-01 05:18:36 | 48.58147 | 17.54878 | 62° | 60km/h | 4933m | 3.2m/s | -10.8°C | 0% | 0hPa | 0V | 00:00:00 | 00:00:00 | 00:00:00 | |
| OE3JTB-15 | 2026-09-01 05:18:34 | 48.58133 | 17.54845 | 57° | 53km/h | 4921m | 3.2m/s | 0°C | 0% | 0hPa | 0V | 00:00:00 | 00:00:00 | 00:00:00 | |
| ATIDSZ-14 | 2026-09-01 05:18:27 | 48.58098 | 17.54695 | 64° | 68km/h | 4891m | 5.2m/s | -10.7°C | 0% | 0hPa | 0V | 00:00:00 | 00:00:00 | 00:00:00 | |
| OM5KV | 2026-09-01 05:18:26 | 48.58050 | 17.54580 | 76° | 66km/h | 4864m | 6.8m/s | -10.7°C | 0% | 0hPa | 0V | 00:00:00 | 00:00:00 | 00:00:00 | |
| OM5KV | 2026-09-01 05:18:19 | 48.58040 | 17.54542 | 55° | 44km/h | 4841m | 8.4m/s | -10.2°C | 0% | 0hPa | 0V | 00:00:00 | 00:00:00 | 00:00:00 | |
| OM5KV | 2026-09-01 05:18:14 | 48.58015 | 17.54462 | 71° | 55km/h | 4812m | 4.9m/s | -10.0°C | 0% | 0hPa | 0V | 00:00:00 | 00:00:00 | 00:00:00 | |
| ATIDSZ-14 | 2026-09-01 05:18:06 | 48.57992 | 17.54330 | 54° | 58km/h | 4762m | 7.5m/s | -9.6°C | 0% | 0hPa | 0V | 00:00:00 | 00:00:00 | 00:00:00 | |
| OE3JTB-15 | 2026-09-01 05:18:05 | 48.57984 | 17.54315 | 49° | 46km/h | 4751m | 4.9m/s | 0°C | 0% | 0hPa | 0V | 00:00:00 | 00:00:00 | 00:00:00 | |
| OM5KV | 2026-09-01 05:18:04 | 48.57978 | 17.54303 | 55° | 35km/h | 4751m | 4.9m/s | -9.5°C | 0% | 0hPa | 0V | 00:00:00 | 00:00:00 | 00:00:00 | |
| OM5KV | 2026-09-01 05:18:00 | 48.57962 | 17.54250 | 57° | 53km/h | 4729m | 6.5m/s | -9.4°C | 0% | 0hPa | 0V | 00:00:00 | 00:00:00 | 00:00:00 | |
| OM5KV | 2026-09-01 05:17:59 | 48.57954 | 17.54232 | 57° | 62km/h | 4723m | 4.2m/s | -9.3°C | 0% | 0hPa | 0V | 00:00:00 | 00:00:00 | 00:00:00 | |
| OM5KV | 2026-09-01 05:17:54 | 48.57934 | 17.54149 | 71° | 37km/h | 4697m | 6.0m/s | -9.1°C | 0% | 0hPa | 0V | 00:00:00 | 00:00:00 | 00:00:00 | |
| OM5KV | 2026-09-01 05:17:53 | 48.57931 | 17.54135 | 69° | 40km/h | 4691m | 5.3m/s | -9.0°C | 0% | 0hPa | 0V | 00:00:00 | 00:00:00 | 00:00:00 | |
| OM5KV | 2026-09-01 05:17:47 | 48.57896 | 17.54027 | 84° | 47km/h | 4660m | 4.6m/s | -8.8°C | 0% | 0hPa | 0V | 00:00:00 | 00:00:00 | 00:00:00 | |
| ATIDSZ-14 | 2026-09-01 05:17:46 | 48.57895 | 17.54010 | 88° | 40km/h | 4655m | 3.8m/s | -8.8°C | 0% | 0hPa | 0V | 00:00:00 | 00:00:00 | 00:00:00 | |
| OM5KV | 2026-09-01 05:17:42 | 48.57886 | 17.53949 | 69° | 47km/h | 4637m | 5.1m/s | -8.6°C | 0% | 0hPa | 0V | 00:00:00 | 00:00:00 | 00:00:00 | |
| OE3JTB-15 | 2026-09-01 05:17:36 | 48.57866 | 17.53857 | 82° | 44km/h | 4609m | 4.1m/s | 0°C | 0% | 0hPa | 0V | 00:00:00 | 00:00:00 | 00:00:00 | |
| OM5KV | 2026-09-01 05:17:34 | 48.57859 | 17.53822 | 68° | 51km/h | 4605m | 4.3m/s | -8.5°C | 0% | 0hPa | 0V | 00:00:00 | 00:00:00 | 00:00:00 | |
| OM5KV | 2026-09-01 05:17:29 | 48.57837 | 17.53736 | 73° | 44km/h | 4581m | 6.2m/s | -8.3°C | 0% | 0hPa | 0V | 00:00:00 | 00:00:00 | 00:00:00 | |
| OM5KV | 2026-09-01 05:17:28 | 48.57833 | 17.53720 | 71° | 47km/h | 4575m | 4.7m/s | -8.2°C | 0% | 0hPa | 0V | 00:00:00 | 00:00:00 | 00:00:00 | |
| ATIDSZ-14 | 2026-09-01 05:17:25 | 48.57823 | 17.53677 | 62° | 33km/h | 4562m | 4.2m/s | -8.1°C | 0% | 0hPa | 0V | 00:00:00 | 00:00:00 | 00:00:00 | |
| OM5KV | 2026-09-01 05:17:23 | 48.57815 | 17.53650 | 73° | 46km/h | 4552m | 5.0m/s | -8.0°C | 0% | 0hPa | 0V | 00:00:00 | 00:00:00 | 00:00:00 | |
| OM5KV | 2026-09-01 05:17:19 | 48.57808 | 17.53582 | 66° | 44km/h | 4532m | 4.3m/s | -7.8°C | 0% | 0hPa | 0V | 00:00:00 | 00:00:00 | 00:00:00 | |
| OM5KV | 2026-09-01 05:17:17 | 48.57797 | 17.53554 | 62° | 40km/h | 4522m | 4.2m/s | -7.8°C | 0% | 0hPa | 0V | 00:00:00 | 00:00:00 | 00:00:00 | |
| OM5KV | 2026-09-01 05:17:13 | 48.57785 | 17.53489 | 81° | 46km/h | 4501m | 3.9m/s | -7.6°C | 0% | 0hPa | 0V | 00:00:00 | 00:00:00 | 00:00:00 | |
| OE3JTB-15 | 2026-09-01 05:17:07 | 48.57769 | 17.53397 | 76° | 40km/h | 4471m | 6.5m/s | 0°C | 0% | 0hPa | 0V | 00:00:00 | 00:00:00 | 00:00:00 | |
| OM5KV | 2026-09-01 05:17:06 | 48.57766 | 17.53381 | 79° | 44km/h | 4464m | 6.3m/s | -7.2°C | 0% | 0hPa | 0V | 00:00:00 | 00:00:00 | 00:00:00 | |
| ATIDSZ-14 | 2026-09-01 05:17:05 | 48.57765 | 17.53364 | 85° | 46km/h | 4459m | 5.2m/s | -7.2°C | 0% | 0hPa | 0V | 00:00:00 | 00:00:00 | 00:00:00 | |
| OM5KV | 2026-09-01 05:17:04 | 48.57764 | 17.53349 | 85° | 38km/h | 4453m | 4.7m/s | -7.2°C | 0% | 0hPa | 0V | 00:00:00 | 00:00:00 | 00:00:00 | |
| OM5KV | 2026-09-01 05:16:59 | 48.57752 | 17.53273 | 74° | 47km/h | 4428m | 4.4m/s | -6.9°C | 0% | 0hPa | 0V | 00:00:00 | 00:00:00 | 00:00:00 | |
| OM5KV | 2026-09-01 05:16:53 | 48.57736 | 17.53183 | 71° | 38km/h | 4398m | 6.1m/s | -6.7°C | 0% | 0hPa | 0V | 00:00:00 | 00:00:00 | 00:00:00 | |
| OM5KV | 2026-09-01 05:16:48 | 48.57727 | 17.53110 | 76° | 37km/h | 4370m | 6.0m/s | -6.5°C | 0% | 0hPa | 0V | 00:00:00 | 00:00:00 | 00:00:00 | |
| ATIDSZ-14 | 2026-09-01 05:16:44 | 48.57719 | 17.53050 | 81° | 44km/h | 4349m | 5.1m/s | -6.3°C | 0% | 0hPa | 0V | 00:00:00 | 00:00:00 | 00:00:00 | |
| OM5KV | 2026-09-01 05:16:42 | 48.57714 | 17.53021 | 74° | 37km/h | 4340m | 4.4m/s | -6.3°C | 0% | 0hPa | 0V | 00:00:00 | 00:00:00 | 00:00:00 | |
| OE3JTB-15 | 2026-09-01 05:16:38 | 48.57705 | 17.52963 | 74° | 38km/h | 4317m | 3.4m/s | 0°C | 0% | 0hPa | 0V | 00:00:00 | 00:00:00 | 00:00:00 | |
| OM5KV | 2026-09-01 05:16:36 | 48.57699 | 17.52933 | 73° | 38km/h | 4313m | 5.0m/s | -6.0°C | 0% | 0hPa | 0V | 00:00:00 | 00:00:00 | 00:00:00 | |
| OM5KV | 2026-09-01 05:16:33 | 48.57690 | 17.52881 | 85° | 38km/h | 4294m | 5.1m/s | -5.8°C | 0% | 0hPa | 0V | 00:00:00 | 00:00:00 | 00:00:00 | |
| OM5KV | 2026-09-01 05:16:31 | 48.57687 | 17.52847 | 82° | 46km/h | 4285m | 5.7m/s | -5.8°C | 0% | 0hPa | 0V | 00:00:00 | 00:00:00 | 00:00:00 | |
| OM5KV | 2026-09-01 05:16:25 | 48.57678 | 17.52781 | 91° | 31km/h | 4259m | 6.3m/s | -5.5°C | 0% | 0hPa | 0V | 00:00:00 | 00:00:00 | 00:00:00 | |
| OM5KV | 2026-09-01 05:16:23 | 48.57673 | 17.52703 | 77° | 37km/h | 4232m | 5.3m/s | -5.4°C | 0% | 0hPa | 0V | 00:00:00 | 00:00:00 | 00:00:00 | |
| OM5KV | 2026-09-01 05:16:21 | 48.57669 | 17.52678 | 81° | 31km/h | 4221m | 4.0m/s | -5.3°C | 0% | 0hPa | 0V | 00:00:00 | 00:00:00 | 00:00:00 | |
| OM5KV | 2026-09-01 05:16:15 | 48.57664 | 17.52625 | 84° | 42km/h | 4203m | 5.8m/s | -5.2°C | 0% | 0hPa | 0V | 00:00:00 | 00:00:00 | 00:00:00 | |
| OM5KV | 2026-09-01 05:16:12 | 48.57660 | 17.52592 | 80° | 42km/h | 4194m | 4.8m/s | -5.1°C | 0% | 0hPa | 0V | 00:00:00 | 00:00:00 | 00:00:00 | |
| OE3JTB-15 | 2026-09-01 05:16:09 | 48.57654 | 17.52553 | 79° | 37km/h | 4181m | 4.4m/s | 0°C | 0% | 0hPa | 0V | 00:00:00 | 00:00:00 | 00:00:00 | |
| OM5KV | 2026-09-01 05:16:08 | 48.57653 | 17.52544 | 79° | 24km/h | 4176m | 4.3m/s | -5.0°C | 0% | 0hPa | 0V | 00:00:00 | 00:00:00 | 00:00:00 | |
| OM5KV | 2026-09-01 05:16:07 | 48.57652 | 17.52534 | 88° | 26km/h | 4172m | 5.8m/s | -4.9°C | 0% | 0hPa | 0V | 00:00:00 | 00:00:00 | 00:00:00 | |
| ATIDSZ-14 | 2026-09-01 05:16:03 | 48.57647 | 17.52470 | 78° | 42km/h | 4150m | 5.3m/s | -4.7°C | 0% | 0hPa | 0V | 00:00:00 | 00:00:00 | 00:00:00 | |
| OM5KV | 2026-09-01 05:16:02 | 48.57644 | 17.52456 | 78° | 33km/h | 4145m | 6.1m/s | -4.7°C | 0% | 0hPa | 0V | 00:00:00 | 00:00:00 | 00:00:00 | |
| OM5KV | 2026-09-01 05:15:56 | 48.57638 | 17.52373 | 82° | 38km/h | 4116m | 4.9m/s | -4.4°C | 0% | 0hPa | 0V | 00:00:00 | 00:00:00 | 00:00:00 | |
| OM5KV | 2026-09-01 05:15:55 | 48.57636 | 17.52359 | 75° | 35km/h | 4110m | 6.7m/s | -4.3°C | 0% | 0hPa | 0V | 00:00:00 | 00:00:00 | 00:00:00 | |
| OM5KV | 2026-09-01 05:15:50 | 48.57628 | 17.52293 | 84° | 37km/h | 4085m | 4.6m/s | -4.1°C | 0% | 0hPa | 0V | 00:00:00 | 00:00:00 | 00:00:00 | |
| OM5KV | 2026-09-01 05:15:44 | 48.57620 | 17.52212 | 97° | 38km/h | 4055m | 6.1m/s | -3.9°C | 0% | 0hPa | 0V | 00:00:00 | 00:00:00 | 00:00:00 | |
| ATIDSZ-14 | 2026-09-01 05:15:42 | 48.57621 | 17.52184 | 90° | 37km/h | 4046m | 4.6m/s | -3.8°C | 0% | 0hPa | 0V | 00:00:00 | 00:00:00 | 00:00:00 | |
| OE3JTB-15 | 2026-09-01 05:15:40 | 48.57619 | 17.52155 | 81° | 38km/h | 4031m | 5.4m/s | 0°C | 0% | 0hPa | 0V | 00:00:00 | 00:00:00 | 00:00:00 | |
| OM5KV | 2026-09-01 05:15:39 | 48.57618 | 17.52139 | 86° | 44km/h | 4031m | 5.4m/s | -3.7°C | 0% | 0hPa | 0V | 00:00:00 | 00:00:00 | 00:00:00 | |
| OM5KV | 2026-09-01 05:15:38 | 48.57617 | 17.52123 | 89° | 42km/h | 4025m | 6.3m/s | -3.7°C | 0% | 0hPa | 0V | 00:00:00 | 00:00:00 | 00:00:00 | |
| OM5KV | 2026-09-01 05:15:33 | 48.57615 | 17.52055 | 81° | 38km/h | 3999m | 7.2m/s | -3.5°C | 0% | 0hPa | 0V | 00:00:00 | 00:00:00 | 00:00:00 | |
| OM5KV | 2026-09-01 05:15:27 | 48.57612 | 17.51967 | 85° | 38km/h | 3966m | 3.5m/s | -3.1°C | 0% | 0hPa | 0V | 00:00:00 | 00:00:00 | 00:00:00 | |
| OM5KV | 2026-09-01 05:15:26 | 48.57611 | 17.51953 | 83° | 38km/h | 3961m | 7.1m/s | -3.1°C | 0% | 0hPa | 0V | 00:00:00 | 00:00:00 | 00:00:00 | |
| ATIDSZ-14 | 2026-09-01 05:15:22 | 48.57607 | 17.51893 | 84° | 35km/h | 3940m | 5.2m/s | -2.9°C | 0% | 0hPa | 0V | 00:00:00 | 00:00:00 | 00:00:00 | |
| OM5KV | 2026-09-01 05:15:20 | 48.57605 | 17.51868 | 89° | 33km/h | 3927m | 5.9m/s | -2.9°C | 0% | 0hPa | 0V | 00:00:00 | 00:00:00 | 00:00:00 | |
| OM5KV | 2026-09-01 05:15:16 | 48.57605 | 17.51807 | 87° | 38km/h | 3906m | 4.2m/s | -2.7°C | 0% | 0hPa | 0V | 00:00:00 | 00:00:00 | 00:00:00 | |
| OM5KV | 2026-09-01 05:15:14 | 48.57601 | 17.51780 | 73° | 37km/h | 3895m | 5.8m/s | -2.6°C | 0% | 0hPa | 0V | 00:00:00 | 00:00:00 | 00:00:00 | |
| OE3JTB-15 | 2026-09-01 05:15:11 | 48.57597 | 17.51734 | 91° | 38km/h | 3882m | 3.5m/s | 0°C | 0% | 0hPa | 0V | 00:00:00 | 00:00:00 | 00:00:00 | |
| OM5KV | 2026-09-01 05:15:09 | 48.57598 | 17.51703 | 94° | 37km/h | 3870m | 5.5m/s | -2.3°C | 0% | 0hPa | 0V | 00:00:00 | 00:00:00 | 00:00:00 | |
| OM5KV | 2026-09-01 05:15:06 | 48.57596 | 17.51647 | 88° | 44km/h | 3851m | 3.3m/s | -2.1°C | 0% | 0hPa | 0V | 00:00:00 | 00:00:00 | 00:00:00 | |
| OM5KV | 2026-09-01 05:15:03 | 48.57595 | 17.51616 | 87° | 38km/h | 3842m | 3.2m/s | -2.0°C | 0% | 0hPa | 0V | 00:00:00 | 00:00:00 | 00:00:00 | |
| ATIDSZ-14 | 2026-09-01 05:15:01 | 48.57594 | 17.51587 | 93° | 38km/h | 3833m | 3.4m/s | -2.0°C | 0% | 0hPa | 0V | 00:00:00 | 00:00:00 | 00:00:00 | |
| OM5KV | 2026-09-01 05:14:59 | 48.57595 | 17.51559 | 94° | 35km/h | 3825m | 3.3m/s | -1.9°C | 0% | 0hPa | 0V | 00:00:00 | 00:00:00 | 00:00:00 | |
| OM5KV | 2026-09-01 05:14:58 | 48.57596 | 17.51545 | 94° | 38km/h | 3821m | 4.8m/s | -1.9°C | 0% | 0hPa | 0V | 00:00:00 | 00:00:00 | 00:00:00 | |
| OM5KV | 2026-09-01 05:14:53 | 48.57593 | 17.51456 | 91° | 38km/h | 3793m | 4.3m/s | -1.6°C | 0% | 0hPa | 0V | 00:00:00 | 00:00:00 | 00:00:00 | |
| OM5KV | 2026-09-01 05:14:52 | 48.57593 | 17.51456 | 91° | 38km/h | 3793m | 4.3m/s | -1.6°C | 0% | 0hPa | 0V | 00:00:00 | 00:00:00 | 00:00:00 | |
| S52SK | 2026-09-01 05:14:48 | 48.57594 | 17.51397 | 85° | 38km/h | 3775m | 4.8m/s | -1.4°C | 0% | 0hPa | 0V | 00:00:00 | 00:00:00 | 00:00:00 | |
| OE3JTB-15 | 2026-09-01 05:14:42 | 48.57590 | 17.51307 | 91° | 38km/h | 3745m | 3.9m/s | 0°C | 0% | 0hPa | 0V | 00:00:00 | 00:00:00 | 00:00:00 | |
| ATIDSZ-14 | 2026-09-01 05:14:41 | 48.57591 | 17.51292 | 96° | 37km/h | 3745m | 3.9m/s | -1.1°C | 0% | 0hPa | 0V | 00:00:00 | 00:00:00 | 00:00:00 | |
| OM5KV | 2026-09-01 05:14:39 | 48.57593 | 17.51264 | 94° | 40km/h | 3737m | 4.8m/s | -1.0°C | 0% | 0hPa | 0V | 00:00:00 | 00:00:00 | 00:00:00 | |
| OM5KV | 2026-09-01 05:14:33 | 48.57589 | 17.51169 | 92° | 35km/h | 3711m | 3.7m/s | -0.8°C | 0% | 0hPa | 0V | 00:00:00 | 00:00:00 | 00:00:00 | |
| OM5KV | 2026-09-01 05:14:25 | 48.57588 | 17.51051 | 89° | 35km/h | 3679m | 3.1m/s | -0.5°C | 0% | 0hPa | 0V | 00:00:00 | 00:00:00 | 00:00:00 | |
| OM5KV | 2026-09-01 05:14:22 | 48.57586 | 17.51010 | 86° | 38km/h | 3668m | 4.6m/s | -0.4°C | 0% | 0hPa | 0V | 00:00:00 | 00:00:00 | 00:00:00 | |
| ATIDSZ-14 | 2026-09-01 05:14:20 | 48.57585 | 17.50980 | 92° | 42km/h | 3660m | 3.1m/s | -0.4°C | 0% | 0hPa | 0V | 00:00:00 | 00:00:00 | 00:00:00 | |
| OM5KV | 2026-09-01 05:14:18 | 48.57587 | 17.50949 | 101° | 37km/h | 3652m | 3.5m/s | -0.3°C | 0% | 0hPa | 0V | 00:00:00 | 00:00:00 | 00:00:00 | |
| OM5KV | 2026-09-01 05:14:16 | 48.57588 | 17.50922 | 88° | 35km/h | 3645m | 4.0m/s | -0.2°C | 0% | 0hPa | 0V | 00:00:00 | 00:00:00 | 00:00:00 | |
| OE3JTB-15 | 2026-09-01 05:14:13 | 48.57586 | 17.50879 | 91° | 40km/h | 3632m | 3.6m/s | 0°C | 0% | 0hPa | 0V | 00:00:00 | 00:00:00 | 00:00:00 | |
| OM5KV | 2026-09-01 05:14:12 | 48.57587 | 17.50863 | 89° | 42km/h | 3627m | 4.8m/s | -0.1°C | 0% | 0hPa | 0V | 00:00:00 | 00:00:00 | 00:00:00 | |
| OM5KV | 2026-09-01 05:14:11 | 48.57585 | 17.50848 | 80° | 40km/h | 3622m | 5.3m/s | -0.1°C | 0% | 0hPa | 0V | 00:00:00 | 00:00:00 | 00:00:00 | |
| OM5KV | 2026-09-01 05:14:05 | 48.57586 | 17.50764 | 93° | 42km/h | 3596m | 4.8m/s | 0.2°C | 0% | 0hPa | 0V | 00:00:00 | 00:00:00 | 00:00:00 | |
| ATIDSZ-14 | 2026-09-01 05:14:00 | 48.57582 | 17.50686 | 90° | 40km/h | 3577m | 3.3m/s | 0.3°C | 0% | 0hPa | 0V | 00:00:00 | 00:00:00 | 00:00:00 | |
| OM5KV | 2026-09-01 05:13:54 | 48.57582 | 17.50593 | 87° | 40km/h | 3555m | 3.1m/s | 0.4°C | 0% | 0hPa | 0V | 00:00:00 | 00:00:00 | 00:00:00 | |
| OM5KV | 2026-09-01 05:13:48 | 48.57582 | 17.50497 | 92° | 42km/h | 3533m | 3.0m/s | 0.6°C | 0% | 0hPa | 0V | 00:00:00 | 00:00:00 | 00:00:00 | |
| OE3JTB-15 | 2026-09-01 05:13:44 | 48.57583 | 17.50430 | 87° | 46km/h | 3516m | 4.3m/s | 0°C | 0% | 0hPa | 0V | 00:00:00 | 00:00:00 | 00:00:00 | |
| ATIDSZ-14 | 2026-09-01 05:13:39 | 48.57586 | 17.50347 | 95° | 44km/h | 3502m | 4.5m/s | 0.8°C | 0% | 0hPa | 0V | 00:00:00 | 00:00:00 | 00:00:00 | |
| OM5KV | 2026-09-01 05:13:37 | 48.57587 | 17.50311 | 95° | 49km/h | 3495m | 4.1m/s | 0.8°C | 0% | 0hPa | 0V | 00:00:00 | 00:00:00 | 00:00:00 | |
| OM5KV | 2026-09-01 05:13:26 | 48.57598 | 17.50121 | 99° | 46km/h | 3456m | 3.4m/s | 1.0°C | 0% | 0hPa | 0V | 00:00:00 | 00:00:00 | 00:00:00 | |
| OM5KV | 2026-09-01 05:13:22 | 48.57602 | 17.50056 | 96° | 40km/h | 3441m | 3.3m/s | 1.1°C | 0% | 0hPa | 0V | 00:00:00 | 00:00:00 | 00:00:00 | |
| OM5KV | 2026-09-01 05:13:20 | 48.57606 | 17.50024 | 105° | 47km/h | 3434m | 2.9m/s | 1.2°C | 0% | 0hPa | 0V | 00:00:00 | 00:00:00 | 00:00:00 | |
| ATIDSZ-14 | 2026-09-01 05:13:19 | 48.57610 | 17.50006 | 106° | 49km/h | 3431m | 3.6m/s | 1.2°C | 0% | 0hPa | 0V | 00:00:00 | 00:00:00 | 00:00:00 | |
| OE3JTB-15 | 2026-09-01 05:13:15 | 48.57620 | 17.49937 | 99° | 46km/h | 3418m | 4.0m/s | 0°C | 0% | 0hPa | 0V | 00:00:00 | 00:00:00 | 00:00:00 | |
| OM5KV | 2026-09-01 05:13:11 | 48.57629 | 17.49871 | 104° | 44km/h | 3405m | 3.3m/s | 1.4°C | 0% | 0hPa | 0V | 00:00:00 | 00:00:00 | 00:00:00 | |
| OM5KV | 2026-09-01 05:13:09 | 48.57633 | 17.49837 | 104° | 47km/h | 3397m | 2.7m/s | 1.5°C | 0% | 0hPa | 0V | 00:00:00 | 00:00:00 | 00:00:00 | |
| OM5KV | 2026-09-01 05:13:04 | 48.57647 | 17.49752 | 105° | 47km/h | 3381m | 4.1m/s | 1.6°C | 0% | 0hPa | 0V | 00:00:00 | 00:00:00 | 00:00:00 | |
| OE3OSB-13 | 2026-09-01 05:13:03 | 48.57650 | 17.49734 | 98° | 47km/h | 3377m | 3.0m/s | 2.2°C | -1.0% | -1.0hPa | 0V | 00:00:00 | 00:00:00 | 00:00:00 | |
| ATIDSZ-14 | 2026-09-01 05:12:58 | 48.57663 | 17.49646 | 116° | 40km/h | 3358m | 2.3m/s | 1.7°C | 0% | 0hPa | 0V | 00:00:00 | 00:00:00 | 00:00:00 | |
| OM5KV | 2026-09-01 05:12:55 | 48.57672 | 17.49599 | 96° | 49km/h | 3348m | 3.3m/s | 1.8°C | 0% | 0hPa | 0V | 00:00:00 | 00:00:00 | 00:00:00 | |
| OM5KV | 2026-09-01 05:12:52 | 48.57677 | 17.49540 | 103° | 53km/h | 3339m | 5.6m/s | 1.9°C | 0% | 0hPa | 0V | 00:00:00 | 00:00:00 | 00:00:00 | |
| OM5KV | 2026-09-01 05:12:47 | 48.57693 | 17.49458 | 104° | 47km/h | 3318m | 3.9m/s | 2.1°C | 0% | 0hPa | 0V | 00:00:00 | 00:00:00 | 00:00:00 | |
| OE3JTB-15 | 2026-09-01 05:12:46 | 48.57696 | 17.49441 | 104° | 44km/h | 3311m | 4.9m/s | 0°C | 0% | 0hPa | 0V | 00:00:00 | 00:00:00 | 00:00:00 | |
| OM5KV | 2026-09-01 05:12:43 | 48.57706 | 17.49391 | 105° | 42km/h | 3303m | 4.5m/s | 2.2°C | 0% | 0hPa | 0V | 00:00:00 | 00:00:00 | 00:00:00 | |
| OM5KV | 2026-09-01 05:12:41 | 48.57710 | 17.49360 | 102° | 42km/h | 3294m | 4.9m/s | 2.3°C | 0% | 0hPa | 0V | 00:00:00 | 00:00:00 | 00:00:00 | |
| ATIDSZ-14 | 2026-09-01 05:12:38 | 48.57720 | 17.49313 | 104° | 42km/h | 3283m | 3.6m/s | 2.3°C | 0% | 0hPa | 0V | 00:00:00 | 00:00:00 | 00:00:00 | |
| OM5KV | 2026-09-01 05:12:35 | 48.57722 | 17.49264 | 101° | 42km/h | 3274m | 2.8m/s | 2.5°C | 0% | 0hPa | 0V | 00:00:00 | 00:00:00 | 00:00:00 | |
| OM5KV | 2026-09-01 05:12:29 | 48.57743 | 17.49170 | 109° | 49km/h | 3252m | 1.8m/s | 2.6°C | 0% | 0hPa | 0V | 00:00:00 | 00:00:00 | 00:00:00 | |
| OM5KV | 2026-09-01 05:12:23 | 48.57765 | 17.49070 | 111° | 42km/h | 3230m | 3.4m/s | 2.7°C | 0% | 0hPa | 0V | 00:00:00 | 00:00:00 | 00:00:00 | |
| OM5KV | 2026-09-01 05:12:21 | 48.57772 | 17.49038 | 107° | 44km/h | 3220m | 4.7m/s | 2.8°C | 0% | 0hPa | 0V | 00:00:00 | 00:00:00 | 00:00:00 | |
| OM5KV | 2026-09-01 05:12:18 | 48.57784 | 17.48974 | 101° | 40km/h | 3206m | 2.0m/s | 2.8°C | 0% | 0hPa | 0V | 00:00:00 | 00:00:00 | 00:00:00 | |
| OE3JTB-15 | 2026-09-01 05:12:17 | 48.57784 | 17.48974 | 100° | 42km/h | 3203m | 4.9m/s | 0°C | 0% | 0hPa | 0V | 00:00:00 | 00:00:00 | 00:00:00 | |
| OM5KV | 2026-09-01 05:12:15 | 48.57788 | 17.48943 | 108° | 44km/h | 3199m | 4.3m/s | 2.8°C | 0% | 0hPa | 0V | 00:00:00 | 00:00:00 | 00:00:00 | |
| OM5KV | 2026-09-01 05:12:11 | 48.57803 | 17.48877 | 102° | 46km/h | 3186m | 3.6m/s | 2.7°C | 0% | 0hPa | 0V | 00:00:00 | 00:00:00 | 00:00:00 | |
| OM5KV | 2026-09-01 05:12:09 | 48.57807 | 17.48846 | 102° | 40km/h | 3181m | 5.8m/s | 2.7°C | 0% | 0hPa | 0V | 00:00:00 | 00:00:00 | 00:00:00 | |
| OM5KV | 2026-09-01 05:12:06 | 48.57816 | 17.48803 | 105° | 42km/h | 3169m | 3.1m/s | 2.7°C | 0% | 0hPa | 0V | 00:00:00 | 00:00:00 | 00:00:00 | |
| OM5KV | 2026-09-01 05:12:03 | 48.57823 | 17.48756 | 110° | 40km/h | 3159m | 2.7m/s | 2.8°C | 0% | 0hPa | 0V | 00:00:00 | 00:00:00 | 00:00:00 | |
| OM5KV | 2026-09-01 05:12:00 | 48.57831 | 17.48711 | 104° | 44km/h | 3149m | 3.4m/s | 2.9°C | 0% | 0hPa | 0V | 00:00:00 | 00:00:00 | 00:00:00 | |
| ATIDSZ-14 | 2026-09-01 05:11:57 | 48.57840 | 17.48661 | 104° | 44km/h | 3139m | 4.3m/s | 3.0°C | 0% | 0hPa | 0V | 00:00:00 | 00:00:00 | 00:00:00 | |
| OM5KV | 2026-09-01 05:11:56 | 48.57842 | 17.48645 | 103° | 42km/h | 3135m | 3.4m/s | 3.0°C | 0% | 0hPa | 0V | 00:00:00 | 00:00:00 | 00:00:00 | |
| OM5KV | 2026-09-01 05:11:54 | 48.57847 | 17.48614 | 107° | 44km/h | 3127m | 3.4m/s | 3.0°C | 0% | 0hPa | 0V | 00:00:00 | 00:00:00 | 00:00:00 | |
| OM5KV | 2026-09-01 05:11:51 | 48.57859 | 17.48574 | 114° | 38km/h | 3118m | 2.6m/s | 3.1°C | 0% | 0hPa | 0V | 00:00:00 | 00:00:00 | 00:00:00 | |
| OE3JTB-15 | 2026-09-01 05:11:48 | 48.57868 | 17.48528 | 105° | 40km/h | 3107m | 2.2m/s | 0°C | 0% | 0hPa | 0V | 00:00:00 | 00:00:00 | 00:00:00 | |
| OM5KV | 2026-09-01 05:11:47 | 48.57870 | 17.48511 | 101° | 44km/h | 3107m | 2.3m/s | 3.2°C | 0% | 0hPa | 0V | 00:00:00 | 00:00:00 | 00:00:00 | |
| OM5KV | 2026-09-01 05:11:45 | 48.57873 | 17.48483 | 106° | 31km/h | 3101m | 2.4m/s | 3.2°C | 0% | 0hPa | 0V | 00:00:00 | 00:00:00 | 00:00:00 | |
| OM5KV | 2026-09-01 05:11:41 | 48.57887 | 17.48427 | 104° | 46km/h | 3090m | 3.8m/s | 3.2°C | 0% | 0hPa | 0V | 00:00:00 | 00:00:00 | 00:00:00 | |
| OM5KV | 2026-09-01 05:11:40 | 48.57890 | 17.48410 | 108° | 46km/h | 3087m | 2.5m/s | 3.3°C | 0% | 0hPa | 0V | 00:00:00 | 00:00:00 | 00:00:00 | |
| ATIDSZ-14 | 2026-09-01 05:11:36 | 48.57905 | 17.48353 | 119° | 33km/h | 3075m | 2.7m/s | 3.3°C | 0% | 0hPa | 0V | 00:00:00 | 00:00:00 | 00:00:00 | |
| OM5KV | 2026-09-01 05:11:34 | 48.57911 | 17.48327 | 109° | 40km/h | 3069m | 2.6m/s | 3.4°C | 0% | 0hPa | 0V | 00:00:00 | 00:00:00 | 00:00:00 | |
| OM5KV | 2026-09-01 05:11:29 | 48.57930 | 17.48250 | 108° | 42km/h | 3054m | 3.4m/s | 3.3°C | 0% | 0hPa | 0V | 00:00:00 | 00:00:00 | 00:00:00 | |
| OM5KV | 2026-09-01 05:11:23 | 48.57954 | 17.48169 | 117° | 42km/h | 3039m | 1.5m/s | 3.3°C | 0% | 0hPa | 0V | 00:00:00 | 00:00:00 | 00:00:00 | |
| OE3JTB-15 | 2026-09-01 05:11:19 | 48.57974 | 17.48109 | 120° | 46km/h | 3026m | 1.7m/s | 0°C | 0% | 0hPa | 0V | 00:00:00 | 00:00:00 | 00:00:00 | |
| OM5KV | 2026-09-01 05:11:18 | 48.57980 | 17.48095 | 121° | 42km/h | 3026m | 1.8m/s | 3.2°C | 0% | 0hPa | 0V | 00:00:00 | 00:00:00 | 00:00:00 | |
| OM5KV | 2026-09-01 05:11:17 | 48.57984 | 17.48081 | 121° | 42km/h | 3024m | 2.4m/s | 3.2°C | 0% | 0hPa | 0V | 00:00:00 | 00:00:00 | 00:00:00 | |
| ATIDSZ-14 | 2026-09-01 05:11:15 | 48.57995 | 17.48051 | 114° | 44km/h | 3019m | 2.5m/s | 3.2°C | 0% | 0hPa | 0V | 00:00:00 | 00:00:00 | 00:00:00 | |
| OM5KV | 2026-09-01 05:11:12 | 48.58008 | 17.48001 | 110° | 49km/h | 3012m | 3.0m/s | 3.2°C | 0% | 0hPa | 0V | 00:00:00 | 00:00:00 | 00:00:00 | |
| OM5KV | 2026-09-01 05:11:06 | 48.58037 | 17.47911 | 117° | 44km/h | 2998m | 2.8m/s | 3.3°C | 0% | 0hPa | 0V | 00:00:00 | 00:00:00 | 00:00:00 | |
| OM5KV | 2026-09-01 05:11:00 | 48.58064 | 17.47813 | 121° | 42km/h | 2984m | 1.4m/s | 3.3°C | 0% | 0hPa | 0V | 00:00:00 | 00:00:00 | 00:00:00 | |
| ATIDSZ-14 | 2026-09-01 05:10:55 | 48.58089 | 17.47733 | 108° | 46km/h | 2967m | 3.2m/s | 3.4°C | 0% | 0hPa | 0V | 00:00:00 | 00:00:00 | 00:00:00 | |
| S52SK | 2026-09-01 05:10:54 | 48.58093 | 17.47717 | 115° | 49km/h | 2965m | 0.7m/s | 3.4°C | 0% | 0hPa | 0V | 00:00:00 | 00:00:00 | 00:00:00 | |
| OE3JTB-15 | 2026-09-01 05:10:50 | 48.58113 | 17.47648 | 114° | 46km/h | 2952m | 3.3m/s | 0°C | 0% | 0hPa | 0V | 00:00:00 | 00:00:00 | 00:00:00 | |
| OM5KV | 2026-09-01 05:10:49 | 48.58117 | 17.47629 | 112° | 51km/h | 2949m | 2.1m/s | 3.5°C | 0% | 0hPa | 0V | 00:00:00 | 00:00:00 | 00:00:00 | |
| OM5KV | 2026-09-01 05:10:44 | 48.58133 | 17.47549 | 109° | 46km/h | 2941m | 2.0m/s | 3.6°C | 0% | 0hPa | 0V | 00:00:00 | 00:00:00 | 00:00:00 | |
| OM5KV | 2026-09-01 05:10:38 | 48.58158 | 17.47445 | 104° | 55km/h | 2919m | 2.7m/s | 3.7°C | 0% | 0hPa | 0V | 00:00:00 | 00:00:00 | 00:00:00 | |
| ATIDSZ-14 | 2026-09-01 05:10:34 | 48.58171 | 17.47382 | 114° | 44km/h | 2907m | 2.8m/s | 3.8°C | 0% | 0hPa | 0V | 00:00:00 | 00:00:00 | 00:00:00 | |
| OM5KV | 2026-09-01 05:10:33 | 48.58175 | 17.47367 | 113° | 42km/h | 2904m | 3.4m/s | 3.8°C | 0% | 0hPa | 0V | 00:00:00 | 00:00:00 | 00:00:00 | |
| OM5KV | 2026-09-01 05:10:28 | 48.58199 | 17.47259 | 111° | 44km/h | 2888m | 1.4m/s | 3.9°C | 0% | 0hPa | 0V | 00:00:00 | 00:00:00 | 00:00:00 | |
| OE3JTB-15 | 2026-09-01 05:10:21 | 48.58218 | 17.47162 | 104° | 49km/h | 2864m | 3.3m/s | 0°C | 0% | 0hPa | 0V | 00:00:00 | 00:00:00 | 00:00:00 | |
| OM5KV | 2026-09-01 05:10:16 | 48.58236 | 17.47074 | 104° | 46km/h | 2853m | 1.5m/s | 4.1°C | 0% | 0hPa | 0V | 00:00:00 | 00:00:00 | 00:00:00 | |
| OM5KV | 2026-09-01 05:10:04 | 48.58268 | 17.46857 | 102° | 42km/h | 2821m | 2.3m/s | 4.3°C | 0% | 0hPa | 0V | 00:00:00 | 00:00:00 | 00:00:00 | |
| OM5KV | 2026-09-01 05:09:59 | 48.58284 | 17.46768 | 106° | 53km/h | 2807m | 3.2m/s | 4.4°C | 0% | 0hPa | 0V | 00:00:00 | 00:00:00 | 00:00:00 | |
| ATIDSZ-14 | 2026-09-01 05:09:53 | 48.58306 | 17.46660 | 105° | 57km/h | 2792m | 3.5m/s | 4.5°C | 0% | 0hPa | 0V | 00:00:00 | 00:00:00 | 00:00:00 | |
| OE3JTB-15 | 2026-09-01 05:09:52 | 48.58309 | 17.46640 | 97° | 49km/h | 2789m | 1.9m/s | 0°C | 0% | 0hPa | 0V | 00:00:00 | 00:00:00 | 00:00:00 | |
| OM5KV | 2026-09-01 05:09:51 | 48.58310 | 17.46621 | 96° | 46km/h | 2786m | 3.7m/s | 4.5°C | 0% | 0hPa | 0V | 00:00:00 | 00:00:00 | 00:00:00 | |
| OM5KV | 2026-09-01 05:09:47 | 48.58325 | 17.46557 | 114° | 49km/h | 2775m | 3.5m/s | 4.6°C | 0% | 0hPa | 0V | 00:00:00 | 00:00:00 | 00:00:00 | |
| OM5KV | 2026-09-01 05:09:46 | 48.58330 | 17.46539 | 105° | 51km/h | 2772m | 2.6m/s | 4.6°C | 0% | 0hPa | 0V | 00:00:00 | 00:00:00 | 00:00:00 | |
| OM5KV | 2026-09-01 05:09:41 | 48.58345 | 17.46445 | 111° | 51km/h | 2758m | 2.1m/s | 4.7°C | 0% | 0hPa | 0V | 00:00:00 | 00:00:00 | 00:00:00 | |
| OM5KV | 2026-09-01 05:09:40 | 48.58349 | 17.46427 | 113° | 49km/h | 2756m | 3.3m/s | 4.7°C | 0% | 0hPa | 0V | 00:00:00 | 00:00:00 | 00:00:00 | |
| OM5KV | 2026-09-01 05:09:28 | 48.58401 | 17.46217 | 109° | 46km/h | 2724m | 2.7m/s | 4.6°C | 0% | 0hPa | 0V | 00:00:00 | 00:00:00 | 00:00:00 | |
| OM5KV | 2026-09-01 05:09:27 | 48.58405 | 17.46200 | 114° | 46km/h | 2722m | 2.8m/s | 4.6°C | 0% | 0hPa | 0V | 00:00:00 | 00:00:00 | 00:00:00 | |
| OE3JTB-15 | 2026-09-01 05:09:23 | 48.58420 | 17.46130 | 107° | 53km/h | 2707m | 2.8m/s | 0°C | 0% | 0hPa | 0V | 00:00:00 | 00:00:00 | 00:00:00 | |
| OM5KV | 2026-09-01 05:09:22 | 48.58424 | 17.46110 | 110° | 53km/h | 2707m | 2.9m/s | 4.6°C | 0% | 0hPa | 0V | 00:00:00 | 00:00:00 | 00:00:00 | |
| OM5KV | 2026-09-01 05:09:21 | 48.58429 | 17.46091 | 109° | 51km/h | 2704m | 2.3m/s | 4.6°C | 0% | 0hPa | 0V | 00:00:00 | 00:00:00 | 00:00:00 | |
| OM5KV | 2026-09-01 05:09:16 | 48.58452 | 17.46001 | 109° | 53km/h | 2691m | 3.5m/s | 4.6°C | 0% | 0hPa | 0V | 00:00:00 | 00:00:00 | 00:00:00 | |
| OM5KV | 2026-09-01 05:09:15 | 48.58457 | 17.45981 | 112° | 55km/h | 2688m | 1.8m/s | 4.6°C | 0% | 0hPa | 0V | 00:00:00 | 00:00:00 | 00:00:00 | |
| ATIDSZ-14 | 2026-09-01 05:09:12 | 48.58470 | 17.45925 | 108° | 55km/h | 2680m | 2.4m/s | 4.5°C | 0% | 0hPa | 0V | 00:00:00 | 00:00:00 | 00:00:00 | |
| OM5KV | 2026-09-01 05:09:10 | 48.58478 | 17.45886 | 112° | 49km/h | 2675m | 1.7m/s | 4.5°C | 0% | 0hPa | 0V | 00:00:00 | 00:00:00 | 00:00:00 | |
| OM5KV | 2026-09-01 05:09:09 | 48.58483 | 17.45868 | 115° | 51km/h | 2672m | 3.0m/s | 4.5°C | 0% | 0hPa | 0V | 00:00:00 | 00:00:00 | 00:00:00 | |
| OM5KV | 2026-09-01 05:08:58 | 48.58542 | 17.45663 | 118° | 55km/h | 2643m | 3.0m/s | 4.2°C | 0% | 0hPa | 0V | 00:00:00 | 00:00:00 | 00:00:00 | |
| OM5KV | 2026-09-01 05:08:57 | 48.58547 | 17.45644 | 113° | 57km/h | 2640m | 2.3m/s | 4.2°C | 0% | 0hPa | 0V | 00:00:00 | 00:00:00 | 00:00:00 | |
| OE3JTB-15 | 2026-09-01 05:08:54 | 48.58564 | 17.45582 | 114° | 58km/h | 2631m | 3.1m/s | 0°C | 0% | 0hPa | 0V | 00:00:00 | 00:00:00 | 00:00:00 | |
| ATIDSZ-14 | 2026-09-01 05:08:52 | 48.58576 | 17.45543 | 119° | 57km/h | 2626m | 2.0m/s | 4.0°C | 0% | 0hPa | 0V | 00:00:00 | 00:00:00 | 00:00:00 | |
| OM5KV | 2026-09-01 05:08:51 | 48.58583 | 17.45524 | 118° | 55km/h | 2623m | 3.3m/s | 4.0°C | 0% | 0hPa | 0V | 00:00:00 | 00:00:00 | 00:00:00 | |
| OM5KV | 2026-09-01 05:08:46 | 48.58612 | 17.45424 | 113° | 58km/h | 2609m | 2.2m/s | 3.8°C | 0% | 0hPa | 0V | 00:00:00 | 00:00:00 | 00:00:00 | |
| OM5KV | 2026-09-01 05:08:45 | 48.58619 | 17.45403 | 116° | 62km/h | 2607m | 2.5m/s | 3.8°C | 0% | 0hPa | 0V | 00:00:00 | 00:00:00 | 00:00:00 | |
| OM5KV | 2026-09-01 05:08:40 | 48.58651 | 17.45301 | 115° | 58km/h | 2593m | 1.5m/s | 3.8°C | 0% | 0hPa | 0V | 00:00:00 | 00:00:00 | 00:00:00 | |
| OM5KV | 2026-09-01 05:08:39 | 48.58657 | 17.45280 | 116° | 58km/h | 2590m | 4.0m/s | 3.7°C | 0% | 0hPa | 0V | 00:00:00 | 00:00:00 | 00:00:00 | |
| ATIDSZ-14 | 2026-09-01 05:08:31 | 48.58705 | 17.45116 | 114° | 53km/h | 2569m | 2.6m/s | 3.6°C | 0% | 0hPa | 0V | 00:00:00 | 00:00:00 | 00:00:00 | |
| OE3JTB-15 | 2026-09-01 05:08:25 | 48.58744 | 17.45000 | 118° | 58km/h | 2548m | 3.4m/s | 0°C | 0% | 0hPa | 0V | 00:00:00 | 00:00:00 | 00:00:00 | |
| OM5KV | 2026-09-01 05:08:14 | 48.58821 | 17.44785 | 121° | 57km/h | 2519m | 3.9m/s | 3.8°C | 0% | 0hPa | 0V | 00:00:00 | 00:00:00 | 00:00:00 | |
| OM5KV | 2026-09-01 05:08:11 | 48.58843 | 17.44725 | 116° | 55km/h | 2509m | 3.3m/s | 3.9°C | 0% | 0hPa | 0V | 00:00:00 | 00:00:00 | 00:00:00 | |
| OM5KV | 2026-09-01 05:08:09 | 48.58853 | 17.44687 | 116° | 51km/h | 2504m | 2.3m/s | 3.9°C | 0% | 0hPa | 0V | 00:00:00 | 00:00:00 | 00:00:00 | |
| OM5KV | 2026-09-01 05:08:05 | 48.58884 | 17.44604 | 115° | 66km/h | 2492m | 1.9m/s | 4.0°C | 0% | 0hPa | 0V | 00:00:00 | 00:00:00 | 00:00:00 | |
| OM5KV | 2026-09-01 05:08:03 | 48.58896 | 17.44560 | 114° | 55km/h | 2486m | 3.7m/s | 4.0°C | 0% | 0hPa | 0V | 00:00:00 | 00:00:00 | 00:00:00 | |
| OM5KV | 2026-09-01 05:07:59 | 48.58923 | 17.44492 | 126° | 60km/h | 2472m | 5.2m/s | 4.2°C | 0% | 0hPa | 0V | 00:00:00 | 00:00:00 | 00:00:00 | |
| OM5KV | 2026-09-01 05:07:57 | 48.58938 | 17.44454 | 117° | 57km/h | 2464m | 3.0m/s | 4.2°C | 0% | 0hPa | 0V | 00:00:00 | 00:00:00 | 00:00:00 | |
| OE3JTB-15 | 2026-09-01 05:07:56 | 48.58945 | 17.44434 | 113° | 58km/h | 2460m | 3.8m/s | 0°C | 0% | 0hPa | 0V | 00:00:00 | 00:00:00 | 00:00:00 | |
| ATIDSZ-14 | 2026-09-01 05:07:50 | 48.58985 | 17.44317 | 122° | 51km/h | 2440m | 3.8m/s | 4.3°C | 0% | 0hPa | 0V | 00:00:00 | 00:00:00 | 00:00:00 | |
| OM5KV | 2026-09-01 05:07:48 | 48.58997 | 17.44283 | 118° | 51km/h | 2434m | 3.5m/s | 4.4°C | 0% | 0hPa | 0V | 00:00:00 | 00:00:00 | 00:00:00 | |
| OM5KV | 2026-09-01 05:07:37 | 48.59069 | 17.44064 | 120° | 58km/h | 2396m | 2.5m/s | 4.7°C | 0% | 0hPa | 0V | 00:00:00 | 00:00:00 | 00:00:00 | |
| OM5KV | 2026-09-01 05:07:34 | 48.59090 | 17.44004 | 117° | 58km/h | 2386m | 4.3m/s | 4.8°C | 0% | 0hPa | 0V | 00:00:00 | 00:00:00 | 00:00:00 | |
| ATIDSZ-14 | 2026-09-01 05:07:30 | 48.59116 | 17.43924 | 122° | 60km/h | 2372m | 3.5m/s | 4.8°C | 0% | 0hPa | 0V | 00:00:00 | 00:00:00 | 00:00:00 | |
| OM5KV | 2026-09-01 05:07:28 | 48.59131 | 17.43884 | 118° | 58km/h | 2365m | 2.1m/s | 4.9°C | 0% | 0hPa | 0V | 00:00:00 | 00:00:00 | 00:00:00 | |
| OE3JTB-15 | 2026-09-01 05:07:27 | 48.59137 | 17.43864 | 114° | 60km/h | 2359m | 4.2m/s | 0°C | 0% | 0hPa | 0V | 00:00:00 | 00:00:00 | 00:00:00 | |
| OM5KV | 2026-09-01 05:07:17 | 48.59203 | 17.43655 | 114° | 57km/h | 2321m | 4.8m/s | 5.2°C | 0% | 0hPa | 0V | 00:00:00 | 00:00:00 | 00:00:00 | |
| OM5KV | 2026-09-01 05:07:15 | 48.59215 | 17.43616 | 118° | 60km/h | 2312m | 5.0m/s | 5.3°C | 0% | 0hPa | 0V | 00:00:00 | 00:00:00 | 00:00:00 | |
| OM5KV | 2026-09-01 05:07:12 | 48.59245 | 17.43527 | 113° | 58km/h | 2296m | 2.4m/s | 5.5°C | 0% | 0hPa | 0V | 00:00:00 | 00:00:00 | 00:00:00 | |
| ATIDSZ-14 | 2026-09-01 05:07:09 | 48.59258 | 17.43489 | 120° | 57km/h | 2289m | 2.5m/s | 5.5°C | 0% | 0hPa | 0V | 00:00:00 | 00:00:00 | 00:00:00 | |
| OM5KV | 2026-09-01 05:07:05 | 48.59286 | 17.43407 | 120° | 69km/h | 2277m | 2.5m/s | 5.6°C | 0% | 0hPa | 0V | 00:00:00 | 00:00:00 | 00:00:00 | |
| OM5KV | 2026-09-01 05:07:03 | 48.59301 | 17.43363 | 114° | 58km/h | 2269m | 3.1m/s | 5.8°C | 0% | 0hPa | 0V | 00:00:00 | 00:00:00 | 00:00:00 | |
| OM5KV | 2026-09-01 05:06:59 | 48.59323 | 17.43284 | 120° | 58km/h | 2252m | 5.3m/s | 5.8°C | 0% | 0hPa | 0V | 00:00:00 | 00:00:00 | 00:00:00 | |
| OE3JTB-15 | 2026-09-01 05:06:57 | 48.59338 | 17.43243 | 115° | 57km/h | 2240m | 3.8m/s | 0°C | 0% | 0hPa | 0V | 00:00:00 | 00:00:00 | 00:00:00 | |
| OM5KV | 2026-09-01 05:06:53 | 48.59362 | 17.43161 | 115° | 53km/h | 2227m | 4.3m/s | 6.0°C | 0% | 0hPa | 0V | 00:00:00 | 00:00:00 | 00:00:00 | |
| OM5KV | 2026-09-01 05:06:51 | 48.59374 | 17.43123 | 121° | 58km/h | 2219m | 3.0m/s | 6.1°C | 0% | 0hPa | 0V | 00:00:00 | 00:00:00 | 00:00:00 | |
| ATIDSZ-14 | 2026-09-01 05:06:49 | 48.59388 | 17.43083 | 113° | 60km/h | 2210m | 4.1m/s | 6.1°C | 0% | 0hPa | 0V | 00:00:00 | 00:00:00 | 00:00:00 | |
| OM5KV | 2026-09-01 05:06:47 | 48.59399 | 17.43040 | 113° | 58km/h | 2202m | 5.1m/s | 6.2°C | 0% | 0hPa | 0V | 00:00:00 | 00:00:00 | 00:00:00 | |
| OM5KV | 2026-09-01 05:06:45 | 48.59410 | 17.43002 | 115° | 51km/h | 2194m | 4.3m/s | 6.2°C | 0% | 0hPa | 0V | 00:00:00 | 00:00:00 | 00:00:00 | |
| OM5KV | 2026-09-01 05:06:41 | 48.59431 | 17.42927 | 121° | 57km/h | 2181m | 2.6m/s | 6.2°C | 0% | 0hPa | 0V | 00:00:00 | 00:00:00 | 00:00:00 | |
| OM5KV | 2026-09-01 05:06:40 | 48.59443 | 17.42887 | 110° | 57km/h | 2173m | 4.3m/s | 6.2°C | 0% | 0hPa | 0V | 00:00:00 | 00:00:00 | 00:00:00 | |
| OM5KV | 2026-09-01 05:06:35 | 48.59460 | 17.42811 | 118° | 49km/h | 2156m | 2.9m/s | 6.4°C | 0% | 0hPa | 0V | 00:00:00 | 00:00:00 | 00:00:00 | |
| OM5KV | 2026-09-01 05:06:34 | 48.59466 | 17.42793 | 115° | 51km/h | 2153m | 3.2m/s | 6.4°C | 0% | 0hPa | 0V | 00:00:00 | 00:00:00 | 00:00:00 | |
| OM5KV | 2026-09-01 05:06:30 | 48.59488 | 17.42716 | 119° | 58km/h | 2141m | 2.3m/s | 6.5°C | 0% | 0hPa | 0V | 00:00:00 | 00:00:00 | 00:00:00 | |
| OE3JTB-15 | 2026-09-01 05:06:28 | 48.59501 | 17.42679 | 117° | 55km/h | 2131m | 3.9m/s | 0°C | 0% | 0hPa | 0V | 00:00:00 | 00:00:00 | 00:00:00 | |
| OM5KV | 2026-09-01 05:06:24 | 48.59523 | 17.42603 | 115° | 58km/h | 2120m | 3.8m/s | 6.6°C | 0% | 0hPa | 0V | 00:00:00 | 00:00:00 | 00:00:00 | |
| OM5KV | 2026-09-01 05:06:22 | 48.59535 | 17.42561 | 113° | 58km/h | 2113m | 3.7m/s | 6.6°C | 0% | 0hPa | 0V | 00:00:00 | 00:00:00 | 00:00:00 | |
| OM5KV | 2026-09-01 05:06:18 | 48.59556 | 17.42489 | 113° | 55km/h | 2099m | 3.7m/s | 6.6°C | 0% | 0hPa | 0V | 00:00:00 | 00:00:00 | 00:00:00 | |
| OM5KV | 2026-09-01 05:06:17 | 48.59562 | 17.42469 | 112° | 57km/h | 2096m | 4.5m/s | 6.7°C | 0% | 0hPa | 0V | 00:00:00 | 00:00:00 | 00:00:00 | |
| OM5KV | 2026-09-01 05:06:11 | 48.59595 | 17.42352 | 119° | 53km/h | 2069m | 4.6m/s | 6.8°C | 0% | 0hPa | 0V | 00:00:00 | 00:00:00 | 00:00:00 | |
| ATIDSZ-14 | 2026-09-01 05:06:08 | 48.59611 | 17.42298 | 115° | 51km/h | 2057m | 4.9m/s | 7.0°C | 0% | 0hPa | 0V | 00:00:00 | 00:00:00 | 00:00:00 | |
| OM5KV | 2026-09-01 05:06:06 | 48.59624 | 17.42261 | 119° | 57km/h | 2049m | 5.2m/s | 7.0°C | 0% | 0hPa | 0V | 00:00:00 | 00:00:00 | 00:00:00 | |
| OM5KV | 2026-09-01 05:06:00 | 48.59659 | 17.42144 | 120° | 53km/h | 2026m | 3.1m/s | 7.1°C | 0% | 0hPa | 0V | 00:00:00 | 00:00:00 | 00:00:00 | |
| OE3JTB-15 | 2026-09-01 05:05:59 | 48.59666 | 17.42126 | 120° | 57km/h | 2020m | 2.7m/s | 0°C | 0% | 0hPa | 0V | 00:00:00 | 00:00:00 | 00:00:00 | |
| OM5KV | 2026-09-01 05:05:54 | 48.59695 | 17.42024 | 110° | 53km/h | 2007m | 2.4m/s | 7.2°C | 0% | 0hPa | 0V | 00:00:00 | 00:00:00 | 00:00:00 | |
| OM5KV | 2026-09-01 05:05:49 | 48.59724 | 17.41931 | 112° | 62km/h | 1989m | 2.9m/s | 7.3°C | 0% | 0hPa | 0V | 00:00:00 | 00:00:00 | 00:00:00 | |
| ATIDSZ-14 | 2026-09-01 05:05:47 | 48.59735 | 17.41888 | 112° | 57km/h | 1981m | 4.4m/s | 7.4°C | 0% | 0hPa | 0V | 00:00:00 | 00:00:00 | 00:00:00 | |
| OM5KV | 2026-09-01 05:05:44 | 48.59759 | 17.41810 | 123° | 57km/h | 1961m | 5.4m/s | 7.4°C | 0% | 0hPa | 0V | 00:00:00 | 00:00:00 | 00:00:00 | |
| OM5KV | 2026-09-01 05:05:37 | 48.59793 | 17.41684 | 108° | 57km/h | 1934m | 4.2m/s | 7.5°C | 0% | 0hPa | 0V | 00:00:00 | 00:00:00 | 00:00:00 | |
| OM5KV | 2026-09-01 05:05:37 | 48.59793 | 17.41684 | 108° | 57km/h | 1934m | 4.2m/s | 7.5°C | 0% | 0hPa | 0V | 00:00:00 | 00:00:00 | 00:00:00 | |
| OM5KV | 2026-09-01 05:05:31 | 48.59834 | 17.41567 | 115° | 51km/h | 1907m | 4.6m/s | 7.6°C | 0% | 0hPa | 0V | 00:00:00 | 00:00:00 | 00:00:00 | |
| OM5KV | 2026-09-01 05:05:31 | 48.59839 | 17.41549 | 115° | 53km/h | 1902m | 4.0m/s | 7.6°C | 0% | 0hPa | 0V | 00:00:00 | 00:00:00 | 00:00:00 | |
| OE3JTB-15 | 2026-09-01 05:05:30 | 48.59839 | 17.41549 | 114° | 55km/h | 1899m | 2.3m/s | 0°C | 0% | 0hPa | 0V | 00:00:00 | 00:00:00 | 00:00:00 | |
| OM5KV | 2026-09-01 05:05:25 | 48.59871 | 17.41451 | 118° | 58km/h | 1883m | 2.8m/s | 7.8°C | 0% | 0hPa | 0V | 00:00:00 | 00:00:00 | 00:00:00 | |
| OM5KV | 2026-09-01 05:05:24 | 48.59878 | 17.41431 | 117° | 57km/h | 1880m | 4.0m/s | 7.8°C | 0% | 0hPa | 0V | 00:00:00 | 00:00:00 | 00:00:00 | |
| OM5KV | 2026-09-01 05:05:19 | 48.59908 | 17.41336 | 124° | 55km/h | 1859m | 3.3m/s | 8.0°C | 0% | 0hPa | 0V | 00:00:00 | 00:00:00 | 00:00:00 | |
| OM5KV | 2026-09-01 05:05:18 | 48.59916 | 17.41318 | 120° | 57km/h | 1855m | 5.3m/s | 8.0°C | 0% | 0hPa | 0V | 00:00:00 | 00:00:00 | 00:00:00 | |
| OM5KV | 2026-09-01 05:05:13 | 48.59947 | 17.41219 | 120° | 64km/h | 1832m | 3.8m/s | 8.1°C | 0% | 0hPa | 0V | 00:00:00 | 00:00:00 | 00:00:00 | |
| OM5KV | 2026-09-01 05:05:07 | 48.59987 | 17.41113 | 128° | 51km/h | 1810m | 4.5m/s | 8.4°C | 0% | 0hPa | 0V | 00:00:00 | 00:00:00 | 00:00:00 | |
| OM5KV | 2026-09-01 05:05:06 | 48.59995 | 17.41098 | 127° | 49km/h | 1806m | 3.0m/s | 8.4°C | 0% | 0hPa | 0V | 00:00:00 | 00:00:00 | 00:00:00 | |
| ATIDSZ-14 | 2026-09-01 05:05:04 | 48.60008 | 17.41063 | 115° | 57km/h | 1800m | 2.8m/s | 8.5°C | 0% | 0hPa | 0V | 00:00:00 | 00:00:00 | 00:00:00 | |
| OM5KV | 2026-09-01 05:05:01 | 48.60025 | 17.41007 | 117° | 49km/h | 1788m | 5.1m/s | 8.6°C | 0% | 0hPa | 0V | 00:00:00 | 00:00:00 | 00:00:00 | |
| OE3JTB-15 | 2026-09-01 05:05:01 | 48.60025 | 17.41007 | 116° | 49km/h | 1788m | 5.1m/s | 0°C | 0% | 0hPa | 0V | 00:00:00 | 00:00:00 | 00:00:00 | |
| OM5KV | 2026-09-01 05:05:01 | 48.60030 | 17.40990 | 116° | 49km/h | 1782m | 6.2m/s | 8.6°C | 0% | 0hPa | 0V | 00:00:00 | 00:00:00 | 00:00:00 | |
| OM5KV | 2026-09-01 05:04:55 | 48.60061 | 17.40902 | 120° | 53km/h | 1759m | 5.5m/s | 8.7°C | 0% | 0hPa | 0V | 00:00:00 | 00:00:00 | 00:00:00 | |
| OM5KV | 2026-09-01 05:04:49 | 48.60090 | 17.40799 | 120° | 49km/h | 1732m | 5.4m/s | 8.8°C | 0% | 0hPa | 0V | 00:00:00 | 00:00:00 | 00:00:00 | |
| OM5KV | 2026-09-01 05:04:43 | 48.60124 | 17.40693 | 118° | 42km/h | 1707m | 3.2m/s | 8.8°C | 0% | 0hPa | 0V | 00:00:00 | 00:00:00 | 00:00:00 | |
| ATIDSZ-14 | 2026-09-01 05:04:42 | 48.60129 | 17.40678 | 112° | 40km/h | 1703m | 4.9m/s | 8.8°C | 0% | 0hPa | 0V | 00:00:00 | 00:00:00 | 00:00:00 | |
| OM5KV | 2026-09-01 05:04:39 | 48.60147 | 17.40614 | 128° | 51km/h | 1687m | 4.5m/s | 9.0°C | 0% | 0hPa | 0V | 00:00:00 | 00:00:00 | 00:00:00 | |
| OM5KV | 2026-09-01 05:04:38 | 48.60147 | 17.40614 | 128° | 51km/h | 1687m | 4.5m/s | 9.0°C | 0% | 0hPa | 0V | 00:00:00 | 00:00:00 | 00:00:00 | |
| OM5KV | 2026-09-01 05:04:32 | 48.60186 | 17.40517 | 129° | 49km/h | 1661m | 4.7m/s | 9.2°C | 0% | 0hPa | 0V | 00:00:00 | 00:00:00 | 00:00:00 | |
| OE3JTB-15 | 2026-09-01 05:04:32 | 48.60186 | 17.40517 | 128° | 55km/h | 1657m | 4.3m/s | 0°C | 0% | 0hPa | 0V | 00:00:00 | 00:00:00 | 00:00:00 | |
| OM5KV | 2026-09-01 05:04:27 | 48.60218 | 17.40429 | 120° | 49km/h | 1639m | 4.7m/s | 9.4°C | 0% | 0hPa | 0V | 00:00:00 | 00:00:00 | 00:00:00 | |
| ATIDSZ-14 | 2026-09-01 05:04:21 | 48.60259 | 17.40325 | 124° | 55km/h | 1615m | 3.3m/s | 9.6°C | 0% | 0hPa | 0V | 00:00:00 | 00:00:00 | 00:00:00 | |
| OM5KV | 2026-09-01 05:04:15 | 48.60303 | 17.40224 | 116° | 53km/h | 1590m | 4.2m/s | 9.7°C | 0% | 0hPa | 0V | 00:00:00 | 00:00:00 | 00:00:00 | |
| OM5KV | 2026-09-01 05:04:10 | 48.60342 | 17.40134 | 125° | 57km/h | 1570m | 2.6m/s | 9.7°C | 0% | 0hPa | 0V | 00:00:00 | 00:00:00 | 00:00:00 | |
| OM5KV | 2026-09-01 05:04:04 | 48.60389 | 17.40024 | 118° | 53km/h | 1544m | 4.4m/s | 9.9°C | 0% | 0hPa | 0V | 00:00:00 | 00:00:00 | 00:00:00 | |
| OE3JTB-15 | 2026-09-01 05:04:03 | 48.60395 | 17.40006 | 115° | 57km/h | 1538m | 6.9m/s | 0°C | 0% | 0hPa | 0V | 00:00:00 | 00:00:00 | 00:00:00 | |
| ATIDSZ-14 | 2026-09-01 05:04:00 | 48.60418 | 17.39952 | 131° | 60km/h | 1523m | 4.4m/s | 10.1°C | 0% | 0hPa | 0V | 00:00:00 | 00:00:00 | 00:00:00 | |
| OM5KV | 2026-09-01 05:03:59 | 48.60427 | 17.39934 | 126° | 58km/h | 1519m | 3.4m/s | 10.1°C | 0% | 0hPa | 0V | 00:00:00 | 00:00:00 | 00:00:00 | |
| OM5KV | 2026-09-01 05:03:53 | 48.60472 | 17.39823 | 128° | 58km/h | 1495m | 3.3m/s | 10.4°C | 0% | 0hPa | 0V | 00:00:00 | 00:00:00 | 00:00:00 | |
| OM5KV | 2026-09-01 05:03:47 | 48.60518 | 17.39715 | 124° | 53km/h | 1473m | 3.1m/s | 10.6°C | 0% | 0hPa | 0V | 00:00:00 | 00:00:00 | 00:00:00 | |
| OM5KV | 2026-09-01 05:03:42 | 48.60556 | 17.39625 | 126° | 53km/h | 1454m | 2.8m/s | 10.8°C | 0% | 0hPa | 0V | 00:00:00 | 00:00:00 | 00:00:00 | |
| ATIDSZ-14 | 2026-09-01 05:03:38 | 48.60590 | 17.39551 | 127° | 58km/h | 1440m | 2.8m/s | 0°C | 0% | 0hPa | 0V | 00:00:00 | 00:00:00 | 00:00:00 | |
| OM5KV | 2026-09-01 05:03:36 | 48.60606 | 17.39515 | 122° | 57km/h | 1432m | 4.1m/s | 11.0°C | 0% | 0hPa | 0V | 00:00:00 | 00:00:00 | 00:00:00 | |
| OE3JTB-15 | 2026-09-01 05:03:34 | 48.60622 | 17.39479 | 124° | 57km/h | 1422m | 3.2m/s | 0°C | 0% | 0hPa | 0V | 00:00:00 | 00:00:00 | 00:00:00 | |
| OM5KV | 2026-09-01 05:03:30 | 48.60653 | 17.39412 | 133° | 53km/h | 1412m | 3.0m/s | 11.1°C | 0% | 0hPa | 0V | 00:00:00 | 00:00:00 | 00:00:00 | |
| OE3JTB-15 | 2026-09-01 05:03:05 | 48.60862 | 17.38966 | 129° | 57km/h | 1324m | 2.1m/s | 0°C | 0% | 0hPa | 0V | 00:00:00 | 00:00:00 | 00:00:00 | |
| OE3JTB-15 | 2026-09-01 05:02:36 | 48.61100 | 17.38463 | 129° | 53km/h | 1205m | 3.3m/s | 0°C | 0% | 0hPa | 0V | 00:00:00 | 00:00:00 | 00:00:00 | |
| OE3JTB-15 | 2026-09-01 05:02:07 | 48.61373 | 17.38042 | 143° | 53km/h | 1086m | 4.9m/s | 0°C | 0% | 0hPa | 0V | 00:00:00 | 00:00:00 | 00:00:00 | |
| OE3OSB-13 | 2026-09-01 05:01:40 | 48.61643 | 17.37649 | 136° | 53km/h | 971m | 3.1m/s | 14.9°C | -1.0% | -1.0hPa | 0V | 00:00:00 | 00:00:00 | 00:00:00 | |
| OE3JTB-15 | 2026-09-01 05:01:38 | 48.61653 | 17.37636 | 143° | 55km/h | 965m | 3.7m/s | 0°C | 0% | 0hPa | 0V | 00:00:00 | 00:00:00 | 00:00:00 | |
| OE3JTB-15 | 2026-09-01 05:01:09 | 48.61942 | 17.37151 | 124° | 57km/h | 847m | 2.1m/s | 0°C | 0% | 0hPa | 0V | 00:00:00 | 00:00:00 | 00:00:00 | |
| OE3OSB-13 | 2026-09-01 05:01:09 | 48.61932 | 17.37171 | 129° | 64km/h | 855m | 3.0m/s | 15.8°C | -1.0% | -1.0hPa | 0V | 00:00:00 | 00:00:00 | 00:00:00 | |
| OE3JTB-15 | 2026-09-01 05:00:38 | 48.62231 | 17.36715 | 136° | 57km/h | 734m | 3.6m/s | 0°C | 0% | 0hPa | 0V | 00:00:00 | 00:00:00 | 00:00:00 |